# Wetter Temperatur Luftdruck Luftfeuchtigkeit Sichtweite Windgeschwindigkeit Windrichtung Zeit
1 Clouds 25 1013 78 10000 1 340 06:23 11.07.2020
2 Clouds 25 1013 78 10000 1.5 340 05:46 11.07.2020
3 Clouds 25 1013 78 10000 1.5 340 05:46 11.07.2020
4 Clouds 26 1013 78 10000 1.5 310 04:59 11.07.2020
5 Clouds 26 1013 78 10000 1.5 310 04:37 11.07.2020
6 Clouds 26 1013 78 10000 1.5 310 04:18 11.07.2020
7 Clouds 26 1012 83 10000 2.6 280 02:51 11.07.2020
8 Thunderstorm 27 1011 74 10000 1.5 340 01:53 11.07.2020
9 Thunderstorm 27 1011 74 10000 1.5 340 01:20 11.07.2020
10 Rain 27 1010 78 10000 1 60 00:41 11.07.2020
11 Rain 27 1010 78 10000 1 60 00:41 11.07.2020
12 Rain 27 1010 78 10000 1 60 00:22 11.07.2020
13 Rain 29 1010 79 10000 1 90 23:58 10.07.2020
14 Rain 29 1010 79 10000 1 90 23:58 10.07.2020
15 Rain 29 1010 79 10000 1 90 23:40 10.07.2020
16 Rain 29 1010 79 10000 1 90 23:20 10.07.2020
17 Clouds 30 1010 74 10000 1 120 22:47 10.07.2020
18 Clouds 30 1010 74 10000 1 120 22:23 10.07.2020
19 Clouds 30 1010 70 10000 1.5 130 21:59 10.07.2020
20 Clouds 30 1010 70 10000 1.5 130 21:38 10.07.2020
21 Clouds 30 1010 70 10000 1.5 130 21:19 10.07.2020
22 Clouds 31 1011 70 10000 1.5 100 20:43 10.07.2020
23 Clouds 31 1011 70 10000 1.5 100 20:24 10.07.2020
24 Clouds 31 1013 70 10000 1.5 110 19:59 10.07.2020
25 Clouds 31 1013 70 10000 1.5 110 19:40 10.07.2020
26 Clouds 31 1013 70 10000 1.5 110 19:21 10.07.2020
27 Clouds 29 1014 74 10000 1.5 180 18:42 10.07.2020
28 Clouds 29 1014 74 10000 1.5 180 18:22 10.07.2020
29 Clouds 28 1014 78 10000 1.5 170 17:59 10.07.2020
30 Clouds 28 1014 78 10000 1.5 170 17:40 10.07.2020
31 Clouds 28 1014 78 10000 1.5 170 17:21 10.07.2020
32 Clouds 27 1014 78 10000 0.5 180 16:44 10.07.2020
33 Clouds 27 1014 78 10000 0.5 180 16:21 10.07.2020
34 Drizzle 25 1014 88 10000 1.5 10 15:55 10.07.2020
35 Drizzle 25 1014 88 10000 1.5 10 15:37 10.07.2020
36 Drizzle 25 1014 88 10000 1.5 10 15:18 10.07.2020
37 Clouds 24 1014 94 10000 3.1 60 14:41 10.07.2020
38 Clouds 24 1014 94 10000 3.1 60 14:21 10.07.2020
39 Clouds 23 1013 94 10000 2.6 70 13:58 10.07.2020
40 Thunderstorm 23 1013 88 8000 3.1 70 13:39 10.07.2020
41 Thunderstorm 23 1013 94 6000 3.6 70 13:20 10.07.2020
42 Thunderstorm 23 1013 94 6000 3.6 70 12:56 10.07.2020
43 Thunderstorm 23 1013 94 6000 3.6 70 12:37 10.07.2020
44 Thunderstorm 23 1013 94 6000 3.6 70 12:19 10.07.2020
45 Thunderstorm 24 1013 88 4000 7.2 70 11:42 10.07.2020
46 Clouds 25 1012 88 10000 1 360 11:21 10.07.2020
47 Clear 25 1012 88 10000 1.5 10 10:57 10.07.2020
48 Clear 25 1012 88 10000 1 250 10:38 10.07.2020
49 Clear 25 1012 88 10000 1 250 10:19 10.07.2020
50 Clear 25 1012 88 10000 1 250 09:40 10.07.2020
51 Clear 25 1012 88 10000 1 250 09:22 10.07.2020
52 Clear 25 1012 88 10000 1.5 360 08:58 10.07.2020
53 Clear 25 1012 88 10000 1.5 360 08:40 10.07.2020
54 Clouds 25 1012 88 10000 1.5 360 08:22 10.07.2020
55 Clouds 26 1012 83 10000 1 360 07:44 10.07.2020
56 Clouds 26 1012 83 10000 1 360 07:23 10.07.2020
57 Clouds 26 1012 78 10000 1 360 06:54 10.07.2020
58 Clouds 26 1012 78 10000 1 360 06:32 10.07.2020
59 Clouds 26 1012 78 10000 1.5 30 05:20 10.07.2020
60 Clouds 27 1012 78 10000 1 30 03:43 10.07.2020
61 Clouds 26 1011 78 10000 1.5 80 02:53 10.07.2020
62 Clouds 26 1011 83 10000 1.5 300 01:53 10.07.2020
63 Clouds 27 1011 83 10000 1.5 300 00:53 10.07.2020
64 Clouds 28 1010 74 10000 1 190 00:22 10.07.2020
65 Clouds 29 1010 74 10000 1 110 23:55 09.07.2020
66 Clouds 29 1010 74 10000 1 110 23:37 09.07.2020
67 Clouds 29 1010 74 10000 1 110 23:18 09.07.2020
68 Rain 30 1010 62 10000 1.5 180 22:55 09.07.2020
69 Rain 30 1010 62 10000 1.5 180 22:37 09.07.2020
70 Rain 30 1010 62 10000 1.5 180 22:18 09.07.2020
71 Rain 31 1010 70 10000 3.6 120 21:39 09.07.2020
72 Rain 31 1010 70 10000 3.6 120 21:19 09.07.2020
73 Rain 32 1011 66 10000 2.1 90 20:58 09.07.2020
74 Rain 32 1011 66 10000 2.1 90 20:39 09.07.2020
75 Rain 32 1011 66 10000 2.1 90 20:21 09.07.2020
76 Rain 31 1012 66 10000 2.1 200 19:43 09.07.2020
77 Rain 31 1012 66 10000 2.1 200 19:21 09.07.2020
78 Clouds 31 1013 70 10000 1.5 180 18:56 09.07.2020
79 Clouds 31 1013 70 10000 1.5 180 18:38 09.07.2020
80 Clouds 30 1014 70 10000 2.1 150 18:18 09.07.2020
81 Clouds 30 1014 70 10000 2.1 150 17:42 09.07.2020
82 Clouds 30 1014 70 10000 2.1 150 17:22 09.07.2020
83 Clouds 30 1014 70 10000 1 120 16:56 09.07.2020
84 Clouds 30 1014 70 10000 1 120 16:38 09.07.2020
85 Clouds 30 1014 70 10000 1 120 16:19 09.07.2020
86 Clouds 28 1014 74 10000 1.5 190 15:56 09.07.2020
87 Clouds 28 1014 74 10000 1.5 190 15:37 09.07.2020
88 Clouds 28 1014 74 10000 1.5 190 15:18 09.07.2020
89 Clouds 28 1014 83 10000 1 200 14:57 09.07.2020
90 Clouds 28 1014 83 10000 1 200 14:39 09.07.2020
91 Clouds 28 1014 83 10000 1 200 14:20 09.07.2020
92 Clouds 25 1013 88 10000 1.04 76 13:56 09.07.2020
93 Clouds 25 1013 88 10000 1.04 76 13:37 09.07.2020
94 Clouds 25 1013 88 10000 0.75 111 13:18 09.07.2020
95 Clouds 24 1013 94 10000 1.5 120 12:41 09.07.2020
96 Clouds 24 1013 94 10000 1.5 120 12:22 09.07.2020
97 Clouds 24 1012 94 10000 1.5 230 11:56 09.07.2020
98 Clouds 24 1012 94 10000 1.5 230 11:38 09.07.2020
99 Clouds 24 1012 94 10000 1.5 230 11:18 09.07.2020
100 Rain 25 1011 94 10000 1.5 150 10:55 09.07.2020
101 Rain 25 1011 94 10000 1.5 150 10:37 09.07.2020
102 Rain 25 1011 94 10000 1.5 150 10:18 09.07.2020
103 Rain 25 1012 88 0 1 140 09:41 09.07.2020
104 Clouds 25 1012 88 0 1 140 09:22 09.07.2020
105 Clouds 25 1012 94 10000 1.5 190 08:49 09.07.2020
106 Clouds 25 1012 94 10000 1.5 190 08:26 09.07.2020
107 Clouds 25 1012 94 10000 1 210 07:50 09.07.2020
108 Clouds 25 1012 94 10000 1 210 07:30 09.07.2020
109 Clouds 25 1013 88 10000 1 130 06:57 09.07.2020
110 Clouds 25 1013 88 10000 1 130 06:20 09.07.2020
111 Clouds 25 1013 78 10000 0.5 130 05:46 09.07.2020
112 Clouds 25 1012 83 10000 0.8 230 04:28 09.07.2020
113 Thunderstorm 27 1011 74 10000 2.1 350 02:33 09.07.2020
114 Clouds 27 1010 78 10000 2.6 360 01:39 09.07.2020
115 Rain 29 1010 74 10000 1 100 00:55 09.07.2020
116 Rain 29 1010 74 10000 1 100 00:25 09.07.2020
117 Rain 31 1009 62 10000 1 150 23:47 08.07.2020
118 Rain 31 1009 62 10000 1 150 23:28 08.07.2020
119 Clouds 32 1009 62 10000 1.5 160 22:59 08.07.2020
120 Clouds 32 1009 62 10000 1.5 160 22:41 08.07.2020
121 Clouds 32 1009 62 10000 1.5 160 22:23 08.07.2020
122 Clouds 32 1010 62 10000 1.5 190 21:58 08.07.2020
123 Clouds 32 1010 62 10000 1.5 190 21:39 08.07.2020
124 Clouds 32 1010 62 10000 1.5 190 21:21 08.07.2020
125 Clouds 31 1010 66 10000 1.5 100 20:56 08.07.2020
126 Clouds 31 1010 66 10000 1.5 100 20:38 08.07.2020
127 Clouds 31 1010 66 10000 1.5 100 20:20 08.07.2020
128 Clouds 30 1011 62 10000 2.6 60 19:43 08.07.2020
129 Clouds 30 1011 62 10000 2.6 60 19:24 08.07.2020
130 Clouds 30 1012 66 10000 1 110 18:57 08.07.2020
131 Clouds 30 1012 66 10000 1 110 18:39 08.07.2020
132 Clouds 30 1012 66 10000 1 110 18:20 08.07.2020
133 Clouds 30 1013 70 10000 1.5 160 17:56 08.07.2020
134 Clouds 30 1013 70 10000 1.5 160 17:37 08.07.2020
135 Clouds 30 1013 70 10000 1.5 160 17:19 08.07.2020
136 Clouds 29 1013 74 10000 1.5 190 16:43 08.07.2020
137 Clouds 29 1013 74 10000 1.5 190 16:24 08.07.2020
138 Clouds 29 1013 79 10000 0.5 210 15:59 08.07.2020
139 Clouds 29 1013 79 10000 0.5 210 15:41 08.07.2020
140 Clouds 29 1013 79 10000 0.5 210 15:20 08.07.2020
141 Clouds 28 1013 78 10000 0.5 110 14:57 08.07.2020
142 Clouds 28 1013 78 10000 0.5 110 14:39 08.07.2020
143 Clouds 28 1013 78 10000 0.5 110 14:18 08.07.2020
144 Clouds 26 1012 88 10000 1.49 338 13:42 08.07.2020
145 Clouds 26 1012 88 10000 1.44 334 13:23 08.07.2020
146 Clouds 25 1011 88 10000 1.44 334 12:46 08.07.2020
147 Clouds 25 1011 88 10000 1.33 336 12:21 08.07.2020
148 Clouds 24 1011 94 10000 1.5 210 11:59 08.07.2020
149 Clouds 24 1011 94 10000 1.5 210 11:38 08.07.2020
150 Clouds 24 1011 94 10000 1.5 210 11:20 08.07.2020
151 Clouds 24 1010 88 10000 1.5 200 10:45 08.07.2020
152 Clouds 24 1010 88 10000 1.5 200 10:26 08.07.2020
153 Clouds 24 1010 94 10000 1.5 230 09:59 08.07.2020
154 Clouds 24 1010 94 10000 1.5 230 09:40 08.07.2020
155 Clouds 24 1010 94 10000 1.5 230 09:20 08.07.2020
156 Clouds 25 1011 88 10000 1.5 240 08:42 08.07.2020
157 Clouds 25 1011 88 10000 1.5 240 08:24 08.07.2020
158 Clouds 25 1011 94 10000 0.95 4 07:46 08.07.2020
159 Clouds 25 1011 94 10000 0.86 355 07:23 08.07.2020
160 Clouds 25 1012 88 10000 0.86 355 06:54 08.07.2020
161 Clouds 25 1012 88 10000 0.86 355 06:35 08.07.2020
162 Clouds 25 1012 88 10000 0.73 354 05:54 08.07.2020
163 Clouds 25 1012 88 10000 0.92 18 05:18 08.07.2020
164 Clouds 26 1011 88 10000 1 20 04:20 08.07.2020
165 Clouds 26 1010 88 10000 1.07 11 02:20 08.07.2020
166 Clouds 27 1009 83 10000 1 200 01:39 08.07.2020
167 Clouds 28 1009 78 10000 1 170 00:59 08.07.2020
168 Clouds 28 1009 78 10000 1 170 00:22 08.07.2020
169 Clouds 28 1009 78 10000 1 170 00:22 08.07.2020
170 Clouds 29 1009 74 10000 0.5 180 23:44 07.07.2020
171 Clouds 29 1009 74 10000 0.5 180 23:24 07.07.2020
172 Clouds 28 1010 78 10000 0.5 190 22:58 07.07.2020
173 Clouds 28 1010 78 10000 0.5 190 22:40 07.07.2020
174 Clouds 28 1010 78 10000 0.5 190 22:20 07.07.2020
175 Clouds 29 1010 74 10000 2.1 240 21:58 07.07.2020
176 Clouds 29 1010 74 10000 2.1 240 21:38 07.07.2020
177 Clouds 29 1010 74 10000 2.1 240 21:19 07.07.2020
178 Rain 28 1011 78 10000 1.5 180 20:56 07.07.2020
179 Rain 28 1011 78 10000 1.5 180 20:36 07.07.2020
180 Rain 28 1011 78 10000 1.5 180 20:18 07.07.2020
181 Rain 28 1011 78 10000 1.5 180 20:18 07.07.2020
182 Clouds 30 1012 79 10000 2.6 230 19:39 07.07.2020
183 Clouds 30 1012 79 10000 2.6 230 19:20 07.07.2020
184 Clouds 30 1013 74 10000 3.6 240 18:55 07.07.2020
185 Clouds 30 1013 74 10000 3.6 240 18:37 07.07.2020
186 Clouds 30 1013 74 10000 3.6 240 18:19 07.07.2020
187 Clouds 29 1013 74 10000 4.1 260 17:56 07.07.2020
188 Clouds 29 1013 74 10000 4.1 260 17:37 07.07.2020
189 Clouds 29 1013 74 10000 4.1 260 17:18 07.07.2020
190 Clouds 28 1014 83 10000 3.1 260 16:42 07.07.2020
191 Clouds 28 1014 83 10000 3.1 260 16:22 07.07.2020
192 Clouds 27 1014 88 10000 3.1 270 15:56 07.07.2020
193 Clouds 27 1014 88 10000 3.1 270 15:37 07.07.2020
194 Clouds 27 1014 88 10000 3.1 270 15:19 07.07.2020
195 Clouds 26 1014 88 10000 3.1 260 14:43 07.07.2020
196 Clouds 26 1013 88 10000 3.6 240 14:24 07.07.2020
197 Clouds 26 1013 94 10000 3.1 270 13:44 07.07.2020
198 Clouds 26 1013 94 10000 3.1 270 13:21 07.07.2020
199 Clouds 25 1012 88 10000 2.1 330 12:57 07.07.2020
200 Clouds 25 1012 88 10000 2.1 330 12:37 07.07.2020
201 Clouds 25 1012 88 10000 2.1 330 12:18 07.07.2020
202 Clouds 26 1012 83 10000 1.5 230 11:43 07.07.2020
203 Clouds 26 1012 83 10000 1.5 230 11:22 07.07.2020
204 Clouds 26 1012 83 10000 1 180 10:58 07.07.2020
205 Clouds 26 1012 83 10000 1 180 10:40 07.07.2020
206 Clouds 26 1012 83 10000 1 180 10:21 07.07.2020
207 Clouds 26 1012 83 10000 1.5 230 09:43 07.07.2020
208 Clouds 26 1012 83 10000 1.5 230 09:22 07.07.2020
209 Thunderstorm 26 1012 83 10000 1.5 230 08:57 07.07.2020
210 Thunderstorm 26 1012 83 10000 1.5 230 08:39 07.07.2020
211 Thunderstorm 26 1012 83 10000 1.5 230 08:19 07.07.2020
212 Thunderstorm 26 1012 83 10000 1 220 07:38 07.07.2020
213 Thunderstorm 26 1012 83 10000 1 220 07:19 07.07.2020
214 Thunderstorm 26 1012 83 10000 1.5 220 06:45 07.07.2020
215 Thunderstorm 26 1012 83 10000 1.5 220 06:26 07.07.2020
216 Thunderstorm 26 1013 88 10000 1 230 05:43 07.07.2020
217 Thunderstorm 27 1012 74 10000 2.1 80 04:52 07.07.2020
218 Clouds 27 1012 74 10000 1.5 70 03:43 07.07.2020
219 Clouds 27 1012 74 10000 1.5 70 03:23 07.07.2020
220 Clouds 28 1010 70 10000 2.1 80 01:41 07.07.2020
221 Clouds 29 1009 70 10000 2.1 70 00:59 07.07.2020
222 Clouds 29 1009 70 10000 2.1 70 00:40 07.07.2020
223 Clouds 29 1009 70 10000 2.1 70 00:20 07.07.2020
224 Clouds 31 1008 66 10000 1 80 23:44 06.07.2020
225 Clouds 31 1008 66 10000 1 80 23:25 06.07.2020
226 Clouds 32 1009 59 10000 1 120 22:57 06.07.2020
227 Clouds 32 1009 59 10000 1 120 22:38 06.07.2020
228 Clouds 32 1009 59 10000 1 120 22:18 06.07.2020
229 Clouds 31 1009 62 10000 2.1 150 21:56 06.07.2020
230 Clouds 31 1009 62 10000 2.1 150 21:36 06.07.2020
231 Clouds 31 1009 62 10000 2.1 150 21:18 06.07.2020
232 Clouds 32 1010 62 10000 1.5 120 20:40 06.07.2020
233 Clouds 32 1010 62 10000 1.5 120 20:20 06.07.2020
234 Clouds 31 1011 70 10000 1.5 130 19:58 06.07.2020
235 Clouds 31 1011 70 10000 1.5 130 19:40 06.07.2020
236 Clouds 31 1011 70 10000 1.5 130 19:22 06.07.2020
237 Clouds 31 1012 66 10000 2.1 80 18:57 06.07.2020
238 Clouds 31 1012 66 10000 2.1 80 18:57 06.07.2020
239 Clouds 31 1012 66 10000 2.1 80 18:39 06.07.2020
240 Clouds 31 1012 66 10000 2.1 80 18:21 06.07.2020
241 Clouds 31 1013 70 10000 1.5 90 17:46 06.07.2020
242 Clouds 30 1013 79 10000 1 130 17:28 06.07.2020
243 Clouds 29 1013 79 10000 1 130 16:59 06.07.2020
244 Clouds 29 1013 79 10000 1 130 16:41 06.07.2020
245 Clouds 29 1013 79 10000 1 130 16:22 06.07.2020
246 Clouds 28 1013 78 10000 1.5 80 15:44 06.07.2020
247 Clouds 28 1013 78 10000 1.5 80 15:25 06.07.2020
248 Clouds 26 1013 78 10000 1 20 14:57 06.07.2020
249 Clouds 26 1013 78 10000 1 20 14:38 06.07.2020
250 Clouds 26 1013 78 10000 1 20 14:20 06.07.2020
251 Clouds 24 1012 88 10000 2.1 10 13:56 06.07.2020
252 Clouds 24 1012 88 10000 2.1 10 13:38 06.07.2020
253 Clouds 24 1012 88 10000 2.1 10 13:19 06.07.2020
254 Clouds 24 1012 88 10000 2.1 10 13:19 06.07.2020
255 Clouds 24 1012 94 10000 1.5 30 12:42 06.07.2020
256 Clouds 24 1012 94 10000 1.5 30 12:19 06.07.2020
257 Clouds 24 1012 94 10000 1.5 30 12:19 06.07.2020
258 Clouds 23 1011 94 10000 1.5 50 11:58 06.07.2020
259 Clouds 23 1011 94 10000 1.5 50 11:38 06.07.2020
260 Clouds 23 1011 94 10000 1.5 50 11:20 06.07.2020
261 Clouds 24 1011 94 10000 1 10 10:56 06.07.2020
262 Clouds 24 1011 94 10000 1 10 10:37 06.07.2020
263 Clouds 24 1011 94 10000 1 10 10:18 06.07.2020
264 Clouds 24 1011 94 10000 1 40 09:41 06.07.2020
265 Clouds 24 1011 94 10000 1 40 09:21 06.07.2020
266 Clouds 24 1011 94 10000 1 40 08:56 06.07.2020
267 Clouds 24 1011 94 10000 1 40 08:37 06.07.2020
268 Clouds 24 1011 94 10000 1 40 08:19 06.07.2020
269 Clouds 24 1011 94 10000 1 40 08:19 06.07.2020
270 Rain 24 1012 88 9000 2.1 360 07:43 06.07.2020
271 Rain 24 1012 88 9000 2.1 360 07:23 06.07.2020
272 Thunderstorm 25 1012 88 8000 2.6 50 06:40 06.07.2020
273 Thunderstorm 25 1012 88 8000 2.6 50 06:21 06.07.2020
274 Thunderstorm 26 1012 88 10000 1 10 05:38 06.07.2020
275 Thunderstorm 26 1012 88 10000 1.5 320 04:54 06.07.2020
276 Clouds 26 1011 94 10000 1 290 03:40 06.07.2020
277 Clouds 26 1011 88 10000 1.5 260 02:22 06.07.2020
278 Clouds 26 1010 83 10000 1 180 01:28 06.07.2020
279 Clouds 27 1009 83 10000 2.1 170 00:36 06.07.2020
280 Clouds 27 1009 83 10000 2.1 170 00:18 06.07.2020
281 Rain 29 1009 79 10000 1.67 126 23:41 05.07.2020
282 Rain 29 1009 79 10000 1.73 121 23:23 05.07.2020
283 Clouds 29 1009 79 10000 1 130 22:59 05.07.2020
284 Clouds 29 1009 79 10000 1 130 22:40 05.07.2020
285 Clouds 29 1009 79 10000 1 130 22:20 05.07.2020
286 Clouds 30 1009 70 10000 1.5 180 21:57 05.07.2020
287 Clouds 30 1009 70 10000 1.5 180 21:38 05.07.2020
288 Clouds 30 1009 70 10000 1.5 180 21:18 05.07.2020
289 Clouds 28 1010 69 10000 1.5 170 20:57 05.07.2020
290 Clouds 28 1010 69 10000 1.5 170 20:38 05.07.2020
291 Clouds 28 1010 69 10000 1.5 170 20:20 05.07.2020
292 Rain 26 1011 83 8000 1.5 340 19:42 05.07.2020
293 Rain 26 1011 83 8000 1.5 340 19:21 05.07.2020
294 Rain 24 1012 94 8000 1.5 220 18:56 05.07.2020
295 Rain 24 1012 94 8000 1.5 220 18:37 05.07.2020
296 Rain 24 1012 94 8000 1.5 220 18:19 05.07.2020
297 Thunderstorm 24 1012 94 6000 1 170 17:43 05.07.2020
298 Thunderstorm 27 1013 88 2000 3.6 140 17:19 05.07.2020
299 Clouds 28 1013 78 10000 1 190 16:59 05.07.2020
300 Clouds 28 1013 78 10000 1 190 16:40 05.07.2020
301 Clouds 28 1013 78 10000 1 190 16:21 05.07.2020
302 Clouds 28 1013 78 10000 1.5 250 15:40 05.07.2020
303 Clouds 28 1013 78 10000 1.5 250 15:20 05.07.2020
304 Clouds 27 1012 83 10000 1 340 14:56 05.07.2020
305 Clouds 27 1012 83 10000 1 340 14:38 05.07.2020
306 Clouds 27 1012 83 10000 1 340 14:20 05.07.2020
307 Clouds 25 1011 94 10000 2.1 250 13:41 05.07.2020
308 Clouds 25 1011 94 10000 2.1 250 13:23 05.07.2020
309 Thunderstorm 24 1011 88 10000 1 280 12:45 05.07.2020
310 Thunderstorm 24 1011 88 10000 1 280 12:21 05.07.2020
311 Thunderstorm 25 1010 88 10000 1 240 11:56 05.07.2020
312 Thunderstorm 25 1010 88 10000 1 240 11:38 05.07.2020
313 Thunderstorm 25 1010 88 10000 1 240 11:19 05.07.2020
314 Thunderstorm 24 1010 94 10000 1.5 250 10:55 05.07.2020
315 Thunderstorm 24 1010 94 10000 1.5 250 10:36 05.07.2020
316 Thunderstorm 24 1010 94 10000 1.5 250 10:18 05.07.2020
317 Thunderstorm 24 1010 94 8000 1.5 250 09:41 05.07.2020
318 Thunderstorm 24 1010 94 3000 1.5 140 09:20 05.07.2020
319 Thunderstorm 26 1010 88 10000 1.5 30 08:56 05.07.2020
320 Thunderstorm 26 1010 88 10000 1.5 30 08:37 05.07.2020
321 Thunderstorm 26 1011 94 10000 1 240 07:59 05.07.2020
322 Thunderstorm 26 1011 94 10000 1 240 07:33 05.07.2020
323 Thunderstorm 27 1011 83 10000 1.5 360 06:58 05.07.2020
324 Thunderstorm 27 1011 83 10000 1.5 360 06:30 05.07.2020
325 Clouds 26 1011 83 10000 0.5 100 04:24 05.07.2020
326 Clouds 27 1009 83 10000 1 200 02:59 05.07.2020
327 Clouds 27 1009 83 10000 1 200 02:37 05.07.2020
328 Clouds 27 1009 83 10000 0.5 180 01:44 05.07.2020
329 Clouds 27 1009 83 10000 0.5 180 01:26 05.07.2020
330 Clouds 29 1008 79 10000 0.5 70 00:50 05.07.2020
331 Clouds 29 1008 79 10000 0.5 70 00:28 05.07.2020
332 Clouds 30 1008 70 10000 1 70 23:56 04.07.2020
333 Clouds 30 1008 70 10000 1 70 23:32 04.07.2020
334 Clouds 31 1008 66 10000 1.5 90 22:59 04.07.2020
335 Clouds 31 1008 66 10000 1.5 90 22:40 04.07.2020
336 Clouds 31 1008 66 10000 1.5 90 22:22 04.07.2020
337 Clouds 31 1009 74 10000 1.5 80 21:58 04.07.2020
338 Clouds 31 1009 74 10000 1.5 80 21:39 04.07.2020
339 Clouds 31 1009 74 10000 1.5 80 21:20 04.07.2020
340 Clouds 30 1009 74 10000 2.1 90 20:42 04.07.2020
341 Clouds 30 1009 74 10000 2.1 90 20:21 04.07.2020
342 Clouds 29 1011 74 10000 1.5 120 19:56 04.07.2020
343 Clouds 29 1011 74 10000 1.5 120 19:37 04.07.2020
344 Clouds 29 1011 74 10000 1.5 120 19:19 04.07.2020
345 Rain 30 1012 74 10000 2.1 80 18:43 04.07.2020
346 Clouds 28 1012 79 10000 1.5 160 18:22 04.07.2020
347 Clouds 28 1012 79 10000 1.5 160 18:22 04.07.2020
348 Clouds 28 1012 79 10000 1.5 160 17:45 04.07.2020
349 Clouds 28 1012 79 10000 1.5 160 17:26 04.07.2020
350 Clouds 28 1013 78 10000 1 230 16:59 04.07.2020
351 Clouds 28 1013 78 10000 1 230 16:39 04.07.2020
352 Clouds 28 1013 78 10000 1 230 16:21 04.07.2020
353 Clouds 27 1013 88 10000 2.1 260 15:58 04.07.2020
354 Clouds 27 1013 88 10000 2.1 260 15:40 04.07.2020
355 Clouds 27 1013 88 10000 2.1 260 15:21 04.07.2020
356 Clouds 27 1012 83 10000 1 270 14:55 04.07.2020
357 Clouds 27 1012 83 10000 1 270 14:55 04.07.2020
358 Clouds 27 1012 83 10000 1 270 14:55 04.07.2020
359 Clouds 26 1012 88 10000 1.5 250 14:36 04.07.2020
360 Clouds 26 1012 88 10000 1.5 250 14:18 04.07.2020
361 Clouds 25 1011 88 10000 2.1 240 13:41 04.07.2020
362 Clouds 25 1011 88 10000 2.1 240 13:19 04.07.2020
363 Clouds 25 1011 94 10000 1.5 250 12:43 04.07.2020
364 Clouds 25 1011 94 10000 1.5 250 12:43 04.07.2020
365 Clouds 25 1011 94 10000 1.5 250 12:24 04.07.2020
366 Clouds 25 1011 94 10000 2.6 230 11:59 04.07.2020
367 Clouds 25 1011 94 10000 2.6 230 11:40 04.07.2020
368 Clouds 25 1011 94 10000 2.6 230 11:22 04.07.2020
369 Clouds 24 1010 94 10000 1.5 230 10:54 04.07.2020
370 Clouds 24 1010 94 10000 1.5 230 10:36 04.07.2020
371 Clouds 24 1010 94 10000 1.5 230 10:18 04.07.2020
372 Clouds 24 1010 94 10000 0.64 322 09:40 04.07.2020
373 Clouds 24 1010 94 10000 0.88 346 09:20 04.07.2020
374 Clouds 24 1011 94 10000 1.5 190 08:50 04.07.2020
375 Clouds 24 1011 94 10000 1.5 190 08:32 04.07.2020
376 Clouds 25 1011 94 10000 1.05 3 07:55 04.07.2020
377 Clouds 25 1011 94 10000 1.05 3 07:36 04.07.2020
378 Clouds 25 1012 94 10000 1 220 06:57 04.07.2020
379 Clouds 25 1012 94 10000 1 220 06:23 04.07.2020
380 Clouds 25 1012 94 10000 1 220 06:23 04.07.2020
381 Clouds 26 1012 88 10000 1.5 190 05:40 04.07.2020
382 Clouds 26 1012 88 10000 1.5 200 04:57 04.07.2020
383 Clouds 26 1011 94 10000 1.5 190 03:34 04.07.2020
384 Clouds 26 1010 94 10000 1 180 02:35 04.07.2020
385 Clouds 26 1010 94 10000 1.5 190 01:37 04.07.2020
386 Rain 27 1009 83 10000 1 190 00:45 04.07.2020
387 Rain 27 1009 83 10000 1 190 00:26 04.07.2020
388 Clouds 27 1008 83 10000 1 210 23:41 03.07.2020
389 Clouds 27 1008 83 10000 1 210 23:19 03.07.2020
390 Clouds 26 1008 88 10000 1 180 22:59 03.07.2020
391 Clouds 26 1008 88 10000 1 180 22:39 03.07.2020
392 Clouds 26 1008 88 10000 1 180 22:21 03.07.2020
393 Rain 26 1009 78 10000 1 30 21:54 03.07.2020
394 Rain 26 1009 78 10000 1 30 21:36 03.07.2020
395 Rain 26 1009 78 10000 1 30 21:18 03.07.2020
396 Rain 27 1010 83 10000 1.5 180 20:42 03.07.2020
397 Rain 27 1010 83 10000 1.5 180 20:23 03.07.2020
398 Rain 29 1009 78 0 2.3 78 19:42 03.07.2020
399 Rain 29 1012 79 10000 2.1 190 19:21 03.07.2020
400 Rain 29 1012 79 10000 2.1 190 19:21 03.07.2020
401 Rain 29 1012 79 10000 2.1 190 18:57 03.07.2020
402 Rain 29 1012 79 10000 2.1 190 18:39 03.07.2020
403 Clouds 29 1012 83 10000 1.5 130 18:21 03.07.2020
404 Clouds 29 1012 83 10000 1.5 130 17:44 03.07.2020
405 Clouds 29 1012 83 10000 1.5 130 17:23 03.07.2020
406 Rain 27 1013 94 8000 1.5 160 16:51 03.07.2020
407 Rain 27 1013 94 8000 1.5 160 16:31 03.07.2020
408 Clouds 28 1012 78 10000 1 160 15:57 03.07.2020
409 Clouds 28 1012 78 10000 1 160 15:39 03.07.2020
410 Clouds 28 1012 78 10000 1 160 15:20 03.07.2020
411 Clouds 26 1012 88 10000 1.28 91 14:41 03.07.2020
412 Clouds 26 1012 88 10000 1.05 76 14:22 03.07.2020
413 Clouds 25 1011 94 10000 1 160 13:59 03.07.2020
414 Clouds 25 1011 94 10000 1 160 13:40 03.07.2020
415 Clouds 25 1011 94 10000 1 160 13:21 03.07.2020
416 Clouds 25 1011 94 10000 1 140 12:40 03.07.2020
417 Clouds 25 1011 94 10000 1 140 12:21 03.07.2020
418 Clouds 24 1011 88 10000 1 200 11:44 03.07.2020
419 Clouds 24 1011 88 10000 1 200 11:25 03.07.2020
420 Clouds 24 1011 94 10000 1 190 10:59 03.07.2020
421 Clouds 24 1011 94 10000 1 190 10:41 03.07.2020
422 Clouds 24 1011 94 10000 1 190 10:21 03.07.2020
423 Clouds 24 1010 94 10000 1 200 09:58 03.07.2020
424 Clouds 24 1010 94 10000 1 200 09:38 03.07.2020
425 Clouds 24 1010 94 10000 1 200 09:38 03.07.2020
426 Clouds 24 1010 94 10000 1 200 09:19 03.07.2020
427 Clouds 24 1010 94 10000 1 220 08:40 03.07.2020
428 Clouds 24 1010 94 10000 1 220 08:19 03.07.2020
429 Clouds 26 1011 88 10000 1 190 07:52 03.07.2020
430 Clouds 26 1011 88 10000 1 190 07:28 03.07.2020
431 Clouds 26 1011 94 10000 1 180 06:59 03.07.2020
432 Clouds 26 1011 94 10000 1 180 06:25 03.07.2020
433 Clouds 26 1011 94 10000 1 180 06:25 03.07.2020
434 Clouds 26 1012 88 10000 1 170 05:22 03.07.2020
435 Clouds 27 1011 78 10000 2.1 70 03:46 03.07.2020
436 Thunderstorm 26 1010 83 10000 1.5 50 02:49 03.07.2020
437 Thunderstorm 26 1010 83 10000 1.5 50 02:30 03.07.2020
438 Thunderstorm 27 1009 69 10000 2.1 80 01:29 03.07.2020
439 Clouds 29 1009 66 10000 2.6 50 00:56 03.07.2020
440 Clouds 29 1009 66 10000 2.6 50 00:36 03.07.2020
441 Clouds 28 1008 78 10000 2.1 80 23:49 02.07.2020
442 Clouds 28 1008 78 10000 2.1 80 23:21 02.07.2020
443 Clouds 31 1008 66 10000 2.1 70 22:58 02.07.2020
444 Clouds 31 1008 66 10000 2.1 70 22:40 02.07.2020
445 Clouds 31 1008 66 10000 2.1 70 22:20 02.07.2020
446 Rain 31 1008 70 10000 2.6 90 21:57 02.07.2020
447 Rain 31 1008 70 10000 2.6 90 21:39 02.07.2020
448 Rain 31 1008 70 10000 2.6 90 21:18 02.07.2020
449 Clouds 31 1009 70 10000 1 90 20:57 02.07.2020
450 Clouds 31 1009 70 10000 1 90 20:39 02.07.2020
451 Clouds 31 1009 70 10000 1 90 20:18 02.07.2020
452 Clouds 31 1010 70 10000 1.5 80 19:41 02.07.2020
453 Clouds 31 1010 70 10000 1.5 80 19:22 02.07.2020
454 Clouds 30 1011 74 10000 2.1 80 18:57 02.07.2020
455 Clouds 30 1011 74 10000 2.1 80 18:39 02.07.2020
456 Clouds 30 1011 74 10000 2.1 80 18:21 02.07.2020
457 Clouds 29 1012 74 10000 2.1 100 17:41 02.07.2020
458 Clouds 29 1012 74 10000 2.1 100 17:20 02.07.2020
459 Clouds 29 1012 83 10000 2.1 160 16:58 02.07.2020
460 Clouds 29 1012 83 10000 2.1 160 16:40 02.07.2020
461 Clouds 29 1012 83 10000 2.1 160 16:20 02.07.2020
462 Clouds 28 1012 83 10000 1 190 15:55 02.07.2020
463 Clouds 28 1012 83 10000 1 190 15:36 02.07.2020
464 Clouds 28 1012 83 10000 1 190 15:18 02.07.2020
465 Clouds 26 1012 88 10000 1 230 14:43 02.07.2020
466 Clouds 26 1012 88 10000 1 230 14:20 02.07.2020
467 Clouds 25 1011 94 10000 1.5 250 13:56 02.07.2020
468 Clouds 25 1011 94 10000 1.5 250 13:37 02.07.2020
469 Clouds 25 1011 94 10000 1.5 250 13:18 02.07.2020
470 Clouds 25 1011 94 10000 1.5 230 12:41 02.07.2020
471 Clouds 25 1011 94 10000 1.5 230 12:22 02.07.2020
472 Clouds 25 1012 94 10000 1 320 11:46 02.07.2020
473 Clouds 25 1012 94 10000 1 320 11:27 02.07.2020
474 Clouds 25 1011 94 10000 0.5 320 10:59 02.07.2020
475 Clouds 25 1011 94 10000 0.5 320 10:41 02.07.2020
476 Clouds 25 1011 94 10000 0.5 320 10:23 02.07.2020
477 Clouds 25 1011 94 10000 0.5 240 09:44 02.07.2020
478 Clouds 25 1011 94 10000 0.5 240 09:22 02.07.2020
479 Clouds 26 1012 94 10000 1 220 08:58 02.07.2020
480 Clouds 26 1012 94 10000 1 220 08:40 02.07.2020
481 Rain 26 1012 94 10000 1 220 08:19 02.07.2020
482 Rain 26 1012 94 10000 1.5 240 07:42 02.07.2020
483 Rain 26 1012 94 10000 1.5 240 07:21 02.07.2020
484 Rain 26 1012 94 10000 0.5 240 06:45 02.07.2020
485 Clouds 26 1012 94 10000 0.5 240 06:26 02.07.2020
486 Clouds 26 1012 88 10000 0.5 260 05:48 02.07.2020
487 Clouds 26 1012 94 10000 1.5 270 04:50 02.07.2020
488 Clouds 27 1012 88 10000 1 240 03:34 02.07.2020
489 Thunderstorm 27 1010 88 10000 1 80 01:50 02.07.2020
490 Clouds 29 1011 74 10000 1.5 80 00:28 02.07.2020
491 Clouds 30 1009 70 10000 1 80 23:57 01.07.2020
492 Clouds 30 1009 70 10000 1 80 23:39 01.07.2020
493 Clouds 30 1009 70 10000 1 80 23:39 01.07.2020
494 Clouds 30 1009 70 10000 1 80 23:21 01.07.2020
495 Clouds 30 1008 70 10000 1.5 90 22:55 01.07.2020
496 Clouds 30 1008 70 10000 1.5 90 22:36 01.07.2020
497 Clouds 30 1008 70 10000 1.5 90 22:18 01.07.2020
498 Rain 30 1009 70 10000 1.5 80 21:55 01.07.2020
499 Rain 30 1009 70 10000 1.5 80 21:55 01.07.2020
500 Rain 30 1009 70 10000 1.5 80 21:37 01.07.2020
501 Rain 30 1009 70 10000 1.5 80 21:19 01.07.2020
502 Rain 30 1010 70 10000 2.1 80 20:45 01.07.2020
503 Rain 30 1010 70 10000 2.1 80 20:26 01.07.2020
504 Rain 31 1011 70 10000 3.6 70 19:57 01.07.2020
505 Rain 31 1011 70 10000 3.6 70 19:38 01.07.2020
506 Rain 31 1011 70 10000 3.6 70 19:20 01.07.2020
507 Rain 30 1012 74 10000 3.6 80 18:54 01.07.2020
508 Rain 30 1012 74 10000 3.6 80 18:36 01.07.2020
509 Rain 30 1013 74 10000 2.1 90 18:18 01.07.2020
510 Rain 30 1013 74 10000 2.1 90 17:41 01.07.2020
511 Rain 30 1013 74 10000 2.1 90 17:19 01.07.2020
512 Clouds 29 1013 79 10000 2.6 80 16:48 01.07.2020
513 Clouds 29 1013 79 10000 2.6 80 16:29 01.07.2020
514 Clouds 29 1013 79 10000 2.1 70 15:58 01.07.2020
515 Clouds 29 1013 79 10000 2.1 70 15:39 01.07.2020
516 Clouds 29 1013 79 10000 2.1 70 15:21 01.07.2020
517 Clouds 27 1013 88 10000 2.6 60 14:45 01.07.2020
518 Clouds 27 1013 88 10000 2.6 60 14:22 01.07.2020
519 Clouds 26 1012 88 10000 1.5 20 13:59 01.07.2020
520 Clouds 26 1012 88 10000 1.5 20 13:39 01.07.2020
521 Clouds 26 1012 88 10000 1.5 20 13:20 01.07.2020
522 Clouds 24 1012 94 10000 1 30 12:58 01.07.2020
523 Clouds 24 1012 94 10000 1 30 12:39 01.07.2020
524 Clouds 24 1012 94 10000 1 30 12:20 01.07.2020
525 Clouds 25 1011 94 10000 1 50 11:44 01.07.2020
526 Clouds 25 1011 94 10000 1 50 11:44 01.07.2020
527 Clouds 25 1011 94 10000 1 50 11:44 01.07.2020
528 Clouds 25 1011 94 10000 1 50 11:44 01.07.2020
529 Clouds 25 1011 94 10000 1 50 11:44 01.07.2020
530 Clouds 25 1011 94 10000 1 50 11:44 01.07.2020
531 Clouds 25 1011 94 10000 1 50 11:44 01.07.2020
532 Clouds 25 1011 94 10000 1 50 11:25 01.07.2020
533 Clouds 25 1011 94 10000 1 50 10:59 01.07.2020
534 Clouds 25 1011 94 10000 1 50 10:41 01.07.2020
535 Clouds 25 1011 94 10000 1 50 10:22 01.07.2020
536 Clouds 26 1011 88 10000 1 50 09:54 01.07.2020
537 Clouds 26 1011 88 10000 1 50 09:36 01.07.2020
538 Clouds 26 1011 88 10000 1 50 09:18 01.07.2020
539 Clouds 26 1011 88 10000 1.5 20 08:41 01.07.2020
540 Clouds 26 1011 88 10000 1.5 20 08:22 01.07.2020
541 Thunderstorm 26 1011 94 10000 0.91 60 07:57 01.07.2020
542 Thunderstorm 26 1011 94 10000 0.91 60 07:36 01.07.2020
543 Thunderstorm 26 1011 94 10000 0.87 70 07:18 01.07.2020
544 Clouds 26 1012 94 10000 1 220 06:48 01.07.2020
545 Clouds 26 1012 94 10000 1 220 06:27 01.07.2020
546 Clouds 27 1012 88 10000 1.09 112 04:31 01.07.2020
547 Thunderstorm 27 1011 88 10000 1.5 20 03:46 01.07.2020
548 Thunderstorm 27 1011 88 10000 1.5 20 03:26 01.07.2020
549 Thunderstorm 26 1010 88 10000 1 310 02:36 01.07.2020
550 Clouds 27 1010 83 10000 2.1 250 01:45 01.07.2020
551 Clouds 28 1009 78 10000 3.1 260 00:41 01.07.2020
552 Clouds 28 1009 78 10000 3.1 260 00:23 01.07.2020
553 Clouds 29 1009 70 10000 0.5 140 23:41 30.06.2020
554 Clouds 29 1009 70 10000 0.5 140 23:22 30.06.2020
555 Rain 30 1009 70 10000 1 150 22:43 30.06.2020
556 Rain 30 1009 70 10000 1 150 22:20 30.06.2020
557 Clouds 31 1009 70 10000 1.5 110 21:59 30.06.2020
558 Clouds 31 1009 70 10000 1.5 110 21:40 30.06.2020
559 Clouds 31 1009 70 10000 1.5 110 21:19 30.06.2020
560 Clouds 31 1010 66 10000 1.5 170 20:43 30.06.2020
561 Clouds 31 1010 66 10000 1.5 170 20:21 30.06.2020
562 Clouds 29 1012 79 10000 1 150 19:55 30.06.2020
563 Clouds 29 1012 79 10000 1 150 19:36 30.06.2020
564 Clouds 29 1012 79 10000 1 150 19:18 30.06.2020
565 Clouds 29 1013 74 10000 1.5 190 18:42 30.06.2020
566 Clouds 29 1013 74 10000 1.5 190 18:20 30.06.2020
567 Clouds 28 1014 74 10000 1.5 220 17:54 30.06.2020
568 Clouds 28 1014 74 10000 1.5 220 17:36 30.06.2020
569 Clouds 28 1014 74 10000 1.5 220 17:18 30.06.2020
570 Clouds 28 1014 69 10000 1 180 16:41 30.06.2020
571 Clouds 28 1014 69 10000 1 180 16:21 30.06.2020
572 Clouds 26 1014 83 10000 1 220 15:56 30.06.2020
573 Clouds 26 1014 83 10000 1 220 15:38 30.06.2020
574 Clouds 26 1014 83 10000 1 220 15:19 30.06.2020
575 Clouds 25 1013 88 10000 1 320 14:43 30.06.2020
576 Clouds 25 1013 88 10000 1 320 14:22 30.06.2020
577 Thunderstorm 23 1013 94 8000 2.1 80 13:58 30.06.2020
578 Thunderstorm 23 1013 94 8000 2.1 80 13:37 30.06.2020
579 Thunderstorm 23 1013 94 8000 2.1 80 13:19 30.06.2020
580 Thunderstorm 23 1013 94 8000 2.1 80 13:19 30.06.2020
581 Thunderstorm 23 1013 83 3000 5.1 80 12:56 30.06.2020
582 Thunderstorm 24 1013 83 3000 5.1 80 12:38 30.06.2020
583 Thunderstorm 24 1013 83 3000 5.1 80 12:19 30.06.2020
584 Thunderstorm 24 1013 83 3000 5.1 80 12:19 30.06.2020
585 Clouds 24 1012 94 10000 1 340 11:56 30.06.2020
586 Clouds 24 1012 94 10000 1 340 11:37 30.06.2020
587 Clouds 24 1012 94 10000 1 340 11:18 30.06.2020
588 Clouds 30 1012 79 10000 1.5 80 16:47 28.06.2020
589 Clouds 30 1012 79 10000 1.5 80 16:28 28.06.2020
590 Clouds 29 1012 74 10000 1 90 15:59 28.06.2020
591 Clouds 29 1012 74 10000 1 90 15:59 28.06.2020
592 Clouds 29 1012 74 10000 1 90 15:40 28.06.2020
593 Clouds 29 1012 74 10000 1 90 15:20 28.06.2020
594 Clouds 28 1012 78 10000 1.5 60 14:57 28.06.2020
595 Clouds 28 1012 78 10000 1.5 60 14:38 28.06.2020
596 Clouds 28 1012 78 10000 1.5 60 14:20 28.06.2020
597 Clouds 25 1011 94 10000 1.5 50 13:40 28.06.2020
598 Clouds 25 1011 94 10000 1.5 50 13:21 28.06.2020
599 Clouds 24 1011 94 10000 1.5 50 12:57 28.06.2020
600 Clouds 24 1011 94 10000 1.5 50 12:38 28.06.2020
601 Clouds 24 1011 94 10000 1.5 50 12:19 28.06.2020
602 Clouds 25 1010 94 10000 1 90 11:58 28.06.2020
603 Clouds 25 1010 94 10000 1 90 11:39 28.06.2020
604 Rain 25 1010 94 10000 1 90 11:20 28.06.2020
605 Rain 26 1010 88 10000 1 30 10:57 28.06.2020
606 Rain 26 1010 88 10000 1 30 10:38 28.06.2020
607 Rain 26 1010 88 10000 1 30 10:19 28.06.2020
608 Rain 25 1010 88 10000 1.5 40 09:40 28.06.2020
609 Clouds 25 1010 88 10000 1.5 40 09:21 28.06.2020
610 Clouds 25 1010 88 10000 2.1 30 08:51 28.06.2020
611 Clouds 25 1010 88 10000 2.1 30 08:32 28.06.2020
612 Clear 25 1011 94 10000 1 70 07:53 28.06.2020
613 Clear 25 1011 94 10000 1 70 07:30 28.06.2020
614 Clear 26 1011 88 10000 0.96 50 06:45 28.06.2020
615 Rain 26 1011 88 10000 1.46 50 06:26 28.06.2020
616 Rain 26 1011 88 10000 1.5 40 05:27 28.06.2020
617 Clouds 26 1011 83 10000 1 40 03:45 28.06.2020
618 Thunderstorm 26 1010 83 10000 2.1 70 02:49 28.06.2020
619 Thunderstorm 26 1010 83 10000 2.1 70 02:18 28.06.2020
620 Thunderstorm 26 1009 88 10000 1.5 117 01:27 28.06.2020
621 Rain 27 1008 83 10000 0.5 60 00:51 28.06.2020
622 Rain 27 1008 83 10000 0.5 60 00:27 28.06.2020
623 Rain 28 1009 78 10000 0.5 20 23:43 27.06.2020
624 Rain 28 1009 78 10000 0.5 20 23:24 27.06.2020
625 Rain 30 1009 74 10000 1.5 90 22:58 27.06.2020
626 Rain 30 1009 74 10000 1.5 90 22:40 27.06.2020
627 Rain 30 1009 74 10000 1.5 90 22:21 27.06.2020
628 Rain 32 1008 66 10000 1.5 90 21:55 27.06.2020
629 Rain 32 1008 66 10000 1.5 90 21:37 27.06.2020
630 Rain 32 1008 66 10000 1.5 90 21:19 27.06.2020
631 Clouds 32 1008 66 10000 1 160 20:43 27.06.2020
632 Clouds 32 1008 66 10000 1 160 20:19 27.06.2020
633 Clouds 31 1010 70 10000 2.1 80 19:55 27.06.2020
634 Clouds 31 1010 70 10000 2.1 80 19:36 27.06.2020
635 Clouds 31 1010 70 10000 2.1 80 19:18 27.06.2020
636 Clouds 31 1010 70 10000 2.1 80 19:18 27.06.2020
637 Clouds 31 1011 70 10000 1.5 90 18:45 27.06.2020
638 Clouds 31 1011 70 10000 1.5 90 18:25 27.06.2020
639 Clouds 30 1011 74 10000 1.5 80 17:57 27.06.2020
640 Clouds 30 1011 74 10000 1.5 80 17:38 27.06.2020
641 Clouds 30 1011 74 10000 1.5 80 17:19 27.06.2020
642 Clouds 30 1012 70 10000 3.1 60 16:43 27.06.2020
643 Clouds 30 1012 70 10000 3.1 60 16:25 27.06.2020
644 Clouds 29 1012 83 10000 1 70 15:55 27.06.2020
645 Clouds 29 1012 83 10000 1 70 15:37 27.06.2020
646 Clouds 29 1012 83 10000 1 70 15:18 27.06.2020
647 Clouds 28 1011 83 10000 1.5 30 14:41 27.06.2020
648 Clouds 28 1011 83 10000 1.5 30 14:23 27.06.2020
649 Clouds 25 1011 88 10000 1.5 350 13:57 27.06.2020
650 Clouds 25 1011 88 10000 1.5 350 13:37 27.06.2020
651 Clouds 24 1010 94 10000 1 310 13:19 27.06.2020
652 Clouds 24 1010 94 10000 1 310 13:19 27.06.2020
653 Clouds 24 1010 94 10000 1 310 12:56 27.06.2020
654 Clouds 24 1010 94 10000 1 310 12:37 27.06.2020
655 Clouds 24 1010 94 10000 1 310 12:19 27.06.2020
656 Rain 24 1010 94 10000 0.67 19 11:41 27.06.2020
657 Rain 24 1010 94 10000 0.75 326 11:23 27.06.2020
658 Thunderstorm 24 1010 88 2000 1.5 70 10:57 27.06.2020
659 Thunderstorm 25 1010 88 10000 1 160 10:38 27.06.2020
660 Thunderstorm 25 1010 88 10000 1 160 10:18 27.06.2020
661 Thunderstorm 26 1009 83 10000 2.1 20 09:41 27.06.2020
662 Thunderstorm 26 1009 83 10000 2.1 20 09:21 27.06.2020
663 Clouds 26 1010 78 10000 1.5 330 08:46 27.06.2020
664 Clouds 26 1010 78 10000 1.5 330 08:23 27.06.2020
665 Clouds 26 1010 78 10000 1.5 330 07:55 27.06.2020
666 Clouds 26 1010 78 10000 1.5 330 07:37 27.06.2020
667 Clouds 27 1010 78 10000 1.5 330 07:18 27.06.2020
668 Clouds 26 1011 88 10000 1.5 250 06:35 27.06.2020
669 Clouds 26 1011 88 10000 2.1 240 05:33 27.06.2020
670 Clouds 26 1011 88 10000 1 210 04:19 27.06.2020
671 Clouds 27 1010 88 10000 0.5 240 03:51 27.06.2020
672 Clouds 27 1010 83 10000 0.49 62 02:47 27.06.2020
673 Clouds 27 1010 83 10000 0.48 96 02:27 27.06.2020
674 Clouds 27 1009 74 10000 1.5 80 01:40 27.06.2020
675 Clouds 29 1009 74 10000 1.5 80 00:52 27.06.2020
676 Clouds 31 1009 62 10000 2.6 80 23:58 26.06.2020
677 Clouds 31 1009 62 10000 2.6 80 23:40 26.06.2020
678 Clouds 31 1009 62 10000 2.6 80 23:21 26.06.2020
679 Clouds 31 1009 66 10000 2.1 80 22:45 26.06.2020
680 Clouds 31 1009 66 10000 2.1 80 22:26 26.06.2020
681 Clouds 32 1009 66 10000 1 90 21:58 26.06.2020
682 Clouds 32 1009 66 10000 1 90 21:40 26.06.2020
683 Clouds 32 1009 66 10000 1 90 21:21 26.06.2020
684 Clouds 32 1010 66 10000 2.1 80 20:59 26.06.2020
685 Clouds 32 1010 66 10000 2.1 80 20:40 26.06.2020
686 Clouds 32 1010 66 10000 2.1 80 20:18 26.06.2020
687 Clouds 31 1011 66 10000 3.1 70 19:41 26.06.2020
688 Clouds 31 1011 66 10000 3.1 70 19:23 26.06.2020
689 Clouds 30 1012 74 10000 2.6 70 18:44 26.06.2020
690 Clouds 30 1012 74 10000 2.6 70 18:25 26.06.2020
691 Clouds 29 1013 74 10000 2.6 70 17:57 26.06.2020
692 Clouds 29 1013 74 10000 2.6 70 17:39 26.06.2020
693 Clouds 29 1013 74 10000 2.6 70 17:21 26.06.2020
694 Clouds 29 1013 74 10000 3.1 80 16:43 26.06.2020
695 Clouds 29 1013 74 10000 3.1 80 16:23 26.06.2020
696 Clouds 29 1013 79 10000 2.1 70 15:41 26.06.2020
697 Clouds 29 1013 79 10000 2.1 70 15:22 26.06.2020
698 Clouds 27 1013 83 10000 1.5 50 14:59 26.06.2020
699 Clouds 27 1013 83 10000 1.5 50 14:59 26.06.2020
700 Clouds 27 1013 83 10000 1.5 50 14:40 26.06.2020
701 Clouds 27 1013 83 10000 1.5 50 14:22 26.06.2020
702 Clouds 26 1012 88 10000 2.1 61 13:47 26.06.2020
703 Clouds 26 1012 88 10000 1.73 56 13:26 26.06.2020
704 -273 0 0 0 0 0 12:59 26.06.2020
705 Clouds 26 1011 88 10000 1.5 30 12:41 26.06.2020
706 Clouds 26 1011 88 10000 1.5 30 12:22 26.06.2020
707 Clouds 26 1012 88 10000 1.5 40 11:57 26.06.2020
708 Clouds 26 1012 88 10000 1.5 40 11:39 26.06.2020
709 Clouds 26 1012 88 10000 1.5 40 11:20 26.06.2020
710 Clouds 25 1011 88 10000 1 30 10:57 26.06.2020
711 Clouds 25 1011 88 10000 1 30 10:38 26.06.2020
712 Rain 25 1011 88 10000 1 30 10:18 26.06.2020
713 Rain 26 1011 83 10000 1 10 09:43 26.06.2020
714 Rain 26 1011 83 10000 1 10 09:22 26.06.2020
715 Rain 26 1012 83 10000 1.5 20 08:51 26.06.2020
716 Rain 26 1012 83 10000 1.5 20 08:28 26.06.2020
717 Rain 26 1012 78 10000 1.5 10 07:52 26.06.2020
718 Rain 26 1012 78 10000 1.5 10 07:24 26.06.2020
719 Clouds 27 1012 83 10000 2.1 20 06:57 26.06.2020
720 Rain 27 1012 83 10000 2.1 20 06:35 26.06.2020
721 Rain 28 1012 78 10000 2.1 20 05:59 26.06.2020
722 Rain 28 1012 78 10000 2.1 20 05:33 26.06.2020
723 Clouds 29 1010 74 10000 2.1 80 02:42 26.06.2020
724 Clouds 29 1010 74 10000 2.1 80 02:22 26.06.2020
725 Clouds 29 1010 70 10000 2.1 70 00:58 26.06.2020
726 Clouds 29 1010 70 10000 2.1 70 00:39 26.06.2020
727 Clouds 31 1010 62 10000 3.1 70 23:48 25.06.2020
728 Clouds 31 1010 62 10000 3.1 70 23:24 25.06.2020
729 Clouds 32 1010 62 10000 2.1 70 22:59 25.06.2020
730 Clouds 32 1010 62 10000 2.1 70 22:40 25.06.2020
731 Clouds 32 1010 62 10000 2.1 70 22:40 25.06.2020
732 Clouds 32 1010 62 10000 2.1 70 22:21 25.06.2020
733 Rain 32 1010 59 10000 2.1 80 21:58 25.06.2020
734 Rain 32 1010 59 10000 2.1 80 21:40 25.06.2020
735 Rain 32 1010 59 10000 2.1 80 21:21 25.06.2020
736 Rain 31 1011 62 10000 2.1 80 20:59 25.06.2020
737 Rain 31 1011 62 10000 2.1 80 20:41 25.06.2020
738 Rain 31 1011 62 10000 2.1 80 20:22 25.06.2020
739 Rain 32 1011 55 10000 3.1 80 19:56 25.06.2020
740 Clouds 32 1012 66 10000 1.5 90 19:37 25.06.2020
741 Clouds 32 1012 66 10000 1.5 90 19:18 25.06.2020
742 Clouds 32 1013 66 10000 2.1 90 18:40 25.06.2020
743 Clouds 32 1013 66 10000 2.1 90 18:21 25.06.2020
744 Clouds 31 1013 66 10000 2.1 70 17:55 25.06.2020
745 Clouds 31 1013 66 10000 2.1 70 17:37 25.06.2020
746 Clouds 31 1013 66 10000 2.1 70 17:18 25.06.2020
747 Clouds 31 1013 70 10000 1 90 16:40 25.06.2020
748 Clouds 31 1013 70 10000 1 90 16:20 25.06.2020
749 Clouds 30 1013 66 10000 2.1 70 15:45 25.06.2020
750 Clouds 30 1013 66 10000 2.1 70 15:27 25.06.2020
751 Clouds 29 1013 74 10000 1 30 14:57 25.06.2020
752 Clouds 29 1013 74 10000 1 30 14:39 25.06.2020
753 Clouds 29 1013 74 10000 1 30 14:21 25.06.2020
754 Clouds 26 1012 83 10000 1.5 10 13:55 25.06.2020
755 Clouds 26 1012 83 10000 1.5 10 13:37 25.06.2020
756 Clouds 26 1012 83 10000 1.5 10 13:19 25.06.2020
757 Clouds 25 1012 83 10000 1.5 60 12:43 25.06.2020
758 Clouds 25 1012 83 10000 1.5 60 12:20 25.06.2020
759 Clouds 25 1011 88 10000 2.1 10 11:44 25.06.2020
760 Clouds 25 1011 88 10000 2.1 10 11:25 25.06.2020
761 Clouds 25 1010 83 10000 1.5 90 10:58 25.06.2020
762 Clouds 25 1010 83 10000 1.5 90 10:40 25.06.2020
763 Clouds 25 1010 83 10000 1.5 90 10:21 25.06.2020
764 Clouds 25 1010 83 10000 1 40 09:41 25.06.2020
765 Clouds 25 1010 83 10000 1 40 09:23 25.06.2020
766 Clouds 26 1011 83 10000 1 70 08:47 25.06.2020
767 Clouds 26 1011 83 10000 1 70 08:20 25.06.2020
768 Clouds 26 1011 78 10000 1.5 50 07:46 25.06.2020
769 Clouds 26 1011 78 10000 1.5 50 07:27 25.06.2020
770 Clouds 26 1012 83 10000 1.5 40 06:53 25.06.2020
771 Clouds 26 1012 83 10000 1.5 40 06:27 25.06.2020
772 Clouds 27 1012 78 10000 1.5 40 05:51 25.06.2020
773 Clouds 26 1011 83 10000 1.5 80 04:29 25.06.2020
774 Clouds 27 1011 74 10000 1.5 70 03:34 25.06.2020
775 Clear 28 1010 70 10000 2.1 70 02:42 25.06.2020
776 Clouds 28 1009 74 10000 1.5 70 01:59 25.06.2020
777 Clouds 29 1008 74 10000 2.1 100 01:21 25.06.2020
778 Clouds 29 1008 74 10000 2.1 100 00:44 25.06.2020
779 Clouds 29 1008 74 10000 2.1 100 00:21 25.06.2020
780 Clouds 31 1008 62 10000 1.5 80 23:44 24.06.2020
781 Clouds 31 1008 62 10000 1.5 80 23:26 24.06.2020
782 Clouds 31 1008 66 10000 1.5 80 22:59 24.06.2020
783 Clouds 31 1008 66 10000 1.5 80 22:41 24.06.2020
784 Clouds 31 1008 66 10000 1.5 80 22:20 24.06.2020
785 Clouds 31 1009 62 10000 2.6 80 21:56 24.06.2020
786 Clouds 31 1009 62 10000 2.6 80 21:37 24.06.2020
787 Clouds 31 1009 62 10000 2.6 80 21:18 24.06.2020
788 Clouds 31 1010 66 10000 2.6 80 20:58 24.06.2020
789 Clouds 31 1010 66 10000 2.6 80 20:38 24.06.2020
790 Clouds 31 1010 66 10000 2.6 80 20:20 24.06.2020
791 Clouds 31 1011 66 10000 2.6 100 19:55 24.06.2020
792 Clouds 31 1011 66 10000 2.6 100 19:36 24.06.2020
793 Clouds 31 1011 66 10000 2.6 100 19:18 24.06.2020
794 Clouds 31 1012 66 10000 1.5 130 18:57 24.06.2020
795 Clouds 31 1012 66 10000 1.5 130 18:38 24.06.2020
796 Clouds 31 1012 66 10000 1.5 130 18:19 24.06.2020
797 Clouds 30 1012 70 10000 1 180 17:43 24.06.2020
798 Clouds 30 1012 70 10000 1 180 17:21 24.06.2020
799 Clouds 29 1012 74 10000 1.5 220 16:59 24.06.2020
800 Clouds 29 1012 74 10000 1.5 220 16:40 24.06.2020
801 Clouds 29 1012 74 10000 1.5 220 16:22 24.06.2020
802 Clear 28 1012 78 10000 2.1 260 15:58 24.06.2020
803 Clear 28 1012 78 10000 2.1 260 15:39 24.06.2020
804 Clear 28 1012 78 10000 2.1 260 15:20 24.06.2020
805 Clear 27 1012 83 10000 1.5 20 14:54 24.06.2020
806 Clouds 27 1012 83 10000 1.5 20 14:36 24.06.2020
807 Clouds 27 1012 83 10000 1.5 20 14:18 24.06.2020
808 Clouds 25 1011 88 10000 2.1 10 13:41 24.06.2020
809 Clouds 25 1011 88 10000 2.1 10 13:20 24.06.2020
810 Clouds 24 1010 88 10000 2.6 340 12:41 24.06.2020
811 Clouds 24 1010 88 10000 2.6 340 12:21 24.06.2020
812 Clouds 24 1010 88 10000 1.5 320 11:57 24.06.2020
813 Clouds 24 1010 88 10000 1.5 320 11:39 24.06.2020
814 Clear 24 1010 88 10000 1.5 320 11:21 24.06.2020
815 Clear 25 1010 88 10000 2.6 350 10:44 24.06.2020
816 Clear 25 1010 88 10000 2.6 350 10:19 24.06.2020
817 Clear 25 1010 88 10000 3.1 350 09:45 24.06.2020
818 Clear 25 1010 88 10000 3.1 350 09:23 24.06.2020
819 Clouds 25 1010 94 10000 3.6 350 08:54 24.06.2020
820 Clouds 25 1010 94 10000 3.6 350 08:36 24.06.2020
821 Clouds 25 1010 94 10000 3.6 350 08:18 24.06.2020
822 Clouds 25 1011 88 10000 3.6 360 07:42 24.06.2020
823 Clouds 25 1011 88 10000 3.6 360 07:23 24.06.2020
824 Clouds 25 1011 88 10000 2.6 350 06:40 24.06.2020
825 Clouds 25 1011 83 10000 3.1 340 06:22 24.06.2020
826 Clouds 25 1011 83 10000 3.1 340 05:38 24.06.2020
827 Clouds 25 1011 83 10000 3.1 360 04:38 24.06.2020
828 Clouds 25 1011 83 10000 2.6 360 03:37 24.06.2020
829 Clouds 26 1010 78 10000 2.1 340 02:53 24.06.2020
830 Clouds 26 1009 83 10000 2.1 350 01:59 24.06.2020
831 Clouds 27 1009 78 10000 1.5 340 00:50 24.06.2020
832 Clouds 27 1009 78 10000 1.5 340 00:31 24.06.2020
833 Clouds 27 1008 78 10000 1 40 23:46 23.06.2020
834 Clouds 27 1008 78 10000 1 40 23:21 23.06.2020
835 Clouds 27 1009 78 10000 1 90 22:57 23.06.2020
836 Clouds 27 1009 78 10000 1 90 22:38 23.06.2020
837 Clouds 27 1009 78 10000 1 90 22:18 23.06.2020
838 Rain 28 1009 74 10000 1 110 21:42 23.06.2020
839 Rain 28 1009 74 10000 1 110 21:20 23.06.2020
840 Rain 28 1009 74 10000 1 110 21:20 23.06.2020
841 Rain 30 1009 74 10000 2.1 210 20:56 23.06.2020
842 Rain 30 1009 74 10000 2.1 210 20:56 23.06.2020
843 Rain 30 1009 74 10000 2.1 210 20:37 23.06.2020
844 Rain 30 1009 74 10000 2.1 210 20:19 23.06.2020
845 Clouds 29 1011 79 10000 3.1 250 19:49 23.06.2020
846 Clouds 29 1011 79 10000 3.1 250 19:28 23.06.2020
847 Clouds 29 1011 79 10000 3.1 250 18:55 23.06.2020
848 Clouds 28 1012 83 10000 3.1 240 18:37 23.06.2020
849 Clouds 28 1013 78 10000 2.1 350 18:18 23.06.2020
850 Clouds 28 1013 78 10000 2.1 350 17:39 23.06.2020
851 Clouds 28 1013 78 10000 2.1 350 17:21 23.06.2020
852 Clouds 27 1013 83 10000 2.1 310 16:56 23.06.2020
853 Clouds 27 1013 83 10000 2.1 310 16:38 23.06.2020
854 Clouds 27 1013 83 10000 2.1 310 16:38 23.06.2020
855 Clouds 27 1013 83 10000 2.1 310 16:20 23.06.2020
856 Clouds 26 1012 83 10000 2.6 350 15:45 23.06.2020
857 Clouds 26 1012 83 10000 2.6 350 15:25 23.06.2020
858 Clouds 26 1012 88 10000 1.5 360 14:59 23.06.2020
859 Clouds 26 1012 88 10000 1.5 360 14:41 23.06.2020
860 Clouds 26 1012 88 10000 1.5 360 14:18 23.06.2020
861 Clouds 26 1012 88 10000 1.5 360 13:55 23.06.2020
862 Clouds 25 1011 88 10000 2.1 350 13:37 23.06.2020
863 Clouds 25 1011 88 10000 2.1 310 13:19 23.06.2020
864 Clouds 25 1011 88 10000 2.1 310 12:41 23.06.2020
865 Clouds 25 1011 88 10000 2.1 310 12:22 23.06.2020
866 Rain 26 1011 88 10000 1.5 320 11:54 23.06.2020
867 Rain 26 1011 88 10000 1.5 320 11:36 23.06.2020
868 Rain 26 1011 88 10000 1.5 320 11:18 23.06.2020
869 Rain 26 1010 88 10000 2.6 290 10:41 23.06.2020
870 Rain 26 1010 88 10000 2.6 290 10:22 23.06.2020
871 Rain 26 1011 88 10000 1 320 09:59 23.06.2020
872 Rain 26 1011 88 10000 1 320 09:41 23.06.2020
873 Clouds 26 1011 88 10000 1 320 09:20 23.06.2020
874 Clouds 26 1012 83 10000 2.1 350 08:47 23.06.2020
875 Clouds 26 1012 83 10000 2.1 350 08:27 23.06.2020
876 Clouds 26 1012 83 10000 3.1 350 07:56 23.06.2020
877 Clouds 26 1012 83 10000 3.1 350 07:38 23.06.2020
878 Clouds 26 1012 83 10000 3.1 350 07:19 23.06.2020
879 Clouds 26 1012 83 10000 3.1 350 07:19 23.06.2020
880 Clouds 26 1012 83 10000 2.6 310 06:43 23.06.2020
881 Clouds 26 1012 83 10000 2.6 310 06:25 23.06.2020
882 Clouds 27 1012 74 10000 3.1 10 05:29 23.06.2020
883 Clouds 27 1012 74 10000 3.1 350 03:23 23.06.2020
884 Clouds 27 1011 74 10000 3.1 10 02:53 23.06.2020
885 Clouds 27 1011 74 10000 3.1 10 02:34 23.06.2020
886 Clouds 27 1010 74 10000 2.6 30 01:46 23.06.2020
887 Clouds 27 1010 74 10000 2.6 30 01:25 23.06.2020
888 Clouds 29 1010 70 10000 3.1 40 00:49 23.06.2020
889 Clouds 29 1010 70 10000 3.1 40 00:21 23.06.2020
890 Clouds 30 1010 62 10000 3.1 70 23:55 22.06.2020
891 Clouds 30 1010 62 10000 3.1 70 23:36 22.06.2020
892 Clouds 30 1010 62 10000 3.1 70 23:18 22.06.2020
893 Clouds 31 1010 62 10000 2.6 80 22:55 22.06.2020
894 Clouds 31 1010 62 10000 2.6 80 22:36 22.06.2020
895 Clouds 31 1010 62 10000 2.6 80 22:18 22.06.2020
896 Clouds 32 1010 59 10000 3.1 80 21:41 22.06.2020
897 Clouds 32 1010 59 10000 3.1 80 21:22 22.06.2020
898 Clouds 32 1011 62 10000 1.5 90 20:59 22.06.2020
899 Clouds 32 1011 62 10000 1.5 90 20:41 22.06.2020
900 Clouds 32 1011 62 10000 1.5 90 20:21 22.06.2020
901 Clouds 32 1012 62 10000 2.1 70 19:44 22.06.2020
902 Clouds 32 1012 62 10000 2.1 70 19:20 22.06.2020
903 Clouds 31 1013 66 10000 2.6 70 18:57 22.06.2020
904 Clouds 31 1013 66 10000 2.6 70 18:38 22.06.2020
905 Clouds 31 1013 66 10000 2.6 70 18:19 22.06.2020
906 Clouds 31 1014 66 10000 2.1 70 17:55 22.06.2020
907 Clouds 31 1014 66 10000 2.1 70 17:37 22.06.2020
908 Clouds 31 1014 66 10000 2.1 70 17:19 22.06.2020
909 Clouds 30 1014 74 10000 1.5 60 16:43 22.06.2020
910 Clouds 30 1014 74 10000 1.5 60 16:19 22.06.2020
911 Clear 30 1014 74 10000 1 100 15:58 22.06.2020
912 Clear 30 1014 74 10000 1 100 15:39 22.06.2020
913 Clear 30 1014 74 10000 1 100 15:39 22.06.2020
914 Clear 30 1014 74 10000 1 100 15:21 22.06.2020
915 Clear 29 1013 83 10000 0.77 82 14:40 22.06.2020
916 Clouds 29 1013 83 10000 0.42 67 14:21 22.06.2020
917 Clouds 26 1013 88 10000 0.5 40 13:58 22.06.2020
918 Clouds 26 1013 88 10000 0.5 40 13:39 22.06.2020
919 Clouds 25 1013 88 10000 0.5 40 13:20 22.06.2020
920 Clouds 25 1012 94 10000 1.5 80 12:44 22.06.2020
921 Clouds 25 1012 94 10000 1.5 80 12:44 22.06.2020
922 Clouds 25 1012 94 10000 1.5 80 12:23 22.06.2020
923 Clouds 25 1012 94 10000 1.5 70 11:59 22.06.2020
924 Clouds 25 1012 94 10000 1.5 70 11:37 22.06.2020
925 Clouds 25 1012 94 10000 1.5 70 11:18 22.06.2020
926 Clouds 25 1011 100 10000 1 50 10:55 22.06.2020
927 Clouds 25 1011 100 10000 1 50 10:36 22.06.2020
928 Clouds 25 1011 94 10000 1.5 80 10:18 22.06.2020
929 Clouds 25 1011 94 10000 1.5 80 09:54 22.06.2020
930 Clouds 25 1011 94 10000 1.5 80 09:36 22.06.2020
931 Clouds 26 1011 88 10000 2.1 100 09:18 22.06.2020
932 Clouds 26 1011 88 10000 2.1 100 08:39 22.06.2020
933 Clear 26 1011 88 10000 2.1 100 08:20 22.06.2020
934 Clear 26 1012 83 10000 1.5 60 07:52 22.06.2020
935 Clear 26 1012 83 10000 1.5 60 07:33 22.06.2020
936 Clear 27 1012 78 10000 2.1 80 06:46 22.06.2020
937 Clear 27 1012 78 10000 2.1 80 06:27 22.06.2020
938 Clear 27 1012 78 10000 2.1 80 05:58 22.06.2020
939 Clear 27 1012 78 10000 1.5 70 05:30 22.06.2020
940 Clear 27 1012 78 10000 1 40 02:56 22.06.2020
941 Clouds 27 1010 83 10000 0.5 60 01:34 22.06.2020
942 Clouds 29 1010 78 10000 0.5 80 00:41 22.06.2020
943 Clouds 31 1010 66 10000 1 70 23:59 21.06.2020
944 Clouds 31 1010 66 10000 1 70 23:40 21.06.2020
945 Clouds 31 1010 66 10000 1 70 23:22 21.06.2020
946 Clouds 32 1010 62 10000 2.1 170 22:57 21.06.2020
947 Clouds 32 1010 62 10000 2.1 170 22:38 21.06.2020
948 Clouds 32 1010 62 10000 2.1 170 22:19 21.06.2020
949 Clouds 31 1011 62 10000 2.1 150 21:59 21.06.2020
950 Clouds 31 1011 62 10000 2.1 150 21:40 21.06.2020
951 Clouds 31 1011 62 10000 2.1 150 21:21 21.06.2020
952 Clouds 31 1012 66 10000 1.5 150 20:59 21.06.2020
953 Clouds 31 1012 66 10000 1.5 150 20:59 21.06.2020
954 Clouds 31 1012 66 10000 1.5 150 20:38 21.06.2020
955 Clouds 31 1012 66 10000 1.5 150 20:19 21.06.2020
956 Clouds 31 1013 70 10000 2.1 90 19:56 21.06.2020
957 Clouds 31 1013 70 10000 2.1 90 19:38 21.06.2020
958 Clouds 31 1013 70 10000 2.1 90 19:19 21.06.2020
959 Clouds 31 1014 66 10000 1.5 130 18:54 21.06.2020
960 Clouds 31 1014 66 10000 1.5 130 18:54 21.06.2020
961 Clouds 31 1014 66 10000 1.5 130 18:36 21.06.2020
962 Clouds 31 1014 70 10000 1 90 18:18 21.06.2020
963 Clouds 31 1014 70 10000 1 90 17:40 21.06.2020
964 Clouds 31 1014 70 10000 1 90 17:39 21.06.2020
965 Clouds 31 1014 70 10000 1 90 17:20 21.06.2020
966 Clouds 30 1014 74 10000 1 80 16:43 21.06.2020
967 Clouds 30 1014 74 10000 1 80 16:24 21.06.2020
968 Clouds 29 1014 74 10000 1.5 80 15:59 21.06.2020
969 Clouds 29 1014 74 10000 1.5 80 15:37 21.06.2020
970 Clouds 29 1014 74 10000 1.5 80 15:19 21.06.2020
971 Clouds 28 1014 78 10000 1.5 70 14:39 21.06.2020
972 Clouds 28 1014 78 10000 1.5 70 14:20 21.06.2020
973 Rain 27 1014 78 10000 1 20 13:59 21.06.2020
974 Clouds 26 1013 88 10000 0.5 50 13:40 21.06.2020
975 Clouds 26 1013 88 10000 0.5 50 13:22 21.06.2020
976 Clouds 25 1013 88 10000 0.5 50 12:54 21.06.2020
977 Clouds 24 1013 88 10000 0.5 30 12:36 21.06.2020
978 Clouds 25 1013 94 0 1.5 150 12:18 21.06.2020
979 Clouds 25 1013 94 0 1.5 150 11:41 21.06.2020
980 Clouds 25 1013 94 0 1.5 150 11:23 21.06.2020
981 Rain 25 1012 94 10000 1 110 10:58 21.06.2020
982 Rain 25 1012 94 10000 1 110 10:39 21.06.2020
983 Clouds 25 1012 94 10000 1 110 10:20 21.06.2020
984 Clouds 25 1012 94 10000 0.5 90 09:44 21.06.2020
985 Clouds 25 1012 94 10000 0.5 90 09:22 21.06.2020
986 Clouds 25 1013 88 10000 1.5 100 08:57 21.06.2020
987 Clouds 25 1013 88 10000 1.5 100 08:39 21.06.2020
988 Clouds 25 1013 88 10000 1.5 100 08:19 21.06.2020
989 Clouds 24 1013 88 10000 1.25 34 07:42 21.06.2020
990 Clouds 24 1013 88 10000 1.36 41 07:23 21.06.2020
991 Clouds 25 1013 88 10000 1.36 41 06:50 21.06.2020
992 Clouds 25 1013 88 10000 1.32 37 06:28 21.06.2020
993 Clouds 25 1013 94 10000 1 70 05:57 21.06.2020
994 Clouds 26 1013 78 10000 1.5 70 04:34 21.06.2020
995 Clouds 27 1012 78 10000 1.5 80 03:19 21.06.2020
996 Clouds 27 1012 78 10000 1.5 80 02:33 21.06.2020
997 Clouds 28 1011 69 10000 2.1 80 01:37 21.06.2020
998 Clouds 28 1011 69 10000 2.1 80 01:18 21.06.2020
999 Clouds 29 1011 62 10000 2.1 80 00:42 21.06.2020
1000 Clouds 29 1011 62 10000 2.1 80 00:23 21.06.2020
1001 Clouds 30 1010 62 10000 2.1 80 23:45 20.06.2020
1002 Clouds 30 1010 62 10000 2.1 80 23:22 20.06.2020
1003 Clouds 31 1011 58 10000 2.1 70 22:57 20.06.2020
1004 Clouds 31 1011 58 10000 2.1 70 22:39 20.06.2020
1005 Clouds 31 1011 58 10000 2.1 70 22:20 20.06.2020
1006 Clouds 31 1011 62 10000 2.6 80 21:58 20.06.2020
1007 Clouds 31 1011 62 10000 2.6 80 21:39 20.06.2020
1008 Clouds 31 1011 62 10000 2.6 80 21:20 20.06.2020
1009 Clouds 31 1011 62 10000 2.6 80 21:20 20.06.2020
1010 Clouds 31 1012 66 10000 3.1 80 20:58 20.06.2020
1011 Clouds 31 1012 66 10000 3.1 80 20:39 20.06.2020
1012 Clouds 31 1012 66 10000 3.1 80 20:20 20.06.2020
1013 Clouds 31 1013 66 10000 2.6 80 19:55 20.06.2020
1014 Clouds 31 1013 66 10000 2.6 80 19:37 20.06.2020
1015 Clouds 31 1013 66 10000 2.6 80 19:19 20.06.2020
1016 Clouds 31 1014 70 10000 2.6 80 18:42 20.06.2020
1017 Clouds 31 1014 70 10000 2.6 80 18:20 20.06.2020
1018 Clouds 30 1014 74 10000 2.1 80 17:57 20.06.2020
1019 Clouds 30 1014 74 10000 2.1 80 17:57 20.06.2020
1020 Clouds 30 1014 74 10000 2.1 80 17:39 20.06.2020
1021 Clouds 30 1014 74 10000 2.1 80 17:20 20.06.2020
1022 Clouds 29 1014 78 10000 1.5 70 16:42 20.06.2020
1023 Clouds 29 1014 78 10000 1.5 70 16:19 20.06.2020
1024 Clouds 28 1014 78 10000 2.1 70 15:57 20.06.2020
1025 Clouds 28 1014 78 10000 2.1 70 15:39 20.06.2020
1026 Clouds 26 1014 88 10000 0.5 100 15:18 20.06.2020
1027 Clouds 26 1014 88 10000 0.5 100 14:42 20.06.2020
1028 Clouds 26 1014 88 10000 0.5 100 14:21 20.06.2020
1029 Clouds 23 1013 94 10000 1.5 90 13:42 20.06.2020
1030 Clouds 23 1013 94 10000 1.5 90 13:21 20.06.2020
1031 Clouds 23 1013 94 10000 1.5 90 12:57 20.06.2020
1032 Rain 23 1013 100 8000 1.5 80 12:38 20.06.2020
1033 Rain 23 1013 100 8000 1.5 80 12:19 20.06.2020
1034 Clouds 25 1012 94 10000 2.1 120 11:41 20.06.2020
1035 Clouds 25 1012 94 10000 2.1 120 11:21 20.06.2020
1036 Clouds 25 1012 94 10000 2.1 120 10:59 20.06.2020
1037 Clouds 25 1012 94 10000 2.1 120 10:41 20.06.2020
1038 Clouds 25 1012 94 10000 2.1 120 10:20 20.06.2020
1039 Clouds 25 1012 94 10000 1.5 120 09:43 20.06.2020
1040 Clouds 25 1012 94 10000 1.5 120 09:25 20.06.2020
1041 Clouds 25 1012 94 10000 1 90 08:58 20.06.2020
1042 Clouds 25 1012 94 10000 1 90 08:39 20.06.2020
1043 Clouds 25 1012 94 10000 1 90 08:21 20.06.2020
1044 Clouds 26 1013 94 10000 1.5 90 07:50 20.06.2020
1045 Clouds 26 1013 94 10000 1.5 90 07:25 20.06.2020
1046 Clouds 25 1013 94 10000 0.5 60 06:49 20.06.2020
1047 Clouds 25 1013 94 10000 0.5 60 06:21 20.06.2020
1048 Clouds 26 1013 94 10000 0.5 90 05:48 20.06.2020
1049 Clear 26 1012 94 10000 0.5 120 03:55 20.06.2020
1050 Clouds 29 1011 74 10000 2.1 80 01:55 20.06.2020
1051 Clouds 29 1011 74 10000 2.1 80 01:37 20.06.2020
1052 Clouds 29 1011 74 10000 1.5 80 00:47 20.06.2020
1053 Clouds 29 1011 74 10000 1.5 80 00:20 20.06.2020
1054 Clouds 30 1010 70 10000 2.1 80 23:44 19.06.2020
1055 Clouds 30 1010 70 10000 2.1 80 23:20 19.06.2020
1056 Clouds 31 1010 66 10000 2.1 80 22:56 19.06.2020
1057 Clouds 31 1010 66 10000 2.1 80 22:56 19.06.2020
1058 Clouds 31 1010 66 10000 2.1 80 22:37 19.06.2020
1059 Clouds 31 1010 66 10000 2.1 80 22:19 19.06.2020
1060 Clouds 31 1011 70 10000 2.1 180 21:55 19.06.2020
1061 Clouds 31 1011 70 10000 2.1 180 21:37 19.06.2020
1062 Rain 31 1012 70 10000 1.5 160 21:18 19.06.2020
1063 Rain 31 1012 70 10000 1.5 160 20:56 19.06.2020
1064 Rain 31 1012 70 10000 1.5 160 20:38 19.06.2020
1065 Rain 31 1012 70 10000 1.5 160 20:20 19.06.2020
1066 Rain 30 1013 70 10000 3.1 180 19:42 19.06.2020
1067 Rain 30 1013 70 10000 3.1 180 19:23 19.06.2020
1068 Thunderstorm 31 1013 66 10000 2.6 80 18:59 19.06.2020
1069 Clouds 31 1013 70 10000 2.6 80 18:39 19.06.2020
1070 Clouds 31 1013 70 10000 2.6 80 18:20 19.06.2020
1071 Clouds 31 1013 70 10000 2.6 80 18:20 19.06.2020
1072 Clouds 30 1014 79 10000 2.1 80 17:42 19.06.2020
1073 Clouds 30 1014 79 10000 2.1 80 17:42 19.06.2020
1074 Clouds 30 1014 79 10000 2.1 80 17:23 19.06.2020
1075 Clouds 30 1014 74 10000 2.1 70 16:58 19.06.2020
1076 Clouds 30 1014 74 10000 2.1 70 16:39 19.06.2020
1077 Clouds 30 1014 74 10000 2.1 70 16:21 19.06.2020
1078 Clouds 29 1014 79 10000 2.6 80 15:45 19.06.2020
1079 Clouds 29 1014 79 10000 2.6 80 15:26 19.06.2020
1080 Clouds 28 1013 83 10000 2.6 50 14:58 19.06.2020
1081 Clouds 28 1013 83 10000 2.6 50 14:40 19.06.2020
1082 Clouds 28 1013 83 10000 2.6 50 14:21 19.06.2020
1083 Clouds 26 1013 88 10000 1.5 40 13:58 19.06.2020
1084 Clouds 26 1013 88 10000 1.5 40 13:40 19.06.2020
1085 Clouds 26 1013 88 10000 1.5 40 13:22 19.06.2020
1086 Clouds 25 1012 94 10000 1.5 50 12:45 19.06.2020
1087 Rain 25 1012 94 10000 1.5 50 12:21 19.06.2020
1088 Clouds 24 1012 94 10000 1.5 70 11:55 19.06.2020
1089 Clouds 24 1012 94 10000 1.5 70 11:36 19.06.2020
1090 Clouds 24 1012 94 10000 1.5 20 11:18 19.06.2020
1091 Clouds 24 1012 94 10000 1.5 20 10:41 19.06.2020
1092 Clouds 24 1012 94 10000 1.5 20 10:21 19.06.2020
1093 Clouds 24 1011 88 10000 1.5 20 09:54 19.06.2020
1094 Clouds 24 1011 88 10000 1.5 20 09:36 19.06.2020
1095 Clouds 25 1012 88 10000 1.5 40 09:18 19.06.2020
1096 Clouds 25 1012 88 10000 1.5 40 08:39 19.06.2020
1097 Clouds 25 1012 88 10000 1.5 40 08:21 19.06.2020
1098 Clouds 26 1012 83 10000 1.5 20 07:41 19.06.2020
1099 Clouds 26 1012 83 10000 1.5 20 07:22 19.06.2020
1100 Clouds 26 1012 83 10000 1.5 30 06:50 19.06.2020
1101 Clouds 26 1012 83 10000 1.5 30 06:22 19.06.2020
1102 Rain 27 1013 83 10000 2.6 20 05:29 19.06.2020
1103 Rain 27 1012 78 10000 2.1 20 03:45 19.06.2020
1104 Clouds 27 1011 78 10000 2.1 60 02:22 19.06.2020
1105 Clouds 29 1010 74 10000 2.1 80 00:45 19.06.2020
1106 Clouds 29 1010 74 10000 2.1 80 00:45 19.06.2020
1107 Clouds 29 1010 74 10000 2.1 80 00:22 19.06.2020
1108 Clouds 29 1010 74 10000 2.1 80 00:22 19.06.2020
1109 Clouds 30 1010 70 10000 2.6 80 23:58 18.06.2020
1110 Clouds 30 1010 70 10000 2.6 80 23:39 18.06.2020
1111 Clouds 30 1010 70 10000 2.6 80 23:21 18.06.2020
1112 Clouds 31 1010 66 10000 1.5 90 22:41 18.06.2020
1113 Clouds 31 1010 66 10000 1.5 90 22:20 18.06.2020
1114 Clouds 31 1010 66 10000 2.6 80 21:57 18.06.2020
1115 Clouds 31 1010 66 10000 2.6 80 21:38 18.06.2020
1116 Clouds 31 1010 66 10000 2.6 80 21:19 18.06.2020
1117 Clouds 31 1011 66 10000 2.6 70 20:41 18.06.2020
1118 Clouds 30 1012 74 10000 2.1 80 20:22 18.06.2020
1119 Clouds 30 1012 74 10000 2.1 80 19:58 18.06.2020
1120 Clouds 30 1012 74 10000 2.1 80 19:40 18.06.2020
1121 Clouds 30 1012 74 10000 2.1 80 19:20 18.06.2020
1122 Clouds 30 1013 79 10000 2.1 150 18:41 18.06.2020
1123 Clouds 30 1013 79 10000 2.1 150 18:23 18.06.2020
1124 Clouds 30 1014 79 10000 1 70 17:55 18.06.2020
1125 Clouds 30 1014 79 10000 1 70 17:37 18.06.2020
1126 Clouds 30 1014 79 10000 1 70 17:19 18.06.2020
1127 Clouds 28 1014 83 10000 1.5 200 16:43 18.06.2020
1128 Clouds 28 1014 83 10000 1.5 200 16:25 18.06.2020
1129 Clouds 28 1014 83 10000 1.5 200 16:25 18.06.2020
1130 Clouds 27 1014 88 10000 1.5 220 15:58 18.06.2020
1131 Clouds 27 1014 88 10000 1.5 220 15:39 18.06.2020
1132 Clouds 27 1014 88 10000 1.5 220 15:20 18.06.2020
1133 Clouds 26 1013 94 10000 1.5 340 14:56 18.06.2020
1134 Clouds 25 1013 94 10000 1.5 340 14:38 18.06.2020
1135 Clouds 25 1013 94 10000 1.5 340 14:20 18.06.2020
1136 Clouds 25 1013 94 10000 1.5 340 14:20 18.06.2020
1137 Clouds 24 1013 100 10000 2.1 360 13:47 18.06.2020
1138 Clouds 24 1013 100 10000 2.1 360 13:28 18.06.2020
1139 Clouds 24 1012 100 10000 1 320 12:57 18.06.2020
1140 Clouds 24 1012 100 10000 1 320 12:39 18.06.2020
1141 Clouds 24 1012 100 10000 1 320 12:39 18.06.2020
1142 Clouds 24 1012 100 10000 1 320 12:20 18.06.2020
1143 Clouds 24 1012 100 10000 0.71 63 11:57 18.06.2020
1144 Clouds 24 1012 100 10000 0.71 63 11:38 18.06.2020
1145 Clouds 24 1012 94 10000 1 210 11:18 18.06.2020
1146 Clouds 24 1012 94 10000 1 210 10:40 18.06.2020
1147 Clouds 24 1012 100 10000 1.5 200 10:18 18.06.2020
1148 Clouds 24 1012 100 10000 1.5 200 09:46 18.06.2020
1149 Clouds 24 1012 100 10000 1.5 200 09:27 18.06.2020
1150 Clouds 25 1012 94 10000 1 250 08:57 18.06.2020
1151 Clouds 25 1012 94 10000 1 250 08:37 18.06.2020
1152 Clouds 25 1012 94 10000 1 250 08:19 18.06.2020
1153 Clouds 25 1012 100 10000 2.1 230 07:44 18.06.2020
1154 Clouds 25 1012 100 10000 2.1 230 07:25 18.06.2020
1155 Clouds 25 1013 94 10000 1.5 260 06:37 18.06.2020
1156 Rain 25 1013 94 10000 2.1 280 05:25 18.06.2020
1157 Clouds 26 1013 94 10000 1.5 240 04:18 18.06.2020
1158 Clouds 26 1012 94 10000 1.5 240 01:44 18.06.2020
1159 Clouds 26 1012 94 10000 1.5 240 01:22 18.06.2020
1160 Clouds 26 1011 94 10000 1 190 00:52 18.06.2020
1161 Clouds 26 1011 94 10000 1 190 00:30 18.06.2020
1162 Clouds 26 1011 94 10000 1.45 110 23:55 17.06.2020
1163 Clouds 26 1011 94 10000 1.45 110 23:36 17.06.2020
1164 Clouds 27 1011 88 10000 1 140 23:18 17.06.2020
1165 Clouds 27 1011 88 10000 1 140 22:54 17.06.2020
1166 Clouds 27 1011 88 10000 1 140 22:36 17.06.2020
1167 Rain 27 1011 88 10000 1 150 22:18 17.06.2020
1168 Rain 27 1011 88 10000 1 150 21:40 17.06.2020
1169 Rain 27 1011 88 10000 1 150 21:21 17.06.2020
1170 Rain 30 1012 74 10000 1.5 160 20:55 17.06.2020
1171 Rain 30 1012 74 10000 1.5 160 20:37 17.06.2020
1172 Clouds 29 1013 74 10000 1.5 160 20:18 17.06.2020
1173 Clouds 28 1013 74 10000 1.5 160 19:42 17.06.2020
1174 Clouds 28 1013 74 10000 1.5 160 19:21 17.06.2020
1175 Clouds 28 1013 74 10000 1.5 160 19:21 17.06.2020
1176 Clouds 29 1013 74 10000 1.5 160 18:56 17.06.2020
1177 Clouds 29 1014 70 10000 1.5 80 18:37 17.06.2020
1178 Clouds 29 1014 70 10000 1.5 80 18:19 17.06.2020
1179 Clouds 28 1015 78 10000 1.5 60 17:40 17.06.2020
1180 Clouds 28 1015 78 10000 1.5 60 17:21 17.06.2020
1181 Clouds 27 1015 83 10000 1 30 16:56 17.06.2020
1182 Clouds 27 1015 83 10000 1 30 16:37 17.06.2020
1183 Clouds 27 1015 83 10000 1 30 16:19 17.06.2020
1184 Clouds 26 1015 83 10000 1 90 15:40 17.06.2020
1185 Clouds 26 1015 83 10000 1 90 15:21 17.06.2020
1186 Clouds 25 1015 94 10000 1 330 14:58 17.06.2020
1187 Clouds 25 1015 94 10000 1 330 14:40 17.06.2020
1188 Clouds 25 1015 94 10000 1 330 14:19 17.06.2020
1189 Clouds 24 1014 94 10000 1 120 13:58 17.06.2020
1190 Clouds 24 1014 94 10000 1 120 13:39 17.06.2020
1191 Clouds 24 1014 94 10000 1 120 13:21 17.06.2020
1192 Rain 24 1014 94 10000 2.1 20 12:43 17.06.2020
1193 Rain 24 1014 94 10000 2.1 20 12:23 17.06.2020
1194 Clouds 23 1013 94 10000 1.5 320 11:58 17.06.2020
1195 Clouds 23 1013 94 10000 1.5 320 11:40 17.06.2020
1196 Clouds 23 1013 94 10000 1.5 320 11:21 17.06.2020
1197 Rain 23 1013 94 10000 3.1 340 10:39 17.06.2020
1198 Rain 23 1013 94 10000 3.1 340 10:19 17.06.2020
1199 Rain 23 1013 94 10000 3.1 340 10:19 17.06.2020
1200 Rain 23 1013 94 10000 3.1 340 10:19 17.06.2020
1201 Clouds 23 1013 94 10000 2.1 340 09:58 17.06.2020
1202 Clouds 23 1013 94 10000 2.1 340 09:40 17.06.2020
1203 Clouds 23 1013 94 10000 2.1 340 09:21 17.06.2020
1204 Clouds 23 1013 94 10000 3.1 350 08:47 17.06.2020
1205 Clouds 23 1013 94 10000 3.1 350 08:21 17.06.2020
1206 Clouds 24 1014 94 10000 2.6 350 07:57 17.06.2020
1207 Clouds 24 1014 94 10000 2.6 350 07:39 17.06.2020
1208 Clouds 24 1014 94 10000 2.6 350 07:21 17.06.2020
1209 Clouds 23 1014 94 10000 3.1 350 06:55 17.06.2020
1210 Clouds 23 1014 94 10000 3.1 350 06:37 17.06.2020
1211 Clouds 23 1014 94 10000 3.1 350 06:19 17.06.2020
1212 Thunderstorm 23 1014 94 6000 3.6 70 04:56 17.06.2020
1213 Clouds 27 1012 74 10000 1.5 30 02:55 17.06.2020
1214 Clouds 26 1011 83 10000 0.5 30 01:29 17.06.2020
1215 Clouds 27 1011 83 10000 1 90 00:38 17.06.2020
1216 Clouds 27 1011 83 10000 1 90 00:20 17.06.2020
1217 Clouds 30 1010 66 10000 0.5 170 23:56 16.06.2020
1218 Clouds 30 1010 66 10000 0.5 170 23:37 16.06.2020
1219 Clouds 30 1010 66 10000 0.5 170 23:19 16.06.2020
1220 Clouds 30 1010 70 10000 1 90 22:54 16.06.2020
1221 Clouds 30 1010 70 10000 1 90 22:36 16.06.2020
1222 Clouds 29 1011 74 10000 3.1 50 22:18 16.06.2020
1223 Clouds 29 1011 74 10000 3.1 50 21:44 16.06.2020
1224 Clouds 29 1011 74 10000 3.1 50 21:23 16.06.2020
1225 Clouds 30 1012 70 10000 2.1 80 20:57 16.06.2020
1226 Clouds 30 1012 70 10000 2.1 80 20:39 16.06.2020
1227 Clouds 30 1013 70 10000 1 70 20:18 16.06.2020
1228 Clouds 31 1012 62 10000 2.6 90 19:56 16.06.2020
1229 Clouds 30 1013 70 10000 1 70 19:38 16.06.2020
1230 Clouds 30 1014 70 10000 1.5 160 19:18 16.06.2020
1231 Clouds 30 1014 70 10000 1.5 160 18:45 16.06.2020
1232 Clouds 30 1014 70 10000 1.5 160 18:45 16.06.2020
1233 Clouds 30 1014 70 10000 1.5 160 18:21 16.06.2020
1234 Clouds 30 1014 70 10000 1.5 160 17:58 16.06.2020
1235 Clouds 29 1014 70 10000 1 100 17:39 16.06.2020
1236 Clouds 29 1014 70 10000 1 100 17:21 16.06.2020
1237 Clear 29 1015 70 10000 1 160 16:58 16.06.2020
1238 Clear 29 1015 70 10000 1 160 16:39 16.06.2020
1239 Clear 29 1014 70 10000 1 170 16:20 16.06.2020
1240 Clear 29 1014 70 10000 1 170 15:57 16.06.2020
1241 Clear 29 1014 70 10000 1 170 15:39 16.06.2020
1242 Clouds 29 1014 70 10000 1 170 15:21 16.06.2020
1243 Clouds 28 1014 78 10000 1 190 14:56 16.06.2020
1244 Clouds 28 1014 78 10000 1 190 14:37 16.06.2020
1245 Clear 28 1014 78 10000 1 190 14:19 16.06.2020
1246 Clouds 25 1013 94 10000 1 180 13:45 16.06.2020
1247 Clouds 25 1013 94 10000 1 180 13:24 16.06.2020
1248 Clouds 25 1013 94 10000 1 180 13:24 16.06.2020
1249 Clouds 25 1013 94 10000 1 190 12:42 16.06.2020
1250 Clouds 25 1013 94 10000 1 190 12:22 16.06.2020
1251 Clouds 24 1012 94 10000 1 110 11:57 16.06.2020
1252 Clouds 24 1012 94 10000 1 110 11:39 16.06.2020
1253 Clouds 24 1012 94 10000 1 110 11:21 16.06.2020
1254 Clouds 24 1012 88 10000 1.5 120 10:57 16.06.2020
1255 Clouds 24 1012 88 10000 1.5 120 10:38 16.06.2020
1256 Clouds 24 1012 88 10000 1.5 120 10:18 16.06.2020
1257 Clouds 23 1011 94 10000 1.5 130 09:43 16.06.2020
1258 Clouds 23 1011 94 10000 1.5 130 09:22 16.06.2020
1259 Clear 23 1012 100 10000 1 120 08:51 16.06.2020
1260 Clear 23 1012 100 10000 1 120 08:32 16.06.2020
1261 Clear 24 1012 94 10000 1 110 07:51 16.06.2020
1262 Clear 24 1012 94 10000 1 110 07:29 16.06.2020
1263 Clear 24 1013 94 10000 0.95 87 06:56 16.06.2020
1264 Clear 24 1013 94 10000 0.95 87 06:33 16.06.2020
1265 Clear 25 1013 94 10000 1.24 90 05:50 16.06.2020
1266 Clear 26 1013 88 10000 1.43 94 04:54 16.06.2020
1267 Clear 26 1013 83 10000 1.61 107 03:55 16.06.2020
1268 Clear 27 1013 74 10000 2.1 80 02:33 16.06.2020
1269 Clouds 28 1012 70 10000 2.6 70 01:33 16.06.2020
1270 Clouds 29 1012 70 10000 2.6 70 00:52 16.06.2020
1271 Clouds 29 1012 66 10000 2.1 80 00:22 16.06.2020
1272 Clouds 31 1011 62 10000 1.5 80 23:43 15.06.2020
1273 Clouds 31 1011 62 10000 1.5 80 23:24 15.06.2020
1274 Clouds 31 1011 66 10000 2.6 80 22:59 15.06.2020
1275 Clouds 31 1011 66 10000 2.6 80 22:41 15.06.2020
1276 Clouds 31 1011 66 10000 2.6 80 22:21 15.06.2020
1277 Clouds 31 1011 66 10000 2.6 80 21:57 15.06.2020
1278 Clouds 31 1011 66 10000 2.6 80 21:38 15.06.2020
1279 Clouds 32 1012 66 10000 1.5 90 21:19 15.06.2020
1280 Clouds 32 1012 66 10000 1.5 90 20:57 15.06.2020
1281 Clouds 32 1012 66 10000 1.5 90 20:38 15.06.2020
1282 Clouds 32 1012 66 10000 1.5 90 20:19 15.06.2020
1283 Clouds 31 1013 66 10000 2.1 80 19:56 15.06.2020
1284 Clouds 31 1013 66 10000 2.1 80 19:38 15.06.2020
1285 Clouds 31 1014 70 10000 2.1 80 19:19 15.06.2020
1286 Clouds 31 1014 70 10000 2.1 80 18:55 15.06.2020
1287 Clouds 31 1014 70 10000 2.1 80 18:37 15.06.2020
1288 Clouds 30 1014 70 10000 1.5 80 18:19 15.06.2020
1289 Clouds 30 1014 70 10000 1.5 80 17:42 15.06.2020
1290 Clouds 30 1014 70 10000 1.5 80 17:21 15.06.2020
1291 Clouds 29 1015 79 10000 2.1 190 16:59 15.06.2020
1292 Clouds 29 1015 79 10000 2.1 190 16:40 15.06.2020
1293 Clouds 29 1015 79 10000 1.5 240 16:19 15.06.2020
1294 Clouds 29 1015 79 10000 1.5 240 15:56 15.06.2020
1295 Clouds 29 1015 79 10000 1.5 240 15:37 15.06.2020
1296 Clouds 27 1014 88 10000 0.85 73 15:18 15.06.2020
1297 Clouds 27 1014 88 10000 0.85 73 15:18 15.06.2020
1298 Clouds 27 1014 88 10000 0.85 73 14:42 15.06.2020
1299 Clouds 27 1014 88 10000 0.59 78 14:21 15.06.2020
1300 Clouds 26 1014 88 10000 1 310 13:59 15.06.2020
1301 Clouds 26 1014 88 10000 1 310 13:39 15.06.2020
1302 Clouds 25 1014 94 10000 1.5 280 13:20 15.06.2020
1303 Clouds 25 1014 94 10000 1.5 280 12:55 15.06.2020
1304 Clouds 25 1013 94 10000 1 290 12:36 15.06.2020
1305 Clouds 24 1013 100 10000 1 260 12:18 15.06.2020
1306 Clouds 24 1013 100 10000 1 260 11:42 15.06.2020
1307 Clouds 24 1013 100 10000 1 260 11:24 15.06.2020
1308 Clouds 24 1012 94 10000 1.5 80 10:44 15.06.2020
1309 Clouds 24 1012 94 10000 1.5 80 10:22 15.06.2020
1310 Clouds 24 1012 94 10000 1 100 09:47 15.06.2020
1311 Clouds 24 1012 94 10000 1 100 09:25 15.06.2020
1312 Clouds 24 1012 94 10000 0.54 27 08:57 15.06.2020
1313 Clouds 24 1012 94 10000 0.54 27 08:39 15.06.2020
1314 Clouds 24 1012 94 10000 0.54 27 08:39 15.06.2020
1315 Clouds 24 1012 94 10000 0.75 37 08:20 15.06.2020
1316 Clouds 24 1012 94 10000 1 90 07:45 15.06.2020
1317 Clouds 24 1012 94 10000 1 90 07:22 15.06.2020
1318 Clouds 25 1013 94 10000 0.94 48 06:42 15.06.2020
1319 Clouds 25 1013 94 10000 1.14 56 06:20 15.06.2020
1320 Clouds 25 1013 94 10000 1.5 70 05:43 15.06.2020
1321 Clouds 25 1013 94 10000 1.5 70 05:24 15.06.2020
1322 Clouds 26 1013 88 10000 0.5 90 04:19 15.06.2020
1323 Clouds 26 1012 88 10000 1.5 70 03:40 15.06.2020
1324 Clouds 26 1012 88 10000 1.5 70 02:34 15.06.2020
1325 Clear 27 1011 83 10000 1.5 70 01:53 15.06.2020
1326 Clear 27 1011 83 10000 1.5 70 01:31 15.06.2020
1327 Clouds 28 1011 83 10000 1 40 00:58 15.06.2020
1328 Clouds 28 1011 83 10000 1 40 00:39 15.06.2020
1329 Clouds 28 1011 83 10000 1 40 00:19 15.06.2020
1330 Clouds 29 1011 74 10000 1 80 23:46 14.06.2020
1331 Clouds 29 1011 74 10000 1 80 23:24 14.06.2020
1332 Clouds 30 1011 79 10000 1.5 80 22:58 14.06.2020
1333 Clouds 30 1011 79 10000 1.5 80 22:39 14.06.2020
1334 Clouds 30 1012 74 10000 2.1 80 22:19 14.06.2020
1335 Clouds 30 1012 74 10000 2.1 80 21:57 14.06.2020
1336 Clouds 30 1012 74 10000 2.1 80 21:38 14.06.2020
1337 Clouds 30 1012 74 10000 2.1 80 21:19 14.06.2020
1338 Clouds 30 1012 74 10000 2.1 80 20:58 14.06.2020
1339 Clouds 31 1013 70 10000 1 50 20:38 14.06.2020
1340 Clouds 31 1013 70 10000 1 50 20:19 14.06.2020
1341 Clouds 30 1013 70 10000 1 50 19:57 14.06.2020
1342 Clouds 28 1014 78 10000 2.6 50 19:37 14.06.2020
1343 Clouds 28 1014 78 10000 3.1 60 19:19 14.06.2020
1344 Clouds 28 1014 78 10000 3.1 60 18:56 14.06.2020
1345 Clouds 28 1014 78 10000 3.1 60 18:37 14.06.2020
1346 Clouds 27 1015 83 10000 2.1 70 18:19 14.06.2020
1347 Clouds 27 1015 83 10000 2.1 70 17:56 14.06.2020
1348 Clouds 27 1015 83 10000 2.1 70 17:38 14.06.2020
1349 Clouds 28 1015 78 10000 2.6 60 17:19 14.06.2020
1350 Clouds 28 1015 78 10000 2.6 60 16:40 14.06.2020
1351 Clouds 28 1015 78 10000 2.6 60 16:20 14.06.2020
1352 Clouds 25 1015 94 10000 2.1 20 15:58 14.06.2020
1353 Clouds 25 1015 94 10000 2.1 20 15:58 14.06.2020
1354 Clouds 25 1015 94 10000 2.1 20 15:40 14.06.2020
1355 Thunderstorm 24 1015 94 3000 4.1 40 15:18 14.06.2020
1356 Thunderstorm 24 1015 94 3000 4.1 40 14:57 14.06.2020
1357 Thunderstorm 24 1015 94 3000 4.1 40 14:38 14.06.2020
1358 Rain 25 1014 100 1000 2.1 270 14:18 14.06.2020
1359 Clouds 25 1014 94 10000 1 230 13:42 14.06.2020
1360 Clouds 25 1014 94 10000 1 230 13:22 14.06.2020
1361 Clouds 25 1014 94 10000 1 230 12:59 14.06.2020
1362 Clouds 25 1013 94 10000 1 240 12:41 14.06.2020
1363 Clouds 25 1013 94 10000 1 240 12:41 14.06.2020
1364 Clouds 25 1013 94 10000 1 240 12:23 14.06.2020
1365 Clouds 25 1012 88 10000 1 50 11:59 14.06.2020
1366 Clouds 25 1012 88 10000 1 50 11:40 14.06.2020
1367 Clouds 25 1012 88 10000 1 50 11:22 14.06.2020
1368 Clouds 25 1012 88 10000 0.5 30 10:59 14.06.2020
1369 Clouds 25 1012 88 10000 0.5 30 10:39 14.06.2020
1370 Clouds 25 1012 88 10000 1 30 10:18 14.06.2020
1371 Clouds 25 1012 88 10000 1 30 09:43 14.06.2020
1372 Clouds 25 1012 88 10000 1 30 09:23 14.06.2020
1373 Clouds 25 1013 88 10000 2.1 30 08:42 14.06.2020
1374 Clouds 25 1013 88 10000 2.1 30 08:22 14.06.2020
1375 Clouds 25 1013 88 10000 1.5 30 07:53 14.06.2020
1376 Clouds 25 1013 88 10000 1.5 30 07:35 14.06.2020
1377 Clouds 25 1013 88 10000 1 40 06:54 14.06.2020
1378 Clouds 26 1013 88 10000 1.5 40 05:54 14.06.2020
1379 Clear 26 1013 88 10000 1.5 40 05:29 14.06.2020
1380 Clear 26 1013 88 10000 1.5 40 04:38 14.06.2020
1381 Clear 26 1012 88 10000 1.5 50 03:54 14.06.2020
1382 Clouds 27 1011 83 10000 1.5 80 02:35 14.06.2020
1383 Clouds 28 1011 83 10000 2.1 80 01:55 14.06.2020
1384 Clouds 28 1011 83 10000 2.1 80 01:26 14.06.2020
1385 Clouds 28 1010 78 10000 2.6 70 00:47 14.06.2020
1386 Clouds 28 1010 78 10000 2.6 70 00:20 14.06.2020
1387 Clouds 28 1010 78 10000 2.6 70 00:20 14.06.2020
1388 Rain 29 1010 74 10000 1.5 70 23:46 13.06.2020
1389 Rain 29 1010 74 10000 1.5 70 23:26 13.06.2020
1390 Clouds 29 1010 79 10000 1.5 70 22:58 13.06.2020
1391 Clouds 29 1010 79 10000 1.5 70 22:38 13.06.2020
1392 Clouds 31 1010 74 10000 1.5 70 22:18 13.06.2020
1393 Clouds 31 1010 74 10000 1.5 70 21:57 13.06.2020
1394 Clouds 31 1010 74 10000 1.5 70 21:38 13.06.2020
1395 Clouds 31 1010 74 10000 1.5 70 21:20 13.06.2020
1396 Clouds 31 1011 66 10000 3.1 90 20:43 13.06.2020
1397 Clouds 31 1011 66 10000 3.1 90 20:20 13.06.2020
1398 Clouds 31 1012 74 10000 1.5 110 19:58 13.06.2020
1399 Clouds 31 1012 74 10000 1.5 110 19:37 13.06.2020
1400 Clouds 31 1013 70 10000 1.5 80 19:18 13.06.2020
1401 Clouds 31 1013 70 10000 1.5 80 18:55 13.06.2020
1402 Clouds 31 1013 70 10000 1.5 80 18:37 13.06.2020
1403 Clouds 30 1013 79 10000 1 100 18:18 13.06.2020
1404 Clouds 29 1013 79 10000 1 100 17:42 13.06.2020
1405 Clouds 29 1013 79 10000 1 100 17:23 13.06.2020
1406 Clouds 29 1013 79 10000 1 100 16:58 13.06.2020
1407 Clouds 28 1014 83 10000 1.5 160 16:40 13.06.2020
1408 Clouds 29 1014 79 10000 0.5 110 16:19 13.06.2020
1409 Clouds 29 1014 79 10000 0.5 110 15:59 13.06.2020
1410 Clouds 29 1014 79 10000 0.5 110 15:39 13.06.2020
1411 Clouds 29 1014 79 10000 0.5 110 15:20 13.06.2020
1412 Clouds 26 1013 94 10000 1.5 30 14:43 13.06.2020
1413 Clouds 26 1013 94 10000 1.5 30 14:22 13.06.2020
1414 Clouds 26 1012 88 10000 1 20 13:56 13.06.2020
1415 Clouds 25 1012 88 10000 1 20 13:37 13.06.2020
1416 Clouds 25 1012 88 10000 1 20 13:18 13.06.2020
1417 Clouds 24 1012 94 10000 1.5 10 12:42 13.06.2020
1418 Clouds 24 1012 94 10000 1.5 10 12:24 13.06.2020
1419 Rain 23 1012 94 10000 1 80 11:40 13.06.2020
1420 Fog 24 1012 100 450 1 300 11:19 13.06.2020
1421 Clouds 23 1012 94 10000 1 80 10:58 13.06.2020
1422 Clouds 23 1012 94 10000 1 80 10:40 13.06.2020
1423 Clouds 23 1012 94 10000 1 80 10:22 13.06.2020
1424 Clouds 23 1011 94 10000 1 60 09:54 13.06.2020
1425 Clouds 23 1011 94 10000 1 60 09:36 13.06.2020
1426 Rain 23 1012 100 10000 1 70 09:18 13.06.2020
1427 Rain 23 1012 100 10000 1 70 08:42 13.06.2020
1428 Rain 23 1012 100 10000 1 70 08:24 13.06.2020
1429 Rain 24 1012 94 10000 1 50 07:43 13.06.2020
1430 Rain 24 1012 94 10000 1 50 07:25 13.06.2020
1431 Rain 24 1012 94 10000 0.8 252 06:44 13.06.2020
1432 Rain 24 1012 94 10000 0.86 267 06:25 13.06.2020
1433 Rain 25 1013 88 10000 0.45 228 05:28 13.06.2020
1434 Rain 25 1013 94 10000 0.45 228 04:37 13.06.2020
1435 Rain 25 1012 94 10000 0.98 256 03:33 13.06.2020
1436 Clouds 25 1011 94 10000 1 170 02:39 13.06.2020
1437 Clouds 25 1010 94 10000 1 120 01:48 13.06.2020
1438 Clouds 25 1010 94 10000 1 120 01:22 13.06.2020
1439 Clouds 26 1010 88 10000 1 90 00:53 13.06.2020
1440 Clouds 26 1010 88 10000 1 90 00:27 13.06.2020
1441 Clouds 28 1010 78 10000 1 100 23:58 12.06.2020
1442 Clouds 28 1010 78 10000 1 100 23:38 12.06.2020
1443 Clouds 28 1010 78 10000 1 100 23:18 12.06.2020
1444 Clouds 28 1010 78 10000 1 100 22:42 12.06.2020
1445 Clouds 28 1010 78 10000 1 100 22:19 12.06.2020
1446 Clouds 27 1011 83 10000 1 100 21:54 12.06.2020
1447 Clouds 27 1011 83 10000 1 100 21:36 12.06.2020
1448 Clouds 28 1012 74 10000 2.6 20 21:18 12.06.2020
1449 Clouds 28 1012 74 10000 2.6 20 20:55 12.06.2020
1450 Clouds 28 1012 74 10000 2.6 20 20:36 12.06.2020
1451 Clouds 27 1013 83 10000 3.1 20 20:18 12.06.2020
1452 Clouds 27 1013 83 10000 3.1 20 19:39 12.06.2020
1453 Clouds 27 1013 83 10000 3.1 20 19:20 12.06.2020
1454 Clouds 25 1014 94 10000 1.5 90 18:39 12.06.2020
1455 Rain 23 1015 100 5000 2.1 80 18:19 12.06.2020
1456 Rain 23 1015 100 5000 2.1 80 17:59 12.06.2020
1457 Rain 23 1015 100 5000 2.1 80 17:39 12.06.2020
1458 Rain 23 1015 100 5000 2.1 80 17:21 12.06.2020
1459 Rain 24 1016 94 800 5.7 70 16:45 12.06.2020
1460 Rain 24 1016 94 800 5.7 70 16:21 12.06.2020
1461 Rain 25 1016 88 2000 3.6 50 15:49 12.06.2020
1462 Rain 27 1015 83 10000 2.6 350 15:27 12.06.2020
1463 Clouds 26 1014 83 10000 2.1 340 14:58 12.06.2020
1464 Clouds 26 1014 83 10000 2.1 340 14:39 12.06.2020
1465 Clouds 26 1014 83 10000 2.1 340 14:21 12.06.2020
1466 Clouds 25 1013 88 10000 1.5 340 13:42 12.06.2020
1467 Clouds 25 1013 88 10000 1.5 340 13:22 12.06.2020
1468 Rain 24 1012 94 10000 1.5 360 12:41 12.06.2020
1469 Rain 24 1012 94 10000 1.5 360 12:20 12.06.2020
1470 Clouds 24 1012 94 10000 1.5 340 11:59 12.06.2020
1471 Clouds 24 1012 94 10000 1.5 340 11:40 12.06.2020
1472 Clouds 24 1012 94 10000 1.5 340 11:22 12.06.2020
1473 Clouds 24 1013 100 10000 2.6 100 10:47 12.06.2020
1474 Clouds 24 1013 100 10000 2.6 100 10:25 12.06.2020
1475 Clouds 24 1012 94 10000 2.6 90 09:48 12.06.2020
1476 Clouds 24 1012 94 10000 2.6 90 09:22 12.06.2020
1477 Clouds 23 1013 100 10000 2.6 110 08:46 12.06.2020
1478 Clouds 23 1013 100 10000 2.6 110 08:25 12.06.2020
1479 Clouds 24 1013 94 10000 1.5 30 07:57 12.06.2020
1480 Clouds 24 1013 94 10000 1.5 30 07:39 12.06.2020
1481 Clouds 24 1013 94 10000 1.5 30 07:20 12.06.2020
1482 Rain 24 1013 94 10000 1.5 70 06:38 12.06.2020
1483 Rain 24 1013 94 10000 1.5 70 06:19 12.06.2020
1484 Thunderstorm 23 1014 100 5000 2.6 80 05:47 12.06.2020
1485 Thunderstorm 23 1014 100 5000 2.6 80 05:19 12.06.2020
1486 Thunderstorm 25 1013 88 10000 1 310 03:33 12.06.2020
1487 Clouds 26 1012 88 10000 1.5 340 01:57 12.06.2020
1488 Clouds 26 1012 88 10000 1.5 340 01:30 12.06.2020
1489 Clouds 26 1011 83 10000 1.5 360 00:47 12.06.2020
1490 Clouds 26 1011 83 10000 1.5 360 00:26 12.06.2020
1491 Clouds 27 1010 83 10000 1 30 23:59 11.06.2020
1492 Clouds 27 1010 83 10000 1 30 23:59 11.06.2020
1493 Clouds 27 1010 83 10000 1 30 23:41 11.06.2020
1494 Clouds 27 1010 83 10000 1 30 23:21 11.06.2020
1495 Clouds 26 1010 83 10000 1 310 22:59 11.06.2020
1496 Clouds 26 1010 83 10000 1 310 22:39 11.06.2020
1497 Clouds 26 1010 83 10000 1 310 22:20 11.06.2020
1498 Thunderstorm 25 1011 94 9000 2.6 20 21:56 11.06.2020
1499 Thunderstorm 25 1011 94 9000 2.6 20 21:38 11.06.2020
1500 Thunderstorm 25 1011 94 9000 2.6 20 21:20 11.06.2020
1501 Rain 27 1012 88 3000 2.6 110 20:45 11.06.2020
1502 Rain 27 1012 88 3000 2.6 110 20:21 11.06.2020
1503 Rain 26 1012 83 10000 1 170 19:55 11.06.2020
1504 Rain 26 1012 83 10000 1 170 19:36 11.06.2020
1505 Rain 24 1013 100 9000 1 70 19:18 11.06.2020
1506 Rain 24 1013 100 9000 1 70 18:41 11.06.2020
1507 Rain 24 1013 100 9000 1 70 18:22 11.06.2020
1508 Clouds 28 1014 74 10000 2.1 70 17:57 11.06.2020
1509 Clouds 29 1014 74 10000 2.1 70 17:38 11.06.2020
1510 Clouds 29 1014 74 10000 2.1 70 17:19 11.06.2020
1511 Clouds 30 1015 79 10000 1.5 90 16:56 11.06.2020
1512 Clouds 30 1015 79 10000 1.5 90 16:38 11.06.2020
1513 Clouds 30 1015 79 10000 1.5 90 16:38 11.06.2020
1514 Clouds 30 1015 79 10000 1.5 90 16:19 11.06.2020
1515 Clouds 28 1014 83 10000 1 80 15:42 11.06.2020
1516 Clouds 28 1014 83 10000 1 80 15:23 11.06.2020
1517 Clouds 27 1014 88 10000 1.5 50 14:56 11.06.2020
1518 Clouds 27 1014 88 10000 1.5 50 14:56 11.06.2020
1519 Clouds 27 1014 88 10000 1.5 50 14:38 11.06.2020
1520 Clouds 27 1014 88 10000 1.5 50 14:20 11.06.2020
1521 Clouds 27 1014 88 10000 1.5 50 14:20 11.06.2020
1522 Clouds 27 1013 88 10000 1.5 50 13:54 11.06.2020
1523 Clouds 27 1013 88 10000 1.5 50 13:36 11.06.2020
1524 Clouds 25 1013 94 10000 1 80 13:18 11.06.2020
1525 Clouds 25 1013 94 10000 1 80 12:39 11.06.2020
1526 Clouds 25 1013 94 10000 1 80 12:21 11.06.2020
1527 Clouds 26 1012 88 10000 2.1 60 11:59 11.06.2020
1528 Clouds 26 1012 88 10000 2.1 60 11:41 11.06.2020
1529 Clouds 26 1012 88 10000 2.1 60 11:22 11.06.2020
1530 Clouds 26 1012 88 10000 2.1 30 10:59 11.06.2020
1531 Clouds 26 1012 88 10000 2.1 30 10:41 11.06.2020
1532 Clouds 26 1012 88 10000 2.1 30 10:18 11.06.2020
1533 Clouds 26 1012 88 10000 2.1 60 09:43 11.06.2020
1534 Clouds 26 1012 88 10000 2.1 60 09:25 11.06.2020
1535 Clouds 26 1012 88 10000 1 70 08:44 11.06.2020
1536 Clouds 26 1012 88 10000 1 70 08:21 11.06.2020
1537 Clouds 26 1012 88 10000 2.1 70 07:59 11.06.2020
1538 Clouds 26 1012 88 10000 2.1 70 07:41 11.06.2020
1539 Clouds 26 1012 88 10000 2.1 70 07:41 11.06.2020
1540 Clouds 26 1012 88 10000 2.1 70 07:22 11.06.2020
1541 Clouds 26 1012 88 10000 2.1 70 07:22 11.06.2020
1542 Clouds 26 1013 88 10000 1 80 06:31 11.06.2020
1543 Rain 26 1013 88 10000 1.5 80 05:50 11.06.2020
1544 Clouds 26 1013 83 10000 2.1 80 03:59 11.06.2020
1545 Clouds 26 1013 83 10000 2.1 80 03:24 11.06.2020
1546 Clouds 27 1012 78 10000 2.1 70 02:40 11.06.2020
1547 Clouds 27 1011 83 10000 1 80 01:55 11.06.2020
1548 Clouds 27 1011 83 10000 1 80 01:31 11.06.2020
1549 Clouds 28 1010 78 10000 1.5 80 00:51 11.06.2020
1550 Clouds 28 1010 78 10000 1.5 80 00:30 11.06.2020
1551 Clouds 29 1010 74 10000 1 80 23:50 10.06.2020
1552 Clouds 30 1010 74 10000 1 80 23:27 10.06.2020
1553 Clouds 29 1010 74 10000 2.1 80 22:59 10.06.2020
1554 Clouds 29 1010 74 10000 2.1 80 22:40 10.06.2020
1555 Clouds 29 1010 74 10000 2.1 80 22:20 10.06.2020
1556 Clouds 31 1010 66 10000 2.6 90 21:58 10.06.2020
1557 Clouds 31 1010 66 10000 2.6 90 21:58 10.06.2020
1558 Clouds 31 1010 66 10000 2.6 90 21:40 10.06.2020
1559 Clouds 30 1011 70 10000 1.5 140 21:19 10.06.2020
1560 Clouds 30 1011 70 10000 1.5 140 20:57 10.06.2020
1561 Clouds 30 1011 70 10000 1.5 140 20:39 10.06.2020
1562 Clouds 30 1011 70 10000 1.5 140 20:21 10.06.2020
1563 Clouds 32 1012 62 10000 1 130 19:42 10.06.2020
1564 Clouds 32 1012 62 10000 1 130 19:20 10.06.2020
1565 Clouds 32 1012 62 10000 1 130 19:00 10.06.2020
1566 Clouds 31 1013 66 10000 2.1 90 18:41 10.06.2020
1567 Clouds 30 1014 70 10000 2.1 80 18:20 10.06.2020
1568 Clouds 30 1014 70 10000 2.1 80 17:58 10.06.2020
1569 Clouds 30 1014 70 10000 2.1 80 17:58 10.06.2020
1570 Clouds 30 1014 70 10000 2.1 80 17:40 10.06.2020
1571 Clouds 30 1014 70 10000 2.1 80 17:19 10.06.2020
1572 Clouds 29 1014 70 10000 1.5 70 16:58 10.06.2020
1573 Clouds 29 1014 70 10000 1.5 70 16:39 10.06.2020
1574 Clouds 29 1014 70 10000 1.5 70 16:20 10.06.2020
1575 Clouds 29 1014 66 10000 2.1 30 15:41 10.06.2020
1576 Clouds 29 1014 66 10000 2.1 30 15:22 10.06.2020
1577 Clouds 27 1013 78 10000 1 360 14:59 10.06.2020
1578 Clouds 27 1013 78 10000 1 360 14:40 10.06.2020
1579 Clouds 27 1013 78 10000 1 360 14:40 10.06.2020
1580 Clouds 27 1013 78 10000 1 360 14:20 10.06.2020
1581 Clouds 25 1013 83 10000 1.5 10 13:41 10.06.2020
1582 Clouds 25 1013 83 10000 1.5 10 13:22 10.06.2020
1583 Clouds 24 1013 88 10000 2.1 360 12:46 10.06.2020
1584 Clouds 23 1012 94 10000 1.5 110 12:23 10.06.2020
1585 Clouds 23 1012 94 10000 1.5 110 11:59 10.06.2020
1586 Clouds 23 1012 94 10000 1.5 110 11:41 10.06.2020
1587 Clouds 23 1012 94 10000 1.5 110 11:20 10.06.2020
1588 Clouds 23 1012 94 10000 1.5 110 10:58 10.06.2020
1589 Clouds 23 1012 94 10000 1.5 110 10:58 10.06.2020
1590 Clouds 23 1012 94 10000 1.5 120 10:39 10.06.2020
1591 Clouds 23 1012 94 10000 1.5 120 10:39 10.06.2020
1592 Clouds 23 1012 94 10000 1.5 120 10:21 10.06.2020
1593 Clouds 23 1011 94 10000 1 90 09:42 10.06.2020
1594 Clouds 23 1011 94 10000 1 90 09:23 10.06.2020
1595 Clouds 23 1011 94 10000 1 90 08:57 10.06.2020
1596 Clouds 23 1012 100 10000 1 70 08:39 10.06.2020
1597 Clouds 24 1012 94 10000 1 60 08:20 10.06.2020
1598 Clouds 24 1012 94 10000 1 60 07:39 10.06.2020
1599 Clouds 24 1012 94 10000 1 60 07:21 10.06.2020
1600 Clouds 24 1012 94 10000 1 80 06:46 10.06.2020
1601 Clear 24 1012 94 10000 1 80 06:24 10.06.2020
1602 Clear 25 1013 88 10000 1.38 78 05:58 10.06.2020
1603 Clear 25 1013 88 10000 1.66 89 05:26 10.06.2020
1604 Clouds 25 1013 88 10000 1 160 04:35 10.06.2020
1605 Thunderstorm 27 1012 83 10000 1.5 170 02:57 10.06.2020
1606 Thunderstorm 27 1012 83 10000 1.5 170 02:22 10.06.2020
1607 Thunderstorm 27 1011 78 10000 0.5 140 01:37 10.06.2020
1608 Clouds 29 1010 78 10000 0.5 150 00:40 10.06.2020
1609 Clouds 29 1010 78 10000 0.5 150 00:22 10.06.2020
1610 Clouds 31 1010 62 10000 1 30 23:57 09.06.2020
1611 Clouds 31 1010 62 10000 1 30 23:38 09.06.2020
1612 Clouds 31 1010 62 10000 1 30 23:20 09.06.2020
1613 Clouds 32 1009 52 10000 1 100 22:56 09.06.2020
1614 Clouds 32 1009 52 10000 1 100 22:37 09.06.2020
1615 Clouds 32 1009 52 10000 1 100 22:19 09.06.2020
1616 Clouds 32 1009 52 10000 1 100 22:19 09.06.2020
1617 Clouds 30 1010 66 10000 1.5 170 21:56 09.06.2020
1618 Clouds 30 1010 66 10000 1.5 170 21:56 09.06.2020
1619 Clouds 30 1010 66 10000 1.5 170 21:37 09.06.2020
1620 Clouds 30 1010 66 10000 1.5 170 21:19 09.06.2020
1621 Clouds 32 1011 62 10000 1.5 180 20:56 09.06.2020
1622 Clouds 32 1011 62 10000 1.5 180 20:38 09.06.2020
1623 Clouds 32 1012 55 10000 1.5 170 20:18 09.06.2020
1624 Clouds 32 1012 55 10000 1.5 170 19:56 09.06.2020
1625 Clouds 32 1012 55 10000 1.5 170 19:38 09.06.2020
1626 Clouds 32 1012 55 10000 1.5 170 19:19 09.06.2020
1627 Clouds 31 1014 66 10000 2.1 190 18:45 09.06.2020
1628 Clouds 31 1014 66 10000 2.1 190 18:26 09.06.2020
1629 Clouds 30 1014 74 10000 2.6 230 17:58 09.06.2020
1630 Clouds 30 1014 74 10000 2.6 230 17:40 09.06.2020
1631 Clouds 30 1014 74 10000 2.6 230 17:22 09.06.2020
1632 Clouds 30 1015 74 10000 1.5 260 16:57 09.06.2020
1633 Clouds 30 1015 74 10000 1.5 260 16:39 09.06.2020
1634 Clouds 30 1015 74 10000 1.5 260 16:20 09.06.2020
1635 Clouds 28 1015 83 10000 1.5 240 15:40 09.06.2020
1636 Clouds 28 1015 83 10000 1.5 240 15:22 09.06.2020
1637 Clouds 28 1014 88 10000 2.1 260 14:57 09.06.2020
1638 Clouds 28 1014 88 10000 2.1 260 14:39 09.06.2020
1639 Clouds 28 1014 88 10000 2.1 260 14:19 09.06.2020
1640 Clear 25 1013 94 10000 1 240 13:54 09.06.2020
1641 Clear 25 1013 94 10000 1 240 13:36 09.06.2020
1642 Clear 25 1013 94 10000 1 240 13:18 09.06.2020
1643 Clouds 24 1013 100 10000 1.5 260 12:42 09.06.2020
1644 Clouds 24 1013 100 10000 1.5 260 12:20 09.06.2020
1645 Clear 25 1012 94 10000 1.5 240 11:56 09.06.2020
1646 Clear 25 1012 94 10000 1.5 240 11:38 09.06.2020
1647 Clear 25 1012 94 10000 1.5 240 11:38 09.06.2020
1648 Clear 25 1012 94 10000 1.5 240 11:20 09.06.2020
1649 Clouds 26 1012 94 10000 2.1 220 10:54 09.06.2020
1650 Clouds 25 1012 94 10000 2.1 220 10:36 09.06.2020
1651 Clouds 25 1012 94 10000 2.1 220 10:18 09.06.2020
1652 Clear 25 1012 100 10000 1 280 09:40 09.06.2020
1653 Clear 25 1012 100 10000 1 280 09:19 09.06.2020
1654 Clear 25 1012 100 10000 1.5 230 08:40 09.06.2020
1655 Clear 25 1012 100 10000 1.5 230 08:21 09.06.2020
1656 Clear 25 1013 94 10000 1 250 07:44 09.06.2020
1657 Clear 25 1013 94 10000 1 250 07:23 09.06.2020
1658 Clear 26 1013 94 10000 1.37 331 06:56 09.06.2020
1659 Clear 26 1013 94 10000 1.37 331 06:37 09.06.2020
1660 Clear 25 1013 94 10000 1 280 05:53 09.06.2020
1661 Clear 26 1014 94 10000 1 260 04:22 09.06.2020
1662 Clear 27 1013 88 10000 1 240 02:47 09.06.2020
1663 Clouds 27 1012 78 10000 2.1 240 01:38 09.06.2020
1664 Clouds 27 1012 78 10000 2.1 240 01:19 09.06.2020
1665 Clouds 29 1012 74 10000 1 210 00:44 09.06.2020
1666 Clouds 31 1011 66 10000 1 130 00:19 09.06.2020
1667 Clouds 31 1011 66 10000 1 130 23:42 08.06.2020
1668 Clouds 31 1011 66 10000 1 130 23:22 08.06.2020
1669 Clouds 31 1012 66 10000 2.1 220 22:59 08.06.2020
1670 Clouds 31 1012 66 10000 2.1 220 22:39 08.06.2020
1671 Clouds 31 1012 66 10000 2.1 220 22:20 08.06.2020
1672 Clouds 31 1012 62 10000 1 170 21:56 08.06.2020
1673 Clouds 31 1012 62 10000 1 170 21:38 08.06.2020
1674 Clouds 31 1012 62 10000 1 170 21:19 08.06.2020
1675 Clouds 30 1013 70 10000 1.5 220 20:55 08.06.2020
1676 Clouds 30 1013 70 10000 1.5 220 20:37 08.06.2020
1677 Clouds 30 1013 70 10000 1.5 220 20:18 08.06.2020
1678 Clouds 30 1014 70 10000 2.1 240 19:43 08.06.2020
1679 Clouds 30 1014 70 10000 2.1 240 19:21 08.06.2020
1680 Clouds 29 1015 79 10000 3.1 270 18:44 08.06.2020
1681 Clouds 29 1015 79 10000 3.1 270 18:22 08.06.2020
1682 Clouds 28 1016 83 10000 2.6 260 17:58 08.06.2020
1683 Clouds 28 1016 83 10000 2.6 260 17:40 08.06.2020
1684 Clouds 28 1016 83 10000 2.6 260 17:22 08.06.2020
1685 Clouds 28 1016 83 10000 3.1 260 16:58 08.06.2020
1686 Clouds 28 1016 83 10000 3.1 260 16:58 08.06.2020
1687 Clouds 28 1016 83 10000 3.1 260 16:40 08.06.2020
1688 Clouds 28 1016 83 10000 3.1 260 16:21 08.06.2020
1689 Clouds 27 1016 83 10000 2.1 310 15:44 08.06.2020
1690 Clouds 27 1016 83 10000 2.1 310 15:22 08.06.2020
1691 Clouds 26 1016 83 10000 2.1 310 14:58 08.06.2020
1692 Clouds 26 1016 83 10000 2.1 310 14:39 08.06.2020
1693 Clouds 26 1016 83 10000 2.1 310 14:19 08.06.2020
1694 Clouds 25 1015 94 10000 2.1 330 13:44 08.06.2020
1695 Clouds 25 1015 94 10000 2.1 330 13:24 08.06.2020
1696 Clouds 24 1015 94 10000 2.1 310 12:43 08.06.2020
1697 Clouds 24 1015 94 10000 2.1 310 12:21 08.06.2020
1698 Clouds 24 1013 94 10000 1.5 260 11:59 08.06.2020
1699 Clouds 24 1013 94 10000 1.5 260 11:41 08.06.2020
1700 Clouds 24 1013 94 10000 1.5 260 11:41 08.06.2020
1701 Clouds 24 1013 94 10000 1.5 260 11:22 08.06.2020
1702 Clear 24 1013 94 10000 1.5 260 10:58 08.06.2020
1703 Clear 24 1013 94 10000 1.5 260 10:38 08.06.2020
1704 Clear 24 1013 94 10000 1.5 260 10:20 08.06.2020
1705 Clear 24 1013 94 10000 1.5 260 09:57 08.06.2020
1706 Clear 24 1013 94 10000 1.5 260 09:57 08.06.2020
1707 Clear 24 1013 94 10000 1.5 260 09:39 08.06.2020
1708 Clear 24 1013 94 10000 1.5 260 09:20 08.06.2020
1709 Clear 24 1014 94 10000 1 260 08:44 08.06.2020
1710 Clear 24 1014 94 10000 1 260 08:21 08.06.2020
1711 Clear 24 1014 94 10000 0.5 250 07:46 08.06.2020
1712 Clear 24 1014 94 10000 0.5 250 07:21 08.06.2020
1713 Clear 24 1014 94 10000 1.5 250 06:49 08.06.2020
1714 Clear 24 1014 94 10000 1.5 250 06:28 08.06.2020
1715 Clear 25 1015 94 10000 1 250 05:46 08.06.2020
1716 Clear 25 1015 94 10000 1 260 04:27 08.06.2020
1717 Clouds 25 1013 88 10000 1.5 290 02:32 08.06.2020
1718 Clouds 26 1013 88 10000 1.5 250 01:45 08.06.2020
1719 Clouds 26 1013 88 10000 1.5 250 01:25 08.06.2020
1720 Clouds 27 1013 83 10000 1.5 250 00:29 08.06.2020
1721 Clouds 27 1013 83 10000 1.5 250 00:29 08.06.2020
1722 Clouds 28 1013 78 10000 1 170 23:41 07.06.2020
1723 Clouds 28 1013 78 10000 1 170 23:20 07.06.2020
1724 Clouds 28 1013 74 10000 2.1 170 22:59 07.06.2020
1725 Clouds 28 1013 74 10000 2.1 170 22:59 07.06.2020
1726 Clouds 28 1013 74 10000 2.1 170 22:59 07.06.2020
1727 Clouds 28 1013 74 10000 2.1 170 22:39 07.06.2020
1728 Clouds 28 1013 74 10000 2.1 170 22:19 07.06.2020
1729 Clouds 27 1014 78 10000 2.6 170 21:58 07.06.2020
1730 Clouds 27 1014 78 10000 2.6 170 21:38 07.06.2020
1731 Clouds 27 1014 78 10000 2.6 170 21:19 07.06.2020
1732 Clouds 28 1015 74 10000 2.1 170 20:54 07.06.2020
1733 Clouds 28 1015 74 10000 2.1 170 20:36 07.06.2020
1734 Clouds 28 1015 74 10000 2.1 170 20:18 07.06.2020
1735 Clouds 27 1015 78 10000 2.1 170 19:54 07.06.2020
1736 Clouds 27 1015 78 10000 2.1 170 19:36 07.06.2020
1737 Clouds 26 1017 78 10000 2.1 190 19:18 07.06.2020
1738 Clouds 26 1017 78 10000 2.1 190 18:40 07.06.2020
1739 Clouds 26 1017 78 10000 2.1 190 18:21 07.06.2020
1740 Clouds 25 1017 83 10000 1.5 170 17:58 07.06.2020
1741 Clouds 25 1017 83 10000 1.5 170 17:40 07.06.2020
1742 Clouds 25 1017 83 10000 1.5 170 17:21 07.06.2020
1743 Rain 23 1017 100 10000 1 180 16:44 07.06.2020
1744 Rain 23 1017 100 10000 1 180 16:22 07.06.2020
1745 Thunderstorm 22 1017 100 7000 2.1 80 15:44 07.06.2020
1746 Thunderstorm 22 1017 100 7000 2.1 80 15:22 07.06.2020
1747 Thunderstorm 22 1017 94 1400 2.1 70 14:58 07.06.2020
1748 Thunderstorm 22 1017 94 1400 2.1 70 14:55 07.06.2020
1749 Thunderstorm 23 1017 94 1400 2.1 70 14:36 07.06.2020
1750 Thunderstorm 23 1017 94 1400 2.1 70 14:18 07.06.2020
1751 Clouds 25 1015 94 10000 1 240 13:42 07.06.2020
1752 Clouds 25 1015 94 10000 1 240 13:42 07.06.2020
1753 Clouds 25 1015 94 10000 1 240 13:42 07.06.2020
1754 Clouds 25 1015 94 10000 1 240 13:42 07.06.2020
1755 Clouds 25 1015 94 10000 1 240 13:42 07.06.2020
1756 Clouds 25 1015 94 10000 1 240 13:19 07.06.2020
1757 Clouds 25 1015 94 10000 1 320 12:43 07.06.2020
1758 Clouds 24 1014 100 10000 2.1 290 12:25 07.06.2020
1759 Clouds 24 1014 100 10000 2.1 290 11:55 07.06.2020
1760 Clouds 24 1014 100 10000 2.1 290 11:37 07.06.2020
1761 Clouds 24 1014 100 10000 2.1 290 11:19 07.06.2020
1762 Clouds 24 1013 100 10000 2.1 280 10:54 07.06.2020
1763 Clouds 24 1013 100 10000 2.1 280 10:36 07.06.2020
1764 Clouds 24 1013 100 10000 2.1 280 10:18 07.06.2020
1765 Clouds 24 1014 94 10000 2.1 220 09:41 07.06.2020
1766 Clouds 24 1014 94 10000 2.1 220 09:22 07.06.2020
1767 Clouds 23 1014 100 10000 2.6 250 08:59 07.06.2020
1768 Clouds 23 1014 100 10000 2.6 250 08:41 07.06.2020
1769 Clouds 23 1014 100 10000 2.6 250 08:22 07.06.2020
1770 Clouds 23 1014 100 10000 3.1 260 07:43 07.06.2020
1771 Clouds 23 1014 100 10000 3.1 260 07:24 07.06.2020
1772 Thunderstorm 26 1015 83 3000 6.2 20 06:22 07.06.2020
1773 Rain 27 1015 88 10000 1 260 04:49 07.06.2020
1774 Rain 27 1015 88 10000 1 260 04:18 07.06.2020
1775 Clouds 27 1013 88 10000 1 180 02:26 07.06.2020
1776 Clouds 27 1012 88 10000 1 180 01:40 07.06.2020
1777 Clouds 27 1012 88 10000 1 180 01:22 07.06.2020
1778 Clouds 28 1012 78 10000 1 160 00:40 07.06.2020
1779 Clouds 28 1012 78 10000 1 160 00:18 07.06.2020
1780 Clouds 30 1011 70 10000 1 170 23:55 06.06.2020
1781 Clouds 30 1011 70 10000 1 170 23:36 06.06.2020
1782 Clouds 30 1011 70 10000 1 170 23:18 06.06.2020
1783 Clouds 30 1011 74 10000 1 100 22:55 06.06.2020
1784 Clouds 30 1011 74 10000 1 100 22:36 06.06.2020
1785 Clouds 30 1011 74 10000 1 100 22:18 06.06.2020
1786 Clouds 28 1011 83 10000 1 90 21:42 06.06.2020
1787 Clouds 28 1011 83 10000 1 90 21:20 06.06.2020
1788 Rain 29 1012 94 10000 1 90 20:41 06.06.2020
1789 Rain 29 1012 94 10000 1 90 20:21 06.06.2020
1790 Rain 29 1012 94 10000 1 90 19:59 06.06.2020
1791 Rain 30 1014 74 10000 2.1 160 19:41 06.06.2020
1792 Rain 30 1014 74 10000 2.1 160 19:22 06.06.2020
1793 Rain 30 1014 74 10000 2.1 160 18:57 06.06.2020
1794 Rain 28 1014 83 10000 1.5 180 18:39 06.06.2020
1795 Clouds 29 1015 79 10000 2.6 160 18:20 06.06.2020
1796 Clouds 29 1015 79 10000 2.6 160 17:44 06.06.2020
1797 Clouds 29 1015 79 10000 2.6 160 17:21 06.06.2020
1798 Clouds 29 1016 79 10000 2.6 170 16:57 06.06.2020
1799 Clouds 29 1016 79 10000 2.6 170 16:39 06.06.2020
1800 Clouds 29 1016 79 10000 2.6 170 16:20 06.06.2020
1801 Clouds 28 1016 88 10000 2.6 170 15:45 06.06.2020
1802 Clouds 27 1016 88 10000 1.5 170 15:21 06.06.2020
1803 Clouds 27 1015 88 10000 1.5 170 14:59 06.06.2020
1804 Clouds 27 1015 88 10000 1.5 170 14:39 06.06.2020
1805 Clouds 27 1015 88 10000 1.5 170 14:20 06.06.2020
1806 Clouds 26 1015 94 10000 1 190 13:49 06.06.2020
1807 Clouds 26 1015 94 10000 1 190 13:20 06.06.2020
1808 Clouds 26 1015 94 10000 1 190 12:59 06.06.2020
1809 Clouds 26 1014 94 10000 1.5 180 12:40 06.06.2020
1810 Clouds 26 1014 94 10000 1.5 180 12:21 06.06.2020
1811 Clouds 26 1014 94 10000 1.5 180 12:21 06.06.2020
1812 Clouds 26 1012 94 10000 1 100 11:57 06.06.2020
1813 Clouds 26 1012 94 10000 1 100 11:38 06.06.2020
1814 Clouds 26 1012 94 10000 1 100 11:19 06.06.2020
1815 Clouds 24 1012 100 10000 1.5 20 10:57 06.06.2020
1816 Clouds 24 1012 100 10000 1.5 20 10:38 06.06.2020
1817 Clouds 24 1012 100 10000 1.5 20 10:20 06.06.2020
1818 Rain 24 1013 94 10000 1.5 50 09:44 06.06.2020
1819 Rain 24 1013 94 10000 1.5 50 09:25 06.06.2020
1820 Rain 24 1013 94 10000 1.5 30 08:49 06.06.2020
1821 Rain 24 1013 94 10000 1.5 30 08:25 06.06.2020
1822 Rain 24 1013 94 10000 1.5 30 07:57 06.06.2020
1823 Rain 25 1014 94 10000 1.5 40 07:39 06.06.2020
1824 Rain 25 1014 94 10000 1.5 40 07:20 06.06.2020
1825 Rain 26 1014 88 10000 1.5 30 06:45 06.06.2020
1826 Rain 26 1014 88 10000 1.5 30 06:26 06.06.2020
1827 Clouds 26 1014 83 10000 2.1 30 05:44 06.06.2020
1828 Clouds 26 1014 83 10000 2.1 30 05:23 06.06.2020
1829 Clouds 27 1014 83 10000 1.5 30 03:46 06.06.2020
1830 Clouds 28 1013 78 10000 1.5 70 02:36 06.06.2020
1831 Clouds 28 1013 78 10000 1.5 70 02:36 06.06.2020
1832 Clouds 28 1012 83 10000 1 150 01:23 06.06.2020
1833 Clouds 28 1012 83 10000 1 150 00:59 06.06.2020
1834 Rain 29 1012 70 10000 2.1 60 00:40 06.06.2020
1835 Rain 29 1012 70 10000 2.1 60 00:22 06.06.2020
1836 Clouds 31 1011 66 10000 0.5 100 23:40 05.06.2020
1837 Clouds 31 1011 66 10000 0.5 100 23:20 05.06.2020
1838 Rain 31 1011 70 10000 1 70 22:58 05.06.2020
1839 Rain 31 1011 70 10000 1 70 22:39 05.06.2020
1840 Rain 31 1011 70 10000 1 70 22:21 05.06.2020
1841 Rain 31 1011 70 10000 1.5 180 21:55 05.06.2020
1842 Rain 31 1011 70 10000 1.5 180 21:37 05.06.2020
1843 Rain 31 1011 70 10000 1.5 180 21:18 05.06.2020
1844 Rain 31 1012 70 10000 1.5 170 20:44 05.06.2020
1845 Rain 31 1012 70 10000 1.5 170 20:22 05.06.2020
1846 Clouds 30 1013 74 10000 2.1 170 19:44 05.06.2020
1847 Clouds 30 1013 74 10000 2.1 170 19:24 05.06.2020
1848 Clouds 30 1013 74 10000 2.1 170 18:59 05.06.2020
1849 Clouds 29 1014 79 10000 3.1 170 18:39 05.06.2020
1850 Clouds 29 1014 79 10000 3.1 170 18:20 05.06.2020
1851 Clouds 30 1015 74 10000 1.5 120 17:59 05.06.2020
1852 Clouds 30 1015 74 10000 1.5 120 17:40 05.06.2020
1853 Clouds 30 1015 74 10000 1.5 120 17:20 05.06.2020
1854 Clouds 29 1016 79 10000 2.1 180 16:43 05.06.2020
1855 Clouds 29 1016 79 10000 2.1 180 16:24 05.06.2020
1856 Clouds 27 1016 88 10000 1.5 160 15:58 05.06.2020
1857 Clouds 27 1016 88 10000 1.5 160 15:38 05.06.2020
1858 Clouds 27 1016 88 10000 1.5 160 15:20 05.06.2020
1859 Clouds 27 1015 88 10000 1.5 160 14:56 05.06.2020
1860 Clouds 26 1015 94 10000 1 180 14:38 05.06.2020
1861 Clouds 26 1015 94 10000 1 180 14:19 05.06.2020
1862 Clouds 25 1014 94 10000 1.5 220 13:44 05.06.2020
1863 Clouds 25 1014 94 10000 1.5 220 13:26 05.06.2020
1864 Clouds 25 1013 94 10000 2.1 220 12:55 05.06.2020
1865 Clouds 25 1013 94 10000 2.1 220 12:37 05.06.2020
1866 Clouds 25 1013 94 10000 2.1 220 12:18 05.06.2020
1867 Clouds 25 1012 100 10000 1.5 220 11:42 05.06.2020
1868 Clouds 25 1012 100 10000 1.5 220 11:23 05.06.2020
1869 Clouds 25 1012 94 10000 1 20 10:56 05.06.2020
1870 Clouds 25 1012 94 10000 1 20 10:38 05.06.2020
1871 Clouds 25 1012 94 10000 1 20 10:19 05.06.2020
1872 Clouds 25 1012 100 10000 1.25 152 09:55 05.06.2020
1873 Clouds 25 1012 100 10000 1.25 152 09:37 05.06.2020
1874 Clouds 25 1012 100 10000 1.47 145 09:18 05.06.2020
1875 Rain 25 1012 100 10000 1.27 136 08:55 05.06.2020
1876 Rain 25 1012 100 10000 1.27 136 08:36 05.06.2020
1877 Rain 25 1012 100 10000 1.02 138 08:18 05.06.2020
1878 Rain 25 1013 94 10000 0.5 200 07:43 05.06.2020
1879 Clouds 25 1013 94 10000 0.5 200 07:20 05.06.2020
1880 Clouds 25 1014 94 10000 1 80 05:58 05.06.2020
1881 Clouds 25 1014 94 10000 1 80 05:19 05.06.2020
1882 Clouds 26 1014 94 10000 1.75 134 03:54 05.06.2020
1883 Clouds 26 1013 88 10000 1.47 130 02:53 05.06.2020
1884 Clouds 26 1013 88 10000 1.45 116 02:21 05.06.2020
1885 Clouds 26 1012 94 10000 1 90 01:52 05.06.2020
1886 Clouds 26 1012 94 10000 1 90 01:20 05.06.2020
1887 Clouds 27 1011 88 10000 1 140 00:41 05.06.2020
1888 Clouds 29 1011 79 10000 1 70 00:20 05.06.2020
1889 Clouds 29 1011 79 10000 1 70 23:46 04.06.2020
1890 Clouds 29 1011 79 10000 1 70 23:26 04.06.2020
1891 Clouds 29 1011 79 10000 1 70 22:55 04.06.2020
1892 Clouds 29 1011 79 10000 1 70 22:36 04.06.2020
1893 Clouds 29 1011 79 10000 1 70 22:18 04.06.2020
1894 Clouds 30 1012 74 10000 1 110 21:41 04.06.2020
1895 Clouds 30 1012 74 10000 1 110 21:23 04.06.2020
1896 Clouds 30 1013 74 10000 1 90 20:59 04.06.2020
1897 Clouds 30 1013 74 10000 1 90 20:40 04.06.2020
1898 Clouds 30 1013 74 10000 1 90 20:21 04.06.2020
1899 Clouds 30 1014 74 10000 1 70 19:58 04.06.2020
1900 Clouds 30 1014 74 10000 1 70 19:38 04.06.2020
1901 Clouds 30 1014 74 10000 1 70 19:20 04.06.2020
1902 Clouds 30 1014 79 10000 3.1 70 18:40 04.06.2020
1903 Clouds 30 1014 79 10000 3.1 70 18:21 04.06.2020
1904 Clouds 29 1015 74 10000 3.6 70 17:59 04.06.2020
1905 Clouds 29 1015 74 10000 3.6 70 17:41 04.06.2020
1906 Clouds 29 1015 74 10000 3.6 70 17:41 04.06.2020
1907 Clouds 29 1015 74 10000 3.6 70 17:20 04.06.2020
1908 Clouds 29 1015 83 10000 2.1 80 16:41 04.06.2020
1909 Clouds 29 1015 83 10000 2.1 80 16:21 04.06.2020
1910 Clouds 28 1015 83 10000 1.5 10 15:56 04.06.2020
1911 Clouds 28 1015 83 10000 1.5 10 15:37 04.06.2020
1912 Clouds 28 1015 83 10000 1.5 10 15:19 04.06.2020
1913 Clouds 27 1014 88 10000 1 350 14:39 04.06.2020
1914 Clouds 27 1014 88 10000 1 350 14:19 04.06.2020
1915 Clouds 25 1013 94 10000 2.1 360 13:56 04.06.2020
1916 Clouds 25 1013 94 10000 2.1 360 13:37 04.06.2020
1917 Clouds 24 1013 94 10000 2.1 360 13:18 04.06.2020
1918 Clouds 24 1012 94 10000 1 300 12:42 04.06.2020
1919 Clouds 24 1012 94 10000 1 300 12:23 04.06.2020
1920 Clouds 24 1012 94 10000 1.5 50 12:00 04.06.2020
1921 Clouds 24 1012 94 10000 1.5 50 11:39 04.06.2020
1922 Clouds 24 1012 94 10000 1.5 50 11:20 04.06.2020
1923 Clouds 24 1011 100 10000 1.5 60 10:57 04.06.2020
1924 Clouds 24 1011 100 10000 1.5 60 10:38 04.06.2020
1925 Clouds 24 1011 100 10000 1.5 60 10:19 04.06.2020
1926 Clouds 24 1011 100 10000 1.5 60 10:19 04.06.2020
1927 Clouds 24 1011 94 10000 1 10 09:43 04.06.2020
1928 Rain 24 1011 94 10000 1 10 09:24 04.06.2020
1929 Rain 25 1012 100 10000 1.5 20 08:46 04.06.2020
1930 Rain 25 1012 100 10000 1.5 20 08:26 04.06.2020
1931 Rain 25 1012 94 10000 1.5 350 07:48 04.06.2020
1932 Clouds 25 1012 94 10000 1.5 350 07:28 04.06.2020
1933 Thunderstorm 25 1013 88 10000 2.1 10 06:44 04.06.2020
1934 Thunderstorm 25 1013 88 10000 2.1 10 06:44 04.06.2020
1935 Thunderstorm 25 1013 88 10000 2.1 10 06:25 04.06.2020
1936 Thunderstorm 25 1013 88 10000 1.5 20 05:39 04.06.2020
1937 Thunderstorm 25 1013 88 10000 1.5 20 05:20 04.06.2020
1938 Thunderstorm 25 1013 88 10000 2.1 20 03:25 04.06.2020
1939 Thunderstorm 26 1010 83 10000 2.1 10 01:57 04.06.2020
1940 Thunderstorm 26 1010 83 10000 2.1 10 01:20 04.06.2020
1941 Clouds 26 1009 83 10000 2.6 20 00:48 04.06.2020
1942 Clouds 26 1009 83 10000 1.5 40 23:44 03.06.2020
1943 Clouds 26 1009 83 10000 1.5 40 23:21 03.06.2020
1944 Clouds 27 1009 83 10000 2.6 40 22:59 03.06.2020
1945 Clouds 27 1009 83 10000 2.6 40 22:39 03.06.2020
1946 Clouds 27 1009 83 10000 2.6 40 22:19 03.06.2020
1947 Clouds 27 1009 83 10000 2.6 40 22:19 03.06.2020
1948 Rain 28 1009 78 10000 4.6 50 21:57 03.06.2020
1949 Rain 28 1009 78 10000 4.6 50 21:39 03.06.2020
1950 Rain 28 1009 78 10000 4.6 50 21:20 03.06.2020
1951 Rain 31 1010 70 10000 2.6 80 20:55 03.06.2020
1952 Rain 31 1010 70 10000 2.6 80 20:37 03.06.2020
1953 Rain 31 1010 70 10000 2.6 80 20:19 03.06.2020
1954 Rain 30 1011 74 10000 2.6 90 19:55 03.06.2020
1955 Rain 30 1011 74 10000 2.6 90 19:36 03.06.2020
1956 Rain 30 1011 74 10000 2.6 90 19:18 03.06.2020
1957 Rain 30 1011 74 10000 2.6 90 19:18 03.06.2020
1958 Clouds 30 1012 79 10000 2.1 70 18:41 03.06.2020
1959 Clouds 29 1013 83 10000 2.1 60 18:22 03.06.2020
1960 Clouds 29 1013 83 10000 2.1 60 17:57 03.06.2020
1961 Clouds 29 1013 83 10000 2.1 60 17:37 03.06.2020
1962 Clouds 29 1013 83 10000 2.1 60 17:18 03.06.2020
1963 Rain 27 1014 94 10000 1.5 80 16:42 03.06.2020
1964 Rain 27 1014 94 10000 1.5 80 16:21 03.06.2020
1965 Rain 27 1014 88 4000 2.6 100 15:58 03.06.2020
1966 Clouds 28 1014 88 10000 1 80 15:40 03.06.2020
1967 Clouds 28 1014 88 10000 1 80 15:20 03.06.2020
1968 Clouds 28 1014 88 10000 1 80 15:20 03.06.2020
1969 Clouds 26 1014 88 10000 1 40 14:46 03.06.2020
1970 Clouds 26 1014 88 10000 1 40 14:24 03.06.2020
1971 Clouds 25 1013 100 10000 1 50 13:56 03.06.2020
1972 Clouds 25 1013 100 10000 1 50 13:38 03.06.2020
1973 Clouds 25 1013 100 10000 1 50 13:18 03.06.2020
1974 Clouds 24 1013 94 10000 1 180 12:42 03.06.2020
1975 Clouds 24 1013 94 10000 1 180 12:21 03.06.2020
1976 Clouds 23 1012 94 10000 1 200 11:45 03.06.2020
1977 Clouds 23 1012 94 10000 1 200 11:26 03.06.2020
1978 Clouds 23 1012 94 10000 1 210 10:56 03.06.2020
1979 Clouds 23 1012 94 10000 1 210 10:38 03.06.2020
1980 Clouds 23 1012 94 10000 1 210 10:20 03.06.2020
1981 Clouds 24 1012 94 10000 1.5 200 09:42 03.06.2020
1982 Clouds 24 1012 94 10000 1.5 200 09:19 03.06.2020
1983 Clouds 24 1013 94 10000 1 140 08:47 03.06.2020
1984 Clouds 24 1013 94 10000 1 140 08:24 03.06.2020
1985 Clouds 24 1013 94 10000 1 140 07:58 03.06.2020
1986 Clouds 25 1013 94 10000 1 210 07:39 03.06.2020
1987 Clouds 25 1013 94 10000 1 210 07:18 03.06.2020
1988 Clouds 25 1013 94 10000 1 50 06:45 03.06.2020
1989 Clouds 25 1013 94 10000 1 50 06:27 03.06.2020
1990 Clouds 25 1013 94 10000 1 90 05:45 03.06.2020
1991 Clouds 25 1013 94 10000 1 110 04:30 03.06.2020
1992 Clouds 25 1013 88 10000 1 170 03:42 03.06.2020
1993 Clouds 26 1012 78 10000 1 330 02:42 03.06.2020
1994 Clouds 26 1012 83 10000 1.5 50 01:46 03.06.2020
1995 Clouds 26 1011 88 10000 2.6 50 00:39 03.06.2020
1996 Clouds 26 1011 88 10000 2.6 50 00:21 03.06.2020
1997 Rain 26 1011 83 10000 2.1 50 23:46 02.06.2020
1998 Rain 26 1011 83 10000 2.1 50 23:27 02.06.2020
1999 Rain 26 1011 83 10000 3.6 30 22:55 02.06.2020
2000 Rain 26 1011 83 10000 3.6 30 22:36 02.06.2020
2001 Rain 26 1011 83 10000 3.6 30 22:18 02.06.2020
2002 Rain 27 1011 70 10000 1.5 80 21:54 02.06.2020
2003 Rain 30 1011 70 10000 1.5 80 21:36 02.06.2020
2004 Rain 30 1011 70 10000 1.5 80 21:18 02.06.2020
2005 Clouds 30 1011 66 10000 2.6 50 20:42 02.06.2020
2006 Clouds 30 1011 66 10000 2.6 50 20:23 02.06.2020
2007 Clouds 30 1011 66 10000 2.6 50 20:23 02.06.2020
2008 Clouds 30 1011 74 10000 2.6 20 19:58 02.06.2020
2009 Rain 31 1013 70 10000 3.6 60 19:39 02.06.2020
2010 Rain 31 1013 70 10000 3.6 60 19:21 02.06.2020
2011 Clouds 30 1014 74 10000 2.1 80 18:55 02.06.2020
2012 Clouds 30 1014 74 10000 2.1 80 18:37 02.06.2020
2013 Clouds 30 1014 74 10000 2.1 80 18:18 02.06.2020
2014 Clouds 29 1015 74 10000 2.1 70 17:41 02.06.2020
2015 Clouds 29 1015 74 10000 2.1 70 17:22 02.06.2020
2016 Clouds 28 1015 83 10000 1 160 16:56 02.06.2020
2017 Clouds 28 1015 83 10000 1 160 16:38 02.06.2020
2018 Clouds 28 1015 83 10000 1 160 16:20 02.06.2020
2019 Clouds 28 1015 83 10000 1 230 15:44 02.06.2020
2020 Clouds 28 1015 83 10000 1 230 15:24 02.06.2020
2021 Clouds 25 1015 94 10000 2.1 10 14:49 02.06.2020
2022 Clouds 25 1015 94 10000 2.1 10 14:30 02.06.2020
2023 Clouds 25 1014 94 7000 1.5 350 13:58 02.06.2020
2024 Clouds 24 1014 94 7000 1.5 350 13:39 02.06.2020
2025 Clouds 24 1014 94 7000 1.5 350 13:19 02.06.2020
2026 Mist 24 1014 100 1800 1.5 360 12:58 02.06.2020
2027 Fog 24 1013 100 800 1 20 12:39 02.06.2020
2028 Fog 24 1013 100 800 1 20 12:20 02.06.2020
2029 Clouds 24 1013 100 7000 1.5 10 11:55 02.06.2020
2030 Clouds 24 1013 100 7000 1.5 10 11:36 02.06.2020
2031 Clouds 24 1013 100 7000 1.5 10 11:18 02.06.2020
2032 Clouds 23 1012 100 10000 1.5 150 10:44 02.06.2020
2033 Clouds 23 1012 100 10000 1.5 150 10:25 02.06.2020
2034 Clouds 24 1012 100 10000 1.5 90 09:44 02.06.2020
2035 Clouds 24 1012 100 10000 1.5 90 09:22 02.06.2020
2036 Clouds 24 1012 100 10000 1 180 08:57 02.06.2020
2037 Clouds 24 1012 100 10000 1 180 08:36 02.06.2020
2038 Clouds 24 1012 100 10000 1 180 08:18 02.06.2020
2039 Clouds 24 1013 100 10000 1 170 07:39 02.06.2020
2040 Rain 24 1014 100 10000 0.5 30 07:20 02.06.2020
2041 Rain 24 1014 100 10000 0.5 30 06:43 02.06.2020
2042 Rain 24 1014 100 10000 1 50 05:46 02.06.2020
2043 Clouds 25 1014 94 10000 1.5 30 04:54 02.06.2020
2044 Clouds 25 1014 94 10000 0.5 130 03:19 02.06.2020
2045 Clouds 25 1014 94 10000 1 180 02:18 02.06.2020
2046 Clouds 25 1013 94 10000 1 170 00:53 02.06.2020
2047 Clouds 25 1012 94 10000 1 100 00:22 02.06.2020
2048 Rain 26 1011 83 10000 1 120 23:39 01.06.2020
2049 Rain 26 1011 83 10000 1 120 23:21 01.06.2020
2050 Clouds 27 1011 78 10000 1.5 360 22:58 01.06.2020
2051 Clouds 27 1011 78 10000 1.5 360 22:39 01.06.2020
2052 Clouds 27 1011 78 10000 1.5 360 22:20 01.06.2020
2053 Clouds 26 1012 88 10000 1 160 21:55 01.06.2020
2054 Clouds 26 1012 88 10000 1 160 21:36 01.06.2020
2055 Clouds 26 1012 88 10000 1 160 21:36 01.06.2020
2056 Clouds 26 1012 88 10000 1 160 21:18 01.06.2020
2057 Clouds 25 1012 78 10000 1 210 20:54 01.06.2020
2058 Rain 24 1014 100 6000 2.1 60 20:36 01.06.2020
2059 Rain 24 1014 100 6000 2.1 60 20:18 01.06.2020
2060 Rain 24 1014 100 6000 2.1 60 20:18 01.06.2020
2061 Rain 24 1014 100 6000 2.1 60 19:42 01.06.2020
2062 Rain 24 1014 100 6000 2.1 60 19:20 01.06.2020
2063 Rain 24 1014 100 6000 2.1 60 18:58 01.06.2020
2064 Rain 24 1015 94 4000 2.1 80 18:39 01.06.2020
2065 Thunderstorm 24 1017 94 4000 3.1 70 18:19 01.06.2020
2066 Thunderstorm 24 1017 94 4000 3.1 70 17:55 01.06.2020
2067 Thunderstorm 24 1017 94 4000 3.1 70 17:36 01.06.2020
2068 Thunderstorm 24 1017 94 4000 3.1 70 17:18 01.06.2020
2069 Rain 24 1017 94 2500 3.6 80 16:39 01.06.2020
2070 Rain 24 1017 94 2500 3.6 80 16:20 01.06.2020
2071 Rain 26 1017 94 4000 1.5 80 15:55 01.06.2020
2072 Rain 26 1016 83 10000 0.5 150 15:37 01.06.2020
2073 Rain 26 1016 83 10000 0.5 150 15:18 01.06.2020
2074 Rain 25 1015 83 10000 2.1 40 14:55 01.06.2020
2075 Rain 25 1015 83 10000 2.1 40 14:36 01.06.2020
2076 Clouds 25 1014 88 10000 0.5 140 14:18 01.06.2020
2077 Clouds 25 1014 88 10000 0.5 140 13:41 01.06.2020
2078 Clouds 25 1014 88 10000 0.5 140 13:21 01.06.2020
2079 Clouds 25 1013 88 10000 2.1 10 12:58 01.06.2020
2080 Clouds 25 1013 88 10000 2.1 10 12:40 01.06.2020
2081 Clouds 25 1013 88 10000 2.1 10 12:21 01.06.2020
2082 Rain 24 1013 83 10000 2.6 360 11:56 01.06.2020
2083 Rain 24 1013 83 10000 2.6 360 11:36 01.06.2020
2084 Clouds 24 1013 83 10000 2.6 360 11:18 01.06.2020
2085 Clouds 25 1012 88 10000 2.6 360 10:39 01.06.2020
2086 Rain 25 1012 88 10000 2.6 360 10:20 01.06.2020
2087 Rain 25 1012 94 10000 2.1 360 09:57 01.06.2020
2088 Rain 25 1012 94 10000 2.1 360 09:39 01.06.2020
2089 Rain 25 1012 94 10000 2.1 360 09:20 01.06.2020
2090 Clouds 25 1013 83 10000 3.1 350 08:51 01.06.2020
2091 Clouds 25 1013 83 10000 3.1 350 08:28 01.06.2020
2092 Rain 26 1013 83 10000 2.1 350 07:46 01.06.2020
2093 Rain 26 1013 83 10000 2.1 350 07:28 01.06.2020
2094 Rain 26 1014 88 10000 1 300 06:59 01.06.2020
2095 Rain 26 1014 88 10000 1 300 06:33 01.06.2020
2096 Rain 26 1014 88 10000 1 300 05:53 01.06.2020
2097 Thunderstorm 26 1014 88 10000 1 40 04:31 01.06.2020
2098 Thunderstorm 26 1013 94 10000 0.5 80 03:48 01.06.2020
2099 Thunderstorm 26 1013 94 10000 0.5 80 03:24 01.06.2020
2100 Thunderstorm 26 1012 94 10000 1.41 102 02:19 01.06.2020
2101 Thunderstorm 26 1012 94 10000 1.41 102 01:34 01.06.2020
2102 Thunderstorm 27 1011 88 10000 1 80 00:58 01.06.2020
2103 Thunderstorm 27 1011 88 10000 1 80 00:39 01.06.2020
2104 Thunderstorm 27 1011 88 10000 1 80 00:21 01.06.2020
2105 Thunderstorm 27 1011 88 10000 1 80 00:21 01.06.2020
2106 Rain 27 1010 78 10000 1.5 80 23:56 31.05.2020
2107 Rain 27 1010 78 10000 1.5 80 23:37 31.05.2020
2108 Rain 27 1010 79 10000 1.5 70 23:19 31.05.2020
2109 Rain 30 1010 79 10000 1.5 70 22:43 31.05.2020
2110 Rain 30 1010 79 10000 1.5 70 22:25 31.05.2020
2111 Rain 30 1010 74 10000 1.5 80 21:58 31.05.2020
2112 Rain 30 1010 74 10000 1.5 80 21:39 31.05.2020
2113 Rain 30 1010 74 10000 1.5 80 21:21 31.05.2020
2114 Clouds 30 1012 74 10000 1.5 100 20:57 31.05.2020
2115 Clouds 30 1012 74 10000 1.5 100 20:38 31.05.2020
2116 Clouds 30 1012 74 10000 1.5 100 20:19 31.05.2020
2117 Clouds 29 1013 78 10000 1.5 100 19:54 31.05.2020
2118 Clouds 29 1013 78 10000 1.5 100 19:36 31.05.2020
2119 Clouds 29 1013 78 10000 1.5 100 19:18 31.05.2020
2120 Clouds 28 1014 78 10000 2.6 60 18:43 31.05.2020
2121 Clouds 28 1014 78 10000 2.6 60 18:24 31.05.2020
2122 Clouds 26 1015 88 10000 1 100 17:44 31.05.2020
2123 Clouds 26 1015 88 10000 1 100 17:24 31.05.2020
2124 Clouds 26 1015 88 10000 1 100 17:24 31.05.2020
2125 Clouds 25 1016 94 10000 1 70 16:55 31.05.2020
2126 Clouds 25 1016 94 10000 1 70 16:37 31.05.2020
2127 Clouds 25 1016 94 10000 1 70 16:18 31.05.2020
2128 Clouds 25 1015 94 10000 3.1 80 15:39 31.05.2020
2129 Clouds 25 1015 94 10000 3.1 80 15:21 31.05.2020
2130 Clouds 26 1014 88 10000 1 80 14:47 31.05.2020
2131 Clouds 26 1014 88 10000 1 80 14:21 31.05.2020
2132 Clouds 26 1014 88 10000 2.1 30 13:56 31.05.2020
2133 Clouds 26 1014 88 10000 2.1 30 13:38 31.05.2020
2134 Clouds 26 1014 88 10000 2.1 30 13:20 31.05.2020
2135 Clouds 26 1014 88 10000 2.1 30 13:20 31.05.2020
2136 Clouds 25 1013 94 10000 1.5 20 12:56 31.05.2020
2137 Clouds 25 1013 94 10000 1.5 20 12:37 31.05.2020
2138 Clouds 25 1013 94 10000 1.5 20 12:18 31.05.2020
2139 Rain 25 1013 100 10000 1.5 40 11:47 31.05.2020
2140 Clouds 25 1013 100 10000 1.5 40 11:23 31.05.2020
2141 Clouds 25 1012 100 10000 1.2 78 10:55 31.05.2020
2142 Clouds 25 1012 100 10000 1.2 78 10:37 31.05.2020
2143 Clouds 25 1012 100 10000 1.1 75 10:18 31.05.2020
2144 Clouds 25 1012 100 10000 1.1 75 09:42 31.05.2020
2145 Clouds 25 1012 100 10000 1.2 73 09:22 31.05.2020
2146 Clouds 25 1012 94 10000 1.2 73 08:57 31.05.2020
2147 Clouds 25 1012 94 10000 1.2 73 08:37 31.05.2020
2148 Clouds 25 1012 94 10000 1.15 65 08:19 31.05.2020
2149 Clouds 26 1013 88 10000 2.1 10 07:40 31.05.2020
2150 Clouds 26 1013 88 10000 2.1 10 07:20 31.05.2020
2151 Clouds 26 1013 88 10000 2.6 360 06:50 31.05.2020
2152 Clouds 26 1013 88 10000 2.6 360 06:31 31.05.2020
2153 Clouds 26 1013 83 10000 2.6 360 05:41 31.05.2020
2154 Clouds 27 1013 83 10000 2.1 30 04:25 31.05.2020
2155 Clouds 27 1013 88 10000 2.1 40 03:48 31.05.2020
2156 Clouds 27 1013 88 10000 2.1 40 02:59 31.05.2020
2157 Clouds 26 1011 88 10000 0.5 140 01:48 31.05.2020
2158 Clouds 27 1011 88 10000 0.5 140 00:59 31.05.2020
2159 Clouds 28 1011 88 10000 0.5 70 00:29 31.05.2020
2160 Clouds 29 1011 79 10000 1 100 23:45 30.05.2020
2161 Clouds 29 1011 79 10000 1 100 23:27 30.05.2020
2162 Clouds 30 1010 74 10000 1 150 22:59 30.05.2020
2163 Clouds 30 1010 74 10000 1 150 22:40 30.05.2020
2164 Clouds 30 1010 74 10000 1 150 22:40 30.05.2020
2165 Clouds 30 1010 74 10000 1 150 22:21 30.05.2020
2166 Clouds 30 1011 74 10000 2.1 160 21:55 30.05.2020
2167 Clouds 30 1011 74 10000 2.1 160 21:37 30.05.2020
2168 Clouds 30 1011 74 10000 2.1 160 21:18 30.05.2020
2169 Clouds 29 1012 79 10000 2.1 160 20:56 30.05.2020
2170 Clouds 29 1012 79 10000 2.1 160 20:37 30.05.2020
2171 Clouds 29 1012 79 10000 2.1 160 20:19 30.05.2020
2172 Clouds 29 1013 74 10000 1.5 160 19:41 30.05.2020
2173 Clouds 29 1013 74 10000 1.5 160 19:21 30.05.2020
2174 Clouds 28 1014 78 10000 1 150 18:45 30.05.2020
2175 Clouds 28 1014 78 10000 1 150 18:22 30.05.2020
2176 Clouds 28 1014 88 10000 1.5 200 17:46 30.05.2020
2177 Clouds 28 1014 88 10000 1.5 200 17:26 30.05.2020
2178 Clouds 28 1015 78 10000 1.5 160 16:59 30.05.2020
2179 Clouds 28 1015 78 10000 1.5 160 16:59 30.05.2020
2180 Clouds 28 1015 78 10000 1.5 160 16:59 30.05.2020
2181 Clouds 28 1015 78 10000 1.5 160 16:41 30.05.2020
2182 Clouds 28 1015 78 10000 1.5 160 16:21 30.05.2020
2183 Clouds 27 1015 78 10000 1 10 15:45 30.05.2020
2184 Clouds 27 1015 78 10000 1 10 15:26 30.05.2020
2185 Clouds 25 1014 88 10000 2.6 310 14:46 30.05.2020
2186 Clouds 25 1014 88 10000 2.6 310 14:27 30.05.2020
2187 Clouds 24 1014 88 10000 3.1 300 13:46 30.05.2020
2188 Clouds 24 1014 88 10000 3.1 300 13:27 30.05.2020
2189 Clouds 24 1014 100 10000 1.5 300 12:55 30.05.2020
2190 Clouds 24 1013 88 10000 3.1 330 12:36 30.05.2020
2191 Clouds 24 1013 88 10000 3.1 330 12:18 30.05.2020
2192 Clouds 24 1012 88 10000 1 340 11:41 30.05.2020
2193 Clouds 24 1012 88 10000 1 340 11:22 30.05.2020
2194 Clouds 23 1012 94 10000 1 310 10:56 30.05.2020
2195 Clouds 23 1012 94 10000 1 310 10:38 30.05.2020
2196 Clouds 23 1012 94 10000 1 310 10:20 30.05.2020
2197 Clouds 24 1012 88 10000 1.5 290 09:43 30.05.2020
2198 Rain 24 1012 88 10000 1.5 290 09:25 30.05.2020
2199 Rain 24 1013 83 10000 1 300 08:42 30.05.2020
2200 Rain 24 1013 83 10000 1 300 08:22 30.05.2020
2201 Rain 24 1013 83 10000 1 340 07:40 30.05.2020
2202 Clouds 24 1013 83 10000 1 340 07:19 30.05.2020
2203 Clouds 24 1013 83 10000 1.5 320 06:29 30.05.2020
2204 Clouds 24 1014 83 10000 2.1 330 05:51 30.05.2020
2205 Clouds 24 1014 83 10000 1.5 30 04:47 30.05.2020
2206 Clouds 25 1013 83 10000 2.1 30 02:41 30.05.2020
2207 Clouds 25 1013 83 10000 2.1 30 02:19 30.05.2020
2208 Clouds 26 1011 83 10000 5.1 20 00:45 30.05.2020
2209 Clouds 26 1011 83 10000 5.1 20 00:24 30.05.2020
2210 Rain 27 1010 78 10000 3.1 20 23:59 29.05.2020
2211 Rain 27 1010 78 10000 3.1 20 23:38 29.05.2020
2212 Rain 27 1010 78 10000 3.1 20 23:38 29.05.2020
2213 Rain 27 1010 78 10000 3.1 20 23:19 29.05.2020
2214 Rain 27 1010 78 10000 3.1 20 23:19 29.05.2020
2215 Rain 27 1010 78 10000 3.1 20 23:19 29.05.2020
2216 Rain 29 1011 74 10000 1.5 70 22:54 29.05.2020
2217 Rain 29 1011 74 10000 1.5 70 22:36 29.05.2020
2218 Rain 29 1011 74 10000 1.5 70 22:18 29.05.2020
2219 Clouds 32 1010 66 10000 1.5 170 21:40 29.05.2020
2220 Clouds 32 1010 66 10000 1.5 170 21:21 29.05.2020
2221 Rain 31 1011 70 10000 1.5 210 20:58 29.05.2020
2222 Rain 31 1011 70 10000 1.5 210 20:39 29.05.2020
2223 Rain 31 1011 70 10000 1.5 210 20:19 29.05.2020
2224 Clouds 30 1012 79 10000 3.1 250 19:43 29.05.2020
2225 Clouds 30 1012 79 10000 3.1 250 19:24 29.05.2020
2226 Clouds 30 1012 79 10000 3.1 250 18:48 29.05.2020
2227 Clouds 30 1013 74 10000 2.6 240 18:23 29.05.2020
2228 Rain 29 1014 79 10000 3.1 250 17:59 29.05.2020
2229 Rain 29 1014 79 10000 3.1 250 17:39 29.05.2020
2230 Rain 29 1014 79 10000 3.1 250 17:20 29.05.2020
2231 Clouds 29 1015 79 10000 3.6 260 16:47 29.05.2020
2232 Clouds 29 1015 79 10000 3.6 260 16:29 29.05.2020
2233 Clouds 28 1015 83 10000 3.6 260 15:59 29.05.2020
2234 Clouds 28 1015 83 10000 3.6 260 15:41 29.05.2020
2235 Clouds 28 1015 83 10000 3.6 260 15:21 29.05.2020
2236 Clouds 27 1014 83 10000 3.1 280 14:57 29.05.2020
2237 Clouds 27 1014 83 10000 3.1 280 14:38 29.05.2020
2238 Clouds 27 1014 83 10000 3.1 280 14:19 29.05.2020
2239 Clouds 26 1013 94 10000 3.1 270 13:41 29.05.2020
2240 Clouds 26 1013 94 10000 3.1 270 13:21 29.05.2020
2241 Clouds 25 1013 100 10000 1.5 220 12:55 29.05.2020
2242 Clouds 25 1013 100 10000 1.5 220 12:37 29.05.2020
2243 Clouds 25 1013 100 10000 1.5 220 12:18 29.05.2020
2244 Clouds 25 1012 100 10000 1.5 180 11:42 29.05.2020
2245 Clouds 25 1012 100 10000 1.5 180 11:24 29.05.2020
2246 Clouds 25 1011 100 10000 1 240 10:43 29.05.2020
2247 Clouds 25 1011 100 10000 1 240 10:24 29.05.2020
2248 Clouds 26 1012 94 10000 2.6 290 09:56 29.05.2020
2249 Clouds 26 1012 94 10000 2.6 290 09:38 29.05.2020
2250 Clouds 26 1012 94 10000 2.6 290 09:19 29.05.2020
2251 Clouds 26 1012 94 10000 1.5 200 08:46 29.05.2020
2252 Clouds 26 1012 94 10000 1.5 200 08:23 29.05.2020
2253 Clouds 26 1012 94 10000 2.1 250 07:47 29.05.2020
2254 Clouds 26 1012 94 10000 2.1 250 07:29 29.05.2020
2255 Clouds 26 1013 88 10000 2.6 250 06:55 29.05.2020
2256 Clouds 26 1013 88 10000 2.6 250 06:37 29.05.2020
2257 Clouds 26 1013 88 10000 2.6 250 06:18 29.05.2020
2258 Clouds 26 1013 88 10000 3.1 270 05:24 29.05.2020
2259 Clouds 28 1011 88 10000 3.6 270 01:48 29.05.2020
2260 Clouds 28 1011 88 10000 3.6 270 01:26 29.05.2020
2261 Clouds 29 1011 70 10000 2.1 230 00:50 29.05.2020
2262 Clouds 29 1011 70 10000 2.1 230 00:23 29.05.2020
2263 Clouds 30 1010 70 10000 1.5 190 23:41 28.05.2020
2264 Rain 30 1010 70 10000 1.5 170 23:20 28.05.2020
2265 Rain 30 1010 70 10000 1.5 170 23:20 28.05.2020
2266 Rain 30 1010 70 10000 1.5 170 22:59 28.05.2020
2267 Rain 30 1010 70 10000 1.5 170 22:40 28.05.2020
2268 Rain 30 1010 70 10000 1.5 170 22:20 28.05.2020
2269 Rain 31 1010 66 10000 2.1 160 21:55 28.05.2020
2270 Rain 31 1010 66 10000 2.1 160 21:36 28.05.2020
2271 Rain 31 1011 66 10000 2.1 190 21:18 28.05.2020
2272 Rain 31 1011 66 10000 2.1 190 20:41 28.05.2020
2273 Rain 31 1011 66 10000 2.1 190 20:20 28.05.2020
2274 Clouds 30 1012 70 10000 1.5 190 19:58 28.05.2020
2275 Clouds 30 1012 70 10000 1.5 190 19:40 28.05.2020
2276 Clouds 30 1012 70 10000 1.5 190 19:20 28.05.2020
2277 Clouds 30 1012 70 10000 1.5 190 18:57 28.05.2020
2278 Clouds 30 1013 74 10000 2.1 150 18:38 28.05.2020
2279 Clouds 30 1013 74 10000 2.1 150 18:20 28.05.2020
2280 Clouds 29 1014 79 10000 2.1 190 17:40 28.05.2020
2281 Clouds 29 1014 79 10000 2.1 190 17:21 28.05.2020
2282 Clouds 27 1014 88 10000 1.5 190 16:47 28.05.2020
2283 Clouds 27 1014 88 10000 1.5 190 16:21 28.05.2020
2284 Clouds 27 1014 83 10000 1.5 210 15:56 28.05.2020
2285 Clouds 27 1014 83 10000 1.5 210 15:38 28.05.2020
2286 Clouds 27 1014 83 10000 1.5 210 15:19 28.05.2020
2287 Clouds 26 1014 88 10000 1 230 14:42 28.05.2020
2288 Clouds 26 1014 88 10000 1 230 14:23 28.05.2020
2289 Clouds 25 1013 94 10000 1.31 157 13:46 28.05.2020
2290 Clouds 25 1013 94 10000 0.85 160 13:28 28.05.2020
2291 Clouds 25 1013 94 10000 1 230 12:56 28.05.2020
2292 Clouds 25 1013 94 10000 1 230 12:37 28.05.2020
2293 Clouds 25 1013 94 10000 1 230 12:18 28.05.2020
2294 Clouds 25 1012 88 10000 2.1 250 11:40 28.05.2020
2295 Clouds 25 1012 88 10000 2.1 250 11:22 28.05.2020
2296 Clouds 25 1012 94 10000 1.5 230 10:50 28.05.2020
2297 Clouds 25 1012 94 10000 1.5 230 10:28 28.05.2020
2298 Clouds 25 1012 94 10000 1.5 230 10:28 28.05.2020
2299 Clouds 26 1011 88 10000 1.5 240 09:59 28.05.2020
2300 Clouds 26 1011 88 10000 1.5 240 09:38 28.05.2020
2301 Clouds 26 1011 88 10000 1.5 240 09:38 28.05.2020
2302 Clouds 26 1011 88 10000 1.5 240 09:18 28.05.2020
2303 Clouds 26 1012 94 10000 1 200 08:44 28.05.2020
2304 Clouds 26 1012 94 10000 1 200 08:25 28.05.2020
2305 Clouds 26 1012 94 10000 1 230 07:45 28.05.2020
2306 Clouds 26 1012 94 10000 1 230 07:23 28.05.2020
2307 Thunderstorm 25 1012 94 10000 0.5 150 06:45 28.05.2020
2308 Thunderstorm 25 1012 94 10000 0.5 150 06:27 28.05.2020
2309 Thunderstorm 26 1013 88 10000 1.5 180 05:40 28.05.2020
2310 Clouds 26 1013 78 10000 1.5 180 04:39 28.05.2020
2311 Clouds 26 1013 78 10000 1.5 180 04:20 28.05.2020
2312 Clouds 27 1012 88 10000 1 170 02:59 28.05.2020
2313 Clouds 27 1012 88 10000 1 170 02:38 28.05.2020
2314 Clouds 28 1011 83 10000 1.5 170 01:45 28.05.2020
2315 Rain 29 1010 78 10000 1 80 00:50 28.05.2020
2316 Rain 29 1010 78 10000 1 80 00:21 28.05.2020
2317 Rain 31 1010 66 10000 1 80 23:56 27.05.2020
2318 Rain 31 1010 66 10000 1 80 23:37 27.05.2020
2319 Rain 31 1010 66 10000 1 80 23:19 27.05.2020
2320 Clouds 31 1010 66 10000 1 130 22:42 27.05.2020
2321 Clouds 31 1010 66 10000 1 130 22:23 27.05.2020
2322 Clouds 32 1010 66 10000 2.1 150 21:57 27.05.2020
2323 Clouds 32 1010 66 10000 2.1 150 21:57 27.05.2020
2324 Clouds 32 1010 66 10000 2.1 150 21:39 27.05.2020
2325 Clouds 32 1010 66 10000 2.1 150 21:20 27.05.2020
2326 Clouds 31 1011 70 10000 2.1 180 20:58 27.05.2020
2327 Clouds 31 1011 70 10000 2.1 180 20:58 27.05.2020
2328 Clouds 31 1011 70 10000 2.1 180 20:39 27.05.2020
2329 Clouds 31 1011 70 10000 2.1 180 20:19 27.05.2020
2330 Clouds 30 1012 70 10000 2.1 170 19:45 27.05.2020
2331 Clouds 30 1012 70 10000 2.1 170 19:21 27.05.2020
2332 Clouds 30 1013 70 10000 1 180 18:45 27.05.2020
2333 Clouds 30 1013 70 10000 1 180 18:23 27.05.2020
2334 Clouds 29 1013 74 10000 3.1 180 17:59 27.05.2020
2335 Clouds 29 1014 74 10000 2.1 170 17:40 27.05.2020
2336 Clouds 29 1014 74 10000 2.1 170 17:22 27.05.2020
2337 Clouds 29 1015 74 10000 1.5 170 16:56 27.05.2020
2338 Clouds 29 1015 74 10000 1.5 170 16:38 27.05.2020
2339 Clouds 29 1015 74 10000 1.5 170 16:19 27.05.2020
2340 Clouds 28 1015 78 10000 1 190 15:48 27.05.2020
2341 Clouds 28 1015 78 10000 1 190 15:22 27.05.2020
2342 Clouds 27 1014 83 10000 0.5 130 14:47 27.05.2020
2343 Clouds 27 1014 83 10000 0.5 130 14:23 27.05.2020
2344 Clouds 25 1014 94 10000 1 40 13:59 27.05.2020
2345 Clouds 25 1014 94 10000 1 40 13:41 27.05.2020
2346 Clouds 25 1014 94 10000 1 40 13:22 27.05.2020
2347 Clouds 25 1013 94 10000 1.12 157 12:42 27.05.2020
2348 Clouds 25 1013 94 10000 1.01 181 12:23 27.05.2020
2349 Clouds 25 1013 94 10000 1.5 180 11:56 27.05.2020
2350 Clouds 25 1013 94 10000 1.5 180 11:37 27.05.2020
2351 Clouds 25 1013 94 10000 1.5 180 11:18 27.05.2020
2352 Clouds 25 1012 100 10000 2.1 200 10:43 27.05.2020
2353 Clouds 25 1012 100 10000 2.1 200 10:24 27.05.2020
2354 Clouds 26 1012 94 10000 1 190 09:57 27.05.2020
2355 Clouds 26 1012 94 10000 1 190 09:57 27.05.2020
2356 Clouds 26 1012 94 10000 1 190 09:39 27.05.2020
2357 Clouds 26 1012 94 10000 1 190 09:20 27.05.2020
2358 Clouds 26 1013 94 10000 1 170 08:42 27.05.2020
2359 Clouds 26 1013 94 10000 1 170 08:42 27.05.2020
2360 Clouds 26 1013 94 10000 1 170 08:24 27.05.2020
2361 Rain 26 1014 94 10000 1.5 180 07:53 27.05.2020
2362 Rain 26 1014 94 10000 1.5 180 07:34 27.05.2020
2363 Clouds 26 1014 94 10000 1.5 210 06:56 27.05.2020
2364 Clouds 26 1014 94 10000 1.5 210 06:30 27.05.2020
2365 Clouds 26 1014 94 10000 1.5 210 05:50 27.05.2020
2366 Rain 26 1014 88 10000 1 210 05:28 27.05.2020
2367 Rain 25 1014 94 10000 1 50 03:39 27.05.2020
2368 Rain 26 1013 88 10000 0.5 170 02:30 27.05.2020
2369 Clouds 27 1013 83 10000 1.5 180 01:34 27.05.2020
2370 Clouds 27 1012 83 10000 1 80 00:58 27.05.2020
2371 Clouds 27 1012 83 10000 1 80 00:40 27.05.2020
2372 Clouds 27 1012 83 10000 1 80 00:18 27.05.2020
2373 Clouds 29 1011 74 10000 1 80 23:41 26.05.2020
2374 Clouds 29 1011 74 10000 1 80 23:23 26.05.2020
2375 Rain 30 1011 70 10000 2.1 170 22:58 26.05.2020
2376 Rain 30 1011 70 10000 2.1 170 22:38 26.05.2020
2377 Rain 30 1011 70 10000 2.1 170 22:19 26.05.2020
2378 Clouds 30 1012 70 10000 1.5 180 21:56 26.05.2020
2379 Clouds 30 1012 70 10000 1.5 180 21:56 26.05.2020
2380 Clouds 30 1012 70 10000 1.5 180 21:38 26.05.2020
2381 Clouds 30 1012 70 10000 1.5 180 21:19 26.05.2020
2382 Clouds 29 1012 74 10000 2.1 200 20:42 26.05.2020
2383 Clouds 29 1012 74 10000 2.1 200 20:21 26.05.2020
2384 Clouds 29 1014 74 10000 1.5 210 19:55 26.05.2020
2385 Clouds 29 1014 74 10000 1.5 210 19:37 26.05.2020
2386 Clouds 29 1014 74 10000 1.5 210 19:18 26.05.2020
2387 Clouds 28 1015 78 10000 2.1 180 18:41 26.05.2020
2388 Clouds 28 1015 78 10000 2.1 180 18:21 26.05.2020
2389 Clouds 28 1016 78 10000 1.5 170 17:43 26.05.2020
2390 Clouds 28 1016 78 10000 1.5 170 17:24 26.05.2020
2391 Clouds 28 1016 74 10000 1.5 180 16:59 26.05.2020
2392 Clouds 28 1016 74 10000 1.5 180 16:41 26.05.2020
2393 Clouds 28 1016 74 10000 1.5 180 16:19 26.05.2020
2394 Clouds 27 1016 83 10000 2.1 180 15:43 26.05.2020
2395 Clouds 27 1016 83 10000 2.1 180 15:21 26.05.2020
2396 Clouds 26 1016 83 10000 2.1 170 14:56 26.05.2020
2397 Clouds 26 1016 83 10000 2.1 170 14:38 26.05.2020
2398 Clouds 26 1016 83 10000 2.1 170 14:20 26.05.2020
2399 Clouds 25 1015 94 10000 1 170 13:41 26.05.2020
2400 Clouds 25 1015 94 10000 1 170 13:23 26.05.2020
2401 Clouds 24 1013 94 10000 2.1 200 12:57 26.05.2020
2402 Clouds 24 1013 94 10000 2.1 200 12:38 26.05.2020
2403 Clouds 24 1014 94 10000 1 180 12:19 26.05.2020
2404 Clouds 24 1014 94 10000 1 180 11:41 26.05.2020
2405 Clouds 24 1014 94 10000 1 180 11:21 26.05.2020
2406 Clouds 25 1014 94 10000 2.1 200 10:57 26.05.2020
2407 Clouds 25 1014 94 10000 2.1 200 10:38 26.05.2020
2408 Clouds 25 1014 94 10000 2.1 200 10:18 26.05.2020
2409 Clouds 25 1014 94 10000 1.5 200 09:38 26.05.2020
2410 Clouds 25 1014 94 10000 1.5 200 09:19 26.05.2020
2411 Clouds 25 1014 94 10000 1.5 200 08:42 26.05.2020
2412 Clouds 25 1014 94 10000 1.5 200 08:22 26.05.2020
2413 Clouds 25 1013 94 10000 1.5 180 07:44 26.05.2020
2414 Clouds 25 1013 94 10000 1.5 180 07:44 26.05.2020
2415 Clouds 25 1013 94 10000 1.5 180 07:24 26.05.2020
2416 Clouds 26 1015 88 10000 2.1 170 06:54 26.05.2020
2417 Clouds 26 1015 88 10000 2.1 170 06:35 26.05.2020
2418 Clouds 26 1015 88 10000 1.5 160 05:44 26.05.2020
2419 Clouds 26 1015 88 10000 1.5 160 05:25 26.05.2020
2420 Clouds 26 1015 88 10000 1 160 04:49 26.05.2020
2421 Clouds 26 1015 88 10000 1 160 04:31 26.05.2020
2422 Clouds 27 1014 83 10000 2.1 160 03:50 26.05.2020
2423 Clouds 26 1014 88 10000 1 160 02:40 26.05.2020
2424 Clouds 27 1013 83 10000 1.5 160 01:47 26.05.2020
2425 Clouds 28 1012 78 10000 1.5 180 00:56 26.05.2020
2426 Clouds 28 1012 78 10000 1.5 180 00:36 26.05.2020
2427 Clouds 28 1012 78 10000 1.5 180 00:36 26.05.2020
2428 Clouds 28 1012 78 10000 1.5 180 00:18 26.05.2020
2429 Clouds 28 1012 78 10000 1.5 150 23:39 25.05.2020
2430 Clouds 28 1012 78 10000 1.5 150 23:20 25.05.2020
2431 Clouds 29 1012 74 10000 2.1 170 22:56 25.05.2020
2432 Clouds 29 1012 74 10000 2.1 170 22:56 25.05.2020
2433 Clouds 29 1012 74 10000 2.1 170 22:38 25.05.2020
2434 Clouds 29 1012 74 10000 2.1 170 22:20 25.05.2020
2435 Rain 29 1012 74 10000 2.1 170 21:59 25.05.2020
2436 Rain 29 1012 74 10000 2.1 170 21:39 25.05.2020
2437 Rain 29 1012 74 10000 2.1 170 21:20 25.05.2020
2438 Clouds 29 1012 70 10000 3.6 120 20:59 25.05.2020
2439 Clouds 29 1013 74 10000 2.1 170 20:41 25.05.2020
2440 Clouds 29 1013 74 10000 2.1 170 20:20 25.05.2020
2441 Clouds 28 1014 78 10000 2.6 170 19:58 25.05.2020
2442 Clouds 28 1014 78 10000 2.6 170 19:38 25.05.2020
2443 Clouds 28 1014 78 10000 2.6 170 19:18 25.05.2020
2444 Clouds 28 1014 78 10000 2.6 170 19:18 25.05.2020
2445 Clouds 27 1015 83 10000 2.1 180 18:43 25.05.2020
2446 Clouds 27 1015 83 10000 2.1 180 18:22 25.05.2020
2447 Clouds 26 1016 83 10000 1.5 140 17:57 25.05.2020
2448 Clouds 26 1016 83 10000 1.5 140 17:38 25.05.2020
2449 Clouds 26 1016 83 10000 1.5 140 17:20 25.05.2020
2450 Clouds 26 1016 83 10000 2.1 150 16:55 25.05.2020
2451 Clouds 26 1016 83 10000 2.1 150 16:36 25.05.2020
2452 Clouds 26 1016 83 10000 2.1 150 16:18 25.05.2020
2453 Clouds 25 1015 88 10000 2.1 160 15:42 25.05.2020
2454 Clouds 25 1015 88 10000 2.1 160 15:18 25.05.2020
2455 Clouds 25 1015 83 10000 2.1 160 14:43 25.05.2020
2456 Clouds 25 1015 83 10000 2.1 160 14:25 25.05.2020
2457 Clouds 25 1015 83 10000 2.1 160 14:25 25.05.2020
2458 Clouds 25 1014 83 10000 2.1 160 13:57 25.05.2020
2459 Clouds 25 1014 83 10000 2.1 160 13:38 25.05.2020
2460 Clouds 25 1014 83 10000 2.1 160 13:20 25.05.2020
2461 Clouds 25 1014 83 10000 2.1 160 12:55 25.05.2020
2462 Clouds 25 1013 94 10000 2.1 140 12:36 25.05.2020
2463 Clouds 25 1013 94 10000 2.1 140 12:18 25.05.2020
2464 Clouds 24 1013 94 10000 1.5 240 11:38 25.05.2020
2465 Clouds 24 1013 94 10000 1.5 240 11:19 25.05.2020
2466 Clouds 24 1012 100 10000 2.6 170 10:54 25.05.2020
2467 Clouds 24 1012 100 10000 2.6 170 10:36 25.05.2020
2468 Clouds 24 1012 94 10000 1.5 100 10:18 25.05.2020
2469 Clouds 24 1013 100 10000 2.1 200 09:41 25.05.2020
2470 Clouds 24 1013 100 10000 2.1 200 09:19 25.05.2020
2471 Clouds 24 1013 100 10000 2.1 50 08:59 25.05.2020
2472 Clouds 24 1013 100 10000 2.1 50 08:37 25.05.2020
2473 Clouds 24 1013 100 10000 2.1 50 08:18 25.05.2020
2474 Clouds 24 1014 100 10000 2.6 160 07:45 25.05.2020
2475 Clouds 24 1014 100 10000 2.6 160 07:21 25.05.2020
2476 Clouds 25 1014 94 10000 2.1 160 06:52 25.05.2020
2477 Clouds 25 1014 94 10000 2.1 160 06:31 25.05.2020
2478 Clouds 25 1015 94 10000 2.6 170 04:18 25.05.2020
2479 Clouds 26 1015 88 10000 2.1 180 03:23 25.05.2020
2480 Clouds 26 1014 88 10000 2.6 190 02:45 25.05.2020
2481 Clouds 26 1013 94 10000 2.1 180 01:57 25.05.2020
2482 Clouds 26 1013 94 10000 2.1 180 01:28 25.05.2020
2483 Clouds 27 1013 83 10000 2.1 190 00:42 25.05.2020
2484 Rain 28 1012 78 10000 2.1 80 00:20 25.05.2020
2485 Rain 28 1012 78 10000 2.1 80 23:56 24.05.2020
2486 Rain 28 1012 78 10000 2.1 80 23:37 24.05.2020
2487 Rain 28 1012 78 10000 2.1 80 23:18 24.05.2020
2488 Rain 29 1012 74 10000 1.5 70 22:41 24.05.2020
2489 Rain 29 1012 74 10000 1.5 70 22:19 24.05.2020
2490 Clouds 30 1012 70 10000 1.5 90 21:56 24.05.2020
2491 Clouds 30 1012 70 10000 1.5 90 21:38 24.05.2020
2492 Clouds 30 1012 70 10000 1.5 90 21:20 24.05.2020
2493 Clouds 29 1013 74 10000 1.5 80 20:44 24.05.2020
2494 Clouds 29 1013 74 10000 1.5 80 20:23 24.05.2020
2495 Clouds 29 1013 70 10000 2.1 70 19:59 24.05.2020
2496 Clouds 28 1014 78 10000 1.5 110 19:41 24.05.2020
2497 Clouds 28 1014 78 10000 1.5 110 19:19 24.05.2020
2498 Clouds 28 1014 78 10000 1.5 110 19:19 24.05.2020
2499 Clouds 28 1014 78 10000 1.5 110 18:57 24.05.2020
2500 Drizzle 29 1015 74 10000 3.1 70 18:38 24.05.2020
2501 Drizzle 29 1015 74 10000 3.1 70 18:20 24.05.2020
2502 Clouds 28 1016 78 10000 3.1 70 17:41 24.05.2020
2503 Clouds 28 1016 78 10000 3.1 70 17:22 24.05.2020
2504 Clouds 27 1016 88 10000 2.1 70 16:58 24.05.2020
2505 Clouds 27 1016 88 10000 2.1 70 16:39 24.05.2020
2506 Clouds 27 1016 88 10000 2.1 70 16:20 24.05.2020
2507 Clouds 27 1016 88 10000 2.1 70 16:20 24.05.2020
2508 Clouds 26 1017 88 10000 2.1 60 15:57 24.05.2020
2509 Clouds 26 1017 88 10000 2.6 60 15:38 24.05.2020
2510 Clouds 26 1017 88 10000 2.6 60 15:19 24.05.2020
2511 Clouds 25 1016 94 10000 1.5 30 14:46 24.05.2020
2512 Clouds 25 1016 94 10000 1.5 30 14:25 24.05.2020
2513 Clouds 24 1015 100 10000 1.5 30 13:59 24.05.2020
2514 Clouds 24 1015 100 10000 1.5 30 13:41 24.05.2020
2515 Clouds 24 1015 100 10000 1.5 30 13:22 24.05.2020
2516 Clouds 24 1015 94 10000 1 350 12:59 24.05.2020
2517 Clouds 24 1014 100 10000 1.5 20 12:40 24.05.2020
2518 Clouds 24 1014 100 10000 1.5 20 12:22 24.05.2020
2519 Clouds 24 1013 100 10000 1.5 350 11:59 24.05.2020
2520 Clouds 24 1013 100 10000 1.5 350 11:41 24.05.2020
2521 Clouds 24 1013 100 10000 1.5 350 11:41 24.05.2020
2522 Clouds 24 1013 100 10000 1.5 350 11:22 24.05.2020
2523 Clouds 24 1014 94 10000 2.1 10 10:58 24.05.2020
2524 Clouds 24 1014 94 10000 2.1 10 10:39 24.05.2020
2525 Clouds 24 1014 94 10000 2.1 10 10:21 24.05.2020
2526 Clouds 24 1014 94 10000 2.1 10 10:21 24.05.2020
2527 Clouds 24 1014 100 10000 1.5 360 09:41 24.05.2020
2528 Clouds 24 1014 100 10000 1.5 360 09:19 24.05.2020
2529 Clouds 24 1014 100 10000 2.1 360 08:57 24.05.2020
2530 Clouds 24 1014 100 10000 2.1 360 08:39 24.05.2020
2531 Clouds 24 1014 100 10000 2.1 360 08:20 24.05.2020
2532 Clouds 25 1014 94 10000 1.5 360 07:49 24.05.2020
2533 Clouds 25 1014 94 10000 1.5 360 07:25 24.05.2020
2534 Rain 25 1015 94 10000 1 10 06:57 24.05.2020
2535 Rain 25 1015 94 10000 1 10 06:36 24.05.2020
2536 Clouds 25 1015 94 10000 1 350 05:20 24.05.2020
2537 Clouds 25 1014 94 10000 1.5 20 03:42 24.05.2020
2538 Clouds 25 1014 94 10000 1 70 02:46 24.05.2020
2539 Rain 24 1013 100 10000 1 40 01:47 24.05.2020
2540 Rain 24 1013 100 4000 2.1 100 00:41 24.05.2020
2541 Rain 24 1013 100 4000 2.1 100 00:22 24.05.2020
2542 Rain 24 1013 94 3000 1 140 23:44 23.05.2020
2543 Rain 24 1013 94 3000 1 140 23:25 23.05.2020
2544 Rain 24 1013 94 3000 1 140 23:25 23.05.2020
2545 Rain 23 1013 100 1500 4.1 150 22:59 23.05.2020
2546 Rain 23 1013 100 1500 4.1 150 22:39 23.05.2020
2547 Rain 23 1013 100 1500 4.1 150 22:20 23.05.2020
2548 Rain 25 1012 94 1500 4.6 170 21:58 23.05.2020
2549 Rain 25 1012 94 1500 4.6 170 21:40 23.05.2020
2550 Rain 28 1012 74 10000 1.5 70 21:20 23.05.2020
2551 Rain 28 1012 74 10000 1.5 70 20:58 23.05.2020
2552 Rain 30 1012 74 10000 1.5 70 20:38 23.05.2020
2553 Rain 30 1012 74 10000 1.5 70 20:38 23.05.2020
2554 Rain 30 1012 74 10000 1.5 70 20:19 23.05.2020
2555 Clouds 31 1013 70 10000 1.5 70 19:54 23.05.2020
2556 Clouds 31 1013 70 10000 1.5 70 19:36 23.05.2020
2557 Clouds 31 1013 70 10000 1.5 70 19:36 23.05.2020
2558 Clouds 31 1013 70 10000 1.5 70 19:18 23.05.2020
2559 Rain 30 1014 74 10000 3.1 60 18:40 23.05.2020
2560 Rain 30 1014 74 10000 3.1 60 18:40 23.05.2020
2561 Rain 30 1014 74 10000 3.1 60 18:22 23.05.2020
2562 Clouds 30 1015 74 10000 2.6 80 17:56 23.05.2020
2563 Clouds 30 1015 74 10000 2.6 80 17:38 23.05.2020
2564 Clouds 30 1015 74 10000 2.6 80 17:19 23.05.2020
2565 Clouds 29 1015 74 10000 3.6 70 16:56 23.05.2020
2566 Clouds 29 1015 74 10000 3.6 70 16:38 23.05.2020
2567 Clouds 29 1015 74 10000 3.6 70 16:19 23.05.2020
2568 Clouds 29 1015 74 10000 3.1 70 15:42 23.05.2020
2569 Clouds 29 1015 74 10000 3.1 70 15:24 23.05.2020
2570 Clouds 29 1015 74 10000 3.1 70 15:24 23.05.2020
2571 Clouds 29 1015 74 10000 3.1 70 15:24 23.05.2020
2572 Clouds 27 1015 83 10000 2.1 40 14:58 23.05.2020
2573 Clouds 27 1015 83 10000 2.1 40 14:39 23.05.2020
2574 Clouds 27 1015 83 10000 2.1 40 14:21 23.05.2020
2575 Clouds 26 1013 83 10000 0.5 70 13:40 23.05.2020
2576 Clouds 26 1013 83 10000 0.5 70 13:19 23.05.2020
2577 Clouds 25 1013 94 10000 1.07 84 12:56 23.05.2020
2578 Clouds 25 1013 94 10000 1.07 84 12:37 23.05.2020
2579 Clouds 25 1013 94 10000 1.02 91 12:18 23.05.2020
2580 Clouds 25 1012 94 10000 1.5 360 11:43 23.05.2020
2581 Clouds 25 1012 94 10000 1.5 360 11:21 23.05.2020
2582 Clouds 25 1012 100 10000 0.82 84 10:57 23.05.2020
2583 Clouds 25 1012 100 10000 0.82 84 10:39 23.05.2020
2584 Clouds 25 1012 100 10000 0.68 82 10:20 23.05.2020
2585 Thunderstorm 25 1012 94 6000 0.5 20 09:56 23.05.2020
2586 Rain 25 1012 94 6000 0.5 20 09:38 23.05.2020
2587 Rain 25 1012 94 6000 0.5 20 09:20 23.05.2020
2588 Thunderstorm 27 1012 88 10000 2.6 80 08:42 23.05.2020
2589 Thunderstorm 27 1013 94 10000 1.5 80 08:19 23.05.2020
2590 Thunderstorm 27 1013 94 10000 1.5 80 07:46 23.05.2020
2591 Thunderstorm 27 1013 94 10000 1.5 80 07:28 23.05.2020
2592 Thunderstorm 27 1013 88 10000 1.5 70 06:53 23.05.2020
2593 Thunderstorm 27 1013 88 10000 1.5 70 06:35 23.05.2020
2594 Thunderstorm 27 1013 88 10000 1.5 80 04:40 23.05.2020
2595 Thunderstorm 27 1013 88 10000 1 80 03:27 23.05.2020
2596 Clouds 27 1012 94 10000 0.5 90 02:48 23.05.2020
2597 Thunderstorm 27 1011 88 10000 0.5 80 01:53 23.05.2020
2598 Thunderstorm 27 1011 88 10000 0.5 80 01:20 23.05.2020
2599 Clouds 28 1010 79 10000 1 50 00:44 23.05.2020
2600 Clouds 28 1010 79 10000 1 50 00:22 23.05.2020
2601 Rain 29 1010 70 10000 2.1 80 23:47 22.05.2020
2602 Rain 29 1010 70 10000 2.1 80 23:22 22.05.2020
2603 Rain 31 1010 70 10000 2.1 70 22:59 22.05.2020
2604 Rain 31 1010 70 10000 2.1 70 22:41 22.05.2020
2605 Rain 31 1010 70 10000 2.1 70 22:21 22.05.2020
2606 Rain 32 1010 66 10000 1.5 110 21:55 22.05.2020
2607 Rain 32 1010 66 10000 1.5 110 21:55 22.05.2020
2608 Rain 32 1010 66 10000 1.5 110 21:36 22.05.2020
2609 Rain 32 1010 66 10000 1.5 110 21:18 22.05.2020
2610 Clouds 31 1012 70 10000 2.1 80 20:42 22.05.2020
2611 Clouds 31 1012 70 10000 2.1 80 20:20 22.05.2020
2612 Clouds 31 1012 70 10000 2.1 80 20:20 22.05.2020
2613 Clouds 31 1013 70 10000 2.6 90 19:45 22.05.2020
2614 Clouds 31 1013 70 10000 2.6 90 19:26 22.05.2020
2615 Clouds 30 1014 70 10000 3.1 80 18:57 22.05.2020
2616 Clouds 30 1014 70 10000 3.1 80 18:38 22.05.2020
2617 Clouds 30 1014 74 10000 3.6 70 18:19 22.05.2020
2618 Clouds 30 1014 74 10000 3.6 70 18:19 22.05.2020
2619 Clouds 30 1014 74 10000 3.6 70 17:40 22.05.2020
2620 Clouds 29 1015 74 10000 4.1 70 17:20 22.05.2020
2621 Clouds 29 1015 74 10000 4.1 70 16:57 22.05.2020
2622 Clouds 29 1015 74 10000 4.1 70 16:39 22.05.2020
2623 Clouds 29 1015 74 10000 4.1 70 16:39 22.05.2020
2624 Clouds 29 1015 79 10000 2.6 70 16:19 22.05.2020
2625 Clouds 29 1015 79 10000 2.6 70 15:54 22.05.2020
2626 Clouds 29 1015 79 10000 2.6 70 15:36 22.05.2020
2627 Clouds 27 1014 88 10000 2.1 70 15:18 22.05.2020
2628 Clouds 27 1014 88 10000 2.1 70 14:39 22.05.2020
2629 Clouds 27 1014 88 10000 2.1 70 14:20 22.05.2020
2630 Clouds 25 1013 88 10000 1 40 13:42 22.05.2020
2631 Clouds 25 1013 88 10000 1 40 13:19 22.05.2020
2632 Clouds 24 1013 94 10000 1 70 12:43 22.05.2020
2633 Clouds 24 1013 94 10000 1 70 12:43 22.05.2020
2634 Clouds 24 1013 94 10000 1 70 12:24 22.05.2020
2635 Clouds 25 1013 94 10000 1.19 90 11:47 22.05.2020
2636 Clouds 25 1013 94 10000 1.31 88 11:22 22.05.2020
2637 Clouds 25 1012 94 10000 0.5 30 10:59 22.05.2020
2638 Clouds 25 1012 94 10000 0.5 30 10:39 22.05.2020
2639 Clouds 25 1012 94 10000 0.5 30 10:20 22.05.2020
2640 Clouds 25 1013 94 10000 1.33 77 09:55 22.05.2020
2641 Rain 25 1013 94 10000 0.98 83 09:36 22.05.2020
2642 Clouds 25 1013 94 10000 1.15 80 09:18 22.05.2020
2643 Clouds 25 1012 88 10000 2.1 50 08:41 22.05.2020
2644 Clouds 25 1012 88 10000 2.1 50 08:19 22.05.2020
2645 Clouds 25 1013 94 10000 1 90 07:52 22.05.2020
2646 Clouds 25 1013 94 10000 1 90 07:23 22.05.2020
2647 Clouds 26 1013 88 10000 2.1 70 06:52 22.05.2020
2648 Clouds 26 1013 88 10000 2.1 70 06:31 22.05.2020
2649 Clouds 25 1014 94 10000 0.5 60 05:37 22.05.2020
2650 Clouds 25 1014 94 10000 0.5 60 04:50 22.05.2020
2651 Rain 26 1014 94 10000 0.5 150 03:57 22.05.2020
2652 Rain 26 1014 94 10000 0.5 150 03:39 22.05.2020
2653 Clouds 27 1013 88 10000 1.5 90 02:55 22.05.2020
2654 Clouds 26 1012 88 10000 1 90 01:48 22.05.2020
2655 Clouds 26 1012 88 10000 1 90 01:22 22.05.2020
2656 Rain 27 1011 83 10000 3.6 70 00:34 22.05.2020
2657 Rain 27 1011 83 10000 2.1 90 23:58 21.05.2020
2658 Rain 27 1011 83 10000 2.1 90 23:40 21.05.2020
2659 Rain 27 1011 83 10000 2.1 90 23:22 21.05.2020
2660 Rain 29 1010 79 10000 1 160 22:57 21.05.2020
2661 Rain 29 1010 79 10000 1 160 22:37 21.05.2020
2662 Rain 29 1010 79 10000 1 160 22:19 21.05.2020
2663 Clouds 31 1011 74 10000 3.1 170 21:48 21.05.2020
2664 Clouds 31 1011 74 10000 3.1 170 21:27 21.05.2020
2665 Clouds 32 1011 70 10000 2.6 70 20:57 21.05.2020
2666 Clouds 32 1011 70 10000 2.6 70 20:39 21.05.2020
2667 Clouds 32 1012 70 10000 2.1 70 20:21 21.05.2020
2668 Clouds 32 1012 70 10000 2.1 70 19:40 21.05.2020
2669 Clouds 32 1012 70 10000 2.1 70 19:20 21.05.2020
2670 Clouds 31 1013 74 10000 1.5 70 18:57 21.05.2020
2671 Clouds 31 1013 74 10000 1.5 70 18:36 21.05.2020
2672 Clouds 30 1015 79 10000 1 90 18:18 21.05.2020
2673 Clouds 30 1015 79 10000 1 90 17:45 21.05.2020
2674 Clouds 30 1015 79 10000 1 90 17:26 21.05.2020
2675 Clouds 30 1015 79 10000 1.5 80 16:48 21.05.2020
2676 Clouds 30 1015 79 10000 1.5 80 16:28 21.05.2020
2677 Clouds 29 1015 83 10000 1.5 80 15:59 21.05.2020
2678 Clouds 29 1015 83 10000 1.5 80 15:40 21.05.2020
2679 Clouds 29 1015 83 10000 1.5 80 15:21 21.05.2020
2680 Clouds 27 1014 88 10000 1 160 14:41 21.05.2020
2681 Clouds 27 1014 88 10000 1 160 14:22 21.05.2020
2682 Clouds 26 1013 94 10000 1.5 170 13:55 21.05.2020
2683 Clouds 26 1013 94 10000 1.5 170 13:37 21.05.2020
2684 Clouds 25 1013 94 10000 1 150 13:18 21.05.2020
2685 Clouds 24 1012 94 10000 0.5 210 12:39 21.05.2020
2686 Clouds 24 1012 94 10000 0.5 210 12:20 21.05.2020
2687 Clouds 25 1012 94 10000 0.5 60 11:56 21.05.2020
2688 Clouds 25 1012 94 10000 0.5 60 11:37 21.05.2020
2689 Clouds 25 1012 94 10000 0.5 60 11:19 21.05.2020
2690 Clouds 25 1012 94 10000 1 60 10:43 21.05.2020
2691 Clouds 25 1012 94 10000 1 60 10:23 21.05.2020
2692 Rain 25 1012 88 10000 1.5 30 09:57 21.05.2020
2693 Rain 25 1012 88 10000 1.5 30 09:39 21.05.2020
2694 Rain 25 1012 88 10000 1.5 30 09:21 21.05.2020
2695 Rain 25 1012 88 10000 1 30 08:50 21.05.2020
2696 Rain 25 1012 88 10000 1 30 08:31 21.05.2020
2697 Rain 25 1013 94 10000 0.5 50 07:49 21.05.2020
2698 Rain 25 1013 94 10000 0.5 50 07:28 21.05.2020
2699 Rain 26 1013 94 10000 1.5 50 06:55 21.05.2020
2700 Clear 26 1013 94 10000 1.5 50 06:25 21.05.2020
2701 Clear 26 1013 94 10000 1 50 05:47 21.05.2020
2702 Clear 26 1013 88 10000 1 70 03:22 21.05.2020
2703 Clear 26 1013 88 10000 1 70 02:54 21.05.2020
2704 Clouds 26 1012 88 10000 1.5 50 02:30 21.05.2020
2705 Clouds 27 1011 83 10000 3.1 60 01:47 21.05.2020
2706 Clouds 27 1011 83 10000 3.1 60 01:23 21.05.2020
2707 Clouds 27 1011 83 10000 3.1 60 00:53 21.05.2020
2708 Clouds 27 1010 78 10000 4.1 50 00:24 21.05.2020
2709 Thunderstorm 31 1011 70 10000 2.1 80 23:46 20.05.2020
2710 Thunderstorm 31 1011 70 10000 2.1 80 23:21 20.05.2020
2711 Clouds 32 1011 66 10000 1 120 22:59 20.05.2020
2712 Clouds 32 1011 66 10000 1 120 22:41 20.05.2020
2713 Clouds 32 1011 66 10000 1 120 22:23 20.05.2020
2714 Clouds 31 1011 66 10000 1.5 120 21:42 20.05.2020
2715 Clouds 31 1011 66 10000 1.5 120 21:23 20.05.2020
2716 Clouds 31 1012 70 10000 1.5 100 20:55 20.05.2020
2717 Clouds 31 1012 70 10000 1.5 100 20:37 20.05.2020
2718 Clouds 31 1013 70 10000 2.1 80 20:19 20.05.2020
2719 Clouds 31 1013 70 10000 2.1 80 19:39 20.05.2020
2720 Clouds 31 1013 70 10000 2.1 80 19:20 20.05.2020
2721 Clouds 30 1014 70 10000 2.6 80 18:56 20.05.2020
2722 Clouds 30 1014 70 10000 2.6 80 18:38 20.05.2020
2723 Clouds 30 1014 70 10000 2.6 80 18:19 20.05.2020
2724 Clouds 29 1015 79 10000 3.1 70 17:38 20.05.2020
2725 Clouds 29 1015 79 10000 3.1 70 17:19 20.05.2020
2726 Clouds 29 1015 83 10000 1 70 16:42 20.05.2020
2727 Clouds 29 1015 83 10000 1 70 16:22 20.05.2020
2728 Clouds 28 1015 88 10000 1 170 15:57 20.05.2020
2729 Clouds 28 1015 88 10000 1 170 15:39 20.05.2020
2730 Clouds 28 1015 88 10000 1 170 15:20 20.05.2020
2731 Clouds 27 1014 83 10000 0.5 100 14:42 20.05.2020
2732 Clouds 27 1014 83 10000 0.5 100 14:20 20.05.2020
2733 Clouds 26 1013 94 10000 0.5 320 13:41 20.05.2020
2734 Clouds 26 1013 94 10000 0.5 320 13:19 20.05.2020
2735 Clouds 25 1013 94 10000 0.5 320 12:56 20.05.2020
2736 Clouds 24 1013 94 10000 1.5 300 12:37 20.05.2020
2737 Clouds 24 1013 94 10000 1.5 300 12:18 20.05.2020
2738 Clouds 23 1013 94 10000 1.5 270 11:36 20.05.2020
2739 Clouds 23 1013 94 10000 1.5 270 11:18 20.05.2020
2740 Clouds 23 1013 100 10000 1.5 280 10:42 20.05.2020
2741 Clouds 23 1013 100 10000 1.5 280 10:20 20.05.2020
2742 Clouds 24 1013 94 10000 1.5 290 09:44 20.05.2020
2743 Clouds 24 1013 94 10000 1.5 290 09:21 20.05.2020
2744 Clouds 24 1013 94 10000 1.5 320 08:56 20.05.2020
2745 Clouds 24 1013 94 10000 1.5 320 08:38 20.05.2020
2746 Clouds 24 1013 94 10000 1.5 320 08:18 20.05.2020
2747 Clouds 25 1014 94 10000 1.5 300 07:45 20.05.2020
2748 Clouds 25 1014 94 10000 1.5 300 07:19 20.05.2020
2749 Rain 25 1014 94 10000 1.5 310 06:35 20.05.2020
2750 Thunderstorm 25 1014 88 10000 1 300 05:23 20.05.2020
2751 Rain 25 1014 94 10000 1.15 113 04:26 20.05.2020
2752 Rain 25 1014 94 10000 1 20 03:38 20.05.2020
2753 Clouds 25 1012 94 10000 1.5 20 02:23 20.05.2020
2754 Clouds 26 1012 88 10000 1.5 10 01:28 20.05.2020
2755 Clouds 26 1011 88 10000 1.5 40 00:44 20.05.2020
2756 Clouds 26 1011 88 10000 1.5 40 00:23 20.05.2020
2757 Clouds 26 1011 88 10000 1.5 80 23:41 19.05.2020
2758 Clouds 26 1011 88 10000 1.5 80 23:19 19.05.2020
2759 Clouds 26 1011 88 10000 2.6 50 22:56 19.05.2020
2760 Clouds 26 1011 88 10000 2.6 50 22:38 19.05.2020
2761 Clouds 26 1011 88 10000 2.6 50 22:18 19.05.2020
2762 Clouds 26 1012 83 10000 3.1 30 21:55 19.05.2020
2763 Clouds 26 1012 83 10000 3.1 30 21:37 19.05.2020
2764 Clouds 26 1012 83 10000 3.1 30 21:37 19.05.2020
2765 Clouds 26 1012 83 10000 3.1 30 21:18 19.05.2020
2766 Rain 26 1012 88 10000 4.1 40 20:56 19.05.2020
2767 Rain 26 1012 88 10000 4.1 40 20:38 19.05.2020
2768 Rain 26 1012 88 10000 4.1 40 20:38 19.05.2020
2769 Rain 26 1012 88 10000 4.1 40 20:38 19.05.2020
2770 Rain 26 1012 88 10000 4.1 40 20:19 19.05.2020
2771 Rain 26 1012 88 10000 4.1 40 20:19 19.05.2020
2772 Clouds 27 1013 88 10000 3.1 70 19:39 19.05.2020
2773 Clouds 27 1013 88 10000 3.1 70 19:21 19.05.2020
2774 Rain 26 1013 94 10000 2.6 70 18:55 19.05.2020
2775 Rain 26 1014 94 5000 3.6 70 18:36 19.05.2020
2776 Rain 26 1014 94 5000 3.6 70 18:18 19.05.2020
2777 Clouds 28 1014 79 10000 1 90 17:40 19.05.2020
2778 Clouds 28 1014 79 10000 1 90 17:21 19.05.2020
2779 Rain 27 1015 94 6000 1.5 140 16:56 19.05.2020
2780 Rain 28 1015 83 4000 1.5 140 16:37 19.05.2020
2781 Rain 28 1015 83 4000 1.5 140 16:19 19.05.2020
2782 Clouds 28 1015 88 10000 1 130 15:44 19.05.2020
2783 Clouds 28 1015 88 10000 1 130 15:21 19.05.2020
2784 Clouds 26 1014 94 10000 0.72 31 14:55 19.05.2020
2785 Clouds 26 1014 94 10000 0.72 31 14:37 19.05.2020
2786 Clouds 26 1014 94 10000 0.72 31 14:37 19.05.2020
2787 Clouds 26 1014 94 10000 0.63 43 14:19 19.05.2020
2788 Clouds 25 1014 100 10000 1 40 13:56 19.05.2020
2789 Clouds 25 1014 100 10000 1 40 13:37 19.05.2020
2790 Clouds 25 1014 100 10000 1 40 13:19 19.05.2020
2791 Clouds 25 1014 100 10000 0.5 70 12:56 19.05.2020
2792 Clouds 24 1013 94 10000 0.45 57 12:36 19.05.2020
2793 Clouds 24 1013 94 10000 0.45 57 12:36 19.05.2020
2794 Clouds 24 1013 94 10000 0.76 56 12:18 19.05.2020
2795 Clouds 24 1013 94 10000 0.5 110 11:42 19.05.2020
2796 Clouds 24 1013 94 10000 0.5 110 11:22 19.05.2020
2797 Clouds 25 1012 94 10000 1 170 10:56 19.05.2020
2798 Clouds 25 1012 94 10000 1 170 10:38 19.05.2020
2799 Clouds 25 1012 94 10000 1 170 10:38 19.05.2020
2800 Clouds 25 1012 94 10000 1 170 10:18 19.05.2020
2801 Clouds 25 1012 94 10000 1 170 10:18 19.05.2020
2802 Clouds 25 1012 94 10000 0.75 49 09:43 19.05.2020
2803 Clouds 25 1012 94 10000 0.79 355 09:25 19.05.2020
2804 Clouds 25 1012 94 10000 0.5 100 08:47 19.05.2020
2805 Clouds 25 1012 94 10000 0.5 100 08:25 19.05.2020
2806 Clouds 25 1012 94 10000 0.5 100 08:25 19.05.2020
2807 Clouds 25 1013 94 10000 0.5 110 07:49 19.05.2020
2808 Clouds 25 1013 94 10000 0.5 110 07:28 19.05.2020
2809 Rain 25 1014 94 10000 0.78 360 06:55 19.05.2020
2810 Rain 25 1014 94 10000 0.78 360 06:31 19.05.2020
2811 Rain 25 1014 100 10000 1 180 05:43 19.05.2020
2812 Rain 25 1014 100 10000 1 180 05:23 19.05.2020
2813 Rain 25 1014 94 10000 0.85 43 04:36 19.05.2020
2814 Clouds 25 1013 94 10000 1 80 02:50 19.05.2020
2815 Clouds 25 1011 94 10000 1.5 70 00:49 19.05.2020
2816 Clouds 25 1011 94 10000 1.5 70 00:31 19.05.2020
2817 Clouds 25 1011 94 10000 1.5 70 23:59 18.05.2020
2818 Clouds 25 1011 94 10000 1.5 70 23:40 18.05.2020
2819 Clouds 25 1011 94 10000 1.5 70 23:20 18.05.2020
2820 Clouds 25 1011 94 10000 1.01 49 22:54 18.05.2020
2821 Clouds 25 1011 94 10000 1.01 49 22:36 18.05.2020
2822 Clouds 25 1011 94 10000 1.44 29 22:18 18.05.2020
2823 Clouds 25 1011 94 10000 2.1 40 21:41 18.05.2020
2824 Clouds 25 1011 94 10000 2.1 40 21:21 18.05.2020
2825 Rain 25 1011 100 5000 6.2 40 20:57 18.05.2020
2826 Rain 25 1011 100 5000 6.2 40 20:37 18.05.2020
2827 Clouds 31 1012 70 10000 1 100 20:18 18.05.2020
2828 Clouds 31 1012 70 10000 1 100 19:41 18.05.2020
2829 Clouds 31 1012 70 10000 1 100 19:41 18.05.2020
2830 Clouds 31 1012 70 10000 1 100 19:20 18.05.2020
2831 Clouds 31 1012 70 10000 1 100 18:55 18.05.2020
2832 Clouds 31 1013 79 10000 1 110 18:37 18.05.2020
2833 Clouds 29 1015 79 10000 2.6 40 18:19 18.05.2020
2834 Clouds 29 1015 79 10000 2.6 40 17:38 18.05.2020
2835 Clouds 29 1015 79 10000 2.6 40 17:18 18.05.2020
2836 Clouds 30 1015 70 10000 2.6 20 16:55 18.05.2020
2837 Clouds 30 1015 70 10000 2.6 20 16:36 18.05.2020
2838 Clouds 29 1015 74 10000 2.1 20 16:18 18.05.2020
2839 Clouds 29 1015 74 10000 2.1 20 15:42 18.05.2020
2840 Clouds 29 1015 74 10000 2.1 20 15:24 18.05.2020
2841 Clouds 27 1014 78 10000 2.1 30 14:59 18.05.2020
2842 Clouds 27 1014 78 10000 2.1 30 14:39 18.05.2020
2843 Clouds 27 1014 78 10000 2.1 30 14:21 18.05.2020
2844 Clouds 26 1013 88 10000 1.5 30 13:54 18.05.2020
2845 Clouds 26 1013 88 10000 1.5 30 13:36 18.05.2020
2846 Rain 25 1013 94 10000 2.1 40 13:18 18.05.2020
2847 Rain 25 1013 94 10000 2.1 40 12:54 18.05.2020
2848 Rain 25 1013 94 10000 2.1 40 12:36 18.05.2020
2849 Rain 25 1013 94 10000 2.1 40 12:36 18.05.2020
2850 Clouds 25 1012 94 10000 1.5 60 12:18 18.05.2020
2851 Clouds 25 1012 94 10000 1.5 60 11:42 18.05.2020
2852 Clouds 25 1012 94 10000 1.5 60 11:23 18.05.2020
2853 Rain 25 1012 94 10000 1 10 10:47 18.05.2020
2854 Rain 25 1012 94 10000 1 10 10:25 18.05.2020
2855 Rain 25 1013 94 10000 1.5 20 09:46 18.05.2020
2856 Clear 25 1013 94 10000 1.5 20 09:28 18.05.2020
2857 Clear 25 1013 94 10000 1 20 08:59 18.05.2020
2858 Clear 25 1013 94 10000 1 20 08:40 18.05.2020
2859 Clouds 25 1013 94 10000 1 20 08:21 18.05.2020
2860 Clouds 25 1013 100 10000 0.5 30 07:45 18.05.2020
2861 Clouds 25 1013 100 10000 0.5 30 07:24 18.05.2020
2862 Clouds 26 1014 100 10000 1 30 06:48 18.05.2020
2863 Clouds 26 1014 100 10000 1 30 06:23 18.05.2020
2864 Clouds 26 1014 100 10000 1 30 05:44 18.05.2020
2865 Clear 26 1013 94 10000 0.5 90 03:53 18.05.2020
2866 Clear 26 1013 94 10000 0.5 90 03:22 18.05.2020
2867 Clouds 26 1011 100 10000 0.5 160 01:46 18.05.2020
2868 Rain 27 1010 94 10000 1 140 00:45 18.05.2020
2869 Rain 27 1010 94 10000 1 140 00:19 18.05.2020
2870 Clouds 29 1010 79 10000 1.5 170 23:55 17.05.2020
2871 Clouds 29 1010 79 10000 1.5 170 23:37 17.05.2020
2872 Clouds 30 1010 74 10000 1 110 23:18 17.05.2020
2873 Clouds 30 1010 74 10000 1 110 22:40 17.05.2020
2874 Clouds 30 1010 74 10000 1 110 22:40 17.05.2020
2875 Clouds 30 1010 74 10000 1 110 22:22 17.05.2020
2876 Clouds 29 1010 79 10000 0.5 130 21:59 17.05.2020
2877 Clouds 29 1010 79 10000 0.5 130 21:41 17.05.2020
2878 Clouds 29 1010 79 10000 0.5 130 21:19 17.05.2020
2879 Clouds 27 1011 78 10000 1.5 20 20:56 17.05.2020
2880 Clouds 27 1011 78 10000 1.5 20 20:37 17.05.2020
2881 Rain 27 1012 79 10000 2.1 70 20:18 17.05.2020
2882 Rain 27 1012 79 10000 2.1 70 19:42 17.05.2020
2883 Rain 27 1012 79 10000 2.1 70 19:24 17.05.2020
2884 Clouds 29 1013 79 10000 2.1 150 18:56 17.05.2020
2885 Clouds 29 1013 79 10000 2.1 150 18:38 17.05.2020
2886 Clouds 29 1013 79 10000 2.1 150 18:20 17.05.2020
2887 Clouds 29 1014 79 10000 2.1 170 17:40 17.05.2020
2888 Clouds 29 1014 79 10000 2.1 170 17:22 17.05.2020
2889 Clouds 28 1015 83 10000 1 160 16:57 17.05.2020
2890 Clouds 28 1015 83 10000 1 160 16:39 17.05.2020
2891 Clouds 28 1015 83 10000 1 160 16:39 17.05.2020
2892 Clouds 28 1015 83 10000 1 160 16:19 17.05.2020
2893 Clouds 28 1015 83 10000 1 160 16:19 17.05.2020
2894 Clouds 28 1015 83 10000 1 160 16:19 17.05.2020
2895 Clouds 28 1015 88 10000 1 80 15:46 17.05.2020
2896 Clouds 28 1015 88 10000 1 80 15:24 17.05.2020
2897 Clouds 26 1014 94 10000 1 50 14:58 17.05.2020
2898 Clouds 26 1014 94 10000 1 50 14:39 17.05.2020
2899 Clouds 26 1014 94 10000 1 50 14:20 17.05.2020
2900 Clouds 25 1013 94 10000 1 30 13:42 17.05.2020
2901 Clouds 25 1013 94 10000 1 30 13:21 17.05.2020
2902 Clouds 25 1013 94 10000 1 30 13:21 17.05.2020
2903 Clouds 25 1014 100 10000 1.5 20 05:25 17.05.2020
2904 Thunderstorm 25 1013 94 10000 1.5 40 03:34 17.05.2020
2905 Thunderstorm 25 1013 94 7000 2.1 160 02:27 17.05.2020
2906 Thunderstorm 26 1013 88 2000 2.6 160 01:54 17.05.2020
2907 Thunderstorm 28 1012 83 10000 2.1 160 00:52 17.05.2020
2908 Clouds 29 1011 79 10000 0.5 90 00:30 17.05.2020
2909 Clouds 30 1010 70 10000 1 140 23:56 16.05.2020
2910 Clouds 30 1010 70 10000 1 140 23:38 16.05.2020
2911 Clouds 30 1010 70 10000 1 140 23:18 16.05.2020
2912 Clouds 31 1010 66 10000 1.5 170 22:42 16.05.2020
2913 Clouds 31 1010 66 10000 1.5 170 22:22 16.05.2020
2914 Clouds 31 1010 66 10000 2.1 190 21:57 16.05.2020
2915 Clouds 31 1010 66 10000 2.1 190 21:38 16.05.2020
2916 Clouds 31 1010 66 10000 2.1 190 21:19 16.05.2020
2917 Clouds 30 1011 70 10000 1.5 190 20:56 16.05.2020
2918 Clouds 30 1011 70 10000 1.5 190 20:38 16.05.2020
2919 Clouds 30 1011 70 10000 1.5 190 20:19 16.05.2020
2920 Clouds 30 1013 74 10000 3.1 160 19:43 16.05.2020
2921 Clouds 30 1013 74 10000 3.1 160 19:23 16.05.2020
2922 Clouds 29 1013 74 10000 3.1 160 18:58 16.05.2020
2923 Clouds 28 1014 74 10000 2.6 170 18:40 16.05.2020
2924 Clouds 28 1014 74 10000 2.6 170 18:21 16.05.2020
2925 Clouds 29 1015 74 10000 2.1 180 17:42 16.05.2020
2926 Clouds 29 1015 74 10000 2.1 180 17:21 16.05.2020
2927 Clouds 28 1015 83 10000 1.5 170 16:45 16.05.2020
2928 Clouds 28 1015 83 10000 1.5 170 16:25 16.05.2020
2929 Clouds 28 1015 88 10000 1.5 240 15:59 16.05.2020
2930 Clouds 28 1015 88 10000 1.5 240 15:41 16.05.2020
2931 Clouds 28 1015 88 10000 1.5 240 15:21 16.05.2020
2932 Clouds 27 1014 88 10000 0.5 20 14:56 16.05.2020
2933 Clouds 27 1014 88 10000 0.5 20 14:38 16.05.2020
2934 Clouds 27 1014 88 10000 0.5 20 14:19 16.05.2020
2935 Clouds 26 1013 94 10000 2.1 230 13:42 16.05.2020
2936 Clouds 26 1013 94 10000 2.1 230 13:23 16.05.2020
2937 Clouds 25 1013 94 10000 2.1 230 12:58 16.05.2020
2938 Clouds 25 1013 94 10000 2.1 220 12:39 16.05.2020
2939 Clouds 25 1013 94 10000 2.1 220 12:18 16.05.2020
2940 Clouds 25 1012 100 10000 1 250 11:41 16.05.2020
2941 Clouds 25 1012 100 10000 1 250 11:23 16.05.2020
2942 Clouds 25 1012 94 10000 2.1 60 10:58 16.05.2020
2943 Clouds 25 1012 94 10000 2.1 60 10:39 16.05.2020
2944 Clouds 25 1012 94 10000 2.1 60 10:20 16.05.2020
2945 Clouds 25 1012 94 10000 1.5 180 09:46 16.05.2020
2946 Clouds 25 1012 94 10000 1.5 180 09:28 16.05.2020
2947 Clouds 25 1013 94 10000 0.69 70 08:46 16.05.2020
2948 Clouds 25 1013 94 10000 0.28 73 08:24 16.05.2020
2949 Clouds 25 1013 94 10000 1 60 07:58 16.05.2020
2950 Clouds 25 1013 94 10000 1 60 07:40 16.05.2020
2951 Clouds 25 1013 94 10000 1 60 07:21 16.05.2020
2952 Clouds 25 1013 100 10000 0.5 90 06:46 16.05.2020
2953 Clouds 25 1013 100 10000 0.5 90 06:19 16.05.2020
2954 Clouds 25 1014 100 10000 1 60 05:41 16.05.2020
2955 Clouds 25 1014 100 10000 1 70 04:53 16.05.2020
2956 Clear 25 1014 94 10000 0.5 80 03:26 16.05.2020
2957 Clear 25 1013 100 10000 0.5 100 02:39 16.05.2020
2958 Clouds 26 1012 100 10000 0.5 70 02:18 16.05.2020
2959 Clouds 26 1012 100 10000 0.5 70 01:37 16.05.2020
2960 Clouds 26 1012 100 10000 0.5 70 00:56 16.05.2020
2961 Clouds 26 1011 100 10000 1 150 00:38 16.05.2020
2962 Clouds 26 1011 100 10000 1 150 00:18 16.05.2020
2963 Rain 27 1011 94 10000 2.1 170 23:38 15.05.2020
2964 Rain 27 1011 94 10000 2.1 170 23:19 15.05.2020
2965 Rain 29 1010 79 10000 1 80 22:41 15.05.2020
2966 Rain 31 1011 66 10000 1.5 90 22:20 15.05.2020
2967 Rain 31 1011 66 10000 1.5 90 21:56 15.05.2020
2968 Rain 31 1011 66 10000 1.5 90 21:38 15.05.2020
2969 Rain 31 1011 66 10000 1.5 90 21:20 15.05.2020
2970 Clouds 31 1011 70 10000 2.1 80 20:54 15.05.2020
2971 Clouds 31 1011 70 10000 2.1 80 20:54 15.05.2020
2972 Clouds 31 1011 70 10000 2.1 80 20:36 15.05.2020
2973 Clouds 31 1013 70 10000 3.1 60 20:18 15.05.2020
2974 Clouds 31 1013 70 10000 3.1 60 19:42 15.05.2020
2975 Clouds 31 1013 70 10000 3.1 60 19:23 15.05.2020
2976 Clouds 30 1014 74 10000 1.5 130 18:48 15.05.2020
2977 Clouds 30 1014 74 10000 1.5 130 18:28 15.05.2020
2978 Clouds 30 1015 74 10000 1.5 90 17:57 15.05.2020
2979 Clouds 30 1015 74 10000 1.5 90 17:36 15.05.2020
2980 Clouds 30 1015 74 10000 1.5 90 17:18 15.05.2020
2981 Clouds 29 1015 79 10000 2.1 80 16:54 15.05.2020
2982 Clouds 29 1015 79 10000 2.1 80 16:36 15.05.2020
2983 Clouds 29 1015 79 10000 2.1 80 16:18 15.05.2020
2984 Clouds 28 1015 83 10000 2.6 70 15:40 15.05.2020
2985 Clouds 28 1015 83 10000 2.6 70 15:20 15.05.2020
2986 Clouds 27 1015 83 10000 2.6 70 14:56 15.05.2020
2987 Clouds 27 1015 83 10000 2.1 60 14:38 15.05.2020
2988 Clouds 27 1015 83 10000 2.1 60 14:19 15.05.2020
2989 Rain 25 1014 94 10000 1.5 40 13:41 15.05.2020
2990 Rain 25 1014 94 10000 1.5 40 13:22 15.05.2020
2991 Clouds 25 1013 94 10000 1 20 12:41 15.05.2020
2992 Clouds 25 1013 94 10000 1 20 12:21 15.05.2020
2993 Clouds 25 1013 94 10000 1 20 11:59 15.05.2020
2994 Clouds 25 1013 94 10000 1 20 11:40 15.05.2020
2995 Clouds 25 1013 94 10000 1 20 11:40 15.05.2020
2996 Clouds 25 1013 94 10000 1 20 11:21 15.05.2020
2997 Clouds 25 1013 94 10000 1 20 11:21 15.05.2020
2998 Clouds 25 1013 94 10000 1 360 10:59 15.05.2020
2999 Rain 24 1012 100 10000 0.5 290 10:40 15.05.2020
3000 Clouds 25 1011 100 10000 1 50 10:22 15.05.2020
3001 Clouds 25 1011 100 10000 1 50 09:59 15.05.2020
3002 Clouds 25 1011 100 10000 1 50 09:38 15.05.2020
3003 Rain 24 1013 94 10000 1 20 09:19 15.05.2020
3004 Rain 24 1013 94 10000 1 20 08:57 15.05.2020
3005 Rain 24 1013 94 10000 1 20 08:37 15.05.2020
3006 Rain 24 1013 94 10000 1 20 08:18 15.05.2020
3007 Rain 24 1013 94 10000 1 20 08:18 15.05.2020
3008 Rain 25 1013 94 10000 0.5 50 07:44 15.05.2020
3009 Rain 25 1013 94 10000 0.5 50 07:24 15.05.2020
3010 Rain 25 1014 94 10000 0.5 310 06:41 15.05.2020
3011 Rain 25 1014 94 10000 0.5 120 05:49 15.05.2020
3012 Clouds 25 1014 94 10000 1 330 04:27 15.05.2020
3013 Clouds 25 1013 94 10000 0.5 80 03:40 15.05.2020
3014 Rain 25 1013 94 10000 0.5 90 02:26 15.05.2020
3015 Clouds 25 1012 94 10000 1 70 01:19 15.05.2020
3016 Clouds 26 1011 88 10000 1 320 00:45 15.05.2020
3017 Clouds 26 1011 88 10000 1 320 00:26 15.05.2020
3018 Clouds 26 1011 88 10000 1 330 23:43 14.05.2020
3019 Clouds 26 1011 88 10000 1 330 23:21 14.05.2020
3020 Rain 26 1011 88 9000 1.5 30 22:56 14.05.2020
3021 Rain 26 1011 88 9000 1.5 30 22:56 14.05.2020
3022 Rain 26 1011 88 9000 1.5 30 22:37 14.05.2020
3023 Rain 26 1011 88 9000 1.5 30 22:19 14.05.2020
3024 Rain 25 1011 94 10000 1 80 21:43 14.05.2020
3025 Rain 25 1011 94 10000 1 80 21:20 14.05.2020
3026 Clouds 24 1012 100 10000 1.5 320 20:59 14.05.2020
3027 Clouds 24 1012 100 10000 1.5 320 20:59 14.05.2020
3028 Clouds 24 1012 100 10000 1.5 320 20:41 14.05.2020
3029 Rain 24 1012 100 9000 2.1 260 20:20 14.05.2020
3030 Clouds 24 1012 100 10000 1.5 320 20:20 14.05.2020
3031 Rain 24 1012 100 9000 2.1 260 19:58 14.05.2020
3032 Thunderstorm 25 1013 94 800 4.6 350 19:39 14.05.2020
3033 Thunderstorm 25 1013 94 800 4.6 350 19:20 14.05.2020
3034 Clouds 27 1013 78 10000 1.5 230 18:58 14.05.2020
3035 Clouds 27 1013 78 10000 1.5 230 18:58 14.05.2020
3036 Clouds 28 1014 78 10000 3.1 260 18:38 14.05.2020
3037 Clouds 28 1014 78 10000 3.1 260 18:19 14.05.2020
3038 Clouds 28 1015 78 10000 3.6 270 17:57 14.05.2020
3039 Clouds 28 1015 78 10000 3.6 270 17:37 14.05.2020
3040 Clouds 28 1015 78 10000 3.6 270 17:18 14.05.2020
3041 Clouds 27 1015 83 10000 3.6 270 16:56 14.05.2020
3042 Clouds 27 1015 83 10000 3.6 270 16:37 14.05.2020
3043 Clouds 27 1015 83 10000 3.6 270 16:18 14.05.2020
3044 Clouds 27 1015 83 10000 3.6 300 15:41 14.05.2020
3045 Clouds 27 1015 83 10000 3.6 300 15:21 14.05.2020
3046 Clouds 26 1015 83 10000 3.1 320 14:57 14.05.2020
3047 Clouds 26 1015 83 10000 3.1 320 14:39 14.05.2020
3048 Clouds 26 1015 83 10000 3.1 320 14:20 14.05.2020
3049 Clouds 25 1015 88 10000 3.1 310 13:57 14.05.2020
3050 Clouds 25 1014 88 10000 3.1 320 13:38 14.05.2020
3051 Clouds 25 1014 88 10000 3.1 320 13:38 14.05.2020
3052 Clouds 25 1014 88 10000 3.1 320 13:38 14.05.2020
3053 Clouds 25 1014 88 10000 3.1 320 13:19 14.05.2020
3054 Clouds 24 1014 88 10000 3.1 320 12:57 14.05.2020
3055 Clouds 24 1014 88 10000 3.1 320 12:57 14.05.2020
3056 Clouds 24 1013 94 10000 2.6 310 12:38 14.05.2020
3057 Clouds 24 1013 94 10000 2.6 310 12:38 14.05.2020
3058 Clouds 24 1012 100 10000 2.1 310 12:18 14.05.2020
3059 Clouds 24 1012 100 10000 2.1 310 11:57 14.05.2020
3060 Clouds 24 1012 100 10000 2.1 310 11:38 14.05.2020
3061 Clouds 24 1012 100 10000 2.1 310 11:19 14.05.2020
3062 Clouds 24 1012 100 10000 1 300 10:45 14.05.2020
3063 Clouds 24 1012 100 10000 1 300 10:26 14.05.2020
3064 Clouds 24 1012 100 10000 1.5 290 09:56 14.05.2020
3065 Clouds 24 1012 100 10000 1.5 290 09:38 14.05.2020
3066 Clouds 24 1012 100 10000 1.5 290 09:19 14.05.2020
3067 Clouds 23 1012 100 10000 1 300 08:40 14.05.2020
3068 Clouds 23 1012 100 10000 1 300 08:19 14.05.2020
3069 Clouds 24 1013 94 10000 2.1 270 07:45 14.05.2020
3070 Clouds 24 1013 94 10000 2.1 270 07:22 14.05.2020
3071 Clouds 25 1013 94 10000 1.5 290 06:48 14.05.2020
3072 Clouds 25 1013 94 10000 1.5 290 06:26 14.05.2020
3073 Clouds 25 1013 94 10000 1.5 310 05:42 14.05.2020
3074 Clouds 25 1013 94 10000 2.1 320 04:56 14.05.2020
3075 Clouds 25 1012 94 10000 1 260 03:52 14.05.2020
3076 Clouds 25 1012 94 10000 1 260 03:20 14.05.2020
3077 Clouds 25 1011 94 10000 2.1 360 02:39 14.05.2020
3078 Clouds 24 1011 94 10000 1 50 01:52 14.05.2020
3079 Clouds 25 1010 94 10000 1 30 00:58 14.05.2020
3080 Clouds 25 1010 94 10000 1 30 00:30 14.05.2020
3081 Rain 25 1010 88 10000 4.1 360 23:57 13.05.2020
3082 Rain 25 1010 88 10000 4.1 360 23:38 13.05.2020
3083 Rain 25 1010 88 10000 4.1 360 23:18 13.05.2020
3084 Rain 26 1010 100 10000 1.5 330 22:41 13.05.2020
3085 Rain 26 1010 100 10000 1.5 330 22:22 13.05.2020
3086 Rain 26 1010 100 9000 4.1 250 21:59 13.05.2020
3087 Rain 26 1010 100 9000 4.1 250 21:40 13.05.2020
3088 Rain 26 1010 100 9000 4.1 250 21:19 13.05.2020
3089 Rain 26 1010 100 9000 4.1 250 21:19 13.05.2020
3090 Rain 27 1011 94 6000 2.6 250 20:56 13.05.2020
3091 Rain 28 1011 83 9000 4.1 240 20:38 13.05.2020
3092 Rain 28 1011 83 9000 4.1 240 20:19 13.05.2020
3093 Clouds 29 1012 83 10000 4.6 260 19:42 13.05.2020
3094 Clouds 29 1012 83 10000 4.6 260 19:24 13.05.2020
3095 Clouds 29 1012 83 10000 4.6 260 18:45 13.05.2020
3096 Clouds 29 1012 83 10000 4.6 260 18:22 13.05.2020
3097 Clouds 27 1014 88 10000 2.6 270 17:58 13.05.2020
3098 Clouds 27 1014 88 10000 2.6 270 17:38 13.05.2020
3099 Clouds 27 1014 88 10000 2.6 270 17:18 13.05.2020
3100 Rain 27 1014 88 5000 3.6 290 16:41 13.05.2020
3101 Rain 27 1014 88 5000 3.6 290 16:20 13.05.2020
3102 Rain 27 1014 88 10000 3.6 270 15:57 13.05.2020
3103 Rain 27 1014 88 10000 3.6 270 15:39 13.05.2020
3104 Clouds 26 1014 94 10000 3.1 250 15:18 13.05.2020
3105 Clouds 26 1014 94 10000 3.1 250 14:55 13.05.2020
3106 Clouds 26 1014 94 10000 3.1 250 14:36 13.05.2020
3107 Clouds 26 1012 94 10000 3.6 250 14:18 13.05.2020
3108 Clouds 26 1012 94 10000 3.6 250 13:42 13.05.2020
3109 Clouds 26 1012 94 10000 3.6 250 13:23 13.05.2020
3110 Clouds 26 1012 94 10000 3.6 250 12:59 13.05.2020
3111 Clouds 26 1011 94 10000 2.6 300 12:41 13.05.2020
3112 Clouds 26 1011 94 10000 2.6 300 12:21 13.05.2020
3113 Clouds 26 1011 94 10000 2.6 300 11:56 13.05.2020
3114 Clouds 26 1011 94 10000 2.6 250 11:37 13.05.2020
3115 Clouds 26 1011 94 10000 2.6 250 11:19 13.05.2020
3116 Clouds 26 1011 94 10000 1.5 220 10:57 13.05.2020
3117 Clouds 26 1011 94 10000 1.5 220 10:38 13.05.2020
3118 Clouds 26 1011 94 10000 1.5 220 10:19 13.05.2020
3119 Clouds 26 1010 94 10000 0.5 220 09:46 13.05.2020
3120 Clouds 26 1010 94 10000 0.5 220 09:24 13.05.2020
3121 Clouds 26 1011 94 10000 1 190 08:58 13.05.2020
3122 Clouds 26 1011 94 10000 1 190 08:39 13.05.2020
3123 Clouds 26 1011 94 10000 1 190 08:20 13.05.2020
3124 Clouds 26 1012 94 10000 1.03 101 07:51 13.05.2020
3125 Clouds 26 1012 94 10000 1.03 101 07:32 13.05.2020
3126 Clouds 27 1012 88 10000 0.5 150 06:52 13.05.2020
3127 Clouds 27 1012 88 10000 0.5 150 06:34 13.05.2020
3128 Clouds 27 1012 83 10000 1.5 20 05:37 13.05.2020
3129 Rain 27 1011 88 10000 1 80 03:49 13.05.2020
3130 Clouds 28 1011 74 10000 2.1 60 02:37 13.05.2020
3131 Thunderstorm 28 1009 79 10000 1.5 70 01:46 13.05.2020
3132 Clouds 29 1008 79 10000 1.5 80 00:56 13.05.2020
3133 Clouds 29 1008 79 10000 1.5 80 00:23 13.05.2020
3134 Clouds 30 1008 74 10000 2.1 80 23:58 12.05.2020
3135 Clouds 30 1008 74 10000 2.1 80 23:39 12.05.2020
3136 Clouds 31 1008 70 10000 2.1 80 23:18 12.05.2020
3137 Clouds 31 1008 70 10000 2.1 80 22:42 12.05.2020
3138 Clouds 31 1008 70 10000 2.1 80 22:22 12.05.2020
3139 Clouds 31 1008 70 10000 2.1 80 21:56 12.05.2020
3140 Clouds 31 1008 70 10000 2.1 80 21:38 12.05.2020
3141 Clouds 31 1008 70 10000 2.1 80 21:19 12.05.2020
3142 Clouds 31 1009 70 10000 3.1 80 20:58 12.05.2020
3143 Clouds 31 1009 70 10000 3.1 80 20:39 12.05.2020
3144 Clouds 31 1009 70 10000 3.1 80 20:20 12.05.2020
3145 Clouds 31 1011 74 10000 2.6 60 19:57 12.05.2020
3146 Clouds 31 1011 74 10000 2.6 60 19:39 12.05.2020
3147 Clouds 31 1011 74 10000 2.6 60 19:20 12.05.2020
3148 Clouds 31 1011 74 10000 2.6 60 18:55 12.05.2020
3149 Clouds 30 1012 79 10000 2.1 90 18:36 12.05.2020
3150 Clouds 30 1012 79 10000 2.1 90 18:18 12.05.2020
3151 Clouds 29 1013 83 10000 1.5 90 17:41 12.05.2020
3152 Clouds 29 1013 83 10000 1.5 90 17:23 12.05.2020
3153 Clouds 28 1013 83 10000 2.6 80 16:47 12.05.2020
3154 Clouds 28 1013 83 10000 2.6 80 16:25 12.05.2020
3155 Clouds 27 1013 94 10000 1 90 15:56 12.05.2020
3156 Clouds 27 1013 94 10000 1 90 15:37 12.05.2020
3157 Clouds 27 1013 94 10000 1 90 15:19 12.05.2020
3158 Rain 26 1013 100 8000 0.5 80 14:56 12.05.2020
3159 Rain 26 1013 100 8000 0.5 80 14:37 12.05.2020
3160 Rain 26 1013 100 8000 0.5 80 14:19 12.05.2020
3161 Rain 25 1012 94 10000 2.1 80 13:57 12.05.2020
3162 Rain 25 1012 94 10000 2.1 80 13:39 12.05.2020
3163 Rain 25 1012 94 10000 2.1 80 13:19 12.05.2020
3164 Rain 25 1012 100 10000 2.6 80 12:57 12.05.2020
3165 Rain 25 1012 100 10000 2.6 80 12:39 12.05.2020
3166 Rain 25 1012 100 10000 2.6 80 12:21 12.05.2020
3167 Thunderstorm 24 1012 100 5000 1.5 70 11:57 12.05.2020
3168 Thunderstorm 24 1012 100 5000 1.5 70 11:38 12.05.2020
3169 Thunderstorm 24 1012 100 5000 1.5 70 11:20 12.05.2020
3170 Thunderstorm 25 1012 94 5000 5.1 30 10:56 12.05.2020
3171 Clouds 26 1011 100 10000 0.5 170 10:37 12.05.2020
3172 Clouds 26 1011 100 10000 0.5 170 10:18 12.05.2020
3173 Clouds 26 1011 100 10000 1.5 160 09:57 12.05.2020
3174 Clouds 26 1011 100 10000 1.5 160 09:38 12.05.2020
3175 Clouds 26 1011 100 10000 1.5 160 09:19 12.05.2020
3176 Clear 26 1011 94 10000 1.06 112 08:41 12.05.2020
3177 Rain 26 1011 94 10000 1.08 107 08:21 12.05.2020
3178 Rain 26 1012 94 10000 1.08 107 07:45 12.05.2020
3179 Rain 26 1012 94 10000 1.25 88 07:27 12.05.2020
3180 Rain 26 1012 94 10000 1.25 88 07:27 12.05.2020
3181 Rain 26 1013 100 10000 0.5 310 06:56 12.05.2020
3182 Rain 26 1013 100 10000 0.5 310 06:37 12.05.2020
3183 Rain 26 1013 100 10000 0.5 310 06:19 12.05.2020
3184 Rain 26 1013 100 10000 0.5 250 05:45 12.05.2020
3185 Clouds 26 1013 88 10000 0.5 110 03:55 12.05.2020
3186 Clouds 26 1013 88 10000 0.5 110 03:18 12.05.2020
3187 Clouds 26 1011 88 10000 1 90 02:27 12.05.2020
3188 Clouds 27 1011 83 10000 1 60 01:35 12.05.2020
3189 Clouds 27 1011 83 10000 1 60 00:58 12.05.2020
3190 Clouds 28 1011 83 10000 1.5 90 00:23 12.05.2020
3191 Clouds 28 1010 83 10000 1 90 23:56 11.05.2020
3192 Clouds 28 1010 83 10000 1 90 23:37 11.05.2020
3193 Clouds 28 1010 83 10000 1 90 23:19 11.05.2020
3194 Rain 29 1010 79 10000 1.5 70 22:55 11.05.2020
3195 Rain 29 1010 79 10000 1.5 70 22:36 11.05.2020
3196 Rain 29 1010 79 10000 1.5 70 22:18 11.05.2020
3197 Rain 29 1010 74 10000 2.1 80 21:54 11.05.2020
3198 Rain 29 1010 74 10000 2.1 80 21:36 11.05.2020
3199 Rain 29 1010 74 10000 2.1 80 21:18 11.05.2020
3200 Rain 31 1011 66 10000 2.6 150 20:42 11.05.2020
3201 Rain 31 1011 66 10000 2.6 150 20:21 11.05.2020
3202 Clouds 30 1012 70 10000 2.1 190 19:58 11.05.2020
3203 Clouds 30 1012 70 10000 2.1 190 19:40 11.05.2020
3204 Clouds 30 1012 70 10000 2.1 190 19:21 11.05.2020
3205 Clouds 30 1012 70 10000 2.1 190 18:57 11.05.2020
3206 Clouds 30 1013 74 10000 2.1 210 18:38 11.05.2020
3207 Clouds 30 1013 74 10000 2.1 210 18:19 11.05.2020
3208 Clouds 29 1014 79 10000 1.5 200 17:57 11.05.2020
3209 Clouds 29 1014 79 10000 1.5 200 17:57 11.05.2020
3210 Clouds 29 1014 79 10000 1.5 200 17:38 11.05.2020
3211 Clouds 29 1014 79 10000 1.5 200 17:19 11.05.2020
3212 Clouds 28 1015 83 10000 1.5 210 16:45 11.05.2020
3213 Clouds 28 1015 83 10000 1.5 210 16:23 11.05.2020
3214 Clouds 28 1015 83 10000 1.5 210 15:59 11.05.2020
3215 Clouds 27 1015 78 10000 1.5 220 15:40 11.05.2020
3216 Clouds 27 1015 78 10000 1.5 220 15:20 11.05.2020
3217 Clouds 27 1014 83 10000 1 350 14:57 11.05.2020
3218 Clouds 27 1014 83 10000 1 350 14:39 11.05.2020
3219 Clouds 27 1014 83 10000 1 350 14:21 11.05.2020
3220 Clouds 25 1013 94 10000 1 20 13:42 11.05.2020
3221 Clouds 25 1013 94 10000 1 20 13:22 11.05.2020
3222 Clouds 25 1013 94 10000 1 20 12:59 11.05.2020
3223 Clouds 24 1013 94 10000 1.5 90 12:41 11.05.2020
3224 Clouds 24 1013 94 10000 1.5 90 12:22 11.05.2020
3225 Clouds 24 1013 94 10000 1 100 11:57 11.05.2020
3226 Clouds 24 1013 94 10000 1 100 11:39 11.05.2020
3227 Clouds 24 1013 94 10000 1 100 11:21 11.05.2020
3228 Clouds 24 1012 94 10000 1 70 10:56 11.05.2020
3229 Clouds 24 1012 94 10000 1 70 10:38 11.05.2020
3230 Clouds 24 1012 94 10000 1 70 10:20 11.05.2020
3231 Clouds 24 1012 94 10000 1 80 09:56 11.05.2020
3232 Clouds 24 1012 94 10000 1 80 09:37 11.05.2020
3233 Clouds 24 1012 94 10000 1 80 09:18 11.05.2020
3234 Clouds 24 1012 100 10000 1 70 08:40 11.05.2020
3235 Clouds 24 1012 100 10000 1 70 08:22 11.05.2020
3236 Clouds 25 1013 94 10000 0.89 57 07:54 11.05.2020
3237 Clouds 25 1013 94 10000 0.89 57 07:36 11.05.2020
3238 Clouds 25 1013 94 10000 1.02 54 07:18 11.05.2020
3239 Clouds 25 1013 94 10000 1.02 54 06:32 11.05.2020
3240 Clouds 26 1013 88 10000 2.1 350 05:44 11.05.2020
3241 Clouds 26 1013 88 10000 2.1 350 05:19 11.05.2020
3242 Clouds 26 1013 88 10000 2.1 320 03:47 11.05.2020
3243 Clouds 26 1012 94 10000 1.5 340 02:35 11.05.2020
3244 Clouds 26 1011 88 10000 2.1 360 01:55 11.05.2020
3245 Clouds 26 1011 88 10000 2.1 360 00:54 11.05.2020
3246 Clouds 26 1011 94 10000 2.6 10 00:28 11.05.2020
3247 Clouds 26 1011 88 10000 2.1 350 23:56 10.05.2020
3248 Clouds 26 1011 88 10000 2.1 350 23:37 10.05.2020
3249 Clouds 26 1011 88 10000 2.1 350 23:18 10.05.2020
3250 Clouds 26 1010 88 10000 2.1 310 22:42 10.05.2020
3251 Clouds 26 1010 88 10000 2.1 310 22:24 10.05.2020
3252 Rain 27 1011 88 10000 1.5 40 21:46 10.05.2020
3253 Rain 27 1011 88 10000 1.5 40 21:21 10.05.2020
3254 Rain 27 1011 94 5000 3.6 260 20:59 10.05.2020
3255 Rain 27 1011 94 5000 3.6 260 20:59 10.05.2020
3256 Rain 28 1011 94 5000 3.6 260 20:41 10.05.2020
3257 Rain 28 1011 94 5000 3.6 260 20:23 10.05.2020
3258 Rain 28 1011 94 5000 3.6 260 19:54 10.05.2020
3259 Clouds 29 1013 74 10000 4.6 260 19:36 10.05.2020
3260 Clouds 29 1013 74 10000 4.6 260 19:36 10.05.2020
3261 Clouds 29 1013 74 10000 4.6 260 19:18 10.05.2020
3262 Clouds 29 1014 79 10000 3.6 310 18:54 10.05.2020
3263 Clouds 29 1014 79 10000 3.6 310 18:54 10.05.2020
3264 Clouds 29 1014 79 10000 3.6 310 18:36 10.05.2020
3265 Clouds 29 1014 79 10000 3.6 310 18:36 10.05.2020
3266 Clouds 29 1015 78 10000 3.6 260 18:18 10.05.2020
3267 Clouds 27 1015 78 10000 3.6 260 17:55 10.05.2020
3268 Clouds 27 1015 78 10000 3.6 260 17:36 10.05.2020
3269 Clouds 29 1015 79 10000 3.1 290 17:18 10.05.2020
3270 Clouds 29 1015 79 10000 3.1 290 16:41 10.05.2020
3271 Clouds 29 1015 79 10000 3.1 290 16:20 10.05.2020
3272 Clouds 28 1015 78 10000 4.1 290 15:57 10.05.2020
3273 Clouds 27 1015 78 10000 4.1 290 15:36 10.05.2020
3274 Clouds 27 1015 78 10000 4.1 290 15:18 10.05.2020
3275 Clouds 26 1015 88 10000 3.6 310 14:55 10.05.2020
3276 Clouds 26 1015 88 10000 3.6 310 14:37 10.05.2020
3277 Clouds 26 1015 88 10000 3.6 310 14:18 10.05.2020
3278 Clouds 25 1014 94 10000 2.6 320 13:39 10.05.2020
3279 Clouds 25 1014 94 10000 2.6 320 13:21 10.05.2020
3280 Clouds 25 1014 94 10000 2.6 320 12:59 10.05.2020
3281 Clouds 25 1014 94 10000 2.6 330 12:41 10.05.2020
3282 Clouds 25 1014 94 10000 2.6 330 12:21 10.05.2020
3283 Clouds 25 1013 88 10000 3.1 320 11:58 10.05.2020
3284 Clouds 25 1013 88 10000 3.1 320 11:39 10.05.2020
3285 Clouds 25 1013 88 10000 3.1 320 11:20 10.05.2020
3286 Clouds 26 1013 88 10000 2.1 20 10:48 10.05.2020
3287 Clouds 26 1013 88 10000 2.1 20 10:29 10.05.2020
3288 Clouds 26 1013 88 10000 2.6 30 09:59 10.05.2020
3289 Clouds 26 1013 88 10000 2.6 30 09:40 10.05.2020
3290 Clouds 26 1013 88 10000 2.6 30 09:21 10.05.2020
3291 Clouds 26 1014 94 10000 1.5 20 08:52 10.05.2020
3292 Clouds 26 1014 94 10000 1.5 20 08:24 10.05.2020
3293 Clouds 26 1014 94 10000 2.1 10 07:56 10.05.2020
3294 Clouds 26 1014 94 10000 2.1 10 07:37 10.05.2020
3295 Clouds 26 1014 94 10000 2.1 10 07:19 10.05.2020
3296 Clouds 27 1014 94 10000 1.5 310 06:48 10.05.2020
3297 Clouds 27 1014 94 10000 1.5 310 06:21 10.05.2020
3298 Clouds 27 1014 88 10000 3.1 350 05:43 10.05.2020
3299 Clouds 28 1014 83 10000 2.1 340 04:41 10.05.2020
3300 Clouds 28 1014 83 10000 2.1 340 04:22 10.05.2020
3301 Clouds 28 1014 83 10000 1.5 20 03:41 10.05.2020
3302 Clouds 28 1014 83 10000 1.5 20 02:54 10.05.2020
3303 Clouds 28 1014 83 10000 1.5 20 02:24 10.05.2020
3304 Clouds 28 1012 83 10000 1 140 01:43 10.05.2020
3305 Clouds 28 1012 83 10000 1 140 01:23 10.05.2020
3306 Clouds 28 1012 83 10000 1 140 00:57 10.05.2020
3307 Clouds 29 1011 79 10000 0.91 48 00:36 10.05.2020
3308 Clouds 29 1011 79 10000 0.91 49 00:18 10.05.2020
3309 Clouds 31 1011 70 10000 1 140 23:39 09.05.2020
3310 Clouds 31 1011 70 10000 1 140 23:20 09.05.2020
3311 Clouds 30 1011 74 10000 1 100 22:44 09.05.2020
3312 Clouds 30 1011 74 10000 1 100 22:25 09.05.2020
3313 Clouds 30 1011 74 10000 1 100 22:25 09.05.2020
3314 Clouds 31 1011 66 10000 1.5 180 21:59 09.05.2020
3315 Clouds 31 1011 66 10000 1.5 180 21:41 09.05.2020
3316 Clouds 31 1011 66 10000 1.5 180 21:22 09.05.2020
3317 Clouds 30 1012 79 10000 2.1 230 20:58 09.05.2020
3318 Clouds 30 1012 79 10000 2.1 230 20:58 09.05.2020
3319 Clouds 30 1012 79 10000 2.1 230 20:39 09.05.2020
3320 Clouds 30 1012 79 10000 2.1 230 20:20 09.05.2020
3321 Clouds 30 1012 79 10000 2.1 230 20:20 09.05.2020
3322 Clouds 29 1013 79 10000 1.5 250 19:58 09.05.2020
3323 Clouds 29 1013 79 10000 1.5 250 19:39 09.05.2020
3324 Clouds 29 1013 79 10000 1.5 250 19:20 09.05.2020
3325 Clouds 28 1014 83 10000 1.5 210 18:46 09.05.2020
3326 Clouds 28 1014 83 10000 1.5 210 18:26 09.05.2020
3327 Rain 27 1015 94 9000 1 200 17:58 09.05.2020
3328 Rain 27 1015 94 9000 1 200 17:40 09.05.2020
3329 Rain 27 1015 94 9000 1 200 17:21 09.05.2020
3330 Clouds 27 1016 83 10000 2.1 210 16:41 09.05.2020
3331 Clouds 27 1016 83 10000 2.1 210 16:20 09.05.2020
3332 Clouds 26 1016 94 10000 2.1 200 15:45 09.05.2020
3333 Clouds 26 1016 94 10000 2.1 200 15:27 09.05.2020
3334 Clouds 26 1015 94 10000 1 220 14:59 09.05.2020
3335 Clouds 26 1015 94 10000 1 220 14:40 09.05.2020
3336 Clouds 26 1015 94 10000 1 220 14:19 09.05.2020
3337 Clouds 25 1014 100 10000 1.5 210 13:57 09.05.2020
3338 Clouds 25 1014 100 10000 1.5 210 13:38 09.05.2020
3339 Clouds 25 1014 100 10000 1.5 210 13:19 09.05.2020
3340 Clouds 25 1013 100 10000 1 190 12:42 09.05.2020
3341 Clouds 25 1013 100 10000 1 190 12:22 09.05.2020
3342 Clouds 24 1013 94 10000 1 150 11:56 09.05.2020
3343 Clouds 24 1013 94 10000 1 150 11:37 09.05.2020
3344 Clouds 24 1013 94 10000 1.5 220 11:18 09.05.2020
3345 Clouds 24 1013 94 10000 1.5 220 10:43 09.05.2020
3346 Clouds 24 1013 94 10000 1.5 220 10:23 09.05.2020
3347 Clouds 24 1013 94 10000 1 220 09:56 09.05.2020
3348 Clouds 24 1013 94 10000 1 220 09:37 09.05.2020
3349 Clouds 24 1013 94 10000 1 220 09:18 09.05.2020
3350 Clouds 24 1014 94 10000 1.5 180 08:51 09.05.2020
3351 Clouds 24 1014 94 10000 1.5 180 08:31 09.05.2020
3352 Clouds 25 1014 94 10000 1.5 180 07:49 09.05.2020
3353 Clouds 25 1014 94 10000 1.5 180 07:31 09.05.2020
3354 Clouds 25 1014 94 10000 1.5 200 06:47 09.05.2020
3355 Clouds 25 1014 94 10000 1.5 200 06:23 09.05.2020
3356 Clouds 25 1015 94 10000 1.5 190 05:45 09.05.2020
3357 Clouds 25 1015 100 10000 1 180 03:44 09.05.2020
3358 Clouds 25 1015 100 10000 1 180 03:22 09.05.2020
3359 Clouds 25 1014 100 10000 1 200 02:30 09.05.2020
3360 Clouds 26 1013 94 10000 2.1 200 01:52 09.05.2020
3361 Clouds 26 1013 94 10000 2.1 200 01:23 09.05.2020
3362 Clouds 26 1012 94 10000 2.6 220 00:47 09.05.2020
3363 Clouds 26 1012 94 10000 2.6 220 00:29 09.05.2020
3364 Clouds 26 1012 94 10000 2.1 220 23:49 08.05.2020
3365 Clouds 26 1012 94 10000 2.1 220 23:29 08.05.2020
3366 Rain 28 1012 83 10000 1.5 190 22:58 08.05.2020
3367 Rain 28 1012 83 10000 1.5 190 22:40 08.05.2020
3368 Rain 28 1012 83 10000 1.5 190 22:19 08.05.2020
3369 Rain 29 1012 79 10000 2.1 180 21:58 08.05.2020
3370 Rain 29 1012 79 10000 2.1 180 21:39 08.05.2020
3371 Rain 29 1012 79 10000 2.1 180 21:18 08.05.2020
3372 Rain 29 1013 79 10000 2.1 190 20:56 08.05.2020
3373 Rain 29 1013 79 10000 2.1 190 20:38 08.05.2020
3374 Rain 29 1013 79 10000 2.1 190 20:20 08.05.2020
3375 Clouds 30 1014 74 10000 1.5 120 19:43 08.05.2020
3376 Clouds 30 1014 74 10000 1.5 120 19:23 08.05.2020
3377 Clouds 28 1015 83 10000 1 80 18:50 08.05.2020
3378 Clouds 28 1015 83 10000 1 80 18:31 08.05.2020
3379 Clouds 28 1015 83 10000 2.1 80 17:55 08.05.2020
3380 Clouds 28 1015 83 10000 2.1 80 17:37 08.05.2020
3381 Clouds 28 1016 83 10000 1.5 90 17:18 08.05.2020
3382 Clouds 28 1016 83 10000 1.5 90 16:42 08.05.2020
3383 Clouds 28 1016 83 10000 1.5 90 16:24 08.05.2020
3384 Clouds 27 1015 88 10000 1 70 15:55 08.05.2020
3385 Clouds 27 1015 88 10000 1 70 15:36 08.05.2020
3386 Clouds 27 1015 88 10000 1 70 15:18 08.05.2020
3387 Clouds 25 1015 94 10000 1 20 14:41 08.05.2020
3388 Clouds 25 1015 94 10000 1 20 14:20 08.05.2020
3389 Clouds 25 1014 94 10000 1.5 70 13:58 08.05.2020
3390 Clouds 25 1014 94 10000 1.5 70 13:58 08.05.2020
3391 Clouds 25 1014 94 10000 1.5 70 13:39 08.05.2020
3392 Clouds 25 1014 94 10000 1.5 70 13:19 08.05.2020
3393 Clouds 24 1014 94 10000 2.1 70 12:45 08.05.2020
3394 Clouds 24 1014 94 10000 2.1 70 12:24 08.05.2020
3395 Clouds 24 1014 94 10000 2.6 90 11:55 08.05.2020
3396 Clouds 24 1014 94 10000 2.6 90 11:37 08.05.2020
3397 Clouds 23 1013 94 10000 2.6 80 11:18 08.05.2020
3398 Clouds 23 1013 94 10000 2.6 80 10:43 08.05.2020
3399 Clouds 23 1013 94 10000 2.6 80 10:22 08.05.2020
3400 Clouds 23 1013 100 10000 2.6 50 09:59 08.05.2020
3401 Clouds 23 1013 100 10000 2.6 50 09:40 08.05.2020
3402 Clouds 23 1013 100 10000 2.6 50 09:19 08.05.2020
3403 Clouds 24 1014 94 10000 3.1 70 08:50 08.05.2020
3404 Clouds 24 1014 94 10000 3.1 70 08:24 08.05.2020
3405 Clouds 24 1014 94 10000 3.1 70 07:45 08.05.2020
3406 Clouds 24 1014 94 10000 3.1 70 07:25 08.05.2020
3407 Thunderstorm 24 1015 100 10000 3.6 70 06:52 08.05.2020
3408 Thunderstorm 24 1015 100 10000 3.6 70 06:25 08.05.2020
3409 Thunderstorm 25 1015 94 10000 5.1 60 05:59 08.05.2020
3410 Clouds 25 1014 94 10000 1 40 04:56 08.05.2020
3411 Clouds 25 1012 100 10000 1.01 178 02:57 08.05.2020
3412 Clouds 25 1012 100 10000 0.82 157 02:22 08.05.2020
3413 Clouds 26 1011 94 10000 1 180 01:37 08.05.2020
3414 Clouds 26 1011 94 10000 1 180 01:18 08.05.2020
3415 Clouds 26 1011 94 10000 0.5 170 00:45 08.05.2020
3416 Clouds 26 1011 94 10000 0.5 170 00:22 08.05.2020
3417 Clouds 26 1010 94 10000 0.5 180 23:44 07.05.2020
3418 Clouds 26 1010 94 10000 0.5 180 23:23 07.05.2020
3419 Clouds 26 1010 94 10000 1 150 22:58 07.05.2020
3420 Clouds 26 1010 94 10000 1 150 22:39 07.05.2020
3421 Clouds 26 1010 94 10000 1 150 22:20 07.05.2020
3422 Clouds 26 1011 100 10000 2.6 170 21:56 07.05.2020
3423 Clouds 26 1011 100 10000 2.6 170 21:37 07.05.2020
3424 Clouds 26 1011 100 10000 2.6 170 21:19 07.05.2020
3425 Rain 29 1012 78 10000 3.1 160 20:43 07.05.2020
3426 Rain 29 1012 78 10000 3.1 160 20:24 07.05.2020
3427 Clouds 30 1013 79 10000 2.1 190 19:59 07.05.2020
3428 Clouds 30 1013 79 10000 2.1 190 19:40 07.05.2020
3429 Clouds 30 1013 79 10000 2.1 190 19:21 07.05.2020
3430 Clouds 29 1014 79 10000 2.1 210 18:46 07.05.2020
3431 Clouds 29 1014 79 10000 2.1 210 18:28 07.05.2020
3432 Clouds 28 1015 83 10000 2.1 190 17:57 07.05.2020
3433 Clouds 28 1015 83 10000 2.1 190 17:37 07.05.2020
3434 Clouds 28 1015 83 10000 2.1 190 17:19 07.05.2020
3435 Clouds 28 1015 78 10000 2.6 210 16:40 07.05.2020
3436 Clouds 28 1015 78 10000 2.6 210 16:18 07.05.2020
3437 Clouds 27 1015 88 10000 2.1 200 15:56 07.05.2020
3438 Clouds 27 1015 88 10000 2.1 200 15:37 07.05.2020
3439 Clouds 27 1015 88 10000 2.1 200 15:18 07.05.2020
3440 Clouds 26 1015 94 10000 2.1 200 14:44 07.05.2020
3441 Clouds 26 1015 94 10000 2.1 200 14:22 07.05.2020
3442 Clouds 26 1015 94 10000 2.1 200 14:22 07.05.2020
3443 Clouds 25 1014 100 10000 2.1 190 13:45 07.05.2020
3444 Clouds 25 1014 100 10000 2.1 190 13:45 07.05.2020
3445 Clouds 25 1014 100 10000 2.1 190 13:27 07.05.2020
3446 Clouds 25 1014 100 10000 2.1 190 12:58 07.05.2020
3447 Clouds 25 1013 100 10000 1.5 180 12:39 07.05.2020
3448 Clouds 25 1013 100 10000 1.5 180 12:19 07.05.2020
3449 Clouds 24 1012 94 10000 1 260 11:39 07.05.2020
3450 Clouds 24 1012 94 10000 1 260 11:21 07.05.2020
3451 Clouds 23 1013 94 10000 1.5 180 10:44 07.05.2020
3452 Clouds 23 1013 94 10000 1.5 180 10:26 07.05.2020
3453 Clouds 24 1013 94 10000 1 220 09:57 07.05.2020
3454 Clouds 24 1013 94 10000 1 220 09:38 07.05.2020
3455 Clouds 24 1013 94 10000 1 220 09:38 07.05.2020
3456 Clouds 24 1013 94 10000 1 220 09:18 07.05.2020
3457 Clouds 24 1014 100 10000 1.5 260 08:43 07.05.2020
3458 Clouds 24 1014 100 10000 1.5 260 08:22 07.05.2020
3459 Clouds 24 1013 100 10000 1 200 07:58 07.05.2020
3460 Clouds 24 1013 100 10000 1 200 07:39 07.05.2020
3461 Clouds 24 1013 100 10000 1 200 07:19 07.05.2020
3462 Clouds 24 1013 94 10000 1 220 06:37 07.05.2020
3463 Clouds 24 1013 100 10000 1 90 05:58 07.05.2020
3464 Clouds 24 1012 100 10000 1 150 04:27 07.05.2020
3465 Clouds 24 1011 100 10000 1 140 03:31 07.05.2020
3466 Clouds 25 1011 94 10000 1 120 02:59 07.05.2020
3467 Clouds 25 1011 94 10000 1 120 02:26 07.05.2020
3468 Clouds 25 1011 94 10000 1 120 02:26 07.05.2020
3469 Clouds 25 1010 94 10000 1.5 280 01:28 07.05.2020
3470 Clouds 25 1010 94 10000 0.5 90 00:55 07.05.2020
3471 Clouds 25 1010 94 10000 1.8 37 00:37 07.05.2020
3472 Clouds 25 1010 94 10000 2.42 50 00:18 07.05.2020
3473 Clouds 26 1009 88 10000 2.42 50 23:41 06.05.2020
3474 Clouds 26 1009 88 10000 3.01 53 23:22 06.05.2020
3475 Clouds 26 1010 88 10000 1.5 40 22:55 06.05.2020
3476 Clouds 26 1010 88 10000 1.5 40 22:37 06.05.2020
3477 Clouds 26 1010 88 10000 1.5 40 22:18 06.05.2020
3478 Clouds 26 1011 88 10000 1.5 10 21:43 06.05.2020
3479 Clouds 26 1011 88 10000 1.5 10 21:23 06.05.2020
3480 Clouds 26 1012 88 10000 2.1 40 20:58 06.05.2020
3481 Clouds 26 1012 88 10000 2.1 40 20:39 06.05.2020
3482 Clouds 26 1012 88 10000 2.1 40 20:21 06.05.2020
3483 Clouds 26 1012 88 10000 2.1 40 19:56 06.05.2020
3484 Rain 26 1013 94 10000 2.6 60 19:38 06.05.2020
3485 Rain 26 1013 94 10000 2.6 60 19:18 06.05.2020
3486 Rain 26 1013 94 10000 2.6 60 19:18 06.05.2020
3487 Rain 25 1014 94 8000 3.1 50 18:56 06.05.2020
3488 Rain 25 1014 94 8000 3.1 50 18:37 06.05.2020
3489 Rain 25 1014 94 8000 3.1 50 18:19 06.05.2020
3490 Rain 25 1015 94 8000 4.6 50 17:55 06.05.2020
3491 Rain 25 1015 94 8000 4.6 50 17:36 06.05.2020
3492 Rain 24 1015 100 7000 3.6 40 17:18 06.05.2020
3493 Rain 24 1015 100 7000 3.6 40 16:57 06.05.2020
3494 Rain 24 1015 100 7000 3.6 40 16:39 06.05.2020
3495 Rain 24 1015 100 7000 3.6 40 16:19 06.05.2020
3496 Thunderstorm 25 1015 100 2000 4.1 60 15:47 06.05.2020
3497 Thunderstorm 25 1015 100 2000 4.1 60 15:22 06.05.2020
3498 Rain 26 1014 94 5000 1 80 14:58 06.05.2020
3499 Clouds 26 1014 94 10000 1.5 30 14:39 06.05.2020
3500 Clouds 26 1014 94 10000 1.5 30 14:19 06.05.2020
3501 Rain 25 1013 100 8000 1 30 13:58 06.05.2020
3502 Rain 25 1013 100 8000 1 30 13:38 06.05.2020
3503 Rain 25 1013 100 8000 1 30 13:19 06.05.2020
3504 Clouds 25 1011 88 10000 1 330 12:43 06.05.2020
3505 Clouds 25 1011 88 10000 1 330 12:24 06.05.2020
3506 Clouds 25 1011 88 10000 1 80 11:42 06.05.2020
3507 Clouds 25 1011 88 10000 1 80 11:22 06.05.2020
3508 Clouds 25 1010 94 10000 1 100 10:58 06.05.2020
3509 Clouds 25 1010 94 10000 1 100 10:39 06.05.2020
3510 Clouds 25 1010 94 10000 1 100 10:19 06.05.2020
3511 Clouds 25 1010 94 10000 1.5 30 09:57 06.05.2020
3512 Clouds 25 1010 94 10000 1.5 30 09:37 06.05.2020
3513 Clouds 25 1010 94 10000 1.5 30 09:19 06.05.2020
3514 Clouds 25 1011 100 10000 1.5 50 08:42 06.05.2020
3515 Clouds 25 1011 100 10000 1.5 50 08:20 06.05.2020
3516 Clouds 25 1011 100 10000 1 10 07:56 06.05.2020
3517 Clouds 25 1011 100 10000 1 10 07:37 06.05.2020
3518 Clouds 25 1011 100 10000 1 10 07:18 06.05.2020
3519 Clouds 25 1012 100 10000 1 40 06:45 06.05.2020
3520 Clouds 25 1012 100 10000 1 40 06:20 06.05.2020
3521 Clouds 25 1012 94 10000 0.51 338 05:38 06.05.2020
3522 Rain 25 1012 100 10000 1 10 04:50 06.05.2020
3523 Clouds 25 1011 94 10000 1 40 03:52 06.05.2020
3524 Clouds 25 1011 94 10000 1 40 03:26 06.05.2020
3525 Clouds 25 1010 88 10000 1 290 02:51 06.05.2020
3526 Clouds 25 1010 88 10000 1 290 02:22 06.05.2020
3527 Clouds 26 1009 94 10000 1 300 01:42 06.05.2020
3528 Clouds 26 1009 94 10000 1 300 01:20 06.05.2020
3529 Clouds 26 1009 94 10000 1.5 310 00:44 06.05.2020
3530 Clouds 26 1009 94 10000 1.5 310 00:18 06.05.2020
3531 Rain 26 1009 94 10000 2.6 280 23:41 05.05.2020
3532 Rain 26 1009 94 10000 2.6 280 23:19 05.05.2020
3533 Rain 26 1009 94 10000 2.6 350 22:54 05.05.2020
3534 Rain 26 1009 94 10000 2.6 350 22:36 05.05.2020
3535 Thunderstorm 26 1009 94 2000 4.6 10 22:18 05.05.2020
3536 Rain 27 1009 83 10000 2.1 50 21:41 05.05.2020
3537 Thunderstorm 27 1009 83 10000 2.1 50 21:21 05.05.2020
3538 Clouds 29 1009 74 10000 1 150 20:59 05.05.2020
3539 Clouds 29 1009 74 10000 1 150 20:40 05.05.2020
3540 Clouds 29 1009 74 10000 1 150 20:19 05.05.2020
3541 Rain 29 1011 74 10000 2.1 220 19:59 05.05.2020
3542 Rain 29 1011 74 10000 2.1 220 19:37 05.05.2020
3543 Rain 29 1011 74 10000 2.1 220 19:19 05.05.2020
3544 Rain 30 1011 74 10000 2.1 220 18:56 05.05.2020
3545 Rain 29 1012 83 10000 3.1 250 18:38 05.05.2020
3546 Rain 29 1012 83 10000 3.1 250 18:38 05.05.2020
3547 Rain 29 1012 83 10000 3.1 250 18:19 05.05.2020
3548 Rain 28 1013 83 10000 3.1 260 17:44 05.05.2020
3549 Rain 28 1013 83 10000 3.1 260 17:25 05.05.2020
3550 Rain 28 1013 83 10000 3.1 260 17:25 05.05.2020
3551 Rain 28 1013 83 10000 3.6 260 16:58 05.05.2020
3552 Rain 28 1013 83 10000 3.6 260 16:37 05.05.2020
3553 Rain 28 1013 83 10000 3.6 260 16:18 05.05.2020
3554 Clouds 28 1013 83 10000 2.1 300 15:56 05.05.2020
3555 Clouds 28 1013 83 10000 2.1 300 15:38 05.05.2020
3556 Clouds 28 1013 83 10000 2.1 300 15:19 05.05.2020
3557 Clouds 27 1012 88 10000 3.1 310 14:43 05.05.2020
3558 Clouds 27 1012 88 10000 3.1 310 14:25 05.05.2020
3559 Clouds 26 1011 88 10000 2.6 320 13:59 05.05.2020
3560 Clouds 26 1011 88 10000 2.6 320 13:59 05.05.2020
3561 Clouds 26 1011 88 10000 2.6 320 13:41 05.05.2020
3562 Clouds 26 1011 88 10000 2.6 320 13:21 05.05.2020
3563 Clouds 26 1011 88 10000 2.6 320 12:59 05.05.2020
3564 Clouds 26 1010 88 10000 1 340 12:40 05.05.2020
3565 Clouds 26 1010 88 10000 1 340 12:20 05.05.2020
3566 Clouds 26 1009 88 10000 1 310 11:57 05.05.2020
3567 Clouds 26 1009 88 10000 1 310 11:39 05.05.2020
3568 Clouds 26 1009 88 10000 1 310 11:18 05.05.2020
3569 Clouds 26 1009 88 10000 1.5 10 10:39 05.05.2020
3570 Clouds 26 1009 88 10000 1.5 10 10:39 05.05.2020
3571 Rain 26 1009 88 10000 1.5 10 10:20 05.05.2020
3572 Rain 26 1009 88 10000 1.5 20 09:59 05.05.2020
3573 Rain 26 1009 88 10000 1.5 20 09:59 05.05.2020
3574 Rain 26 1009 88 10000 1.5 20 09:41 05.05.2020
3575 Rain 26 1009 88 10000 1.5 20 09:22 05.05.2020
3576 Rain 26 1009 88 10000 1.5 100 08:42 05.05.2020
3577 Rain 26 1009 88 10000 1.5 100 08:21 05.05.2020
3578 Rain 26 1010 94 10000 1.5 40 07:58 05.05.2020
3579 Rain 26 1010 94 10000 1.5 40 07:39 05.05.2020
3580 Rain 26 1010 94 10000 1.5 40 07:19 05.05.2020
3581 Rain 26 1011 94 10000 1 70 06:49 05.05.2020
3582 Rain 26 1011 94 10000 1 70 06:23 05.05.2020
3583 Thunderstorm 27 1011 94 10000 1.5 70 05:39 05.05.2020
3584 Thunderstorm 27 1010 88 10000 1.5 80 03:36 05.05.2020
3585 Clouds 27 1008 88 10000 1 80 01:51 05.05.2020
3586 Rain 28 1007 83 10000 1 70 00:54 05.05.2020
3587 Rain 28 1007 83 10000 1 70 00:22 05.05.2020
3588 Rain 30 1007 70 10000 2.6 80 23:45 04.05.2020
3589 Rain 30 1007 70 10000 2.6 80 23:23 04.05.2020
3590 Clouds 31 1007 74 10000 1.5 100 22:56 04.05.2020
3591 Clouds 31 1007 74 10000 1.5 100 22:38 04.05.2020
3592 Clouds 31 1007 74 10000 1.5 100 22:19 04.05.2020
3593 Clouds 31 1006 66 10000 1.5 30 21:54 04.05.2020
3594 Clouds 30 1007 74 10000 1.5 90 21:34 04.05.2020
3595 Rain 30 1008 79 10000 2.1 80 20:58 04.05.2020
3596 Rain 30 1008 79 10000 2.1 80 20:58 04.05.2020
3597 Rain 30 1008 79 10000 2.1 80 20:58 04.05.2020
3598 Rain 30 1008 79 10000 2.1 80 20:38 04.05.2020
3599 Rain 30 1008 79 10000 2.1 80 20:38 04.05.2020
3600 Rain 29 1010 79 10000 2.6 80 20:18 04.05.2020
3601 Rain 29 1010 79 10000 2.6 80 19:42 04.05.2020
3602 Rain 29 1010 79 10000 2.6 80 19:21 04.05.2020
3603 Rain 29 1010 79 10000 2.6 80 19:21 04.05.2020
3604 Rain 29 1010 79 10000 2.6 80 18:57 04.05.2020
3605 Clouds 30 1011 70 10000 1.5 100 18:38 04.05.2020
3606 Clouds 30 1011 70 10000 1.5 100 18:18 04.05.2020
3607 Clouds 30 1011 70 10000 1.5 100 18:18 04.05.2020
3608 Clouds 29 1012 79 10000 2.1 150 17:55 04.05.2020
3609 Clouds 29 1012 79 10000 2.1 150 17:55 04.05.2020
3610 Clouds 29 1012 79 10000 2.1 150 17:37 04.05.2020
3611 Clouds 29 1012 79 10000 2.1 150 17:18 04.05.2020
3612 Clouds 29 1012 83 10000 0.5 40 16:42 04.05.2020
3613 Clouds 29 1012 83 10000 0.5 40 16:22 04.05.2020
3614 Clouds 28 1012 83 10000 0.5 140 15:47 04.05.2020
3615 Clouds 28 1012 83 10000 0.5 140 15:26 04.05.2020
3616 Rain 27 1012 83 10000 1 360 15:00 04.05.2020
3617 Clouds 25 1012 88 10000 0.5 70 14:41 04.05.2020
3618 Clouds 25 1012 88 10000 0.5 70 14:41 04.05.2020
3619 Clouds 25 1012 88 10000 0.5 70 14:19 04.05.2020
3620 Clouds 24 1011 100 10000 0.84 158 12:49 04.05.2020
3621 Rain 24 1011 100 10000 0.71 173 12:26 04.05.2020
3622 Rain 24 1011 100 10000 0.71 173 12:26 04.05.2020
3623 Rain 24 1011 100 10000 0.71 173 12:26 04.05.2020
3624 Rain 24 1011 100 10000 0.71 173 12:26 04.05.2020
3625 Clouds 24 1009 100 10000 1.5 360 10:36 04.05.2020
3626 Clouds 24 1009 100 10000 1.5 360 10:36 04.05.2020
3627 Clouds 24 1009 100 10000 1.5 360 10:36 04.05.2020
3628 Clouds 24 1010 94 10000 1.5 30 09:26 04.05.2020
3629 Clouds 24 1010 94 10000 1.5 30 09:26 04.05.2020
3630 Clouds 24 1010 94 10000 1.5 30 09:26 04.05.2020
3631 Clouds 24 1010 94 10000 1.5 30 09:26 04.05.2020
3632 Rain 24 1011 94 10000 1 60 07:52 04.05.2020
3633 Rain 24 1011 94 10000 1 60 07:33 04.05.2020
3634 Rain 24 1011 94 10000 1 60 07:33 04.05.2020
3635 Rain 24 1011 94 10000 1 60 07:33 04.05.2020
3636 Rain 24 1011 94 10000 1 60 07:33 04.05.2020
3637 Rain 24 1011 94 10000 1 60 07:33 04.05.2020
3638 Thunderstorm 26 1012 94 10000 1 110 04:59 04.05.2020
3639 Thunderstorm 27 1011 94 10000 1 70 03:28 04.05.2020
3640 Thunderstorm 27 1011 88 10000 1.5 90 02:32 04.05.2020
3641 Clouds 27 1009 88 10000 1 100 01:06 04.05.2020
3642 Clouds 28 1008 83 10000 0.5 360 23:55 03.05.2020
3643 Clouds 28 1008 83 10000 0.5 360 23:37 03.05.2020
3644 Clouds 28 1008 83 10000 0.5 360 23:19 03.05.2020
3645 Rain 28 1008 79 10000 2.6 20 22:41 03.05.2020
3646 Rain 28 1008 79 10000 2.6 20 22:41 03.05.2020
3647 Rain 28 1008 79 10000 2.6 20 22:22 03.05.2020
3648 Rain 28 1008 79 10000 2.6 20 22:22 03.05.2020
3649 Rain 28 1008 74 10000 2.6 80 21:42 03.05.2020
3650 Rain 28 1008 74 10000 2.6 80 21:42 03.05.2020
3651 Rain 28 1008 74 10000 2.6 80 21:21 03.05.2020
3652 Clouds 31 1009 70 10000 1.5 110 20:48 03.05.2020
3653 Clouds 31 1009 70 10000 1.5 110 20:23 03.05.2020
3654 Clouds 30 1011 79 10000 1 110 19:57 03.05.2020
3655 Clouds 30 1011 79 10000 1 110 19:38 03.05.2020
3656 Clouds 30 1011 79 10000 1 110 19:19 03.05.2020
3657 Clouds 29 1013 79 10000 2.1 70 18:39 03.05.2020
3658 Clouds 29 1014 79 10000 1.5 360 18:20 03.05.2020
3659 Clouds 29 1014 79 10000 1.5 360 17:56 03.05.2020
3660 Clouds 29 1014 79 10000 1.5 360 17:56 03.05.2020
3661 Clouds 29 1014 79 10000 1.5 360 17:38 03.05.2020
3662 Clouds 29 1014 79 10000 1.5 360 17:20 03.05.2020
3663 Clouds 28 1014 83 10000 1 100 16:44 03.05.2020
3664 Clouds 28 1014 83 10000 1 100 16:19 03.05.2020
3665 Clouds 27 1014 88 10000 1 300 15:58 03.05.2020
3666 Clouds 27 1014 88 10000 1 300 15:39 03.05.2020
3667 Clouds 27 1014 88 10000 1 300 15:19 03.05.2020
3668 Clouds 26 1014 94 10000 1.5 330 14:56 03.05.2020
3669 Clouds 26 1014 94 10000 0.62 163 14:38 03.05.2020
3670 Clouds 26 1014 94 10000 0.56 221 14:19 03.05.2020
3671 Clouds 26 1014 94 10000 0.56 221 14:19 03.05.2020
3672 Clouds 25 1013 94 10000 0.56 221 13:38 03.05.2020
3673 Clouds 25 1013 94 10000 0.56 221 13:38 03.05.2020
3674 Clouds 25 1013 94 10000 0.56 221 13:38 03.05.2020
3675 Clouds 25 1013 94 10000 0.56 221 13:38 03.05.2020
3676 Clouds 25 1013 94 10000 0.56 221 13:38 03.05.2020
3677 Clouds 24 1012 100 10000 1 360 12:57 03.05.2020
3678 Clouds 24 1012 100 10000 1 360 12:57 03.05.2020
3679 Clouds 24 1012 100 10000 1 360 12:57 03.05.2020
3680 Clouds 24 1012 100 10000 1 360 12:57 03.05.2020
3681 Clouds 24 1012 100 10000 1 360 12:37 03.05.2020
3682 Clouds 24 1012 94 10000 1 40 11:58 03.05.2020
3683 Clouds 24 1012 94 10000 1 40 11:40 03.05.2020
3684 Clouds 24 1012 94 10000 1 40 11:40 03.05.2020
3685 Clouds 24 1012 94 10000 1 40 11:21 03.05.2020
3686 Clouds 24 1011 94 10000 1.5 310 10:55 03.05.2020
3687 Clouds 24 1011 94 10000 1.5 310 10:26 03.05.2020
3688 Clouds 24 1011 100 10000 1 10 09:42 03.05.2020
3689 Clouds 24 1011 100 10000 1 10 09:42 03.05.2020
3690 Clouds 24 1011 100 10000 1 10 09:18 03.05.2020
3691 Clouds 24 1011 100 10000 1 10 09:18 03.05.2020
3692 Clouds 24 1013 94 10000 1 310 08:35 03.05.2020
3693 Clouds 25 1013 94 10000 1 300 07:59 03.05.2020
3694 Clouds 25 1013 94 10000 1 300 07:37 03.05.2020
3695 Clouds 25 1013 94 10000 1 300 07:37 03.05.2020
3696 Clouds 25 1013 94 10000 1 300 07:37 03.05.2020
3697 Clouds 25 1014 94 10000 1 350 05:57 03.05.2020
3698 Clouds 25 1014 94 10000 1 350 05:38 03.05.2020
3699 Clouds 25 1014 94 10000 1 20 04:28 03.05.2020
3700 Clouds 25 1013 100 10000 1.5 30 03:46 03.05.2020
3701 Clouds 26 1012 94 10000 1.5 20 02:36 03.05.2020
3702 Clouds 25 1012 100 10000 1 90 02:18 03.05.2020
3703 Clouds 25 1012 100 10000 1 90 01:39 03.05.2020
3704 Clouds 25 1012 100 10000 1 90 01:21 03.05.2020
3705 Clouds 26 1011 94 10000 1.5 50 00:40 03.05.2020
3706 Clouds 26 1011 94 10000 1.5 50 00:20 03.05.2020
3707 Clouds 26 1011 94 10000 1.5 50 00:20 03.05.2020
3708 Clouds 26 1011 94 10000 2.1 70 23:46 02.05.2020
3709 Clouds 26 1011 94 10000 2.1 70 23:28 02.05.2020
3710 Clouds 25 1010 100 10000 2.1 80 22:57 02.05.2020
3711 Clouds 25 1010 100 10000 2.1 80 22:57 02.05.2020
3712 Clouds 25 1010 100 10000 2.1 80 22:39 02.05.2020
3713 Clouds 25 1010 100 10000 2.1 80 22:20 02.05.2020
3714 Clouds 25 1011 100 10000 3.1 70 21:41 02.05.2020
3715 Clouds 25 1011 100 10000 3.1 70 21:20 02.05.2020
3716 Clouds 25 1012 100 10000 3.1 40 20:58 02.05.2020
3717 Clouds 25 1012 100 10000 3.1 40 20:39 02.05.2020
3718 Clouds 25 1012 100 10000 3.1 40 20:20 02.05.2020
3719 Clouds 25 1012 100 10000 3.6 60 19:59 02.05.2020
3720 Rain 26 1013 94 10000 3.1 70 19:39 02.05.2020
3721 Rain 26 1013 94 10000 3.1 70 19:20 02.05.2020
3722 Rain 25 1014 100 9000 3.1 80 18:56 02.05.2020
3723 Thunderstorm 27 1014 83 4000 5.1 70 18:38 02.05.2020
3724 Thunderstorm 27 1014 83 4000 5.1 70 18:19 02.05.2020
3725 Thunderstorm 27 1014 83 4000 5.1 70 18:19 02.05.2020
3726 Clouds 31 1014 70 10000 2.6 80 17:56 02.05.2020
3727 Clouds 31 1014 70 10000 2.6 80 17:38 02.05.2020
3728 Clouds 31 1014 70 10000 2.6 80 17:19 02.05.2020
3729 Clouds 29 1015 79 10000 3.1 60 16:44 02.05.2020
3730 Clouds 29 1015 79 10000 3.1 60 16:26 02.05.2020
3731 Clouds 28 1015 88 10000 1.5 50 15:55 02.05.2020
3732 Clouds 28 1015 88 10000 1.5 50 15:36 02.05.2020
3733 Clouds 27 1014 94 10000 1.5 40 15:18 02.05.2020
3734 Clouds 27 1014 94 10000 1.5 40 14:41 02.05.2020
3735 Clouds 27 1014 94 10000 1.5 40 14:23 02.05.2020
3736 Clouds 26 1014 94 10000 1.5 40 13:57 02.05.2020
3737 Clouds 26 1014 94 10000 1.5 40 13:37 02.05.2020
3738 Clouds 26 1014 94 10000 1.5 40 13:18 02.05.2020
3739 Clouds 25 1013 100 10000 1.5 100 12:40 02.05.2020
3740 Clouds 25 1013 100 10000 1.5 100 12:20 02.05.2020
3741 Clouds 25 1012 100 10000 1.5 70 11:56 02.05.2020
3742 Clouds 25 1012 100 10000 1.5 70 11:38 02.05.2020
3743 Clouds 25 1012 100 10000 1.5 70 11:19 02.05.2020
3744 Clouds 25 1011 100 10000 1.5 120 10:40 02.05.2020
3745 Clouds 25 1011 100 10000 1.5 120 10:22 02.05.2020
3746 Clouds 25 1012 100 10000 1 90 09:58 02.05.2020
3747 Clouds 25 1012 100 10000 1 90 09:40 02.05.2020
3748 Clouds 25 1012 100 10000 1 90 09:21 02.05.2020
3749 Clouds 25 1013 100 10000 1.5 30 08:55 02.05.2020
3750 Clouds 25 1013 100 10000 1.5 30 08:33 02.05.2020
3751 Clouds 25 1013 100 10000 1 70 07:50 02.05.2020
3752 Clouds 25 1013 100 10000 1 70 07:30 02.05.2020
3753 Rain 25 1014 100 8000 1 40 06:56 02.05.2020
3754 Thunderstorm 25 1014 100 4000 2.1 80 06:28 02.05.2020
3755 Thunderstorm 27 1015 100 10000 0.5 170 05:27 02.05.2020
3756 Thunderstorm 27 1014 94 10000 0.5 230 04:27 02.05.2020
3757 Thunderstorm 27 1014 94 10000 1.75 81 03:38 02.05.2020
3758 Clouds 27 1013 83 10000 1.5 30 02:40 02.05.2020
3759 Clouds 28 1011 88 10000 1 70 01:52 02.05.2020
3760 Clouds 28 1011 88 10000 1 70 01:18 02.05.2020
3761 Clouds 28 1011 79 10000 2.1 70 00:41 02.05.2020
3762 Clouds 28 1011 79 10000 2.1 70 00:19 02.05.2020
3763 Clouds 29 1010 79 10000 2.1 80 23:40 01.05.2020
3764 Clouds 29 1010 79 10000 2.1 80 23:20 01.05.2020
3765 Rain 29 1010 70 10000 2.6 70 22:58 01.05.2020
3766 Rain 29 1010 70 10000 2.6 70 22:38 01.05.2020
3767 Rain 29 1010 70 10000 2.6 70 22:19 01.05.2020
3768 Rain 29 1011 74 10000 1 80 21:57 01.05.2020
3769 Rain 29 1011 74 10000 1 80 21:39 01.05.2020
3770 Rain 29 1011 74 10000 1 80 21:18 01.05.2020
3771 Rain 30 1011 74 10000 1.5 70 20:56 01.05.2020
3772 Rain 31 1011 74 10000 1.5 70 20:37 01.05.2020
3773 Rain 31 1011 74 10000 1.5 70 20:37 01.05.2020
3774 Rain 31 1011 74 10000 1.5 70 20:19 01.05.2020
3775 Rain 31 1013 70 10000 2.1 80 19:42 01.05.2020
3776 Rain 31 1013 70 10000 2.1 80 19:23 01.05.2020
3777 Rain 31 1013 70 10000 2.1 80 18:59 01.05.2020
3778 Rain 31 1013 70 10000 2.1 80 18:59 01.05.2020
3779 Rain 30 1014 74 10000 3.1 80 18:40 01.05.2020
3780 Rain 30 1014 74 10000 3.1 80 18:21 01.05.2020
3781 Rain 30 1015 79 10000 2.1 60 17:58 01.05.2020
3782 Rain 30 1015 79 10000 2.1 60 17:39 01.05.2020
3783 Rain 30 1015 79 10000 2.1 60 17:21 01.05.2020
3784 Clouds 30 1016 79 10000 2.6 80 16:57 01.05.2020
3785 Clouds 30 1016 79 10000 2.6 80 16:38 01.05.2020
3786 Clouds 30 1016 79 10000 2.6 80 16:20 01.05.2020
3787 Clouds 28 1016 83 10000 2.6 80 15:55 01.05.2020
3788 Clouds 28 1016 83 10000 2.6 80 15:37 01.05.2020
3789 Clouds 28 1015 88 10000 1 90 15:18 01.05.2020
3790 Clouds 28 1015 88 10000 1 90 14:42 01.05.2020
3791 Clouds 28 1015 88 10000 1 90 14:23 01.05.2020
3792 Clouds 26 1014 100 10000 2.22 103 13:42 01.05.2020
3793 Clouds 26 1014 100 10000 2.15 101 13:23 01.05.2020
3794 Clouds 26 1014 100 10000 2.15 101 12:58 01.05.2020
3795 Clouds 25 1013 100 10000 2.15 101 12:40 01.05.2020
3796 Clouds 25 1013 100 10000 1.83 95 12:20 01.05.2020
3797 Clouds 26 1013 94 10000 0.5 170 11:59 01.05.2020
3798 Clouds 26 1013 94 10000 0.5 170 11:59 01.05.2020
3799 Clouds 26 1013 94 10000 0.5 170 11:40 01.05.2020
3800 Clouds 26 1013 94 10000 0.5 170 11:19 01.05.2020
3801 Clouds 26 1012 94 10000 0.5 150 10:41 01.05.2020
3802 Clouds 26 1012 94 10000 0.5 150 10:41 01.05.2020
3803 Clouds 26 1012 94 10000 0.5 150 10:20 01.05.2020
3804 Clouds 25 1013 94 10000 1 80 09:59 01.05.2020
3805 Clouds 25 1013 94 10000 1 80 09:41 01.05.2020
3806 Clouds 25 1013 94 10000 1 80 09:18 01.05.2020
3807 Clouds 25 1013 94 10000 1 80 09:18 01.05.2020
3808 Rain 26 1013 94 5000 2.1 150 08:43 01.05.2020
3809 Rain 26 1013 94 5000 2.1 150 08:25 01.05.2020
3810 Rain 26 1013 100 3000 1 160 07:55 01.05.2020
3811 Clouds 26 1013 100 10000 1.33 91 07:36 01.05.2020
3812 Clouds 26 1014 100 10000 1.3 94 06:57 01.05.2020
3813 Clouds 26 1014 94 10000 1 160 05:41 01.05.2020
3814 Clouds 26 1014 94 10000 1 160 05:19 01.05.2020
3815 Clouds 27 1013 94 10000 1.5 80 03:41 01.05.2020
3816 Thunderstorm 28 1012 83 10000 2.1 80 02:48 01.05.2020
3817 Thunderstorm 28 1012 83 10000 2.1 80 02:30 01.05.2020
3818 Clouds 28 1011 83 10000 2.1 80 01:37 01.05.2020
3819 Clouds 28 1010 78 10000 1.5 80 01:18 01.05.2020
3820 Clouds 28 1010 78 10000 1.5 80 00:38 01.05.2020
3821 Clouds 28 1010 78 10000 1.5 80 00:20 01.05.2020
3822 Clouds 29 1010 79 10000 1.5 80 23:57 30.04.2020
3823 Clouds 29 1010 79 10000 1.5 80 23:38 30.04.2020
3824 Clouds 29 1010 79 10000 1.5 80 23:19 30.04.2020
3825 Rain 29 1010 74 10000 1.5 70 22:42 30.04.2020
3826 Rain 29 1010 74 10000 1.5 70 22:21 30.04.2020
3827 Rain 30 1011 74 10000 1 90 21:58 30.04.2020
3828 Rain 30 1011 74 10000 1 90 21:39 30.04.2020
3829 Rain 30 1011 74 10000 1 90 21:21 30.04.2020
3830 Clouds 31 1012 70 10000 1.5 90 20:55 30.04.2020
3831 Clouds 31 1012 70 10000 1.5 90 20:37 30.04.2020
3832 Clouds 31 1013 74 10000 1.5 90 20:18 30.04.2020
3833 Clouds 31 1013 74 10000 1.5 90 19:44 30.04.2020
3834 Clouds 31 1013 74 10000 1.5 90 19:25 30.04.2020
3835 Clouds 30 1013 74 10000 1.5 90 18:56 30.04.2020
3836 Clouds 30 1014 79 10000 2.1 80 18:38 30.04.2020
3837 Clouds 30 1014 79 10000 2.1 80 18:20 30.04.2020
3838 Clouds 29 1015 79 10000 3.6 70 17:56 30.04.2020
3839 Clouds 29 1015 79 10000 3.6 70 17:38 30.04.2020
3840 Clouds 29 1015 79 10000 3.6 70 17:19 30.04.2020
3841 Clouds 29 1015 74 10000 4.1 60 16:54 30.04.2020
3842 Clouds 29 1015 74 10000 4.1 60 16:36 30.04.2020
3843 Clouds 28 1015 78 10000 4.1 60 16:18 30.04.2020
3844 Clouds 28 1015 78 10000 4.1 60 15:44 30.04.2020
3845 Clouds 28 1015 78 10000 4.1 60 15:21 30.04.2020
3846 Clouds 27 1014 83 10000 4.6 40 14:42 30.04.2020
3847 Clouds 27 1014 83 10000 4.6 40 14:22 30.04.2020
3848 Clouds 26 1014 88 10000 2.6 40 13:59 30.04.2020
3849 Clouds 26 1014 88 10000 2.6 40 13:40 30.04.2020
3850 Clouds 26 1014 88 10000 2.6 40 13:22 30.04.2020
3851 Clouds 25 1014 94 10000 1.5 360 12:58 30.04.2020
3852 Clouds 26 1013 94 10000 2.1 60 12:40 30.04.2020
3853 Clouds 26 1013 94 10000 2.1 60 12:18 30.04.2020
3854 Clouds 24 1012 94 10000 1 110 11:38 30.04.2020
3855 Clouds 24 1012 94 10000 1 110 11:19 30.04.2020
3856 Clouds 24 1012 94 10000 1.5 80 10:57 30.04.2020
3857 Clouds 24 1012 94 10000 1.5 80 10:38 30.04.2020
3858 Clouds 24 1012 94 10000 1.5 80 10:19 30.04.2020
3859 Rain 25 1013 94 10000 1.5 110 09:55 30.04.2020
3860 Rain 25 1013 94 10000 1.5 110 09:36 30.04.2020
3861 Rain 25 1013 94 10000 1 90 09:18 30.04.2020
3862 Rain 25 1013 94 10000 1 90 08:42 30.04.2020
3863 Rain 25 1013 94 10000 1 90 08:23 30.04.2020
3864 Rain 25 1014 94 10000 1 100 07:43 30.04.2020
3865 Rain 25 1014 94 10000 1 100 07:25 30.04.2020
3866 Rain 26 1014 94 10000 1.5 100 06:48 30.04.2020
3867 Clouds 26 1014 94 10000 1 80 05:50 30.04.2020
3868 Clouds 26 1014 94 10000 1 80 05:30 30.04.2020
3869 Clouds 26 1014 88 10000 2.1 80 04:33 30.04.2020
3870 Clouds 27 1012 83 10000 2.1 60 03:54 30.04.2020
3871 Clouds 27 1012 83 10000 2.6 60 02:45 30.04.2020
3872 Clouds 27 1012 83 10000 2.6 60 02:24 30.04.2020
3873 Thunderstorm 27 1011 83 10000 3.6 70 01:35 30.04.2020
3874 Rain 27 1010 88 10000 4.1 40 00:42 30.04.2020
3875 Rain 27 1010 88 10000 4.1 40 00:19 30.04.2020
3876 Clouds 31 1009 66 10000 3.1 70 23:56 29.04.2020
3877 Clouds 31 1009 66 10000 3.1 70 23:36 29.04.2020
3878 Clouds 31 1009 66 10000 3.1 70 23:18 29.04.2020
3879 Clouds 31 1009 66 10000 2.6 80 22:40 29.04.2020
3880 Clouds 31 1009 66 10000 2.6 80 22:21 29.04.2020
3881 Clouds 32 1009 66 10000 2.1 100 21:57 29.04.2020
3882 Clouds 32 1009 66 10000 2.1 100 21:57 29.04.2020
3883 Clouds 32 1009 66 10000 2.1 100 21:36 29.04.2020
3884 Clouds 32 1010 70 10000 1.5 90 21:18 29.04.2020
3885 Clouds 32 1010 70 10000 1.5 90 21:18 29.04.2020
3886 Clouds 32 1010 70 10000 1.5 90 20:41 29.04.2020
3887 Clouds 32 1010 70 10000 1.5 90 20:20 29.04.2020
3888 Clouds 32 1010 55 10000 2.1 10 19:59 29.04.2020
3889 Clouds 31 1012 66 10000 2.6 80 19:41 29.04.2020
3890 Clouds 31 1012 66 10000 2.6 80 19:20 29.04.2020
3891 Clouds 31 1013 66 10000 1.5 110 18:43 29.04.2020
3892 Clouds 31 1013 66 10000 1.5 110 18:25 29.04.2020
3893 Clouds 30 1014 74 10000 2.1 80 17:57 29.04.2020
3894 Clouds 30 1014 74 10000 2.1 80 17:39 29.04.2020
3895 Clouds 30 1014 74 10000 2.1 80 17:20 29.04.2020
3896 Clouds 29 1015 79 10000 2.1 70 16:39 29.04.2020
3897 Clouds 29 1015 79 10000 2.1 70 16:39 29.04.2020
3898 Clouds 29 1015 79 10000 2.1 70 16:19 29.04.2020
3899 Clouds 28 1015 83 10000 2.1 70 15:57 29.04.2020
3900 Clouds 28 1015 83 10000 2.1 70 15:39 29.04.2020
3901 Clouds 28 1015 83 10000 2.1 70 15:21 29.04.2020
3902 Clouds 26 1014 94 10000 1.5 60 14:57 29.04.2020
3903 Clouds 26 1014 94 10000 1.5 60 14:38 29.04.2020
3904 Clouds 26 1014 94 10000 1.5 60 14:20 29.04.2020
3905 Clouds 25 1013 94 10000 2.1 50 13:42 29.04.2020
3906 Clouds 25 1013 94 10000 2.1 50 13:20 29.04.2020
3907 Clouds 25 1013 94 10000 2.1 50 12:59 29.04.2020
3908 Clouds 24 1013 94 10000 1 60 12:39 29.04.2020
3909 Rain 24 1013 94 10000 1 60 12:19 29.04.2020
3910 Rain 24 1012 94 10000 1 30 11:40 29.04.2020
3911 Rain 24 1012 94 10000 1 30 11:22 29.04.2020
3912 Rain 24 1012 94 10000 1 30 10:59 29.04.2020
3913 Rain 24 1012 94 10000 1.5 20 10:37 29.04.2020
3914 Rain 24 1012 94 10000 1.5 30 10:19 29.04.2020
3915 Rain 24 1012 94 10000 1.5 30 09:42 29.04.2020
3916 Clouds 24 1012 94 10000 1.5 30 09:24 29.04.2020
3917 Clouds 25 1012 88 10000 2.1 20 08:57 29.04.2020
3918 Clouds 25 1012 88 10000 2.1 20 08:39 29.04.2020
3919 Clouds 25 1012 88 10000 2.1 20 08:20 29.04.2020
3920 Clouds 25 1012 88 10000 3.1 20 07:42 29.04.2020
3921 Clouds 25 1012 88 10000 3.1 20 07:23 29.04.2020
3922 Clouds 25 1013 94 10000 2.1 30 06:50 29.04.2020
3923 Clouds 25 1013 94 10000 2.1 30 06:31 29.04.2020
3924 Clouds 25 1013 88 10000 2.1 20 05:21 29.04.2020
3925 Clouds 25 1013 94 10000 2.1 30 04:45 29.04.2020
3926 Rain 25 1013 94 10000 2.1 30 04:18 29.04.2020
3927 Clouds 26 1012 88 10000 3.6 200 02:42 29.04.2020
3928 Clouds 27 1012 83 10000 3.1 20 01:44 29.04.2020
3929 Clouds 27 1012 83 10000 3.1 20 01:26 29.04.2020
3930 Clouds 27 1011 83 10000 3.1 30 00:42 29.04.2020
3931 Clouds 27 1011 83 10000 3.1 30 00:19 29.04.2020
3932 Clouds 27 1011 83 10000 3.1 30 00:19 29.04.2020
3933 Clouds 29 1010 79 10000 2.1 60 23:50 28.04.2020
3934 Clouds 29 1010 79 10000 2.1 60 23:24 28.04.2020
3935 Clouds 30 1010 74 10000 2.1 70 22:57 28.04.2020
3936 Clouds 30 1010 74 10000 2.1 70 22:37 28.04.2020
3937 Clouds 30 1010 74 10000 2.1 70 22:18 28.04.2020
3938 Clouds 31 1010 74 10000 1.5 100 21:56 28.04.2020
3939 Clouds 31 1010 74 10000 1.5 100 21:37 28.04.2020
3940 Clouds 31 1010 74 10000 1.5 100 21:19 28.04.2020
3941 Clouds 30 1011 74 10000 1 160 20:55 28.04.2020
3942 Clouds 30 1011 74 10000 1 160 20:36 28.04.2020
3943 Clouds 28 1013 83 10000 1 120 20:18 28.04.2020
3944 Clouds 28 1013 83 10000 1 120 19:42 28.04.2020
3945 Clouds 28 1013 83 10000 1 120 19:22 28.04.2020
3946 Clouds 29 1013 83 10000 1 120 18:59 28.04.2020
3947 Clouds 29 1014 83 10000 1 120 18:40 28.04.2020
3948 Clouds 29 1014 83 10000 1 120 18:19 28.04.2020
3949 Clouds 29 1014 83 10000 1 120 18:19 28.04.2020
3950 Clouds 29 1014 83 10000 1 120 18:19 28.04.2020
3951 Clouds 29 1014 83 10000 1 120 18:19 28.04.2020
3952 Clouds 29 1015 88 10000 1 60 17:57 28.04.2020
3953 Clouds 29 1014 74 10000 2.6 120 17:57 28.04.2020
3954 Clouds 27 1015 88 10000 1 60 17:36 28.04.2020
3955 Clouds 27 1015 94 10000 1 80 17:18 28.04.2020
3956 Clouds 27 1015 94 10000 1 80 16:42 28.04.2020
3957 Clouds 27 1015 94 10000 1 80 16:23 28.04.2020
3958 Clouds 26 1015 94 10000 1 80 15:57 28.04.2020
3959 Rain 25 1015 94 10000 1 80 15:39 28.04.2020
3960 Rain 25 1015 94 10000 1 80 15:21 28.04.2020
3961 Rain 24 1015 100 7000 1.5 80 14:58 28.04.2020
3962 Rain 24 1015 100 7000 1.5 80 14:40 28.04.2020
3963 Rain 24 1015 100 7000 1.5 80 14:20 28.04.2020
3964 Rain 24 1014 100 10000 1 20 13:57 28.04.2020
3965 Rain 24 1014 100 10000 1 20 13:37 28.04.2020
3966 Rain 24 1014 100 10000 1 20 13:19 28.04.2020
3967 Rain 24 1013 94 10000 1.5 360 12:44 28.04.2020
3968 Rain 24 1013 94 10000 1.5 360 12:24 28.04.2020
3969 Rain 23 1013 100 10000 2.1 320 11:45 28.04.2020
3970 Rain 23 1013 100 10000 2.1 320 11:24 28.04.2020
3971 Thunderstorm 24 1012 94 10000 3.1 350 10:59 28.04.2020
3972 Thunderstorm 24 1012 94 10000 3.1 350 10:59 28.04.2020
3973 Thunderstorm 24 1012 94 10000 3.1 350 10:39 28.04.2020
3974 Thunderstorm 24 1012 94 10000 3.1 350 10:19 28.04.2020
3975 Thunderstorm 23 1013 100 8000 2.1 190 09:56 28.04.2020
3976 Thunderstorm 23 1013 100 8000 2.1 190 09:38 28.04.2020
3977 Thunderstorm 24 1013 100 8000 2.1 190 09:20 28.04.2020
3978 Thunderstorm 25 1012 94 8000 2.6 250 08:45 28.04.2020
3979 Rain 25 1012 94 8000 2.6 250 08:26 28.04.2020
3980 Clouds 26 1013 100 10000 3.1 250 07:44 28.04.2020
3981 Clouds 26 1013 100 10000 3.1 250 07:19 28.04.2020
3982 Thunderstorm 27 1014 94 10000 2.6 270 06:48 28.04.2020
3983 Thunderstorm 27 1014 94 10000 2.6 270 06:20 28.04.2020
3984 Thunderstorm 26 1014 100 10000 2.6 240 05:40 28.04.2020
3985 Thunderstorm 27 1014 88 10000 2.1 260 04:39 28.04.2020
3986 Thunderstorm 26 1012 94 10000 2.6 230 02:59 28.04.2020
3987 Thunderstorm 26 1012 94 10000 2.6 230 02:27 28.04.2020
3988 Clouds 27 1011 94 10000 2.1 230 01:23 28.04.2020
3989 Clouds 27 1011 94 10000 2.1 230 00:51 28.04.2020
3990 Clouds 27 1010 88 10000 1.5 180 00:20 28.04.2020
3991 Clouds 28 1009 83 10000 2.1 170 23:44 27.04.2020
3992 Clouds 28 1009 83 10000 2.1 170 23:22 27.04.2020
3993 Thunderstorm 29 1010 79 10000 1.5 180 22:55 27.04.2020
3994 Thunderstorm 29 1010 79 10000 1.5 180 22:37 27.04.2020
3995 Thunderstorm 29 1010 79 10000 1.5 180 22:37 27.04.2020
3996 Clouds 30 1010 74 10000 1.5 160 22:18 27.04.2020
3997 Clouds 30 1010 74 10000 1.5 160 21:54 27.04.2020
3998 Clouds 30 1010 74 10000 1.5 160 21:36 27.04.2020
3999 Clouds 31 1011 70 10000 2.1 160 21:18 27.04.2020
4000 Clouds 31 1011 70 10000 2.1 160 20:42 27.04.2020
4001 Clouds 31 1011 70 10000 2.1 160 20:21 27.04.2020
4002 Clouds 31 1012 70 10000 1.5 110 19:57 27.04.2020
4003 Clouds 31 1012 70 10000 1.5 110 19:38 27.04.2020
4004 Clouds 31 1012 70 10000 1.5 110 19:19 27.04.2020
4005 Clouds 31 1012 70 10000 1.5 110 18:56 27.04.2020
4006 Clouds 30 1013 74 10000 1 90 18:37 27.04.2020
4007 Clouds 30 1014 74 10000 1.5 70 18:18 27.04.2020
4008 Clouds 30 1014 74 10000 1.5 70 18:18 27.04.2020
4009 Clouds 30 1014 74 10000 1.5 70 17:41 27.04.2020
4010 Clouds 30 1014 74 10000 1.5 70 17:20 27.04.2020
4011 Clouds 29 1015 79 10000 1 70 16:56 27.04.2020
4012 Clouds 29 1015 79 10000 1 70 16:37 27.04.2020
4013 Clouds 28 1015 83 10000 2.6 60 16:19 27.04.2020
4014 Clouds 28 1015 83 10000 2.6 60 15:56 27.04.2020
4015 Clouds 28 1015 83 10000 2.6 60 15:37 27.04.2020
4016 Clouds 27 1014 88 10000 3.1 50 15:18 27.04.2020
4017 Clouds 27 1014 88 10000 3.1 50 14:41 27.04.2020
4018 Clouds 27 1014 88 10000 3.1 50 14:20 27.04.2020
4019 Clouds 26 1013 88 10000 2.6 30 13:57 27.04.2020
4020 Clouds 26 1013 88 10000 2.6 30 13:38 27.04.2020
4021 Clouds 26 1013 88 10000 2.6 30 13:18 27.04.2020
4022 Clouds 25 1013 100 10000 2.1 90 12:43 27.04.2020
4023 Clouds 25 1013 100 10000 2.1 90 12:22 27.04.2020
4024 Clouds 25 1012 94 10000 2.1 120 11:56 27.04.2020
4025 Clouds 25 1012 94 10000 2.1 120 11:37 27.04.2020
4026 Clouds 25 1011 100 10000 1.5 50 11:18 27.04.2020
4027 Clouds 25 1011 100 10000 1.5 50 10:42 27.04.2020
4028 Clouds 25 1011 100 10000 1.5 50 10:24 27.04.2020
4029 Clouds 25 1012 94 10000 1.5 80 09:58 27.04.2020
4030 Clouds 25 1012 94 10000 1.5 80 09:40 27.04.2020
4031 Clouds 25 1012 94 10000 2.1 30 09:18 27.04.2020
4032 Clouds 25 1012 94 10000 2.1 30 08:52 27.04.2020
4033 Clouds 25 1012 94 10000 2.1 30 08:32 27.04.2020
4034 Clouds 25 1013 100 10000 1.5 40 07:45 27.04.2020
4035 Clouds 25 1013 100 10000 1.5 40 07:27 27.04.2020
4036 Clouds 26 1014 88 10000 3.1 40 06:58 27.04.2020
4037 Clouds 26 1014 88 10000 3.1 40 06:30 27.04.2020
4038 Rain 26 1014 94 10000 2.1 30 05:57 27.04.2020
4039 Rain 26 1014 94 10000 2.1 30 05:19 27.04.2020
4040 Rain 26 1014 83 10000 1.5 20 04:39 27.04.2020
4041 Rain 26 1014 83 10000 1.5 20 04:39 27.04.2020
4042 Clouds 26 1014 83 10000 1 360 03:47 27.04.2020
4043 Clouds 27 1013 88 10000 2.1 30 02:32 27.04.2020
4044 Clouds 27 1011 83 10000 2.1 360 01:20 27.04.2020
4045 Clouds 28 1011 83 10000 0.5 150 00:40 27.04.2020
4046 Clouds 28 1011 83 10000 0.5 150 00:40 27.04.2020
4047 Clouds 28 1011 83 10000 0.5 150 00:18 27.04.2020
4048 Clouds 29 1011 88 10000 2.6 310 23:55 26.04.2020
4049 Clouds 29 1009 74 10000 0.5 120 23:37 26.04.2020
4050 Clouds 29 1009 74 10000 0.5 120 23:18 26.04.2020
4051 Rain 28 1009 83 10000 0.5 130 22:40 26.04.2020
4052 Rain 28 1009 83 10000 0.5 130 22:22 26.04.2020
4053 Rain 30 1010 70 10000 1.5 130 21:59 26.04.2020
4054 Rain 30 1010 70 10000 1.5 130 21:59 26.04.2020
4055 Rain 30 1010 70 10000 1.5 130 21:41 26.04.2020
4056 Rain 30 1010 70 10000 1.5 130 21:19 26.04.2020
4057 Rain 30 1011 70 10000 1.5 70 20:59 26.04.2020
4058 Rain 30 1011 70 10000 1.5 70 20:39 26.04.2020
4059 Rain 30 1011 70 10000 1.5 70 20:20 26.04.2020
4060 Rain 31 1013 70 10000 1.5 80 19:58 26.04.2020
4061 Rain 31 1013 70 10000 1.5 80 19:37 26.04.2020
4062 Rain 31 1013 70 10000 1.5 80 19:19 26.04.2020
4063 Clouds 30 1014 79 10000 1.5 130 18:44 26.04.2020
4064 Clouds 30 1014 79 10000 1.5 130 18:25 26.04.2020
4065 Clouds 30 1014 79 10000 1.5 130 18:25 26.04.2020
4066 Clouds 30 1014 74 10000 1.5 100 17:45 26.04.2020
4067 Clouds 30 1014 74 10000 1.5 100 17:24 26.04.2020
4068 Clouds 29 1015 79 10000 1.5 100 17:00 26.04.2020
4069 Clouds 29 1015 79 10000 1.5 100 16:40 26.04.2020
4070 Clouds 29 1015 79 10000 1.5 100 16:21 26.04.2020
4071 Clouds 29 1015 79 10000 1.5 110 15:58 26.04.2020
4072 Clouds 28 1014 83 10000 1 70 15:38 26.04.2020
4073 Clouds 28 1014 83 10000 1 70 15:20 26.04.2020
4074 Clouds 26 1014 83 10000 1 40 14:54 26.04.2020
4075 Clouds 26 1014 83 10000 1 40 14:36 26.04.2020
4076 Clouds 24 1013 100 10000 0.89 123 14:18 26.04.2020
4077 Clouds 24 1013 100 10000 0.89 123 13:41 26.04.2020
4078 Clouds 24 1013 100 10000 0.89 123 13:23 26.04.2020
4079 Clouds 24 1012 100 10000 1 50 12:58 26.04.2020
4080 Clouds 24 1012 100 10000 1 50 12:40 26.04.2020
4081 Clouds 24 1012 100 10000 1 50 12:20 26.04.2020
4082 Clouds 24 1012 100 10000 0.87 82 11:57 26.04.2020
4083 Clouds 24 1012 100 10000 0.87 82 11:38 26.04.2020
4084 Clouds 24 1012 100 10000 0.87 82 11:38 26.04.2020
4085 Clouds 24 1012 100 10000 0.87 82 11:20 26.04.2020
4086 Clouds 24 1012 100 10000 0.87 82 10:55 26.04.2020
4087 Clouds 24 1012 100 10000 0.87 82 10:37 26.04.2020
4088 Clouds 24 1013 100 10000 1 80 10:18 26.04.2020
4089 Clouds 24 1013 100 10000 1 80 09:39 26.04.2020
4090 Clouds 24 1013 100 10000 1 80 09:21 26.04.2020
4091 Clouds 24 1013 100 10000 1 70 08:43 26.04.2020
4092 Clouds 24 1013 100 10000 1 70 08:23 26.04.2020
4093 Clouds 24 1014 94 10000 1.5 50 07:58 26.04.2020
4094 Clouds 24 1014 94 10000 1.5 50 07:40 26.04.2020
4095 Clouds 24 1014 94 10000 1 50 07:18 26.04.2020
4096 Clouds 24 1014 94 10000 1 50 06:39 26.04.2020
4097 Clouds 24 1014 94 10000 1 50 05:55 26.04.2020
4098 Clouds 24 1014 94 10000 1.5 10 05:36 26.04.2020
4099 Clouds 24 1014 100 10000 1.5 40 04:44 26.04.2020
4100 Clouds 24 1013 100 10000 1 40 03:50 26.04.2020
4101 Clouds 24 1012 100 10000 0.5 70 02:44 26.04.2020
4102 Clouds 24 1012 100 10000 0.5 70 02:21 26.04.2020
4103 Clouds 24 1010 100 10000 1 70 01:38 26.04.2020
4104 Clouds 24 1010 100 10000 1 70 01:19 26.04.2020
4105 Clouds 24 1010 100 10000 1 130 00:38 26.04.2020
4106 Clouds 25 1010 94 10000 1.5 90 00:18 26.04.2020
4107 Clouds 25 1010 94 10000 1.5 90 23:38 25.04.2020
4108 Clouds 25 1010 94 10000 1.5 90 23:20 25.04.2020
4109 Clouds 26 1010 88 10000 1 110 22:54 25.04.2020
4110 Clouds 26 1010 88 10000 1 110 22:36 25.04.2020
4111 Clouds 25 1011 88 10000 1 30 22:18 25.04.2020
4112 Clouds 25 1011 88 10000 1 30 21:39 25.04.2020
4113 Clouds 25 1011 88 10000 1 30 21:20 25.04.2020
4114 Rain 24 1013 100 6000 1.5 10 20:56 25.04.2020
4115 Rain 24 1013 100 6000 1.5 10 20:37 25.04.2020
4116 Rain 24 1013 100 6000 1.5 10 20:19 25.04.2020
4117 Rain 23 1015 100 4000 2.1 50 19:41 25.04.2020
4118 Rain 23 1015 100 4000 2.1 50 19:23 25.04.2020
4119 Rain 23 1016 100 4000 2.1 30 18:58 25.04.2020
4120 Rain 23 1016 100 4000 2.1 30 18:39 25.04.2020
4121 Rain 23 1016 100 4000 2.1 30 18:20 25.04.2020
4122 Rain 23 1016 100 4000 2.6 10 17:57 25.04.2020
4123 Rain 23 1016 100 4000 2.6 10 17:38 25.04.2020
4124 Rain 23 1016 100 4000 2.6 10 17:19 25.04.2020
4125 Rain 23 1016 94 1500 6.2 270 16:54 25.04.2020
4126 Rain 23 1016 94 1500 6.2 270 16:36 25.04.2020
4127 Rain 25 1015 94 700 5.7 350 16:18 25.04.2020
4128 Rain 25 1015 94 700 5.7 350 15:40 25.04.2020
4129 Rain 25 1015 94 700 5.7 350 15:19 25.04.2020
4130 Rain 26 1013 94 10000 0.5 200 14:58 25.04.2020
4131 Rain 26 1013 94 10000 0.5 200 14:38 25.04.2020
4132 Rain 26 1013 94 10000 0.5 200 14:19 25.04.2020
4133 Clouds 25 1012 100 10000 1 90 13:43 25.04.2020
4134 Clouds 25 1012 100 10000 1 90 13:19 25.04.2020
4135 Clouds 25 1012 100 10000 0.5 30 12:58 25.04.2020
4136 Clouds 25 1012 100 10000 0.5 90 12:39 25.04.2020
4137 Clouds 25 1012 100 10000 0.5 90 12:20 25.04.2020
4138 Clouds 25 1011 100 10000 1.5 70 11:55 25.04.2020
4139 Clouds 25 1011 100 10000 1.5 70 11:37 25.04.2020
4140 Clouds 25 1011 100 10000 1.5 70 11:19 25.04.2020
4141 Clouds 25 1011 100 10000 1.5 70 10:42 25.04.2020
4142 Clouds 25 1011 100 10000 1.5 70 10:22 25.04.2020
4143 Clouds 25 1011 94 10000 0.5 110 09:47 25.04.2020
4144 Clouds 25 1011 94 10000 0.5 110 09:28 25.04.2020
4145 Clouds 25 1011 94 10000 1.27 200 08:57 25.04.2020
4146 Clouds 25 1011 94 10000 1.27 200 08:38 25.04.2020
4147 Clouds 25 1011 94 10000 1.27 200 08:20 25.04.2020
4148 Clouds 25 1012 100 10000 1 200 07:47 25.04.2020
4149 Clouds 25 1012 100 10000 1 200 07:24 25.04.2020
4150 Rain 25 1012 100 10000 1.5 190 06:45 25.04.2020
4151 Rain 25 1013 100 10000 2.1 170 06:18 25.04.2020
4152 Rain 25 1013 100 10000 2.1 170 05:39 25.04.2020
4153 Rain 25 1013 100 10000 1.5 170 04:47 25.04.2020
4154 Rain 25 1011 100 10000 1.5 230 02:59 25.04.2020
4155 Rain 25 1011 100 10000 1.5 230 02:20 25.04.2020
4156 Rain 25 1011 100 10000 1.5 230 02:20 25.04.2020
4157 Rain 25 1010 94 8000 1 350 01:52 25.04.2020
4158 Thunderstorm 25 1010 94 1000 3.6 360 01:27 25.04.2020
4159 Thunderstorm 25 1010 94 1000 3.6 360 00:52 25.04.2020
4160 Thunderstorm 26 1009 83 1000 5.1 340 00:31 25.04.2020
4161 Rain 28 1008 70 10000 2.1 20 23:44 24.04.2020
4162 Rain 28 1008 70 10000 2.1 20 23:23 24.04.2020
4163 Rain 32 1008 66 10000 1 150 22:56 24.04.2020
4164 Rain 32 1008 66 10000 1 150 22:56 24.04.2020
4165 Rain 32 1008 66 10000 1 150 22:38 24.04.2020
4166 Rain 32 1008 66 10000 1 150 22:19 24.04.2020
4167 Clouds 32 1008 74 10000 1.5 160 21:55 24.04.2020
4168 Clouds 32 1008 74 10000 1.5 160 21:36 24.04.2020
4169 Clouds 31 1009 74 10000 1 110 21:18 24.04.2020
4170 Clouds 31 1009 74 10000 1 110 20:54 24.04.2020
4171 Clouds 31 1009 74 10000 1 110 20:36 24.04.2020
4172 Clouds 30 1011 79 10000 0.5 170 20:18 24.04.2020
4173 Clouds 30 1011 79 10000 0.5 170 19:39 24.04.2020
4174 Clouds 30 1012 74 10000 2.1 90 19:20 24.04.2020
4175 Clouds 30 1012 74 10000 2.1 90 18:44 24.04.2020
4176 Clouds 30 1012 74 10000 2.1 90 18:25 24.04.2020
4177 Clouds 30 1013 70 10000 2.6 30 17:54 24.04.2020
4178 Clouds 30 1013 70 10000 2.6 30 17:36 24.04.2020
4179 Clouds 29 1014 79 10000 2.6 30 17:18 24.04.2020
4180 Clouds 29 1014 79 10000 2.6 30 16:56 24.04.2020
4181 Clouds 29 1014 79 10000 2.6 30 16:38 24.04.2020
4182 Clouds 29 1014 79 10000 2.6 30 16:20 24.04.2020
4183 Clouds 28 1013 83 10000 3.1 30 15:40 24.04.2020
4184 Clouds 26 1013 88 10000 2.6 50 15:20 24.04.2020
4185 Clouds 26 1013 88 10000 2.6 50 14:41 24.04.2020
4186 Clouds 26 1013 88 10000 2.6 50 14:22 24.04.2020
4187 Clouds 25 1012 94 10000 2.1 40 13:59 24.04.2020
4188 Clouds 25 1012 94 10000 2.1 40 13:40 24.04.2020
4189 Clouds 25 1012 94 10000 2.1 40 13:20 24.04.2020
4190 Rain 25 1011 94 9000 1.5 20 12:46 24.04.2020
4191 Rain 25 1011 94 9000 1.5 20 12:26 24.04.2020
4192 Rain 25 1011 94 9000 2.1 30 11:59 24.04.2020
4193 Rain 25 1011 94 9000 2.1 30 11:40 24.04.2020
4194 Rain 25 1011 94 9000 2.1 30 11:21 24.04.2020
4195 Rain 25 1010 100 8000 2.1 90 10:56 24.04.2020
4196 Rain 25 1010 100 8000 2.1 90 10:37 24.04.2020
4197 Rain 25 1010 100 8000 2.1 90 10:19 24.04.2020
4198 Rain 25 1011 94 9000 2.1 30 09:47 24.04.2020
4199 Rain 25 1011 94 9000 2.1 30 09:24 24.04.2020
4200 Clouds 25 1011 100 10000 1 10 08:58 24.04.2020
4201 Clouds 25 1011 100 10000 1 10 08:39 24.04.2020
4202 Clouds 25 1011 100 10000 1 10 08:18 24.04.2020
4203 Clouds 26 1012 88 10000 1.5 20 07:46 24.04.2020
4204 Clouds 26 1012 88 10000 1.5 20 07:26 24.04.2020
4205 Clouds 26 1012 88 10000 1.5 20 06:57 24.04.2020
4206 Clouds 26 1013 88 10000 2.1 30 06:37 24.04.2020
4207 Clouds 26 1013 88 10000 1 40 05:48 24.04.2020
4208 Clouds 25 1012 88 10000 0.5 110 04:30 24.04.2020
4209 Clouds 25 1012 88 10000 0.5 60 03:19 24.04.2020
4210 Clouds 26 1012 88 10000 0.5 110 02:41 24.04.2020
4211 Clouds 26 1012 88 10000 0.5 110 02:20 24.04.2020
4212 Clouds 26 1011 88 10000 1 20 01:24 24.04.2020
4213 Clouds 26 1010 78 10000 1.5 250 00:39 24.04.2020
4214 Clouds 26 1009 78 10000 1 230 00:18 24.04.2020
4215 Clouds 26 1009 78 10000 1 230 23:44 23.04.2020
4216 Clouds 26 1009 78 10000 1 230 23:26 23.04.2020
4217 Clouds 26 1009 83 10000 1 70 22:55 23.04.2020
4218 Clouds 26 1009 83 10000 1 70 22:37 23.04.2020
4219 Clouds 26 1009 83 10000 1 70 22:37 23.04.2020
4220 Clouds 26 1009 83 10000 1 70 22:18 23.04.2020
4221 Rain 26 1009 88 10000 3.1 330 21:56 23.04.2020
4222 Rain 26 1009 88 10000 3.1 330 21:38 23.04.2020
4223 Rain 26 1009 88 10000 3.1 330 21:19 23.04.2020
4224 Thunderstorm 26 1010 94 10000 3.1 40 20:43 23.04.2020
4225 Thunderstorm 26 1010 94 10000 3.1 40 20:22 23.04.2020
4226 Thunderstorm 27 1011 94 4000 4.6 60 19:59 23.04.2020
4227 Rain 29 1011 88 4000 3.1 240 19:40 23.04.2020
4228 Rain 29 1011 88 4000 3.1 240 19:21 23.04.2020
4229 Rain 29 1011 88 4000 3.1 240 18:57 23.04.2020
4230 Rain 30 1013 79 10000 2.1 230 18:38 23.04.2020
4231 Rain 30 1013 79 10000 2.1 230 18:20 23.04.2020
4232 Rain 30 1013 79 10000 2.1 230 17:55 23.04.2020
4233 Clouds 29 1014 83 10000 2.6 170 17:36 23.04.2020
4234 Clouds 30 1014 70 10000 2.6 10 17:18 23.04.2020
4235 Clouds 30 1014 70 10000 2.6 10 16:43 23.04.2020
4236 Clouds 30 1014 70 10000 2.6 10 16:19 23.04.2020
4237 Clouds 28 1014 78 10000 2.6 330 15:43 23.04.2020
4238 Clouds 28 1014 78 10000 2.6 330 15:43 23.04.2020
4239 Clouds 28 1014 78 10000 2.6 330 15:23 23.04.2020
4240 Clouds 26 1014 83 10000 1 40 14:59 23.04.2020
4241 Clouds 26 1014 83 10000 1 40 14:39 23.04.2020
4242 Clouds 26 1014 83 10000 1 40 14:39 23.04.2020
4243 Clouds 26 1014 83 10000 1 40 14:21 23.04.2020
4244 Clouds 25 1013 88 10000 2.6 20 13:57 23.04.2020
4245 Clouds 25 1013 88 10000 2.6 20 13:38 23.04.2020
4246 Clouds 25 1013 88 10000 2.6 20 13:19 23.04.2020
4247 Clouds 25 1013 88 10000 2.6 20 12:55 23.04.2020
4248 Clouds 25 1012 94 10000 2.1 10 12:37 23.04.2020
4249 Clouds 25 1012 94 10000 1.5 10 12:18 23.04.2020
4250 Clouds 25 1012 94 10000 1.5 10 11:43 23.04.2020
4251 Clouds 25 1012 94 10000 1.5 10 11:25 23.04.2020
4252 Rain 25 1011 88 10000 2.1 30 10:43 23.04.2020
4253 Rain 25 1011 88 10000 2.1 30 10:24 23.04.2020
4254 Rain 25 1011 94 10000 2.1 20 09:58 23.04.2020
4255 Rain 25 1011 94 10000 2.1 20 09:37 23.04.2020
4256 Clouds 25 1011 94 10000 2.1 20 09:18 23.04.2020
4257 Clouds 24 1012 100 10000 1 30 08:46 23.04.2020
4258 Clouds 24 1012 100 10000 1 30 08:27 23.04.2020
4259 Clouds 25 1012 94 10000 1 110 07:43 23.04.2020
4260 Clouds 25 1012 94 10000 1 110 07:24 23.04.2020
4261 Clouds 25 1012 94 10000 1 200 06:49 23.04.2020
4262 Clouds 25 1012 94 10000 1 200 06:27 23.04.2020
4263 Clouds 25 1013 83 10000 2.1 20 05:31 23.04.2020
4264 Clouds 26 1012 83 10000 3.1 10 04:53 23.04.2020
4265 Clouds 28 1011 83 10000 2.1 40 02:25 23.04.2020
4266 Clouds 28 1010 78 10000 1.5 70 01:51 23.04.2020
4267 Clouds 28 1010 78 10000 1.5 70 01:33 23.04.2020
4268 Clouds 28 1010 78 10000 1 130 00:47 23.04.2020
4269 Clouds 28 1010 78 10000 1 130 00:23 23.04.2020
4270 Clouds 29 1009 74 10000 1.5 280 23:50 22.04.2020
4271 Clouds 29 1009 74 10000 1.5 280 23:24 22.04.2020
4272 Clouds 30 1009 70 10000 2.1 230 22:57 22.04.2020
4273 Clouds 30 1009 70 10000 2.1 230 22:37 22.04.2020
4274 Clouds 30 1010 79 10000 1 180 22:19 22.04.2020
4275 Clouds 30 1010 79 10000 1 180 21:56 22.04.2020
4276 Clouds 30 1010 79 10000 1 180 21:37 22.04.2020
4277 Clouds 30 1010 79 10000 1 180 21:19 22.04.2020
4278 Clouds 30 1011 79 10000 2.6 150 20:43 22.04.2020
4279 Clouds 30 1013 83 10000 1 120 20:19 22.04.2020
4280 Clouds 30 1011 70 10000 1.5 180 19:58 22.04.2020
4281 Clouds 29 1013 83 10000 1 120 19:39 22.04.2020
4282 Clouds 29 1013 83 10000 1 120 19:39 22.04.2020
4283 Clouds 29 1013 83 10000 1 120 19:19 22.04.2020
4284 Clouds 29 1014 83 10000 1.5 170 18:59 22.04.2020
4285 Clouds 29 1014 83 10000 1.5 170 18:40 22.04.2020
4286 Clouds 29 1014 83 10000 1.5 170 18:22 22.04.2020
4287 Clouds 29 1014 74 10000 1 100 17:56 22.04.2020
4288 Clouds 28 1015 88 10000 1 80 17:37 22.04.2020
4289 Clouds 27 1015 94 10000 1 80 17:19 22.04.2020
4290 Clouds 27 1015 94 10000 1 80 16:42 22.04.2020
4291 Clouds 27 1015 94 10000 1 80 16:42 22.04.2020
4292 Clouds 27 1015 94 10000 1 80 16:23 22.04.2020
4293 Clouds 27 1016 88 10000 1 200 15:43 22.04.2020
4294 Clouds 27 1016 88 10000 1 200 15:25 22.04.2020
4295 Clouds 26 1014 94 10000 2.6 250 14:59 22.04.2020
4296 Clouds 26 1014 94 10000 2.6 250 14:59 22.04.2020
4297 Clouds 26 1014 94 10000 2.6 250 14:40 22.04.2020
4298 Clouds 26 1014 94 10000 2.6 250 14:20 22.04.2020
4299 Clouds 25 1013 94 10000 2.1 260 13:56 22.04.2020
4300 Clouds 25 1013 94 10000 2.1 260 13:37 22.04.2020
4301 Clouds 25 1013 94 10000 2.1 260 13:19 22.04.2020
4302 Clouds 25 1013 94 10000 2.1 260 13:19 22.04.2020
4303 Clouds 25 1013 94 10000 1.5 230 12:41 22.04.2020
4304 Clouds 25 1013 94 10000 1.5 230 12:22 22.04.2020
4305 Clouds 25 1012 94 10000 1 290 11:41 22.04.2020
4306 Clouds 25 1012 94 10000 1 290 11:22 22.04.2020
4307 Clouds 25 1012 94 10000 1.5 270 10:59 22.04.2020
4308 Clouds 25 1012 94 10000 1.5 270 10:40 22.04.2020
4309 Clouds 25 1012 94 10000 1.5 270 10:40 22.04.2020
4310 Clouds 25 1012 94 10000 1.5 270 10:20 22.04.2020
4311 Rain 25 1012 94 10000 1.5 310 09:40 22.04.2020
4312 Rain 25 1012 94 10000 1.5 310 09:21 22.04.2020
4313 Rain 25 1013 94 10000 1 300 08:58 22.04.2020
4314 Rain 25 1013 94 10000 1 300 08:40 22.04.2020
4315 Rain 25 1013 94 10000 1 300 08:22 22.04.2020
4316 Rain 25 1013 94 10000 1.5 260 07:53 22.04.2020
4317 Rain 25 1013 94 10000 1.5 260 07:29 22.04.2020
4318 Rain 26 1013 88 10000 1 300 06:53 22.04.2020
4319 Clouds 26 1013 88 10000 1 300 06:21 22.04.2020
4320 Clouds 26 1013 88 10000 1.5 300 05:37 22.04.2020
4321 Clouds 26 1013 83 10000 1.5 300 04:20 22.04.2020
4322 Rain 26 1022 83 10000 2.6 280 02:51 22.04.2020
4323 Clouds 27 1011 83 10000 3.1 280 01:53 22.04.2020
4324 Clouds 27 1010 78 10000 4.1 280 01:27 22.04.2020
4325 Clouds 28 1010 78 10000 4.1 280 00:54 22.04.2020
4326 Clouds 28 1010 78 10000 4.1 280 00:36 22.04.2020
4327 Clouds 28 1010 70 10000 5.7 270 00:18 22.04.2020
4328 Clouds 28 1010 70 10000 5.7 270 23:41 21.04.2020
4329 Clouds 28 1010 70 10000 5.7 270 23:41 21.04.2020
4330 Clouds 28 1010 70 10000 5.7 270 23:19 21.04.2020
4331 Clouds 28 1010 70 10000 5.7 270 23:19 21.04.2020
4332 Clouds 30 1009 70 10000 5.7 270 22:40 21.04.2020
4333 Clouds 30 1009 70 10000 5.7 270 22:22 21.04.2020
4334 Clouds 31 1010 62 10000 5.1 260 21:59 21.04.2020
4335 Clouds 31 1010 62 10000 5.1 260 21:41 21.04.2020
4336 Clouds 31 1010 62 10000 5.1 260 21:22 21.04.2020
4337 Clouds 31 1011 66 10000 4.6 250 20:55 21.04.2020
4338 Clouds 31 1011 66 10000 4.6 250 20:37 21.04.2020
4339 Clouds 31 1011 66 10000 4.6 250 20:19 21.04.2020
4340 Rain 29 1013 66 10000 4.1 240 19:40 21.04.2020
4341 Rain 29 1013 66 10000 4.1 240 19:19 21.04.2020
4342 Rain 31 1013 66 10000 4.1 240 18:57 21.04.2020
4343 Rain 30 1015 74 10000 3.6 250 18:38 21.04.2020
4344 Rain 30 1015 74 10000 3.6 250 18:19 21.04.2020
4345 Rain 30 1015 74 10000 3.6 250 18:19 21.04.2020
4346 Clouds 29 1015 79 10000 3.6 240 17:55 21.04.2020
4347 Clouds 29 1015 79 10000 3.6 240 17:37 21.04.2020
4348 Rain 29 1016 70 10000 3.1 350 17:18 21.04.2020
4349 Rain 29 1016 70 10000 3.1 350 16:39 21.04.2020
4350 Rain 29 1016 70 10000 3.1 350 16:39 21.04.2020
4351 Rain 29 1016 70 10000 3.1 350 16:19 21.04.2020
4352 Rain 27 1016 74 10000 2.1 350 15:57 21.04.2020
4353 Rain 27 1016 74 10000 2.1 350 15:38 21.04.2020
4354 Clouds 27 1016 74 10000 2.1 350 15:20 21.04.2020
4355 Clouds 26 1015 78 10000 2.6 10 14:54 21.04.2020
4356 Clouds 26 1015 78 10000 2.6 10 14:36 21.04.2020
4357 Clouds 25 1014 88 10000 3.1 360 14:18 21.04.2020
4358 Clouds 25 1014 88 10000 3.1 360 13:40 21.04.2020
4359 Clouds 25 1014 88 10000 3.1 360 13:22 21.04.2020
4360 Clouds 24 1014 88 10000 3.1 360 12:55 21.04.2020
4361 Clouds 24 1013 94 10000 1 20 12:36 21.04.2020
4362 Clouds 23 1013 94 10000 1 10 12:18 21.04.2020
4363 Clouds 23 1013 94 10000 1 10 11:55 21.04.2020
4364 Clouds 23 1013 94 10000 1 10 11:36 21.04.2020
4365 Clouds 23 1012 94 10000 1 10 11:18 21.04.2020
4366 Clouds 23 1012 94 10000 1 10 11:18 21.04.2020
4367 Clouds 23 1012 94 10000 1 10 10:54 21.04.2020
4368 Clouds 23 1012 94 10000 1 10 10:36 21.04.2020
4369 Clouds 23 1013 94 10000 1 20 10:18 21.04.2020
4370 Clouds 23 1013 94 10000 1 20 09:37 21.04.2020
4371 Clouds 24 1013 94 10000 1 300 09:18 21.04.2020
4372 Clouds 24 1013 94 10000 1 300 08:47 21.04.2020
4373 Clouds 24 1013 94 10000 1 300 08:27 21.04.2020
4374 Clouds 24 1013 94 10000 1 300 08:27 21.04.2020
4375 Rain 24 1014 94 10000 1 330 07:57 21.04.2020
4376 Rain 24 1014 94 10000 1 330 07:37 21.04.2020
4377 Rain 24 1014 94 10000 1 330 07:19 21.04.2020
4378 Rain 24 1014 94 10000 1.5 360 06:43 21.04.2020
4379 Clouds 24 1015 94 10000 2.6 340 06:18 21.04.2020
4380 Clouds 24 1015 94 10000 2.6 340 05:44 21.04.2020
4381 Clouds 24 1014 100 10000 1 90 03:48 21.04.2020
4382 Clouds 24 1014 100 10000 1 90 03:48 21.04.2020
4383 Clouds 25 1013 94 10000 2.1 360 02:59 21.04.2020
4384 Clouds 25 1012 94 10000 3.1 320 01:37 21.04.2020
4385 Clouds 25 1012 88 10000 2.6 330 00:51 21.04.2020
4386 Clouds 25 1012 88 10000 2.6 330 00:25 21.04.2020
4387 Clouds 25 1012 88 10000 2.6 350 23:44 20.04.2020
4388 Clouds 25 1012 88 10000 2.6 350 23:23 20.04.2020
4389 Clouds 26 1011 83 10000 3.6 330 22:57 20.04.2020
4390 Clouds 26 1011 83 10000 3.6 330 22:37 20.04.2020
4391 Clouds 26 1011 83 10000 3.6 330 22:19 20.04.2020
4392 Clouds 26 1011 83 10000 3.6 330 22:19 20.04.2020
4393 Clouds 26 1012 78 10000 3.6 330 21:55 20.04.2020
4394 Clouds 26 1012 78 10000 3.6 330 21:36 20.04.2020
4395 Rain 26 1013 78 10000 3.1 310 21:18 20.04.2020
4396 Rain 26 1013 78 10000 3.1 310 20:55 20.04.2020
4397 Rain 26 1013 78 10000 3.1 310 20:36 20.04.2020
4398 Thunderstorm 25 1014 88 10000 6.2 280 20:18 20.04.2020
4399 Thunderstorm 25 1014 88 10000 6.2 280 19:41 20.04.2020
4400 Rain 25 1014 88 10000 6.2 280 19:23 20.04.2020
4401 Thunderstorm 27 1015 78 10000 6.2 270 18:59 20.04.2020
4402 Thunderstorm 27 1015 78 10000 6.2 270 18:40 20.04.2020
4403 Thunderstorm 27 1015 78 10000 6.2 270 18:20 20.04.2020
4404 Rain 30 1015 74 10000 1.5 70 17:54 20.04.2020
4405 Rain 30 1015 74 10000 1.5 70 17:36 20.04.2020
4406 Rain 30 1015 79 10000 1.5 70 17:18 20.04.2020
4407 Rain 30 1015 79 10000 1.5 70 16:42 20.04.2020
4408 Rain 30 1015 79 10000 1.5 70 16:20 20.04.2020
4409 Clouds 28 1015 83 10000 2.6 60 15:56 20.04.2020
4410 Clouds 28 1015 83 10000 2.6 60 15:38 20.04.2020
4411 Clouds 28 1015 83 10000 2.6 60 15:19 20.04.2020
4412 Clouds 27 1015 88 10000 2.6 70 14:42 20.04.2020
4413 Clouds 27 1015 88 10000 2.6 70 14:19 20.04.2020
4414 Clouds 26 1014 94 10000 2.6 70 13:58 20.04.2020
4415 Clouds 26 1014 94 10000 2.1 50 13:39 20.04.2020
4416 Clouds 26 1014 94 10000 2.1 50 13:20 20.04.2020
4417 Clouds 25 1013 100 10000 1.5 60 12:44 20.04.2020
4418 Clouds 25 1013 100 10000 1.5 60 12:24 20.04.2020
4419 Clouds 25 1011 94 10000 2.1 120 11:58 20.04.2020
4420 Clouds 25 1011 94 10000 2.1 120 11:38 20.04.2020
4421 Clouds 25 1011 94 10000 1 120 11:18 20.04.2020
4422 Clouds 25 1011 94 10000 1 120 10:55 20.04.2020
4423 Clouds 25 1011 94 10000 1 120 10:55 20.04.2020
4424 Clouds 25 1011 94 10000 1 120 10:36 20.04.2020
4425 Clouds 25 1011 94 10000 2.1 90 10:18 20.04.2020
4426 Clouds 25 1011 94 10000 2.1 90 09:44 20.04.2020
4427 Clouds 25 1011 94 10000 2.1 90 09:25 20.04.2020
4428 Clouds 26 1012 94 10000 1 50 08:58 20.04.2020
4429 Clouds 26 1012 94 10000 1 50 08:58 20.04.2020
4430 Clouds 26 1012 94 10000 1 50 08:58 20.04.2020
4431 Clouds 26 1012 94 10000 1 50 08:39 20.04.2020
4432 Clouds 26 1012 94 10000 1 50 08:18 20.04.2020
4433 Clouds 26 1012 94 10000 1.5 70 07:51 20.04.2020
4434 Clouds 26 1012 94 10000 1.5 70 07:28 20.04.2020
4435 Clouds 26 1012 94 10000 1 70 06:38 20.04.2020
4436 Clouds 26 1012 94 10000 1 70 06:38 20.04.2020
4437 Clouds 26 1012 94 10000 1 70 06:19 20.04.2020
4438 Clouds 26 1013 94 10000 0.5 90 05:20 20.04.2020
4439 Rain 26 1013 83 10000 1.5 80 03:19 20.04.2020
4440 Clouds 27 1013 83 10000 1.5 60 02:36 20.04.2020
4441 Clouds 27 1012 78 10000 1.5 330 01:31 20.04.2020
4442 Clouds 28 1012 78 10000 2.6 290 00:47 20.04.2020
4443 Clouds 28 1012 78 10000 2.6 290 00:25 20.04.2020
4444 Clouds 28 1011 78 10000 3.6 280 23:41 19.04.2020
4445 Clouds 28 1011 78 10000 3.6 280 23:22 19.04.2020
4446 Clouds 29 1011 74 10000 4.1 260 22:59 19.04.2020
4447 Clouds 29 1011 74 10000 4.1 260 22:39 19.04.2020
4448 Clouds 29 1011 74 10000 4.1 260 22:20 19.04.2020
4449 Clouds 30 1012 70 10000 2.6 260 21:44 19.04.2020
4450 Clouds 30 1012 70 10000 2.6 260 21:25 19.04.2020
4451 Clouds 30 1013 70 10000 2.1 210 20:59 19.04.2020
4452 Clouds 30 1013 70 10000 2.1 210 20:41 19.04.2020
4453 Clouds 30 1013 70 10000 2.1 210 20:20 19.04.2020
4454 Clouds 29 1014 74 10000 1 210 19:57 19.04.2020
4455 Clouds 29 1014 74 10000 1 210 19:39 19.04.2020
4456 Clouds 29 1014 74 10000 1 210 19:21 19.04.2020
4457 Clouds 28 1015 74 10000 3.1 240 18:58 19.04.2020
4458 Clouds 28 1015 74 10000 3.1 240 18:39 19.04.2020
4459 Clouds 28 1015 74 10000 3.1 240 18:19 19.04.2020
4460 Clouds 28 1016 78 10000 3.1 250 17:56 19.04.2020
4461 Clouds 28 1016 78 10000 3.1 250 17:38 19.04.2020
4462 Clouds 28 1016 78 10000 3.1 250 17:19 19.04.2020
4463 Clouds 28 1016 78 10000 3.1 250 17:19 19.04.2020
4464 Clouds 28 1016 78 10000 2.6 280 16:54 19.04.2020
4465 Clouds 28 1016 78 10000 2.6 280 16:36 19.04.2020
4466 Clouds 26 1016 88 10000 1.5 320 16:18 19.04.2020
4467 Clouds 26 1016 88 10000 1.5 320 15:41 19.04.2020
4468 Clouds 25 1015 94 10000 2.6 250 15:19 19.04.2020
4469 Clouds 25 1015 94 10000 2.6 250 14:39 19.04.2020
4470 Clouds 25 1015 94 10000 2.6 250 14:21 19.04.2020
4471 Clouds 24 1014 94 10000 2.1 230 13:58 19.04.2020
4472 Clouds 24 1014 94 10000 2.1 230 13:37 19.04.2020
4473 Clouds 24 1014 94 10000 2.1 260 13:18 19.04.2020
4474 Clouds 24 1014 94 10000 2.1 260 12:46 19.04.2020
4475 Clouds 24 1014 94 10000 2.1 260 12:24 19.04.2020
4476 Clouds 24 1013 88 10000 2.1 300 11:55 19.04.2020
4477 Clouds 24 1013 88 10000 2.1 300 11:37 19.04.2020
4478 Clouds 24 1013 94 10000 1.5 310 11:18 19.04.2020
4479 Clouds 24 1013 94 10000 1.5 310 10:41 19.04.2020
4480 Clouds 24 1013 94 10000 1.5 310 10:21 19.04.2020
4481 Clouds 24 1013 88 10000 0.94 316 09:59 19.04.2020
4482 Clouds 24 1013 88 10000 0.69 256 09:41 19.04.2020
4483 Clouds 24 1013 88 10000 0.69 256 09:41 19.04.2020
4484 Rain 24 1013 88 10000 0.8 298 09:19 19.04.2020
4485 Rain 24 1014 94 10000 1 10 08:40 19.04.2020
4486 Rain 24 1014 94 10000 1 10 08:21 19.04.2020
4487 Rain 24 1014 94 10000 1.5 20 07:55 19.04.2020
4488 Rain 24 1014 94 10000 1.5 20 07:37 19.04.2020
4489 Rain 24 1014 94 10000 2.1 10 07:18 19.04.2020
4490 Rain 24 1014 94 10000 2.1 10 06:24 19.04.2020
4491 Rain 24 1015 88 10000 2.6 310 05:35 19.04.2020
4492 Rain 25 1014 94 10000 2.6 330 03:54 19.04.2020
4493 Clouds 25 1014 88 10000 2.1 340 02:49 19.04.2020
4494 Clouds 25 1013 88 10000 1.5 360 02:18 19.04.2020
4495 Clouds 25 1013 88 10000 1.5 360 01:22 19.04.2020
4496 Clouds 26 1012 83 10000 2.6 320 00:41 19.04.2020
4497 Clouds 26 1012 83 10000 2.6 320 00:41 19.04.2020
4498 Clouds 26 1012 83 10000 2.6 320 00:20 19.04.2020
4499 Clouds 26 1012 83 10000 3.1 320 23:43 18.04.2020
4500 Clouds 26 1012 83 10000 3.1 320 23:20 18.04.2020
4501 Clouds 26 1012 83 10000 3.1 320 22:55 18.04.2020
4502 Clouds 26 1012 83 10000 3.6 310 22:37 18.04.2020
4503 Clouds 26 1012 83 10000 3.1 360 22:18 18.04.2020
4504 Clouds 26 1012 83 10000 3.1 360 21:42 18.04.2020
4505 Clouds 26 1012 83 10000 3.1 360 21:22 18.04.2020
4506 Clouds 26 1013 83 10000 3.1 340 20:59 18.04.2020
4507 Clouds 26 1013 83 10000 3.1 340 20:40 18.04.2020
4508 Clouds 26 1013 83 10000 3.1 340 20:21 18.04.2020
4509 Clouds 25 1014 83 10000 2.1 360 19:43 18.04.2020
4510 Clouds 25 1014 83 10000 2.1 360 19:25 18.04.2020
4511 Clouds 26 1015 88 10000 2.6 10 18:40 18.04.2020
4512 Clouds 26 1015 88 10000 2.6 10 18:20 18.04.2020
4513 Clouds 26 1016 88 10000 3.6 10 17:59 18.04.2020
4514 Clouds 26 1016 88 10000 3.6 10 17:40 18.04.2020
4515 Clouds 26 1016 88 10000 3.6 10 17:20 18.04.2020
4516 Clouds 26 1017 88 10000 3.6 30 16:43 18.04.2020
4517 Clouds 26 1017 88 10000 3.6 30 16:23 18.04.2020
4518 Clouds 26 1016 88 10000 3.1 20 15:58 18.04.2020
4519 Clouds 26 1016 88 10000 1.5 40 15:38 18.04.2020
4520 Clouds 26 1016 88 10000 1.5 40 15:19 18.04.2020
4521 Clouds 25 1015 94 10000 1.5 60 14:44 18.04.2020
4522 Clouds 25 1015 94 10000 1.5 60 14:24 18.04.2020
4523 Rain 24 1014 100 10000 1.5 40 13:44 18.04.2020
4524 Rain 24 1014 100 10000 1.5 40 13:23 18.04.2020
4525 Rain 24 1014 94 10000 3.1 350 12:55 18.04.2020
4526 Rain 24 1014 94 10000 3.1 350 12:36 18.04.2020
4527 Clouds 25 1013 94 10000 3.6 300 12:18 18.04.2020
4528 Clouds 25 1013 94 10000 3.6 300 11:42 18.04.2020
4529 Clouds 25 1013 94 10000 3.6 300 11:22 18.04.2020
4530 Clouds 24 1013 94 10000 1.5 120 10:57 18.04.2020
4531 Clouds 24 1013 94 10000 1.5 120 10:37 18.04.2020
4532 Clouds 24 1013 94 10000 1 150 10:18 18.04.2020
4533 Clouds 24 1013 94 10000 1 150 09:41 18.04.2020
4534 Clouds 24 1013 94 10000 1 150 09:41 18.04.2020
4535 Clouds 24 1013 94 10000 1 150 09:23 18.04.2020
4536 Clouds 24 1014 94 10000 1 180 08:43 18.04.2020
4537 Clouds 24 1014 94 10000 1 180 08:24 18.04.2020
4538 Clouds 25 1014 88 10000 1.5 200 07:52 18.04.2020
4539 Clouds 25 1014 88 10000 1.5 200 07:33 18.04.2020
4540 Clouds 26 1015 88 10000 1.5 220 06:55 18.04.2020
4541 Clouds 26 1015 88 10000 1.5 220 06:19 18.04.2020
4542 Clouds 26 1015 83 10000 1.5 240 05:35 18.04.2020
4543 Clouds 25 1015 83 10000 1.5 20 04:46 18.04.2020
4544 Clouds 25 1015 83 10000 1.5 20 04:24 18.04.2020
4545 Thunderstorm 26 1013 83 10000 1 50 02:45 18.04.2020
4546 Thunderstorm 26 1013 83 10000 1 50 02:21 18.04.2020
4547 Thunderstorm 26 1013 83 10000 1 50 02:21 18.04.2020
4548 Clouds 26 1012 83 10000 2.6 20 01:51 18.04.2020
4549 Clouds 26 1012 83 10000 2.6 20 01:31 18.04.2020
4550 Rain 26 1011 78 10000 2.6 360 00:40 18.04.2020
4551 Rain 26 1011 78 10000 2.6 360 00:20 18.04.2020
4552 Clouds 27 1010 78 10000 2.6 350 23:55 17.04.2020
4553 Clouds 27 1010 78 10000 2.6 350 23:36 17.04.2020
4554 Clouds 26 1011 78 10000 3.6 360 23:18 17.04.2020
4555 Clouds 26 1011 78 10000 3.6 360 22:41 17.04.2020
4556 Clouds 26 1011 78 10000 3.6 360 22:21 17.04.2020
4557 Rain 27 1011 78 10000 2.6 300 21:59 17.04.2020
4558 Rain 27 1011 78 10000 2.6 300 21:40 17.04.2020
4559 Rain 27 1011 78 10000 2.6 300 21:20 17.04.2020
4560 Rain 27 1011 78 10000 2.6 300 21:20 17.04.2020
4561 Rain 29 1012 70 10000 1.5 190 20:56 17.04.2020
4562 Rain 29 1012 70 10000 1.5 190 20:37 17.04.2020
4563 Rain 29 1012 70 10000 1.5 190 20:18 17.04.2020
4564 Rain 29 1013 79 10000 1.5 170 19:55 17.04.2020
4565 Rain 29 1013 79 10000 1.5 170 19:37 17.04.2020
4566 Rain 29 1013 79 10000 1.5 170 19:18 17.04.2020
4567 Rain 29 1015 79 10000 2.6 200 18:40 17.04.2020
4568 Rain 29 1015 79 10000 2.6 200 18:21 17.04.2020
4569 Clouds 29 1016 79 10000 2.1 220 17:38 17.04.2020
4570 Clouds 29 1016 79 10000 2.1 220 17:20 17.04.2020
4571 Clouds 29 1016 79 10000 2.1 190 16:59 17.04.2020
4572 Clouds 29 1016 79 10000 2.1 190 16:41 17.04.2020
4573 Clouds 29 1016 79 10000 2.1 190 16:21 17.04.2020
4574 Clouds 28 1016 78 10000 1 70 15:39 17.04.2020
4575 Clouds 28 1016 78 10000 1 70 15:21 17.04.2020
4576 Clouds 27 1016 88 10000 1 180 14:54 17.04.2020
4577 Clouds 27 1016 88 10000 1 180 14:36 17.04.2020
4578 Clouds 25 1015 100 10000 0.5 310 14:18 17.04.2020
4579 Clouds 25 1015 100 10000 0.5 310 13:39 17.04.2020
4580 Clouds 25 1015 100 10000 0.5 310 13:20 17.04.2020
4581 Clouds 25 1014 94 10000 1 10 12:48 17.04.2020
4582 Clouds 25 1014 94 10000 1 10 12:27 17.04.2020
4583 Clouds 24 1012 100 10000 1.5 70 11:59 17.04.2020
4584 Clouds 24 1012 100 10000 1.5 70 11:39 17.04.2020
4585 Clouds 24 1012 100 10000 1 90 11:19 17.04.2020
4586 Clouds 24 1012 100 10000 1 90 10:40 17.04.2020
4587 Clouds 24 1012 100 10000 1 90 10:20 17.04.2020
4588 Clouds 24 1012 100 10000 1 70 09:55 17.04.2020
4589 Clouds 24 1012 100 10000 1 70 09:36 17.04.2020
4590 Rain 23 1013 93 0 0.3 54 09:18 17.04.2020
4591 Rain 23 1013 93 0 0.3 54 08:46 17.04.2020
4592 Rain 25 1014 94 10000 1.5 90 08:26 17.04.2020
4593 Rain 25 1014 94 10000 1.5 90 07:56 17.04.2020
4594 Rain 25 1014 94 10000 1.5 90 07:38 17.04.2020
4595 Rain 25 1014 94 10000 1 90 07:18 17.04.2020
4596 Rain 25 1014 94 10000 1 90 06:40 17.04.2020
4597 Clouds 25 1015 94 10000 0.5 90 05:49 17.04.2020
4598 Rain 26 1014 88 10000 0.5 330 03:22 17.04.2020
4599 Clouds 25 1014 88 10000 1.5 240 02:49 17.04.2020
4600 Clouds 25 1013 100 10000 3.1 240 01:30 17.04.2020
4601 Clouds 25 1013 100 10000 3.1 240 00:59 17.04.2020
4602 Rain 25 1012 83 10000 1 310 00:20 17.04.2020
4603 Rain 25 1012 83 10000 1 310 23:46 16.04.2020
4604 Rain 25 1012 83 10000 1 310 23:24 16.04.2020
4605 Rain 25 1012 83 10000 2.1 300 22:59 16.04.2020
4606 Rain 25 1012 83 10000 2.1 300 22:59 16.04.2020
4607 Rain 25 1012 83 10000 2.1 300 22:59 16.04.2020
4608 Thunderstorm 25 1012 83 10000 2.6 250 22:39 16.04.2020
4609 Thunderstorm 25 1012 83 10000 2.6 250 22:20 16.04.2020
4610 Rain 27 1011 74 10000 2.6 240 21:57 16.04.2020
4611 Rain 27 1011 74 10000 2.6 240 21:57 16.04.2020
4612 Rain 28 1011 74 10000 2.6 240 21:38 16.04.2020
4613 Rain 28 1011 74 10000 2.6 240 21:18 16.04.2020
4614 Rain 30 1012 66 10000 1.5 310 20:41 16.04.2020
4615 Rain 30 1012 66 10000 1.5 310 20:22 16.04.2020
4616 Clouds 27 1014 70 10000 3.1 300 19:57 16.04.2020
4617 Clouds 27 1014 70 10000 3.1 300 19:38 16.04.2020
4618 Clouds 27 1014 70 10000 3.1 300 19:19 16.04.2020
4619 Clouds 27 1014 70 10000 3.1 300 19:19 16.04.2020
4620 Clouds 28 1014 70 10000 1 100 18:46 16.04.2020
4621 Clouds 28 1014 70 10000 1 100 18:27 16.04.2020
4622 Clouds 29 1016 74 10000 1 110 17:59 16.04.2020
4623 Clouds 30 1016 74 10000 1 110 17:41 16.04.2020
4624 Clouds 30 1016 74 10000 1 110 17:21 16.04.2020
4625 Clouds 29 1016 79 10000 1 100 16:45 16.04.2020
4626 Clouds 29 1016 79 10000 1 100 16:26 16.04.2020
4627 Clouds 28 1016 83 10000 1 80 15:59 16.04.2020
4628 Clouds 28 1016 83 10000 1 80 15:39 16.04.2020
4629 Clouds 28 1016 83 10000 1 80 15:19 16.04.2020
4630 Clouds 28 1016 83 10000 1 80 15:19 16.04.2020
4631 Clouds 26 1015 94 10000 1 70 14:56 16.04.2020
4632 Clouds 26 1015 94 10000 1 70 14:37 16.04.2020
4633 Clouds 26 1015 94 10000 1 70 14:37 16.04.2020
4634 Clouds 26 1015 94 10000 1 70 14:18 16.04.2020
4635 Clouds 25 1014 94 10000 0.5 70 13:42 16.04.2020
4636 Clouds 25 1014 94 10000 0.5 70 13:23 16.04.2020
4637 Clouds 25 1014 94 10000 0.5 70 12:58 16.04.2020
4638 Clouds 25 1014 94 10000 1 170 12:39 16.04.2020
4639 Clouds 25 1014 94 10000 1 170 12:39 16.04.2020
4640 Clouds 25 1014 94 10000 1 170 12:20 16.04.2020
4641 Clouds 25 1014 94 10000 1 170 12:20 16.04.2020
4642 Clouds 25 1012 94 10000 1 110 11:59 16.04.2020
4643 Clouds 25 1012 94 10000 1 110 11:41 16.04.2020
4644 Clouds 25 1012 94 10000 1 110 11:21 16.04.2020
4645 Clouds 25 1011 94 10000 1 100 10:55 16.04.2020
4646 Clouds 25 1011 94 10000 1 100 10:37 16.04.2020
4647 Clouds 25 1011 94 10000 1 100 10:18 16.04.2020
4648 Clouds 25 1011 94 10000 1.5 110 09:39 16.04.2020
4649 Clouds 25 1011 94 10000 1.5 110 09:21 16.04.2020
4650 Clouds 25 1012 94 10000 1 140 08:59 16.04.2020
4651 Clouds 25 1012 94 10000 1 140 08:41 16.04.2020
4652 Clouds 25 1012 94 10000 1 140 08:21 16.04.2020
4653 Clouds 25 1012 94 10000 1.33 87 07:44 16.04.2020
4654 Clouds 25 1012 94 10000 1.33 96 07:24 16.04.2020
4655 Clouds 25 1013 100 10000 1.33 87 06:42 16.04.2020
4656 Clouds 25 1013 100 10000 1.55 92 06:24 16.04.2020
4657 Clouds 25 1013 100 10000 1 70 04:54 16.04.2020
4658 Clouds 26 1013 94 10000 1.55 92 03:47 16.04.2020
4659 Clouds 26 1013 94 10000 2.01 90 03:22 16.04.2020
4660 Clouds 26 1012 88 10000 0.5 40 02:43 16.04.2020
4661 Clouds 27 1011 94 10000 1 160 01:59 16.04.2020
4662 Rain 27 1011 94 10000 1 170 00:59 16.04.2020
4663 Rain 27 1011 94 10000 1 170 00:26 16.04.2020
4664 Clouds 28 1010 88 10000 2.1 160 23:57 15.04.2020
4665 Clouds 28 1010 88 10000 2.1 160 23:38 15.04.2020
4666 Clouds 28 1010 88 10000 2.1 160 23:20 15.04.2020
4667 Clouds 29 1010 78 10000 0.5 50 22:40 15.04.2020
4668 Clouds 29 1010 78 10000 0.5 50 22:21 15.04.2020
4669 Clouds 29 1011 74 10000 1 160 21:58 15.04.2020
4670 Clouds 29 1011 74 10000 1 160 21:40 15.04.2020
4671 Clouds 29 1011 74 10000 1 160 21:22 15.04.2020
4672 Clouds 29 1011 70 10000 1.5 130 20:57 15.04.2020
4673 Clouds 29 1011 70 10000 1.5 130 20:39 15.04.2020
4674 Clouds 29 1011 70 10000 1.5 130 20:20 15.04.2020
4675 Clouds 29 1012 79 10000 1 120 19:42 15.04.2020
4676 Clouds 29 1012 79 10000 1 120 19:20 15.04.2020
4677 Clouds 29 1012 62 10000 3.1 60 18:54 15.04.2020
4678 Clouds 28 1013 83 10000 1 120 18:36 15.04.2020
4679 Drizzle 28 1014 83 10000 1.5 80 18:18 15.04.2020
4680 Drizzle 28 1014 83 10000 1.5 80 17:40 15.04.2020
4681 Drizzle 28 1014 83 10000 1.5 80 17:21 15.04.2020
4682 Clouds 27 1014 88 10000 1.5 60 16:57 15.04.2020
4683 Clouds 27 1014 88 10000 1 90 16:38 15.04.2020
4684 Clouds 27 1014 88 10000 1 90 16:38 15.04.2020
4685 Clouds 27 1014 88 10000 1 90 16:20 15.04.2020
4686 Clouds 26 1014 94 10000 1 110 15:58 15.04.2020
4687 Clouds 26 1014 94 10000 1 110 15:39 15.04.2020
4688 Clouds 26 1014 94 10000 1 110 15:19 15.04.2020
4689 Clouds 25 1013 88 10000 1 220 14:58 15.04.2020
4690 Clouds 25 1013 88 10000 1 220 14:39 15.04.2020
4691 Clouds 25 1013 88 10000 1 220 14:39 15.04.2020
4692 Clouds 25 1013 88 10000 1 220 14:21 15.04.2020
4693 Clouds 25 1012 94 10000 2.51 84 13:58 15.04.2020
4694 Clouds 25 1012 94 10000 2.51 84 13:38 15.04.2020
4695 Clouds 25 1012 94 10000 2.51 84 13:20 15.04.2020
4696 Clouds 25 1012 94 10000 2.51 84 12:54 15.04.2020
4697 Clouds 24 1012 94 10000 2.51 84 12:36 15.04.2020
4698 Clouds 23 1011 94 10000 2.1 50 12:18 15.04.2020
4699 Clouds 23 1011 94 10000 2.1 50 11:42 15.04.2020
4700 Clouds 23 1011 94 10000 2.1 50 11:24 15.04.2020
4701 Clouds 23 1010 94 10000 2.6 20 10:58 15.04.2020
4702 Clouds 23 1010 94 10000 2.6 20 10:36 15.04.2020
4703 Clouds 23 1010 94 10000 2.6 20 10:18 15.04.2020
4704 Clouds 24 1010 94 10000 2.6 30 09:55 15.04.2020
4705 Clouds 24 1010 94 10000 2.6 30 09:36 15.04.2020
4706 Clouds 24 1010 94 10000 2.6 30 09:18 15.04.2020
4707 Clouds 24 1010 94 10000 3.1 40 08:41 15.04.2020
4708 Clouds 24 1010 94 10000 3.1 40 08:19 15.04.2020
4709 Clouds 25 1011 88 10000 3.6 20 07:54 15.04.2020
4710 Clouds 25 1011 88 10000 3.6 20 07:33 15.04.2020
4711 Clouds 25 1011 88 10000 3.1 20 06:34 15.04.2020
4712 Clouds 26 1012 83 10000 3.1 30 05:51 15.04.2020
4713 Clouds 26 1012 83 10000 3.1 30 05:19 15.04.2020
4714 Clouds 26 1011 88 10000 3.1 50 04:44 15.04.2020
4715 Clouds 26 1011 88 10000 1 30 03:34 15.04.2020
4716 Clouds 26 1010 100 10000 1 150 02:57 15.04.2020
4717 Clouds 27 1010 88 10000 0.5 150 01:57 15.04.2020
4718 Clouds 27 1010 88 10000 0.5 150 01:39 15.04.2020
4719 Clouds 28 1009 78 10000 1 240 01:18 15.04.2020
4720 Clouds 28 1009 78 10000 1 240 00:36 15.04.2020
4721 Clouds 29 1009 79 10000 1 150 00:18 15.04.2020
4722 Clouds 29 1009 79 10000 1 150 23:54 14.04.2020
4723 Clouds 29 1009 79 10000 1 150 23:36 14.04.2020
4724 Clouds 29 1009 79 10000 1 150 23:18 14.04.2020
4725 Clouds 30 1009 70 10000 1.5 200 22:54 14.04.2020
4726 Clouds 30 1009 70 10000 1.5 200 22:36 14.04.2020
4727 Clouds 30 1009 70 10000 1.5 200 22:18 14.04.2020
4728 Clouds 29 1010 74 10000 1.5 60 21:54 14.04.2020
4729 Clouds 29 1010 74 10000 1.5 60 21:36 14.04.2020
4730 Clouds 29 1010 74 10000 1.5 60 21:18 14.04.2020
4731 Clouds 29 1010 74 10000 2.6 80 20:40 14.04.2020
4732 Clouds 29 1010 74 10000 2.6 80 20:22 14.04.2020
4733 Clouds 28 1011 78 10000 1.5 70 19:57 14.04.2020
4734 Clouds 28 1011 78 10000 1.5 70 19:38 14.04.2020
4735 Clouds 28 1011 78 10000 1.5 70 19:38 14.04.2020
4736 Clouds 28 1011 78 10000 1.5 70 19:20 14.04.2020
4737 Clouds 29 1013 70 10000 1.5 80 18:41 14.04.2020
4738 Clouds 29 1013 70 10000 1.5 80 18:22 14.04.2020
4739 Clouds 29 1013 70 10000 1.5 80 18:22 14.04.2020
4740 Clouds 27 1014 78 10000 2.1 80 17:59 14.04.2020
4741 Clouds 27 1014 78 10000 2.1 80 17:39 14.04.2020
4742 Clouds 27 1014 78 10000 2.1 80 17:21 14.04.2020
4743 Clouds 27 1014 78 10000 1.5 80 16:58 14.04.2020
4744 Clouds 27 1014 78 10000 1.5 80 16:39 14.04.2020
4745 Clouds 27 1014 78 10000 1.5 80 16:21 14.04.2020
4746 Clouds 26 1014 83 10000 2.1 40 15:57 14.04.2020
4747 Clouds 26 1014 83 10000 2.1 40 15:38 14.04.2020
4748 Clouds 26 1014 83 10000 2.1 40 15:19 14.04.2020
4749 Clouds 24 1013 94 10000 1.5 40 14:57 14.04.2020
4750 Clouds 24 1013 94 10000 1.5 40 14:39 14.04.2020
4751 Clouds 24 1013 94 10000 1.5 40 14:21 14.04.2020
4752 Clouds 23 1013 94 10000 1.5 10 13:43 14.04.2020
4753 Clouds 23 1013 94 10000 1.5 10 13:24 14.04.2020
4754 Rain 23 1012 88 10000 1 360 12:56 14.04.2020
4755 Rain 23 1012 88 10000 1 360 12:38 14.04.2020
4756 Rain 23 1012 88 10000 1 360 12:19 14.04.2020
4757 Clouds 23 1011 100 10000 1.5 80 11:41 14.04.2020
4758 Clouds 23 1011 100 10000 1.5 80 11:41 14.04.2020
4759 Clouds 23 1011 100 10000 1.5 80 11:22 14.04.2020
4760 Clouds 23 1011 100 10000 1.5 70 10:56 14.04.2020
4761 Clouds 23 1011 100 10000 1.5 70 10:38 14.04.2020
4762 Clouds 23 1011 100 10000 1.5 70 10:19 14.04.2020
4763 Clouds 24 1011 94 10000 1.5 40 09:42 14.04.2020
4764 Rain 23 1011 96 0 1.2 26 09:22 14.04.2020
4765 Clouds 24 1012 94 10000 2.1 40 08:56 14.04.2020
4766 Clouds 24 1012 94 10000 2.1 40 08:36 14.04.2020
4767 Rain 23 1011 96 0 1.2 26 08:36 14.04.2020
4768 Clouds 24 1012 94 10000 2.1 40 08:18 14.04.2020
4769 Rain 23 1011 96 0 1.2 26 07:49 14.04.2020
4770 Clouds 25 1012 94 10000 1.5 20 07:26 14.04.2020
4771 Clouds 25 1012 94 10000 1.5 40 06:45 14.04.2020
4772 Clouds 25 1012 94 10000 1.5 40 06:45 14.04.2020
4773 Clouds 25 1013 94 10000 1 50 05:43 14.04.2020
4774 Clouds 25 1013 94 10000 1 50 05:43 14.04.2020
4775 Clouds 25 1013 88 10000 2.6 40 03:28 14.04.2020
4776 Clouds 25 1012 94 10000 3.1 30 02:34 14.04.2020
4777 Clouds 25 1012 94 10000 3.1 30 01:27 14.04.2020
4778 Clouds 26 1011 88 10000 4.1 10 00:50 14.04.2020
4779 Clouds 26 1011 88 10000 4.1 10 00:24 14.04.2020
4780 Clouds 26 1011 88 10000 4.6 20 23:59 13.04.2020
4781 Clouds 26 1011 88 10000 4.6 20 23:37 13.04.2020
4782 Clouds 26 1011 88 10000 4.6 20 23:19 13.04.2020
4783 Rain 25 1011 94 10000 4.6 10 22:42 13.04.2020
4784 Rain 25 1011 94 10000 4.6 10 22:23 13.04.2020
4785 Rain 25 1011 94 6000 4.6 10 21:58 13.04.2020
4786 Rain 25 1011 94 6000 4.6 10 21:40 13.04.2020
4787 Rain 25 1011 94 6000 4.6 10 21:21 13.04.2020
4788 Rain 25 1011 94 3000 4.1 360 20:57 13.04.2020
4789 Rain 25 1011 94 3000 4.1 360 20:38 13.04.2020
4790 Rain 25 1011 94 3000 4.1 360 20:19 13.04.2020
4791 Rain 25 1011 94 3000 4.1 360 20:19 13.04.2020
4792 Rain 26 1012 94 2000 5.1 350 19:57 13.04.2020
4793 Rain 28 1012 79 10000 1 170 19:37 13.04.2020
4794 Clouds 29 1014 74 10000 1.5 360 19:18 13.04.2020
4795 Clouds 29 1014 74 10000 1.5 360 18:55 13.04.2020
4796 Clouds 29 1014 74 10000 1.5 360 18:36 13.04.2020
4797 Clouds 28 1015 74 10000 2.6 30 18:18 13.04.2020
4798 Clouds 28 1015 74 10000 2.6 30 17:55 13.04.2020
4799 Clouds 28 1015 74 10000 2.6 30 17:36 13.04.2020
4800 Clouds 28 1015 74 10000 2.6 30 17:36 13.04.2020
4801 Clouds 28 1015 74 10000 2.6 30 17:18 13.04.2020
4802 Clouds 29 1015 70 10000 2.1 60 16:56 13.04.2020
4803 Clouds 29 1015 70 10000 2.1 60 16:37 13.04.2020
4804 Clouds 29 1015 70 10000 2.1 60 16:18 13.04.2020
4805 Clouds 28 1015 74 10000 2.1 20 15:45 13.04.2020
4806 Clouds 28 1015 74 10000 2.1 20 15:27 13.04.2020
4807 Clouds 26 1014 83 10000 1.5 350 14:57 13.04.2020
4808 Clouds 26 1014 83 10000 1.5 350 14:39 13.04.2020
4809 Clouds 26 1014 83 10000 1.5 350 14:21 13.04.2020
4810 Clouds 25 1014 88 10000 1 310 13:56 13.04.2020
4811 Clouds 25 1014 88 10000 1 310 13:38 13.04.2020
4812 Clouds 25 1014 88 10000 1 310 13:19 13.04.2020
4813 Clouds 25 1014 88 10000 1 310 12:57 13.04.2020
4814 Clouds 25 1014 88 10000 1 310 12:57 13.04.2020
4815 Clouds 25 1013 94 10000 1 340 12:39 13.04.2020
4816 Clouds 25 1013 94 10000 1 340 12:19 13.04.2020
4817 Clouds 25 1013 94 10000 1 340 12:19 13.04.2020
4818 Clouds 25 1013 88 10000 3.1 310 11:44 13.04.2020
4819 Clouds 25 1013 88 10000 3.1 310 11:19 13.04.2020
4820 Clouds 25 1013 88 10000 3.1 310 11:19 13.04.2020
4821 Clouds 25 1013 88 10000 2.1 320 10:56 13.04.2020
4822 Clouds 25 1013 88 10000 2.1 320 10:38 13.04.2020
4823 Clouds 25 1013 88 10000 2.1 320 10:20 13.04.2020
4824 Rain 25 1013 88 10000 2.6 50 09:56 13.04.2020
4825 Rain 25 1013 88 10000 2.6 50 09:38 13.04.2020
4826 Rain 25 1013 88 10000 2.6 50 09:19 13.04.2020
4827 Rain 25 1013 88 10000 2.1 40 08:44 13.04.2020
4828 Rain 25 1013 88 10000 2.1 40 08:26 13.04.2020
4829 Rain 25 1014 88 10000 1.5 20 07:44 13.04.2020
4830 Rain 25 1014 88 10000 1.5 20 07:44 13.04.2020
4831 Rain 25 1014 88 10000 1.5 20 07:25 13.04.2020
4832 Rain 25 1014 83 10000 2.1 10 06:48 13.04.2020
4833 Rain 25 1014 83 10000 2.1 10 06:29 13.04.2020
4834 Rain 25 1014 83 10000 2.6 340 05:40 13.04.2020
4835 Rain 25 1014 83 10000 2.6 340 05:18 13.04.2020
4836 Rain 25 1014 83 10000 3.1 350 04:28 13.04.2020
4837 Clouds 26 1014 83 10000 2.1 10 03:50 13.04.2020
4838 Clouds 26 1014 83 10000 2.1 10 03:31 13.04.2020
4839 Clouds 25 1013 94 10000 2.1 30 02:39 13.04.2020
4840 Clouds 25 1012 88 10000 3.1 200 01:45 13.04.2020
4841 Clouds 25 1012 88 10000 3.1 200 01:25 13.04.2020
4842 Rain 25 1011 83 10000 4.6 200 00:44 13.04.2020
4843 Rain 25 1011 83 10000 4.6 200 00:23 13.04.2020
4844 Rain 28 1011 74 10000 5.1 50 23:49 12.04.2020
4845 Rain 28 1011 74 10000 5.1 50 23:26 12.04.2020
4846 Rain 32 1010 66 10000 1 100 22:59 12.04.2020
4847 Rain 32 1010 66 10000 1 100 22:38 12.04.2020
4848 Rain 32 1010 66 10000 1 100 22:19 12.04.2020
4849 Clouds 32 1010 59 10000 1.5 180 21:55 12.04.2020
4850 Clouds 32 1010 59 10000 1.5 180 21:36 12.04.2020
4851 Clouds 32 1010 59 10000 1.5 180 21:18 12.04.2020
4852 Clouds 31 1020 62 10000 2.1 180 20:41 12.04.2020
4853 Clouds 31 1020 62 10000 2.1 180 20:22 12.04.2020
4854 Clouds 31 1011 66 10000 2.6 160 19:57 12.04.2020
4855 Clouds 30 1013 70 10000 2.1 160 19:38 12.04.2020
4856 Clouds 30 1013 70 10000 2.1 160 19:18 12.04.2020
4857 Clouds 30 1014 74 10000 2.1 170 18:41 12.04.2020
4858 Clouds 29 1015 79 10000 2.1 170 18:23 12.04.2020
4859 Clouds 29 1015 79 10000 2.1 170 17:58 12.04.2020
4860 Clouds 29 1015 79 10000 2.1 170 17:40 12.04.2020
4861 Clouds 29 1015 79 10000 2.1 170 17:21 12.04.2020
4862 Clouds 28 1015 83 10000 1.5 170 16:58 12.04.2020
4863 Clouds 28 1015 83 10000 1.5 170 16:39 12.04.2020
4864 Clouds 28 1015 83 10000 1.5 170 16:20 12.04.2020
4865 Clouds 27 1015 88 10000 1.5 160 15:47 12.04.2020
4866 Clouds 27 1015 88 10000 1.5 160 15:29 12.04.2020
4867 Clouds 26 1015 94 10000 1.5 170 14:54 12.04.2020
4868 Clouds 26 1015 94 10000 1.5 170 14:36 12.04.2020
4869 Clouds 26 1015 94 10000 1.5 170 14:18 12.04.2020
4870 Clouds 25 1014 94 10000 1 160 13:41 12.04.2020
4871 Clouds 25 1014 94 10000 1 160 13:22 12.04.2020
4872 Clouds 24 1013 94 10000 1 190 12:48 12.04.2020
4873 Clouds 24 1013 94 10000 1 190 12:23 12.04.2020
4874 Clouds 24 1013 94 10000 1 190 12:23 12.04.2020
4875 Clouds 23 1012 94 10000 1.5 120 11:59 12.04.2020
4876 Clouds 23 1012 94 10000 1.5 120 11:40 12.04.2020
4877 Clouds 23 1012 94 10000 1.5 120 11:21 12.04.2020
4878 Clouds 23 1012 94 10000 1.5 120 11:21 12.04.2020
4879 Clouds 23 1011 100 10000 1 160 10:58 12.04.2020
4880 Clouds 23 1011 100 10000 1 160 10:39 12.04.2020
4881 Clouds 23 1011 100 10000 1 160 10:20 12.04.2020
4882 Clouds 23 1011 100 10000 1 120 09:59 12.04.2020
4883 Clouds 23 1011 100 10000 1 120 09:39 12.04.2020
4884 Clouds 23 1011 100 10000 1 120 09:20 12.04.2020
4885 Clouds 24 1012 94 10000 1 130 08:51 12.04.2020
4886 Clouds 24 1012 94 10000 1 130 08:32 12.04.2020
4887 Clouds 24 1012 94 10000 1 130 08:32 12.04.2020
4888 Clouds 24 1012 94 10000 1 120 07:48 12.04.2020
4889 Clouds 24 1012 94 10000 1 120 07:20 12.04.2020
4890 Clouds 24 1013 100 10000 0.84 25 06:59 12.04.2020
4891 Clouds 24 1013 100 10000 0.84 25 06:31 12.04.2020
4892 Clouds 24 1013 100 10000 1 140 05:49 12.04.2020
4893 Clouds 24 1013 100 10000 1.5 20 04:53 12.04.2020
4894 Clouds 24 1012 100 10000 1.5 20 03:31 12.04.2020
4895 Clouds 25 1012 94 10000 2.1 20 02:49 12.04.2020
4896 Clouds 25 1012 94 10000 2.1 20 02:30 12.04.2020
4897 Clouds 25 1011 94 10000 1.5 20 01:26 12.04.2020
4898 Clouds 25 1011 94 10000 1.5 20 00:55 12.04.2020
4899 Clouds 25 1010 94 10000 1 40 00:37 12.04.2020
4900 Clouds 25 1010 94 10000 1 40 00:18 12.04.2020
4901 Clouds 25 1010 94 10000 1 40 00:18 12.04.2020
4902 Clouds 25 1010 94 10000 2.1 80 23:43 11.04.2020
4903 Clouds 25 1010 94 10000 2.1 80 23:23 11.04.2020
4904 Clouds 25 1010 100 10000 1 90 22:39 11.04.2020
4905 Clouds 25 1010 100 10000 1 90 22:21 11.04.2020
4906 Clouds 25 1011 100 10000 1.5 70 21:56 11.04.2020
4907 Clouds 25 1011 100 10000 1.5 70 21:37 11.04.2020
4908 Clouds 25 1011 100 10000 1.5 70 21:37 11.04.2020
4909 Clouds 25 1011 100 10000 1.5 70 21:18 11.04.2020
4910 Rain 24 1013 100 4000 2.1 40 20:56 11.04.2020
4911 Rain 24 1013 100 4000 2.1 40 20:38 11.04.2020
4912 Rain 24 1013 100 4000 2.1 40 20:38 11.04.2020
4913 Rain 24 1013 100 4000 2.1 40 20:19 11.04.2020
4914 Rain 24 1013 94 4000 3.1 50 19:57 11.04.2020
4915 Rain 24 1013 94 4000 3.1 50 19:38 11.04.2020
4916 Rain 24 1013 94 4000 3.1 50 19:18 11.04.2020
4917 Rain 24 1013 94 4000 3.1 50 19:18 11.04.2020
4918 Thunderstorm 24 1014 100 4000 3.1 60 18:55 11.04.2020
4919 Thunderstorm 24 1014 100 4000 3.1 60 18:37 11.04.2020
4920 Thunderstorm 24 1014 100 4000 3.1 60 18:37 11.04.2020
4921 Thunderstorm 24 1015 100 4000 3.1 70 18:18 11.04.2020
4922 Thunderstorm 24 1015 100 4000 3.1 70 17:58 11.04.2020
4923 Thunderstorm 24 1015 100 4000 3.1 70 17:38 11.04.2020
4924 Thunderstorm 24 1015 100 4000 3.1 70 17:19 11.04.2020
4925 Rain 27 1015 94 10000 1 110 16:42 11.04.2020
4926 Rain 27 1015 94 10000 1 110 16:21 11.04.2020
4927 Clouds 28 1014 79 10000 2.1 40 15:42 11.04.2020
4928 Clouds 28 1014 79 10000 2.1 40 15:22 11.04.2020
4929 Clouds 27 1013 94 10000 2.1 60 14:59 11.04.2020
4930 Clouds 27 1013 94 10000 2.1 60 14:40 11.04.2020
4931 Clouds 27 1013 94 10000 2.1 60 14:22 11.04.2020
4932 Clouds 26 1013 94 10000 1.5 40 13:46 11.04.2020
4933 Clouds 26 1013 94 10000 1.5 40 13:26 11.04.2020
4934 Clouds 25 1012 100 10000 0.5 50 12:59 11.04.2020
4935 Clouds 25 1012 100 10000 0.5 50 12:38 11.04.2020
4936 Clouds 25 1012 100 10000 0.5 50 12:18 11.04.2020
4937 Clouds 26 1011 94 10000 2.6 320 11:54 11.04.2020
4938 Clouds 26 1011 94 10000 2.6 320 11:36 11.04.2020
4939 Clouds 26 1011 94 10000 2.6 320 11:18 11.04.2020
4940 Clouds 26 1011 94 10000 1.5 330 10:41 11.04.2020
4941 Clouds 26 1011 94 10000 1.5 330 10:22 11.04.2020
4942 Clouds 26 1011 94 10000 1.5 330 10:21 11.04.2020
4943 Clouds 26 1011 88 10000 2.1 320 09:57 11.04.2020
4944 Clouds 26 1011 88 10000 2.1 320 09:39 11.04.2020
4945 Clouds 26 1011 88 10000 2.1 320 09:20 11.04.2020
4946 Clouds 26 1011 88 10000 1 30 08:45 11.04.2020
4947 Clouds 26 1011 88 10000 1 30 08:27 11.04.2020
4948 Clouds 26 1011 88 10000 1.5 10 07:49 11.04.2020
4949 Clouds 26 1011 88 10000 1.5 10 07:28 11.04.2020
4950 Clouds 27 1011 83 10000 1.5 10 06:47 11.04.2020
4951 Clouds 27 1012 83 10000 2.1 10 06:18 11.04.2020
4952 Clouds 27 1012 83 10000 3.1 360 04:35 11.04.2020
4953 Clouds 27 1012 83 10000 3.1 10 03:40 11.04.2020
4954 Clouds 29 1010 70 10000 1.5 60 01:55 11.04.2020
4955 Clouds 29 1010 70 10000 1.5 60 01:23 11.04.2020
4956 Clouds 29 1008 79 10000 1.5 80 00:44 11.04.2020
4957 Clouds 29 1008 79 10000 1.5 80 00:19 11.04.2020
4958 Clouds 30 1008 74 10000 1.5 80 23:57 10.04.2020
4959 Clouds 30 1008 74 10000 1.5 80 23:38 10.04.2020
4960 Clouds 30 1008 74 10000 1.5 80 23:18 10.04.2020
4961 Clouds 30 1008 74 10000 1.5 80 23:18 10.04.2020
4962 Clouds 32 1008 66 10000 2.1 160 22:43 10.04.2020
4963 Clouds 32 1008 66 10000 2.1 160 22:22 10.04.2020
4964 Clouds 32 1009 62 10000 1.5 120 21:58 10.04.2020
4965 Clouds 32 1009 62 10000 1.5 120 21:40 10.04.2020
4966 Clouds 32 1009 62 10000 1.5 120 21:20 10.04.2020
4967 Clouds 31 1010 70 10000 2.1 170 20:43 10.04.2020
4968 Clouds 31 1010 70 10000 2.1 170 20:23 10.04.2020
4969 Clouds 30 1012 74 10000 2.6 190 19:58 10.04.2020
4970 Clouds 30 1012 74 10000 2.6 190 19:40 10.04.2020
4971 Clouds 29 1013 79 10000 2.6 170 19:20 10.04.2020
4972 Clouds 29 1013 79 10000 2.6 170 18:58 10.04.2020
4973 Clouds 29 1013 79 10000 2.6 170 18:39 10.04.2020
4974 Clouds 29 1013 79 10000 2.6 170 18:21 10.04.2020
4975 Clouds 29 1014 79 10000 1.5 160 17:58 10.04.2020
4976 Clouds 29 1014 79 10000 1.5 160 17:58 10.04.2020
4977 Clouds 29 1014 79 10000 1.5 160 17:39 10.04.2020
4978 Clouds 29 1014 79 10000 1.5 160 17:20 10.04.2020
4979 Clouds 28 1014 83 10000 1.5 160 16:56 10.04.2020
4980 Clouds 28 1014 83 10000 1.5 160 16:38 10.04.2020
4981 Clouds 28 1014 83 10000 1.5 160 16:20 10.04.2020
4982 Clouds 27 1014 88 10000 1 200 15:56 10.04.2020
4983 Clouds 27 1014 88 10000 1 200 15:37 10.04.2020
4984 Clouds 27 1014 88 10000 1 200 15:37 10.04.2020
4985 Clouds 27 1014 88 10000 1 200 15:18 10.04.2020
4986 Clouds 26 1013 88 10000 1 190 14:56 10.04.2020
4987 Clouds 26 1013 88 10000 1 190 14:38 10.04.2020
4988 Clouds 26 1013 88 10000 1 190 14:38 10.04.2020
4989 Clouds 26 1013 88 10000 1 190 14:18 10.04.2020
4990 Clouds 25 1013 94 10000 1.23 124 13:43 10.04.2020
4991 Clouds 25 1013 94 10000 1.23 124 13:21 10.04.2020
4992 Clouds 25 1012 94 10000 1 210 12:43 10.04.2020
4993 Clouds 25 1012 94 10000 1 210 12:24 10.04.2020
4994 Clouds 24 1011 100 10000 1.5 200 11:57 10.04.2020
4995 Clouds 24 1011 100 10000 1.5 200 11:38 10.04.2020
4996 Clouds 24 1011 100 10000 1.5 200 11:20 10.04.2020
4997 Clouds 24 1011 100 10000 0.67 153 10:46 10.04.2020
4998 Clouds 24 1011 100 10000 0.67 153 10:23 10.04.2020
4999 Clouds 24 1011 100 10000 0.5 150 09:57 10.04.2020
5000 Clouds 24 1011 100 10000 0.5 150 09:38 10.04.2020
5001 Clouds 24 1011 100 10000 0.5 150 09:20 10.04.2020
5002 Clouds 25 1012 94 10000 1 180 08:43 10.04.2020
5003 Clouds 25 1012 94 10000 1 180 08:24 10.04.2020
5004 Clouds 25 1012 94 10000 0.5 150 07:46 10.04.2020
5005 Clouds 25 1012 94 10000 0.5 150 07:24 10.04.2020
5006 Clouds 25 1012 94 10000 0.55 98 06:49 10.04.2020
5007 Clouds 25 1012 94 10000 0.41 321 06:29 10.04.2020
5008 Clouds 25 1012 100 10000 1.5 190 05:42 10.04.2020
5009 Clouds 25 1012 100 10000 1 200 04:59 10.04.2020
5010 Clouds 25 1011 94 10000 0.5 240 03:51 10.04.2020
5011 Clouds 25 1011 94 10000 0.5 240 03:32 10.04.2020
5012 Clouds 25 1010 100 10000 1 340 02:49 10.04.2020
5013 Clouds 25 1010 100 10000 1 340 02:30 10.04.2020
5014 Clouds 25 1010 94 10000 1 40 01:30 10.04.2020
5015 Clouds 25 1010 94 10000 1 40 00:52 10.04.2020
5016 Clouds 26 1010 88 10000 1 70 00:25 10.04.2020
5017 Clouds 26 1010 88 10000 1 70 23:56 09.04.2020
5018 Clouds 26 1010 88 10000 1 70 23:38 09.04.2020
5019 Clouds 26 1010 88 10000 1 70 23:20 09.04.2020
5020 Clouds 26 1010 88 10000 1 160 22:42 09.04.2020
5021 Clouds 26 1010 88 10000 1 160 22:23 09.04.2020
5022 Clouds 26 1011 88 10000 1 180 21:56 09.04.2020
5023 Clouds 26 1011 88 10000 1 180 21:37 09.04.2020
5024 Clouds 26 1011 88 10000 1 180 21:18 09.04.2020
5025 Clouds 25 1012 100 10000 0.5 80 20:41 09.04.2020
5026 Clouds 25 1012 100 10000 0.5 80 20:21 09.04.2020
5027 Clouds 26 1012 100 10000 1 80 19:58 09.04.2020
5028 Rain 25 1013 94 10000 1 80 19:37 09.04.2020
5029 Rain 25 1014 100 9000 1 170 19:18 09.04.2020
5030 Rain 25 1014 100 9000 1 170 18:41 09.04.2020
5031 Rain 25 1014 100 9000 1 170 18:19 09.04.2020
5032 Rain 23 1014 100 9000 1.5 40 17:41 09.04.2020
5033 Rain 23 1014 100 9000 1.5 40 17:23 09.04.2020
5034 Rain 23 1015 100 9000 2.1 30 16:56 09.04.2020
5035 Rain 23 1015 100 9000 2.1 30 16:38 09.04.2020
5036 Rain 23 1015 100 9000 2.1 30 16:18 09.04.2020
5037 Rain 23 1014 100 5000 3.1 60 15:55 09.04.2020
5038 Rain 25 1014 100 1000 0.5 90 15:36 09.04.2020
5039 Rain 25 1014 100 1000 0.5 90 15:18 09.04.2020
5040 Rain 26 1013 100 10000 1.5 20 14:40 09.04.2020
5041 Rain 26 1013 100 10000 1.5 20 14:21 09.04.2020
5042 Clouds 25 1012 100 10000 1 20 13:44 09.04.2020
5043 Clouds 25 1012 100 10000 1 20 13:44 09.04.2020
5044 Clouds 25 1012 100 10000 1 20 13:26 09.04.2020
5045 Clouds 25 1012 94 10000 1 320 12:59 09.04.2020
5046 Clouds 25 1011 94 10000 1 340 12:41 09.04.2020
5047 Clouds 25 1011 94 10000 1 340 12:21 09.04.2020
5048 Clouds 25 1011 94 10000 1 360 11:58 09.04.2020
5049 Clouds 25 1011 94 10000 1 360 11:38 09.04.2020
5050 Clouds 25 1011 94 10000 1 360 11:20 09.04.2020
5051 Clouds 25 1011 94 10000 1 40 10:56 09.04.2020
5052 Clouds 25 1011 94 10000 1 40 10:37 09.04.2020
5053 Clouds 25 1011 94 10000 1 40 10:18 09.04.2020
5054 Clouds 25 1011 100 10000 1.5 40 09:40 09.04.2020
5055 Clouds 25 1011 100 10000 1.5 40 09:21 09.04.2020
5056 Clouds 25 1011 100 10000 1.5 40 09:21 09.04.2020
5057 Clouds 25 1011 100 10000 1.5 50 08:59 09.04.2020
5058 Clouds 25 1011 100 10000 1.5 50 08:40 09.04.2020
5059 Clouds 25 1011 100 10000 1.5 50 08:22 09.04.2020
5060 Clouds 25 1012 94 10000 1 40 07:50 09.04.2020
5061 Clouds 25 1012 94 10000 1 40 07:22 09.04.2020
5062 Clouds 26 1012 100 10000 1 20 06:48 09.04.2020
5063 Clouds 26 1012 100 10000 1 20 06:48 09.04.2020
5064 Clouds 26 1012 100 10000 1 340 05:49 09.04.2020
5065 Clouds 26 1012 100 10000 1 340 05:49 09.04.2020
5066 Clouds 26 1012 100 10000 1 340 05:26 09.04.2020
5067 Clouds 26 1011 100 10000 1 10 02:37 09.04.2020
5068 Clouds 26 1010 94 10000 1.5 310 01:57 09.04.2020
5069 Clouds 26 1010 94 10000 1.5 310 01:37 09.04.2020
5070 Clouds 27 1010 88 10000 2.1 290 01:19 09.04.2020
5071 Clouds 27 1010 88 10000 2.1 290 00:38 09.04.2020
5072 Clouds 27 1009 94 10000 2.1 270 00:18 09.04.2020
5073 Clouds 27 1009 94 10000 2.1 270 23:42 08.04.2020
5074 Clouds 27 1009 94 10000 2.1 270 23:23 08.04.2020
5075 Clouds 27 1010 88 10000 1.5 290 22:56 08.04.2020
5076 Clouds 27 1010 88 10000 1.5 290 22:38 08.04.2020
5077 Clouds 27 1010 88 10000 1.5 290 22:19 08.04.2020
5078 Clouds 26 1010 94 10000 1.5 280 21:55 08.04.2020
5079 Clouds 26 1010 94 10000 1.5 280 21:37 08.04.2020
5080 Clouds 26 1010 94 10000 1.5 280 21:37 08.04.2020
5081 Clouds 26 1010 94 10000 1.5 280 21:18 08.04.2020
5082 Rain 25 1011 100 5000 1.29 327 20:41 08.04.2020
5083 Rain 25 1011 100 5000 1.29 327 20:21 08.04.2020
5084 Rain 25 1011 100 5000 1.29 327 20:21 08.04.2020
5085 Thunderstorm 25 1013 94 4000 2.1 40 19:59 08.04.2020
5086 Thunderstorm 25 1013 94 4000 2.1 40 19:40 08.04.2020
5087 Thunderstorm 25 1013 100 4000 1 80 19:21 08.04.2020
5088 Thunderstorm 28 1013 88 10000 1 170 18:45 08.04.2020
5089 Thunderstorm 28 1013 88 10000 1 170 18:27 08.04.2020
5090 Clouds 28 1014 88 10000 1.5 180 17:57 08.04.2020
5091 Clouds 27 1014 88 10000 1.5 180 17:39 08.04.2020
5092 Clouds 27 1014 88 10000 1.5 180 17:20 08.04.2020
5093 Rain 27 1014 83 10000 1.5 220 16:56 08.04.2020
5094 Rain 27 1014 83 10000 1.5 220 16:37 08.04.2020
5095 Clouds 27 1014 88 10000 1.5 190 16:19 08.04.2020
5096 Clouds 26 1014 88 10000 1.5 190 15:38 08.04.2020
5097 Clouds 26 1014 88 10000 1.5 190 15:20 08.04.2020
5098 Clouds 26 1013 94 10000 1 140 14:54 08.04.2020
5099 Clouds 26 1013 94 10000 1 140 14:36 08.04.2020
5100 Clouds 26 1013 94 10000 1 140 14:18 08.04.2020
5101 Clouds 26 1012 94 10000 1 160 13:43 08.04.2020
5102 Clouds 26 1012 94 10000 1 160 13:43 08.04.2020
5103 Clouds 26 1012 94 10000 1 160 13:21 08.04.2020
5104 Clouds 26 1011 94 10000 0.5 90 12:43 08.04.2020
5105 Clouds 26 1011 94 10000 0.5 90 12:19 08.04.2020
5106 Clouds 26 1011 94 10000 1 140 11:59 08.04.2020
5107 Clouds 26 1011 94 10000 1 140 11:40 08.04.2020
5108 Clouds 26 1011 94 10000 1 140 11:22 08.04.2020
5109 Clouds 26 1010 100 10000 1 300 10:56 08.04.2020
5110 Clouds 26 1011 94 10000 1 120 10:37 08.04.2020
5111 Clouds 26 1011 94 10000 1 120 10:19 08.04.2020
5112 Rain 27 1011 94 10000 1.5 110 09:55 08.04.2020
5113 Rain 27 1011 94 10000 1.5 110 09:37 08.04.2020
5114 Rain 27 1011 94 10000 1.5 110 09:18 08.04.2020
5115 Rain 27 1011 94 10000 0.5 120 08:42 08.04.2020
5116 Rain 27 1011 94 10000 0.5 120 08:23 08.04.2020
5117 Rain 27 1011 94 10000 1 120 07:44 08.04.2020
5118 Rain 27 1011 94 10000 1 120 07:25 08.04.2020
5119 Rain 27 1012 100 10000 1 120 06:56 08.04.2020
5120 Clouds 27 1012 100 10000 1 110 05:56 08.04.2020
5121 Clouds 27 1012 100 10000 0.5 110 03:49 08.04.2020
5122 Clouds 28 1011 83 10000 1 60 02:49 08.04.2020
5123 Clouds 28 1011 83 10000 1 60 02:19 08.04.2020
5124 Clouds 28 1009 88 10000 1 70 01:43 08.04.2020
5125 Clouds 28 1009 88 10000 1 70 01:22 08.04.2020
5126 Clouds 29 1009 79 10000 1 70 00:41 08.04.2020
5127 Clouds 29 1009 79 10000 1 70 00:21 08.04.2020
5128 Clouds 30 1009 79 10000 1 130 23:39 07.04.2020
5129 Clouds 30 1009 79 10000 1 130 23:20 07.04.2020
5130 Clouds 31 1008 74 10000 1.5 80 22:57 07.04.2020
5131 Clouds 31 1008 74 10000 1.5 80 22:38 07.04.2020
5132 Clouds 31 1008 74 10000 1.5 80 22:19 07.04.2020
5133 Clouds 31 1009 62 10000 2.1 60 21:56 07.04.2020
5134 Clouds 31 1009 62 10000 2.1 60 21:56 07.04.2020
5135 Clouds 31 1009 62 10000 2.1 60 21:37 07.04.2020
5136 Clouds 31 1009 62 10000 2.1 60 21:18 07.04.2020
5137 Rain 31 1010 70 9000 3.6 60 20:55 07.04.2020
5138 Rain 31 1010 70 9000 3.6 60 20:55 07.04.2020
5139 Rain 31 1010 70 9000 3.6 60 20:36 07.04.2020
5140 Rain 31 1010 70 9000 3.6 60 20:18 07.04.2020
5141 Clouds 30 1012 74 10000 2.1 90 19:55 07.04.2020
5142 Clouds 30 1012 74 10000 2.1 90 19:36 07.04.2020
5143 Clouds 30 1012 74 10000 2.1 90 19:18 07.04.2020
5144 Clouds 29 1014 83 10000 2.1 80 18:41 07.04.2020
5145 Clouds 29 1014 83 10000 2.1 80 18:21 07.04.2020
5146 Clouds 28 1015 94 10000 1.5 30 17:56 07.04.2020
5147 Clouds 28 1015 94 10000 1.5 30 17:37 07.04.2020
5148 Clouds 28 1015 94 10000 1.5 30 17:19 07.04.2020
5149 Clouds 27 1014 94 10000 2.6 70 16:44 07.04.2020
5150 Clouds 27 1014 94 10000 2.6 70 16:26 07.04.2020
5151 Clouds 27 1014 94 10000 2.6 70 16:26 07.04.2020
5152 Rain 27 1014 100 9000 1.5 120 15:46 07.04.2020
5153 Rain 27 1015 94 2000 2.6 80 15:26 07.04.2020
5154 Rain 27 1015 94 2000 2.6 80 14:56 07.04.2020
5155 Clouds 27 1013 94 10000 1 110 14:38 07.04.2020
5156 Clouds 27 1013 94 10000 1 110 14:19 07.04.2020
5157 Clouds 26 1012 100 10000 1 150 13:42 07.04.2020
5158 Clouds 26 1012 100 10000 1 150 13:42 07.04.2020
5159 Clouds 26 1012 100 10000 1 150 13:19 07.04.2020
5160 Clouds 26 1012 94 10000 0.5 100 12:57 07.04.2020
5161 Clouds 26 1012 100 10000 1 180 12:38 07.04.2020
5162 Clouds 26 1012 100 10000 1 180 12:20 07.04.2020
5163 Clouds 25 1012 94 10000 1 210 11:57 07.04.2020
5164 Clouds 25 1012 94 10000 1 210 11:39 07.04.2020
5165 Clouds 25 1012 94 10000 1 210 11:19 07.04.2020
5166 Clouds 25 1011 94 10000 1.5 230 10:39 07.04.2020
5167 Clouds 25 1011 94 10000 1.5 230 10:20 07.04.2020
5168 Clouds 25 1011 94 10000 1.5 230 10:20 07.04.2020
5169 Clouds 25 1011 94 10000 1 150 09:56 07.04.2020
5170 Clouds 25 1011 94 10000 1 150 09:37 07.04.2020
5171 Clouds 25 1011 94 10000 1 150 09:18 07.04.2020
5172 Clouds 26 1012 94 10000 1 230 08:40 07.04.2020
5173 Clouds 26 1012 94 10000 1 230 08:20 07.04.2020
5174 Clouds 26 1012 100 10000 1 200 07:46 07.04.2020
5175 Clouds 26 1012 100 10000 1 200 07:26 07.04.2020
5176 Clouds 26 1013 94 10000 1 150 06:53 07.04.2020
5177 Clouds 26 1013 94 10000 1 150 06:26 07.04.2020
5178 Clouds 26 1013 88 10000 1.5 300 05:56 07.04.2020
5179 Clouds 26 1013 88 10000 1.5 300 05:26 07.04.2020
5180 Clouds 26 1012 88 10000 1.5 300 04:18 07.04.2020
5181 Clouds 26 1011 88 10000 2.1 320 03:21 07.04.2020
5182 Clouds 26 1010 88 10000 1.5 310 02:45 07.04.2020
5183 Rain 26 1009 88 10000 2.1 280 01:38 07.04.2020
5184 Rain 26 1009 88 10000 2.1 280 01:20 07.04.2020
5185 Clouds 27 1009 88 10000 2.1 30 00:25 07.04.2020
5186 Clouds 27 1008 83 10000 2.6 40 23:42 06.04.2020
5187 Clouds 27 1008 83 10000 2.6 40 23:21 06.04.2020
5188 Clouds 27 1009 88 10000 2.1 70 22:54 06.04.2020
5189 Clouds 27 1009 88 10000 2.1 70 22:36 06.04.2020
5190 Clouds 27 1009 88 10000 2.1 70 22:18 06.04.2020
5191 Rain 27 1010 88 10000 3.1 60 21:43 06.04.2020
5192 Rain 27 1010 88 10000 3.1 60 21:20 06.04.2020
5193 Rain 27 1010 94 10000 4.1 60 20:58 06.04.2020
5194 Rain 27 1010 94 10000 4.1 60 20:39 06.04.2020
5195 Rain 27 1010 94 10000 4.1 60 20:21 06.04.2020
5196 Thunderstorm 27 1011 88 10000 4.6 70 19:58 06.04.2020
5197 Thunderstorm 27 1011 88 10000 4.6 70 19:38 06.04.2020
5198 Thunderstorm 32 1012 59 10000 3.1 70 19:20 06.04.2020
5199 Clouds 32 1012 70 10000 3.6 60 18:43 06.04.2020
5200 Clouds 32 1012 70 10000 3.6 60 18:24 06.04.2020
5201 Clouds 31 1013 74 10000 2.1 80 17:58 06.04.2020
5202 Clouds 31 1013 74 10000 2.1 80 17:39 06.04.2020
5203 Clouds 31 1013 74 10000 2.1 80 17:18 06.04.2020
5204 Clouds 30 1014 74 10000 2.6 70 16:48 06.04.2020
5205 Clouds 30 1014 74 10000 2.6 70 16:30 06.04.2020
5206 Clouds 28 1013 83 10000 2.6 30 14:57 06.04.2020
5207 Clouds 28 1013 83 10000 2.6 30 14:49 06.04.2020
5208 Clouds 28 1013 83 10000 2.6 30 14:49 06.04.2020
5209 Clouds 28 1013 83 10000 2.6 30 14:49 06.04.2020
5210 Clouds 28 1013 83 10000 2.6 30 14:49 06.04.2020
5211 Clouds 27 1012 88 10000 1.5 60 13:45 06.04.2020
5212 Clouds 27 1012 88 10000 1.5 60 13:45 06.04.2020
5213 Clouds 27 1012 88 10000 1.5 60 13:22 06.04.2020
5214 Clouds 26 1012 88 10000 1.5 60 12:46 06.04.2020
5215 Clouds 26 1011 94 10000 1 120 12:19 06.04.2020
5216 Clouds 26 1010 100 10000 1 70 11:40 06.04.2020
5217 Clouds 26 1010 100 10000 1.5 100 11:03 06.04.2020
5218 Clouds 26 1010 100 10000 1.5 100 11:03 06.04.2020
5219 Clouds 26 1010 100 10000 1.5 100 10:38 06.04.2020
5220 Clouds 26 1010 100 10000 1.5 100 10:20 06.04.2020
5221 Clouds 26 1010 100 10000 1.5 100 10:20 06.04.2020
5222 Clouds 26 1010 100 10000 1.5 100 10:20 06.04.2020
5223 Clouds 26 1010 100 10000 1.5 100 10:20 06.04.2020
5224 Clouds 26 1010 100 10000 1.5 100 10:20 06.04.2020
5225 Clouds 26 1010 94 10000 1.5 20 09:40 06.04.2020
5226 Clouds 26 1010 94 10000 1.5 20 09:40 06.04.2020
5227 Clouds 26 1010 94 10000 1.5 20 09:19 06.04.2020
5228 Clouds 26 1011 94 10000 2.1 80 08:43 06.04.2020
5229 Clouds 26 1011 94 10000 2.1 80 08:43 06.04.2020
5230 Clouds 26 1011 94 10000 2.1 80 08:43 06.04.2020
5231 Clouds 26 1011 94 10000 2.1 80 08:43 06.04.2020
5232 Clouds 26 1011 94 10000 2.1 80 08:43 06.04.2020
5233 Clouds 26 1011 94 10000 2.1 80 08:23 06.04.2020
5234 Clouds 27 1012 88 10000 1.5 90 07:23 06.04.2020
5235 Clouds 27 1012 88 10000 1.5 90 07:23 06.04.2020
5236 Clouds 27 1012 88 10000 1.5 90 07:23 06.04.2020
5237 Clouds 27 1012 88 10000 1.5 90 07:23 06.04.2020
5238 Clouds 27 1012 88 10000 1.5 90 07:23 06.04.2020
5239 Thunderstorm 27 1012 88 10000 2.6 40 06:27 06.04.2020
5240 Thunderstorm 27 1012 94 10000 2.1 50 05:50 06.04.2020
5241 Rain 28 1010 94 9000 3.6 50 03:56 06.04.2020
5242 Rain 28 1010 94 2000 3.6 70 02:51 06.04.2020
5243 Clouds 29 1008 79 10000 2.1 70 01:54 06.04.2020
5244 Clouds 30 1008 74 10000 2.6 70 00:54 06.04.2020
5245 Clouds 30 1008 74 10000 2.6 70 00:28 06.04.2020
5246 Clouds 30 1008 70 10000 2.6 70 23:51 05.04.2020
5247 Clouds 30 1008 70 10000 2.6 70 23:33 05.04.2020
5248 Clouds 32 1007 66 10000 3.1 70 22:57 05.04.2020
5249 Clouds 32 1007 66 10000 3.1 70 22:38 05.04.2020
5250 Clouds 32 1007 66 10000 3.1 70 22:19 05.04.2020
5251 Rain 32 1008 75 10000 2.1 80 21:58 05.04.2020
5252 Rain 32 1008 75 10000 2.1 80 21:39 05.04.2020
5253 Rain 32 1008 75 10000 2.1 80 21:21 05.04.2020
5254 Clouds 32 1009 66 10000 2.1 90 20:21 05.04.2020
5255 Clouds 32 1010 70 10000 1.5 80 19:41 05.04.2020
5256 Clouds 32 1010 70 10000 1.5 80 19:22 05.04.2020
5257 Clouds 31 1011 74 10000 2.1 80 18:47 05.04.2020
5258 Clouds 30 1012 79 10000 1 50 17:59 05.04.2020
5259 Clouds 30 1012 79 10000 1 50 17:59 05.04.2020
5260 Clouds 30 1012 79 10000 1 50 17:40 05.04.2020
5261 Clouds 30 1012 79 10000 1 50 17:40 05.04.2020
5262 Clouds 30 1012 79 10000 1 50 17:40 05.04.2020
5263 Clouds 30 1012 79 10000 1 50 17:40 05.04.2020
5264 Clouds 30 1012 79 10000 1 50 17:40 05.04.2020
5265 -273 0 0 0 0 0 17:20 05.04.2020
5266 Clouds 30 1012 79 10000 1 50 17:20 05.04.2020
5267 Clouds 30 1013 79 10000 1.5 70 16:46 05.04.2020
5268 Clouds 30 1013 79 10000 1.5 70 16:46 05.04.2020
5269 Clouds 30 1013 79 10000 1.5 70 16:46 05.04.2020
5270 Clouds 30 1013 79 10000 1.5 70 16:46 05.04.2020
5271 Clouds 30 1013 79 10000 1.5 70 16:46 05.04.2020
5272 Clouds 30 1013 79 10000 1.5 70 16:18 05.04.2020
5273 Clouds 29 1013 89 10000 1 240 15:45 05.04.2020
5274 Clouds 29 1013 89 10000 1 240 15:25 05.04.2020
5275 Clouds 28 1012 88 10000 1.5 230 14:48 05.04.2020
5276 Clouds 28 1012 88 10000 1.5 230 14:48 05.04.2020
5277 Clouds 28 1012 88 10000 1.5 230 14:48 05.04.2020
5278 Clouds 28 1012 88 10000 1.5 230 14:48 05.04.2020
5279 Clouds 28 1012 88 10000 1.5 230 14:48 05.04.2020
5280 Clouds 26 1011 100 10000 1.5 200 13:47 05.04.2020
5281 Clouds 26 1011 100 10000 1.5 200 13:47 05.04.2020
5282 Clouds 26 1011 100 10000 1.5 200 13:47 05.04.2020
5283 Clouds 26 1011 100 10000 1.5 200 13:47 05.04.2020
5284 Clouds 26 1011 100 10000 1.5 200 13:47 05.04.2020
5285 Clouds 26 1011 100 10000 1.5 200 12:57 05.04.2020
5286 Clouds 26 1011 100 10000 1.5 200 12:57 05.04.2020
5287 Clouds 26 1010 94 10000 1 360 11:58 05.04.2020
5288 Clouds 26 1010 94 10000 1 360 11:58 05.04.2020
5289 Clouds 26 1010 94 10000 1 360 11:58 05.04.2020
5290 Clouds 26 1010 94 10000 1 360 11:38 05.04.2020
5291 Clouds 26 1010 94 10000 1 360 11:19 05.04.2020
5292 Rain 26 1009 88 10000 1.5 350 10:44 05.04.2020
5293 Rain 26 1009 88 10000 1.5 350 10:44 05.04.2020
5294 Rain 26 1009 88 10000 1.5 350 10:44 05.04.2020
5295 Rain 26 1009 88 10000 1.5 350 10:44 05.04.2020
5296 Rain 26 1009 88 10000 1.5 350 10:19 05.04.2020
5297 Rain 26 1009 88 10000 1.5 340 09:52 05.04.2020
5298 Rain 26 1009 88 10000 1.5 340 09:52 05.04.2020
5299 Rain 26 1009 88 10000 1.5 340 09:52 05.04.2020
5300 Rain 26 1009 88 10000 1.5 340 09:52 05.04.2020
5301 Rain 26 1009 88 10000 1.5 340 09:52 05.04.2020
5302 Rain 26 1009 88 10000 1.5 340 09:25 05.04.2020
5303 Rain 26 1009 88 10000 1.5 340 09:25 05.04.2020
5304 Rain 26 1009 88 10000 1.5 340 09:25 05.04.2020
5305 Rain 26 1009 88 10000 1.5 340 09:25 05.04.2020
5306 Rain 26 1010 94 10000 1 30 07:58 05.04.2020
5307 Rain 26 1010 94 10000 1 30 07:58 05.04.2020
5308 Rain 26 1011 100 10000 0.99 14 04:56 05.04.2020
5309 Rain 26 1010 100 10000 0.99 14 03:35 05.04.2020
5310 Rain 26 1010 100 10000 0.99 14 03:35 05.04.2020
5311 Rain 26 1010 100 10000 0.99 14 03:35 05.04.2020
5312 Clouds 27 1009 100 10000 0.84 70 02:53 05.04.2020
5313 Rain 27 1008 100 10000 0.32 63 01:51 05.04.2020
5314 Rain 27 1008 100 10000 0.32 63 01:32 05.04.2020
5315 Clouds 28 1007 88 10000 0.5 80 00:47 05.04.2020
5316 Clouds 28 1007 88 10000 0.5 80 00:22 05.04.2020
5317 Clouds 29 1007 74 10000 2.1 80 23:57 04.04.2020
5318 Clouds 29 1007 74 10000 2.1 80 23:38 04.04.2020
5319 Clouds 29 1007 74 10000 2.1 80 23:19 04.04.2020
5320 Clouds 30 1007 70 10000 3.1 80 22:55 04.04.2020
5321 Clouds 30 1007 70 10000 3.1 80 22:37 04.04.2020
5322 Clouds 30 1007 70 10000 3.1 80 22:19 04.04.2020
5323 Clouds 29 1008 74 10000 2.1 70 21:54 04.04.2020
5324 Clouds 29 1008 74 10000 2.1 70 21:36 04.04.2020
5325 Clouds 29 1008 74 10000 2.1 70 21:18 04.04.2020
5326 Clouds 28 1009 83 10000 2.6 80 20:42 04.04.2020
5327 Clouds 28 1009 83 10000 2.6 80 20:23 04.04.2020
5328 Clouds 29 1011 88 10000 1 70 19:58 04.04.2020
5329 Clouds 29 1011 88 10000 1 70 19:37 04.04.2020
5330 Clouds 29 1011 88 10000 1 70 19:19 04.04.2020
5331 Clouds 28 1011 88 10000 1 70 18:57 04.04.2020
5332 Clouds 28 1011 88 10000 1 70 18:57 04.04.2020
5333 Clouds 28 1011 88 10000 1.5 70 18:38 04.04.2020
5334 Clouds 28 1011 88 10000 1.5 70 18:38 04.04.2020
5335 Clouds 28 1011 88 10000 1.5 70 18:19 04.04.2020
5336 Clouds 28 1012 88 10000 1.5 60 17:56 04.04.2020
5337 Clouds 28 1012 88 10000 1.5 60 17:38 04.04.2020
5338 Clouds 28 1012 88 10000 1.5 60 17:38 04.04.2020
5339 Clouds 28 1012 88 10000 1.5 60 17:18 04.04.2020
5340 Clouds 26 1013 100 10000 1 70 16:42 04.04.2020
5341 Clouds 26 1013 100 10000 1 70 16:22 04.04.2020
5342 Rain 25 1013 100 6000 2.6 70 15:56 04.04.2020
5343 Rain 25 1013 100 6000 2.6 70 15:38 04.04.2020
5344 Rain 26 1013 100 6000 2.6 70 15:18 04.04.2020
5345 Rain 27 1012 88 10000 1.5 50 14:43 04.04.2020
5346 Rain 27 1012 88 10000 1.5 50 14:23 04.04.2020
5347 Clouds 26 1011 94 10000 1 60 13:56 04.04.2020
5348 Clouds 26 1011 94 10000 1 60 13:38 04.04.2020
5349 Clouds 26 1011 94 10000 1 60 13:19 04.04.2020
5350 Clouds 26 1011 94 10000 1 60 13:19 04.04.2020
5351 Clouds 26 1011 94 10000 1 60 13:19 04.04.2020
5352 Thunderstorm 26 1010 88 10000 1.5 50 12:45 04.04.2020
5353 Thunderstorm 26 1010 88 10000 1.5 50 12:27 04.04.2020
5354 Thunderstorm 26 1010 94 10000 2.1 50 11:59 04.04.2020
5355 Thunderstorm 26 1010 94 10000 2.1 50 11:39 04.04.2020
5356 Thunderstorm 26 1010 94 10000 2.1 50 11:20 04.04.2020
5357 Thunderstorm 26 1010 94 10000 2.1 50 11:20 04.04.2020
5358 Clouds 27 1009 94 10000 1.5 20 10:56 04.04.2020
5359 Clouds 27 1009 94 10000 1.5 20 10:38 04.04.2020
5360 Clouds 27 1009 94 10000 1.5 20 10:19 04.04.2020
5361 Clouds 26 1009 100 10000 1.15 59 09:54 04.04.2020
5362 Clouds 26 1009 100 10000 1.15 59 09:36 04.04.2020
5363 Clouds 26 1009 100 10000 1.13 25 09:18 04.04.2020
5364 Clouds 26 1010 100 10000 1.13 25 08:41 04.04.2020
5365 Clouds 26 1010 100 10000 1.13 25 08:21 04.04.2020
5366 Rain 27 1010 94 10000 1.5 50 07:46 04.04.2020
5367 Rain 27 1010 94 10000 1.5 50 07:26 04.04.2020
5368 Rain 26 1011 100 10000 1.13 25 06:53 04.04.2020
5369 Clouds 26 1011 100 10000 0.8 1 06:20 04.04.2020
5370 Clouds 26 1011 100 10000 0.5 60 05:43 04.04.2020
5371 Clouds 26 1011 100 10000 0.5 60 05:24 04.04.2020
5372 Clouds 27 1011 100 10000 0.8 1 04:31 04.04.2020
5373 Clouds 27 1010 100 10000 1.5 160 03:51 04.04.2020
5374 Clouds 27 1009 88 10000 0.6 13 02:52 04.04.2020
5375 Clouds 27 1009 88 10000 0.6 13 02:33 04.04.2020
5376 Clouds 28 1008 88 10000 0.5 50 01:55 04.04.2020
5377 Clouds 28 1008 88 10000 0.5 50 01:25 04.04.2020
5378 Clouds 29 1007 74 10000 2.1 90 00:49 04.04.2020
5379 Clouds 29 1007 74 10000 2.1 90 00:30 04.04.2020
5380 Clouds 31 1007 70 10000 1.5 90 23:40 03.04.2020
5381 Clouds 31 1007 70 10000 1.5 90 23:21 03.04.2020
5382 Clouds 31 1007 70 10000 2.1 80 22:58 03.04.2020
5383 Clouds 31 1007 70 10000 2.1 80 22:39 03.04.2020
5384 Clouds 31 1007 70 10000 2.1 80 22:18 03.04.2020
5385 Rain 32 1008 66 10000 2.6 50 21:44 03.04.2020
5386 Rain 32 1008 66 10000 2.6 50 21:25 03.04.2020
5387 Clouds 32 1010 66 10000 3.1 60 20:57 03.04.2020
5388 Clouds 32 1010 66 10000 3.1 60 20:38 03.04.2020
5389 Clouds 32 1010 66 10000 3.1 60 20:19 03.04.2020
5390 Clouds 31 1011 66 10000 3.1 90 19:57 03.04.2020
5391 Clouds 31 1011 66 10000 3.1 90 19:39 03.04.2020
5392 Clouds 31 1011 66 10000 3.1 90 19:21 03.04.2020
5393 Clouds 31 1013 74 10000 2.6 80 18:59 03.04.2020
5394 Clouds 31 1013 74 10000 2.6 80 18:41 03.04.2020
5395 Clouds 31 1013 74 10000 2.6 80 18:22 03.04.2020
5396 Clouds 29 1013 83 10000 2.1 70 17:55 03.04.2020
5397 Clouds 29 1013 83 10000 2.1 70 17:37 03.04.2020
5398 Clouds 29 1013 83 10000 2.1 70 17:18 03.04.2020
5399 Clouds 29 1013 79 10000 1.5 40 16:44 03.04.2020
5400 Clouds 29 1013 79 10000 1.5 40 16:22 03.04.2020
5401 Clouds 28 1013 83 10000 3.1 40 15:58 03.04.2020
5402 Clouds 28 1013 83 10000 3.1 40 15:39 03.04.2020
5403 Clouds 28 1013 83 10000 3.1 40 15:20 03.04.2020
5404 Clouds 28 1013 83 10000 3.1 40 14:56 03.04.2020
5405 Clouds 26 1012 85 0 1.59 74 14:37 03.04.2020
5406 Rain 25 1013 100 10000 1.5 70 14:19 03.04.2020
5407 Rain 25 1013 100 10000 1.5 70 13:43 03.04.2020
5408 Rain 25 1013 100 10000 1.5 70 13:25 03.04.2020
5409 Clouds 25 1012 94 10000 1.5 80 12:55 03.04.2020
5410 Clouds 25 1012 94 10000 1.5 80 12:37 03.04.2020
5411 Clouds 25 1012 94 10000 1.5 80 12:18 03.04.2020
5412 Clouds 24 1012 94 10000 1 80 11:41 03.04.2020
5413 Clouds 24 1012 94 10000 1 80 11:23 03.04.2020
5414 Clouds 24 1012 94 10000 1 90 10:59 03.04.2020
5415 Clouds 24 1012 94 10000 1 90 10:40 03.04.2020
5416 Clouds 24 1012 94 10000 1 90 10:21 03.04.2020
5417 Clouds 25 1012 94 10000 1.5 80 09:59 03.04.2020
5418 Clouds 25 1012 94 10000 1.5 80 09:40 03.04.2020
5419 Clouds 25 1012 94 10000 1.5 80 09:22 03.04.2020
5420 Clouds 25 1012 94 10000 1 90 08:57 03.04.2020
5421 Clouds 25 1012 94 10000 1 90 08:38 03.04.2020
5422 Clouds 25 1012 94 10000 1 90 08:20 03.04.2020
5423 Clouds 25 1012 100 10000 1 90 07:48 03.04.2020
5424 Clouds 25 1012 100 10000 1 90 07:29 03.04.2020
5425 Clouds 25 1013 100 10000 1 80 06:42 03.04.2020
5426 Clouds 25 1013 100 10000 1 80 06:23 03.04.2020
5427 Clouds 25 1014 100 10000 2.6 30 05:39 03.04.2020
5428 Clouds 25 1013 100 10000 2.1 80 03:42 03.04.2020
5429 Clouds 25 1012 100 10000 1 90 02:56 03.04.2020
5430 Clouds 25 1012 100 10000 1 90 02:18 03.04.2020
5431 Clouds 25 1010 100 10000 1 100 01:22 03.04.2020
5432 Rain 25 1009 100 10000 1 160 00:36 03.04.2020
5433 Rain 25 1009 100 10000 1 160 00:18 03.04.2020
5434 Rain 25 1009 100 10000 1.5 150 23:40 02.04.2020
5435 Rain 25 1009 100 10000 1.5 150 23:21 02.04.2020
5436 Rain 25 1010 100 10000 3.6 80 22:57 02.04.2020
5437 Rain 25 1010 100 10000 3.6 80 22:37 02.04.2020
5438 Rain 25 1010 100 10000 3.6 80 22:18 02.04.2020
5439 Thunderstorm 28 1010 74 10000 2.6 70 21:39 02.04.2020
5440 Thunderstorm 28 1010 74 10000 2.6 70 21:19 02.04.2020
5441 Rain 30 1010 74 10000 2.1 80 20:58 02.04.2020
5442 Rain 30 1010 74 10000 2.1 80 20:58 02.04.2020
5443 Rain 30 1010 74 10000 2.1 80 20:58 02.04.2020
5444 Rain 30 1010 74 10000 2.1 80 20:40 02.04.2020
5445 Rain 31 1010 74 10000 2.1 80 20:21 02.04.2020
5446 Rain 29 1012 74 10000 1.5 80 19:44 02.04.2020
5447 Rain 29 1012 74 10000 1.5 80 19:21 02.04.2020
5448 Rain 31 1014 70 10000 1.5 90 18:58 02.04.2020
5449 Rain 31 1014 70 10000 1.5 90 18:39 02.04.2020
5450 Rain 31 1014 70 10000 1.5 90 18:20 02.04.2020
5451 Clouds 30 1014 74 10000 2.1 80 17:56 02.04.2020
5452 Clouds 30 1014 74 10000 2.1 80 17:38 02.04.2020
5453 Clouds 30 1014 74 10000 2.1 80 17:18 02.04.2020
5454 Clouds 30 1014 74 10000 2.1 80 17:18 02.04.2020
5455 Clouds 29 1015 83 10000 1.5 190 16:55 02.04.2020
5456 Clouds 29 1015 83 10000 1.5 190 16:36 02.04.2020
5457 Clouds 30 1014 83 10000 1.5 80 16:18 02.04.2020
5458 Clouds 29 1014 83 10000 1.5 80 15:44 02.04.2020
5459 Clouds 29 1014 83 10000 1.5 80 15:44 02.04.2020
5460 Clouds 29 1014 83 10000 1.5 80 15:44 02.04.2020
5461 Clouds 29 1014 83 10000 1.5 80 15:21 02.04.2020
5462 Clouds 27 1014 88 10000 1 120 14:58 02.04.2020
5463 Clouds 27 1014 88 10000 1 120 14:39 02.04.2020
5464 Clouds 27 1014 88 10000 1 120 14:19 02.04.2020
5465 Clouds 25 1013 94 10000 1 20 13:56 02.04.2020
5466 Clouds 25 1013 94 10000 1 20 13:38 02.04.2020
5467 Rain 25 1013 94 10000 1.5 10 13:19 02.04.2020
5468 Rain 25 1013 94 10000 1.5 10 12:47 02.04.2020
5469 Clouds 25 1012 94 10000 2.1 70 12:21 02.04.2020
5470 Rain 25 1012 100 10000 1.5 70 11:58 02.04.2020
5471 Rain 25 1012 100 10000 1.5 70 11:40 02.04.2020
5472 Rain 25 1012 100 10000 1.5 70 11:39 02.04.2020
5473 Rain 25 1012 100 10000 1.5 70 11:21 02.04.2020
5474 Rain 25 1011 100 10000 1.5 10 10:57 02.04.2020
5475 Rain 25 1011 100 10000 1.5 10 10:39 02.04.2020
5476 Rain 25 1011 100 10000 1.5 10 10:21 02.04.2020
5477 Rain 25 1010 100 10000 1.5 330 09:59 02.04.2020
5478 Rain 25 1010 100 10000 1.5 330 09:41 02.04.2020
5479 Rain 25 1010 100 10000 1.5 330 09:22 02.04.2020
5480 Rain 25 1011 94 10000 1 310 08:48 02.04.2020
5481 Rain 25 1011 94 10000 1 310 08:29 02.04.2020
5482 Clouds 26 1012 100 10000 1 340 07:59 02.04.2020
5483 Clouds 26 1012 100 10000 1 340 07:41 02.04.2020
5484 Clouds 26 1012 100 10000 1 340 07:19 02.04.2020
5485 Clouds 26 1012 94 10000 1.5 10 06:25 02.04.2020
5486 Clouds 26 1012 94 10000 1.5 40 05:46 02.04.2020
5487 Clouds 26 1012 94 10000 1.5 40 05:18 02.04.2020
5488 Clouds 26 1011 100 10000 3.1 70 02:26 02.04.2020
5489 Clouds 26 1009 94 10000 2.6 80 01:28 02.04.2020
5490 Clouds 28 1009 94 10000 2.6 80 00:42 02.04.2020
5491 Rain 28 1009 83 8000 1.5 150 00:22 02.04.2020
5492 Rain 31 1008 66 10000 2.6 80 23:40 01.04.2020
5493 Rain 31 1008 66 10000 2.6 80 23:19 01.04.2020
5494 Rain 31 1007 66 10000 1.5 100 22:57 01.04.2020
5495 Rain 31 1007 66 10000 1.5 100 22:57 01.04.2020
5496 Rain 31 1007 66 10000 1.5 100 22:57 01.04.2020
5497 Rain 31 1007 66 10000 1.5 100 22:38 01.04.2020
5498 Rain 31 1007 66 10000 1.5 100 22:19 01.04.2020
5499 Rain 31 1007 66 10000 1.5 100 22:19 01.04.2020
5500 Rain 31 1007 66 10000 1.5 150 21:41 01.04.2020
5501 Rain 31 1007 66 10000 1.5 150 21:19 01.04.2020
5502 Thunderstorm 30 1009 66 10000 2.6 180 20:56 01.04.2020
5503 Thunderstorm 30 1009 66 10000 2.6 180 20:38 01.04.2020
5504 Thunderstorm 30 1009 66 10000 2.6 180 20:19 01.04.2020
5505 Clouds 31 1010 74 10000 2.6 170 19:58 01.04.2020
5506 Clouds 31 1010 74 10000 2.6 170 19:38 01.04.2020
5507 Clouds 31 1010 74 10000 2.6 170 19:19 01.04.2020
5508 Clouds 30 1012 79 10000 1.5 140 18:42 01.04.2020
5509 Clouds 30 1012 79 10000 1.5 140 18:42 01.04.2020
5510 Clouds 30 1012 79 10000 1.5 140 18:23 01.04.2020
5511 Clouds 29 1012 74 10000 2.1 90 17:57 01.04.2020
5512 Clouds 29 1012 74 10000 2.1 90 17:38 01.04.2020
5513 Clouds 29 1012 74 10000 2.1 90 17:19 01.04.2020
5514 Clouds 29 1013 83 10000 2.1 80 16:57 01.04.2020
5515 Clouds 29 1013 83 10000 2.1 80 16:39 01.04.2020
5516 Clouds 29 1013 83 10000 2.1 80 16:20 01.04.2020
5517 Clouds 27 1012 78 10000 2.6 50 15:56 01.04.2020
5518 Clouds 27 1012 78 10000 2.6 50 15:37 01.04.2020
5519 Clouds 27 1012 78 10000 2.6 50 15:18 01.04.2020
5520 Clouds 25 1012 94 10000 1.5 70 14:40 01.04.2020
5521 Clouds 25 1012 94 10000 1.5 70 14:22 01.04.2020
5522 Clouds 24 1011 94 10000 0.79 91 13:59 01.04.2020
5523 Clouds 24 1011 94 10000 0.79 91 13:39 01.04.2020
5524 Clouds 24 1011 94 10000 0.79 91 13:20 01.04.2020
5525 Clouds 23 1010 100 10000 1 90 12:58 01.04.2020
5526 Clouds 23 1010 100 10000 1 90 12:40 01.04.2020
5527 Clouds 23 1010 100 10000 1 90 12:21 01.04.2020
5528 Clouds 24 1009 94 10000 2.1 10 11:56 01.04.2020
5529 Clouds 24 1009 94 10000 2.1 10 11:37 01.04.2020
5530 Clouds 24 1009 94 10000 2.1 10 11:18 01.04.2020
5531 Clouds 24 1009 94 10000 1 350 10:39 01.04.2020
5532 Clouds 24 1009 94 10000 1 350 10:21 01.04.2020
5533 Clouds 24 1009 94 10000 1.5 340 09:59 01.04.2020
5534 Clouds 24 1009 94 10000 1.5 340 09:59 01.04.2020
5535 Clouds 24 1009 94 10000 1.5 340 09:40 01.04.2020
5536 Clouds 24 1009 94 10000 1.5 340 09:20 01.04.2020
5537 Clouds 24 1010 94 10000 1.5 300 08:44 01.04.2020
5538 Clouds 24 1010 94 10000 1.5 300 08:44 01.04.2020
5539 Clouds 24 1010 94 10000 1.5 300 08:20 01.04.2020
5540 Clouds 24 1011 100 10000 1 280 07:58 01.04.2020
5541 Clouds 24 1011 100 10000 1 280 07:40 01.04.2020
5542 Clouds 24 1011 100 10000 1 280 07:19 01.04.2020
5543 Clouds 24 1012 94 10000 1 350 06:41 01.04.2020
5544 Clouds 24 1012 94 10000 1 350 06:20 01.04.2020
5545 Rain 24 1012 100 10000 0.5 10 05:24 01.04.2020
5546 Rain 24 1010 100 10000 2.1 300 03:39 01.04.2020
5547 Rain 24 1010 100 10000 1.5 300 02:59 01.04.2020
5548 Rain 24 1010 100 10000 1.5 300 02:31 01.04.2020
5549 Rain 24 1010 100 10000 2.1 340 01:49 01.04.2020
5550 Rain 24 1010 100 10000 2.1 340 01:24 01.04.2020
5551 Rain 24 1010 100 10000 2.1 340 00:47 01.04.2020
5552 Rain 24 1009 100 8000 2.6 340 00:22 01.04.2020
5553 Rain 24 1009 100 6000 2.1 20 23:55 31.03.2020
5554 Rain 24 1009 100 6000 2.1 20 23:37 31.03.2020
5555 Rain 24 1009 100 6000 2.1 20 23:19 31.03.2020
5556 Rain 24 1008 100 6000 3.6 20 22:40 31.03.2020
5557 Rain 24 1008 100 6000 3.6 20 22:40 31.03.2020
5558 Rain 24 1008 100 6000 3.6 20 22:20 31.03.2020
5559 Rain 24 1008 100 6000 3.6 20 21:58 31.03.2020
5560 Rain 24 1008 100 6000 3.6 20 21:58 31.03.2020
5561 Thunderstorm 24 1009 100 1000 1.5 60 21:39 31.03.2020
5562 Thunderstorm 24 1009 100 1000 1.5 60 21:21 31.03.2020
5563 Rain 29 1009 79 9000 2.6 240 20:56 31.03.2020
5564 Rain 29 1009 79 9000 2.6 240 20:37 31.03.2020
5565 Rain 29 1009 79 9000 2.6 240 20:18 31.03.2020
5566 Rain 28 1010 83 10000 2.6 230 19:55 31.03.2020
5567 Rain 28 1010 83 10000 2.6 230 19:37 31.03.2020
5568 Rain 28 1010 83 10000 2.6 230 19:18 31.03.2020
5569 Clouds 27 1011 94 10000 2.1 230 18:41 31.03.2020
5570 Clouds 27 1011 94 10000 2.1 230 18:20 31.03.2020
5571 Clouds 27 1011 94 10000 2.1 230 17:56 31.03.2020
5572 Clouds 27 1011 94 10000 2.1 230 17:56 31.03.2020
5573 Clouds 27 1011 94 10000 2.1 230 17:56 31.03.2020
5574 Rain 27 1012 94 8000 1.5 210 17:38 31.03.2020
5575 Rain 27 1012 94 8000 1.5 210 17:20 31.03.2020
5576 Rain 26 1013 100 8000 1 230 16:42 31.03.2020
5577 Rain 26 1013 100 8000 1 230 16:20 31.03.2020
5578 Rain 27 1012 88 5000 1 220 15:59 31.03.2020
5579 Rain 27 1012 88 5000 1 220 15:41 31.03.2020
5580 Rain 27 1012 88 5000 1 220 15:23 31.03.2020
5581 Clouds 26 1012 94 10000 2.1 230 14:59 31.03.2020
5582 Clouds 26 1012 94 10000 2.1 230 14:40 31.03.2020
5583 Clouds 26 1012 94 10000 2.1 230 14:21 31.03.2020
5584 Clouds 25 1012 94 10000 2.1 240 13:54 31.03.2020
5585 Clouds 25 1011 100 10000 2.1 230 13:36 31.03.2020
5586 Clouds 25 1011 100 10000 2.1 230 13:18 31.03.2020
5587 Clouds 25 1010 100 10000 2.6 240 12:42 31.03.2020
5588 Clouds 25 1010 100 10000 2.6 240 12:20 31.03.2020
5589 Clouds 24 1009 100 10000 1.5 290 11:55 31.03.2020
5590 Clouds 25 1009 100 10000 1.5 290 11:36 31.03.2020
5591 Clouds 25 1009 100 10000 1.5 290 11:18 31.03.2020
5592 Clouds 24 1009 100 10000 1 310 10:54 31.03.2020
5593 Clouds 24 1009 100 10000 1 310 10:36 31.03.2020
5594 Clouds 24 1009 100 10000 1 310 10:18 31.03.2020
5595 Rain 24 1009 94 10000 1.5 330 09:42 31.03.2020
5596 Rain 24 1009 94 10000 1.5 330 09:24 31.03.2020
5597 Clouds 25 1010 100 10000 1 330 08:57 31.03.2020
5598 Clouds 25 1010 100 10000 1 330 08:39 31.03.2020
5599 Clouds 25 1010 100 10000 1 330 08:19 31.03.2020
5600 Clouds 25 1010 100 10000 1.5 300 07:56 31.03.2020
5601 Clouds 25 1010 100 10000 1.5 300 07:38 31.03.2020
5602 Clouds 25 1010 100 10000 1.5 300 07:19 31.03.2020
5603 Clouds 25 1010 100 10000 2.6 250 06:47 31.03.2020
5604 Clouds 25 1010 100 10000 2.6 250 06:22 31.03.2020
5605 Clouds 25 1011 100 10000 1.5 260 05:39 31.03.2020
5606 Rain 25 1010 100 10000 1.15 260 03:34 31.03.2020
5607 Clouds 25 1009 100 10000 1.5 340 02:18 31.03.2020
5608 Clouds 25 1008 100 10000 1.5 340 01:45 31.03.2020
5609 Clouds 26 1008 94 10000 2.1 350 00:49 31.03.2020
5610 Clouds 26 1008 94 10000 2.1 350 00:25 31.03.2020
5611 Clouds 26 1008 88 10000 2.6 40 23:57 30.03.2020
5612 Clouds 26 1008 88 10000 2.6 40 23:37 30.03.2020
5613 Clouds 26 1008 88 10000 2.6 40 23:18 30.03.2020
5614 Clouds 26 1009 88 10000 0.5 160 22:55 30.03.2020
5615 Clouds 26 1009 88 10000 0.5 160 22:36 30.03.2020
5616 Clouds 26 1009 88 10000 0.5 160 22:18 30.03.2020
5617 Clouds 26 1009 88 10000 1.5 300 21:54 30.03.2020
5618 Clouds 26 1009 88 10000 1.5 300 21:36 30.03.2020
5619 Clouds 26 1009 88 10000 1.5 300 21:36 30.03.2020
5620 Clouds 26 1009 88 10000 1.5 300 21:18 30.03.2020
5621 Clouds 25 1010 94 10000 2.6 10 20:40 30.03.2020
5622 Clouds 25 1010 94 10000 2.6 10 20:22 30.03.2020
5623 Rain 24 1011 94 8000 2.1 10 19:59 30.03.2020
5624 Rain 24 1011 94 8000 2.1 10 19:39 30.03.2020
5625 Rain 24 1011 94 8000 2.1 10 19:21 30.03.2020
5626 Rain 24 1012 94 10000 3.1 30 18:56 30.03.2020
5627 Rain 24 1012 94 10000 3.1 30 18:37 30.03.2020
5628 Rain 24 1012 94 10000 3.1 30 18:19 30.03.2020
5629 Rain 24 1013 100 8000 2.6 20 17:55 30.03.2020
5630 Rain 24 1013 100 8000 2.6 20 17:36 30.03.2020
5631 Rain 24 1013 100 8000 2.6 20 17:18 30.03.2020
5632 Thunderstorm 23 1013 100 6000 2.38 93 16:41 30.03.2020
5633 Thunderstorm 23 1013 100 6000 2.38 93 16:22 30.03.2020
5634 Thunderstorm 23 1013 100 5000 1.5 150 15:57 30.03.2020
5635 Thunderstorm 23 1013 100 5000 1.5 150 15:57 30.03.2020
5636 Thunderstorm 23 1013 100 5000 1.5 150 15:39 30.03.2020
5637 Thunderstorm 24 1014 100 500 3.6 80 15:21 30.03.2020
5638 Thunderstorm 25 1012 100 3000 1 120 14:58 30.03.2020
5639 Thunderstorm 25 1012 100 3000 1 120 14:38 30.03.2020
5640 Rain 26 1011 100 10000 2.1 210 14:19 30.03.2020
5641 Clouds 26 1011 100 10000 1 200 13:58 30.03.2020
5642 Clouds 26 1011 100 10000 1 200 13:39 30.03.2020
5643 Clouds 26 1011 100 10000 1 200 13:20 30.03.2020
5644 Clouds 26 1011 100 10000 1 180 12:45 30.03.2020
5645 Clouds 26 1009 100 10000 1 180 12:22 30.03.2020
5646 Clouds 25 1010 94 10000 1 30 11:59 30.03.2020
5647 Clouds 25 1010 94 10000 1 30 11:59 30.03.2020
5648 Clouds 25 1010 94 10000 1 30 11:41 30.03.2020
5649 Clouds 25 1010 94 10000 1 30 11:22 30.03.2020
5650 Clouds 24 1010 94 10000 1 40 10:55 30.03.2020
5651 Clouds 24 1010 94 10000 1 40 10:37 30.03.2020
5652 Clouds 24 1010 94 10000 1 40 10:18 30.03.2020
5653 Clouds 24 1010 94 10000 1.5 90 09:40 30.03.2020
5654 Clouds 24 1010 94 10000 1.5 90 09:19 30.03.2020
5655 Clouds 24 1010 94 10000 1.5 90 09:19 30.03.2020
5656 Clouds 25 1011 94 10000 1.5 40 08:56 30.03.2020
5657 Clouds 25 1011 94 10000 1.5 40 08:36 30.03.2020
5658 Clouds 25 1011 94 10000 1.5 40 08:18 30.03.2020
5659 Clouds 25 1011 94 10000 1 30 07:42 30.03.2020
5660 Clouds 25 1011 94 10000 1 30 07:20 30.03.2020
5661 Rain 26 1011 100 10000 1 30 06:42 30.03.2020
5662 Rain 26 1011 100 10000 1 30 06:23 30.03.2020
5663 Clouds 26 1011 100 10000 1 50 05:39 30.03.2020
5664 Clouds 27 1011 94 10000 1.5 80 04:29 30.03.2020
5665 Clouds 26 1010 100 10000 1.5 80 03:53 30.03.2020
5666 Clouds 27 1009 94 10000 1 40 02:44 30.03.2020
5667 Clouds 26 1008 100 10000 1 70 01:54 30.03.2020
5668 Clouds 26 1007 100 10000 2.1 60 00:57 30.03.2020
5669 Clouds 26 1007 100 10000 2.1 60 00:26 30.03.2020
5670 Clouds 27 1007 94 10000 2.1 60 23:55 29.03.2020
5671 Clouds 27 1007 94 10000 2.1 60 23:36 29.03.2020
5672 Clouds 27 1007 94 10000 2.1 60 23:18 29.03.2020
5673 Clouds 26 1006 100 10000 2.1 40 22:39 29.03.2020
5674 Clouds 26 1006 100 10000 2.1 40 22:20 29.03.2020
5675 Rain 26 1007 100 10000 4.1 30 21:59 29.03.2020
5676 Rain 26 1007 100 10000 4.1 30 21:37 29.03.2020
5677 Rain 26 1007 100 10000 4.1 30 21:19 29.03.2020
5678 Rain 26 1007 100 3000 6.7 40 20:55 29.03.2020
5679 Rain 29 1007 83 400 7.2 60 20:37 29.03.2020
5680 Rain 29 1007 83 400 7.2 60 20:18 29.03.2020
5681 Clouds 32 1009 62 10000 3.1 80 19:55 29.03.2020
5682 Clouds 32 1009 62 10000 3.1 80 19:37 29.03.2020
5683 Clouds 32 1009 62 10000 3.1 80 19:18 29.03.2020
5684 Clouds 32 1009 62 10000 3.1 80 18:55 29.03.2020
5685 Clouds 32 1009 62 10000 3.1 80 18:55 29.03.2020
5686 Clouds 32 1011 66 10000 4.1 60 18:36 29.03.2020
5687 Clouds 32 1011 66 10000 4.1 70 18:18 29.03.2020
5688 Clouds 32 1011 66 10000 4.1 70 17:42 29.03.2020
5689 Clouds 32 1011 66 10000 4.1 70 17:23 29.03.2020
5690 Clouds 30 1012 79 10000 3.1 70 16:59 29.03.2020
5691 Clouds 30 1012 79 10000 3.1 70 16:40 29.03.2020
5692 Clouds 30 1012 79 10000 3.1 70 16:21 29.03.2020
5693 Clouds 29 1012 79 10000 4.1 60 15:58 29.03.2020
5694 Clouds 29 1012 79 10000 4.1 60 15:39 29.03.2020
5695 Clouds 29 1012 79 10000 4.1 60 15:19 29.03.2020
5696 Clouds 28 1011 83 10000 3.1 60 14:56 29.03.2020
5697 Clouds 28 1011 83 10000 3.1 60 14:37 29.03.2020
5698 Clouds 28 1011 83 10000 3.1 60 14:18 29.03.2020
5699 Clouds 26 1010 94 10000 1.5 30 13:55 29.03.2020
5700 Clouds 26 1010 94 10000 1.5 30 13:55 29.03.2020
5701 Clouds 26 1010 94 10000 1.5 30 13:36 29.03.2020
5702 Clouds 26 1010 94 10000 1.5 30 13:18 29.03.2020
5703 Clouds 26 1010 94 10000 1.5 30 12:54 29.03.2020
5704 Rain 25 1009 94 10000 1.5 20 12:36 29.03.2020
5705 Rain 25 1009 94 10000 1.5 20 12:18 29.03.2020
5706 Clouds 25 1009 100 10000 1.5 130 11:38 29.03.2020
5707 Clouds 25 1009 100 10000 1.5 130 11:19 29.03.2020
5708 Rain 25 1008 100 10000 1 90 10:39 29.03.2020
5709 Rain 25 1008 100 10000 1 90 10:21 29.03.2020
5710 Rain 26 1009 100 10000 3.1 90 09:57 29.03.2020
5711 Rain 26 1009 100 10000 3.1 90 09:38 29.03.2020
5712 Clouds 26 1009 100 10000 3.1 90 09:18 29.03.2020
5713 Clouds 26 1009 100 10000 3.1 90 09:18 29.03.2020
5714 Clouds 26 1009 94 10000 1.5 100 08:45 29.03.2020
5715 Clouds 26 1009 94 10000 1.5 100 08:26 29.03.2020
5716 Clouds 26 1009 94 10000 1.5 100 07:47 29.03.2020
5717 Clouds 26 1010 94 10000 2.1 50 07:23 29.03.2020
5718 Clouds 27 1010 94 10000 3.6 60 06:40 29.03.2020
5719 Thunderstorm 27 1010 83 10000 3.1 10 04:56 29.03.2020
5720 Clouds 28 1009 83 10000 3.1 20 03:41 29.03.2020
5721 Clouds 28 1009 83 10000 3.1 20 03:20 29.03.2020
5722 Clouds 28 1008 79 10000 2.6 20 01:43 29.03.2020
5723 Clouds 28 1008 79 10000 2.6 20 01:22 29.03.2020
5724 Clouds 28 1007 79 10000 2.1 30 00:45 29.03.2020
5725 Clouds 28 1007 79 10000 2.1 30 00:27 29.03.2020
5726 Clouds 29 1006 74 10000 2.6 70 23:41 28.03.2020
5727 Clouds 29 1006 74 10000 2.6 70 23:22 28.03.2020
5728 Clouds 30 1006 70 10000 2.6 70 22:44 28.03.2020
5729 Clouds 30 1006 70 10000 2.6 70 22:22 28.03.2020
5730 Clouds 30 1006 66 10000 2.1 70 21:57 28.03.2020
5731 Clouds 30 1006 66 10000 2.1 70 21:57 28.03.2020
5732 Clouds 30 1006 66 10000 2.1 70 21:39 28.03.2020
5733 Clouds 30 1006 66 10000 2.1 70 21:20 28.03.2020
5734 Clouds 29 1007 74 10000 2.6 60 20:56 28.03.2020
5735 Clouds 29 1007 74 10000 2.6 60 20:37 28.03.2020
5736 Clouds 29 1007 74 10000 2.6 60 20:19 28.03.2020
5737 Clouds 29 1007 74 10000 2.6 60 20:19 28.03.2020
5738 Thunderstorm 30 1008 70 10000 4.1 70 19:55 28.03.2020
5739 Thunderstorm 30 1008 70 10000 4.1 70 19:36 28.03.2020
5740 Thunderstorm 30 1008 70 10000 4.1 70 19:18 28.03.2020
5741 Rain 30 1010 70 10000 3.1 80 18:41 28.03.2020
5742 Rain 31 1010 70 10000 3.1 80 18:20 28.03.2020
5743 Rain 31 1014 74 10000 3.6 70 17:42 28.03.2020
5744 Rain 31 1014 74 10000 3.6 70 17:22 28.03.2020
5745 Rain 29 1012 83 10000 2.6 70 16:59 28.03.2020
5746 Rain 29 1012 83 10000 2.6 70 16:39 28.03.2020
5747 Rain 29 1012 83 10000 2.6 70 16:18 28.03.2020
5748 Clouds 29 1012 83 10000 2.6 80 15:40 28.03.2020
5749 Clouds 29 1012 83 10000 2.6 80 15:20 28.03.2020
5750 Clouds 29 1012 89 10000 1.5 130 14:58 28.03.2020
5751 Clouds 29 1012 89 10000 1.5 130 14:40 28.03.2020
5752 Clouds 29 1012 89 10000 1.5 130 14:21 28.03.2020
5753 Clouds 27 1011 94 10000 1 30 13:43 28.03.2020
5754 Clouds 27 1011 94 10000 1 30 13:23 28.03.2020
5755 Clouds 26 1010 100 10000 1 50 12:41 28.03.2020
5756 Clouds 26 1010 100 10000 1 50 12:22 28.03.2020
5757 Clouds 25 1010 100 10000 1 50 11:44 28.03.2020
5758 Clouds 25 1010 100 10000 1 160 11:25 28.03.2020
5759 Clouds 25 1009 100 10000 1 70 10:58 28.03.2020
5760 Clouds 25 1009 100 10000 1 70 10:38 28.03.2020
5761 Clouds 25 1009 100 10000 1 70 10:19 28.03.2020
5762 Clouds 25 1008 94 10000 1.29 81 09:43 28.03.2020
5763 Clouds 25 1008 94 10000 1.29 81 09:24 28.03.2020
5764 Clouds 25 1008 100 10000 1.29 81 08:57 28.03.2020
5765 Clouds 25 1008 100 10000 1.23 100 08:39 28.03.2020
5766 Clouds 25 1008 100 10000 1.29 81 08:39 28.03.2020
5767 Clouds 25 1008 100 10000 1.23 100 08:20 28.03.2020
5768 Rain 25 1008 100 10000 1.36 105 07:44 28.03.2020
5769 Rain 25 1008 100 10000 1.36 105 06:59 28.03.2020
5770 Rain 25 1008 94 10000 2.1 80 06:35 28.03.2020
5771 Clouds 26 1008 100 10000 2.1 80 05:43 28.03.2020
5772 Clouds 26 1008 100 10000 2.1 80 05:21 28.03.2020
5773 Clouds 26 1008 94 10000 2.6 80 04:41 28.03.2020
5774 Clouds 26 1008 88 10000 2.1 60 03:42 28.03.2020
5775 Clouds 27 1008 74 10000 1.5 350 01:57 28.03.2020
5776 Clouds 27 1008 74 10000 1.5 350 01:26 28.03.2020
5777 Clouds 27 1007 83 10000 1 30 00:57 28.03.2020
5778 Clouds 27 1007 83 10000 1 30 00:36 28.03.2020
5779 Clouds 27 1007 83 10000 1 30 23:55 27.03.2020
5780 Rain 28 1006 78 10000 1 120 23:37 27.03.2020
5781 Rain 28 1006 78 10000 1 120 23:37 27.03.2020
5782 Rain 28 1006 78 10000 1 120 23:18 27.03.2020
5783 Rain 29 1006 83 10000 1 120 22:55 27.03.2020
5784 Rain 29 1006 83 10000 1 120 22:37 27.03.2020
5785 Rain 29 1006 83 10000 1 120 22:18 27.03.2020
5786 Rain 29 1006 83 10000 1 120 22:18 27.03.2020
5787 Rain 29 1006 83 10000 2.1 180 21:42 27.03.2020
5788 Rain 29 1006 83 10000 2.1 180 21:24 27.03.2020
5789 Rain 30 1007 74 10000 1 160 20:58 27.03.2020
5790 Rain 30 1007 74 10000 1 160 20:40 27.03.2020
5791 Rain 30 1007 74 10000 1 160 20:20 27.03.2020
5792 Rain 29 1008 79 10000 1.5 150 19:57 27.03.2020
5793 Rain 29 1008 79 10000 1.5 150 19:38 27.03.2020
5794 Rain 29 1008 79 10000 1.5 150 19:20 27.03.2020
5795 Clouds 29 1009 83 10000 1.5 80 18:44 27.03.2020
5796 Clouds 29 1009 83 10000 1.5 80 18:44 27.03.2020
5797 Clouds 29 1009 83 10000 1.5 80 18:23 27.03.2020
5798 Clouds 29 1009 83 10000 1.5 80 17:57 27.03.2020
5799 Clouds 29 1010 83 10000 2.1 70 17:38 27.03.2020
5800 Clouds 29 1010 83 10000 2.1 70 17:19 27.03.2020
5801 Clouds 28 1010 83 10000 3.1 70 16:44 27.03.2020
5802 Clouds 28 1010 83 10000 3.1 70 16:25 27.03.2020
5803 Clouds 28 1010 83 10000 3.1 70 16:25 27.03.2020
5804 Clouds 28 1010 83 10000 3.1 70 16:25 27.03.2020
5805 Clouds 28 1010 78 10000 4.1 70 15:45 27.03.2020
5806 Clouds 28 1010 78 10000 4.1 70 15:27 27.03.2020
5807 Rain 29 1010 74 10000 4.1 60 14:57 27.03.2020
5808 Rain 29 1010 74 10000 4.1 60 14:39 27.03.2020
5809 Rain 29 1010 74 10000 4.1 60 14:21 27.03.2020
5810 Rain 27 1009 88 10000 3.1 60 13:43 27.03.2020
5811 Rain 27 1009 88 10000 3.1 60 13:22 27.03.2020
5812 Rain 27 1009 83 10000 2.6 30 12:59 27.03.2020
5813 Rain 27 1009 83 10000 2.6 30 12:41 27.03.2020
5814 Rain 27 1009 83 10000 2.6 30 12:19 27.03.2020
5815 Rain 27 1008 83 10000 2.1 30 11:42 27.03.2020
5816 Rain 27 1008 83 10000 2.1 30 11:24 27.03.2020
5817 Clouds 26 1007 83 10000 1.5 40 10:56 27.03.2020
5818 Clouds 26 1007 83 10000 1.5 40 10:38 27.03.2020
5819 Clouds 26 1007 83 10000 1.5 40 10:20 27.03.2020
5820 Rain 26 1007 83 10000 2.1 40 09:58 27.03.2020
5821 Rain 26 1007 83 10000 2.1 40 09:38 27.03.2020
5822 Rain 26 1007 83 10000 2.1 40 09:20 27.03.2020
5823 Rain 26 1007 83 10000 1 30 08:57 27.03.2020
5824 Rain 26 1007 83 10000 1 30 08:38 27.03.2020
5825 Rain 26 1007 83 10000 1 30 08:20 27.03.2020
5826 Rain 27 1007 83 10000 3.1 40 07:52 27.03.2020
5827 Rain 27 1007 83 10000 3.1 40 07:26 27.03.2020
5828 Rain 27 1007 83 10000 3.1 40 06:55 27.03.2020
5829 Rain 27 1008 78 10000 1 60 06:37 27.03.2020
5830 Rain 27 1008 83 10000 1.5 50 05:28 27.03.2020
5831 Thunderstorm 28 1008 79 10000 2.6 260 02:47 27.03.2020
5832 Thunderstorm 28 1007 83 10000 1.5 60 01:36 27.03.2020
5833 Thunderstorm 30 1006 74 10000 2.6 70 00:53 27.03.2020
5834 Thunderstorm 30 1006 74 10000 2.6 70 00:32 27.03.2020
5835 Rain 31 1005 70 10000 2.1 80 23:44 26.03.2020
5836 Rain 31 1005 70 10000 2.1 80 23:23 26.03.2020
5837 Clouds 31 1005 70 10000 2.6 80 22:59 26.03.2020
5838 Clouds 31 1005 70 10000 2.6 80 22:39 26.03.2020
5839 Clouds 31 1005 70 10000 2.6 80 22:20 26.03.2020
5840 Clouds 31 1005 70 10000 2.6 80 22:20 26.03.2020
5841 Rain 32 1005 66 10000 3.1 80 21:57 26.03.2020
5842 Rain 32 1005 66 10000 3.1 80 21:38 26.03.2020
5843 Rain 32 1005 66 10000 3.1 80 21:20 26.03.2020
5844 Rain 33 1006 63 10000 2.1 240 20:57 26.03.2020
5845 Rain 33 1006 63 10000 2.1 240 20:38 26.03.2020
5846 Rain 33 1006 63 10000 2.1 240 20:20 26.03.2020
5847 Rain 31 1007 63 10000 1 120 19:54 26.03.2020
5848 Rain 31 1007 63 10000 1 120 19:36 26.03.2020
5849 Rain 31 1007 63 10000 1 120 19:18 26.03.2020
5850 Rain 33 1009 63 10000 1.5 90 18:41 26.03.2020
5851 Rain 33 1009 63 10000 1.5 90 18:23 26.03.2020
5852 Rain 33 1009 63 10000 1.5 90 18:23 26.03.2020
5853 Rain 33 1009 63 10000 1.5 90 17:56 26.03.2020
5854 Clouds 33 1010 63 10000 2.1 90 17:37 26.03.2020
5855 Clouds 33 1010 59 10000 2.1 10 17:18 26.03.2020
5856 Clouds 32 1011 70 10000 2.1 70 16:40 26.03.2020
5857 Clouds 32 1011 70 10000 2.1 70 16:21 26.03.2020
5858 Clouds 31 1011 70 10000 3.1 80 15:57 26.03.2020
5859 Clouds 31 1011 70 10000 3.1 80 15:57 26.03.2020
5860 Clouds 31 1011 70 10000 3.1 80 15:39 26.03.2020
5861 Clouds 31 1011 70 10000 3.1 80 15:20 26.03.2020
5862 Rain 30 1011 74 10000 3.1 70 14:55 26.03.2020
5863 Rain 30 1011 74 10000 3.1 70 14:36 26.03.2020
5864 Clouds 30 1011 74 10000 3.1 70 14:18 26.03.2020
5865 Clouds 29 1010 74 10000 4.1 60 13:41 26.03.2020
5866 Clouds 29 1010 74 10000 4.1 60 13:22 26.03.2020
5867 Clouds 27 1009 83 10000 3.1 60 12:54 26.03.2020
5868 Clouds 27 1009 83 10000 3.1 60 12:36 26.03.2020
5869 Clouds 27 1009 83 10000 3.1 60 12:18 26.03.2020
5870 Clouds 26 1009 88 10000 2.1 50 11:43 26.03.2020
5871 Clouds 26 1009 88 10000 2.1 50 11:19 26.03.2020
5872 Clouds 26 1010 83 10000 1 90 10:42 26.03.2020
5873 Clouds 26 1010 83 10000 1 90 10:42 26.03.2020
5874 Clouds 26 1010 83 10000 1 90 10:20 26.03.2020
5875 Clouds 26 1010 83 10000 1 90 10:20 26.03.2020
5876 Clouds 26 1010 83 10000 1.5 40 09:55 26.03.2020
5877 Clouds 26 1010 83 10000 1.5 40 09:55 26.03.2020
5878 Clouds 26 1010 83 10000 1.5 40 09:55 26.03.2020
5879 Clouds 26 1010 83 10000 1.5 40 09:37 26.03.2020
5880 Clouds 26 1010 83 10000 1.5 40 09:19 26.03.2020
5881 Clouds 26 1010 83 10000 1.5 150 08:42 26.03.2020
5882 Clouds 26 1010 83 10000 1.5 150 08:24 26.03.2020
5883 Clouds 26 1009 83 10000 1 30 07:57 26.03.2020
5884 Clouds 26 1009 83 10000 1 30 07:38 26.03.2020
5885 Clouds 26 1009 83 10000 1 30 07:19 26.03.2020
5886 Clouds 27 1009 78 10000 1.5 40 06:33 26.03.2020
5887 Clouds 27 1009 94 10000 1.09 81 05:48 26.03.2020
5888 Clouds 26 1010 94 10000 1.4 78 03:46 26.03.2020
5889 Clouds 27 1009 88 10000 2.1 80 02:58 26.03.2020
5890 Clouds 29 1008 70 10000 2.6 40 01:51 26.03.2020
5891 Clouds 29 1008 70 10000 2.6 40 01:18 26.03.2020
5892 Clouds 30 1007 66 10000 2.1 360 00:32 26.03.2020
5893 Clouds 31 1006 62 10000 1.5 70 23:44 25.03.2020
5894 Clouds 31 1006 62 10000 1.5 70 23:24 25.03.2020
5895 Rain 32 1006 59 10000 0.5 120 22:43 25.03.2020
5896 Rain 33 1006 59 10000 0.5 120 22:23 25.03.2020
5897 Clouds 33 1006 59 10000 1.5 140 21:59 25.03.2020
5898 Clouds 33 1006 59 10000 1.5 140 21:41 25.03.2020
5899 Clouds 33 1006 59 10000 1.5 140 21:23 25.03.2020
5900 Clouds 34 1007 59 10000 2.1 170 20:57 25.03.2020
5901 Clouds 34 1007 59 10000 2.1 170 20:38 25.03.2020
5902 Clouds 34 1007 59 10000 2.1 170 20:38 25.03.2020
5903 Clouds 34 1007 59 10000 2.1 170 20:18 25.03.2020
5904 Clouds 33 1009 63 10000 2.1 80 19:43 25.03.2020
5905 Clouds 33 1009 63 10000 2.1 80 19:24 25.03.2020
5906 Clouds 33 1009 63 10000 2.1 80 18:59 25.03.2020
5907 Clouds 33 1010 63 10000 2.1 90 18:41 25.03.2020
5908 Clouds 33 1010 63 10000 2.1 90 18:23 25.03.2020
5909 Clouds 33 1010 63 10000 2.1 90 17:58 25.03.2020
5910 Clouds 33 1010 63 10000 2.1 90 17:58 25.03.2020
5911 Clouds 33 1011 63 10000 3.1 80 17:39 25.03.2020
5912 Clouds 33 1011 63 10000 3.1 80 17:21 25.03.2020
5913 Clouds 31 1012 66 10000 3.1 80 16:55 25.03.2020
5914 Clouds 31 1012 66 10000 3.1 80 16:36 25.03.2020
5915 Clouds 31 1012 66 10000 3.1 80 16:18 25.03.2020
5916 Clouds 30 1013 74 10000 2.6 70 15:41 25.03.2020
5917 Clouds 30 1013 74 10000 2.6 70 15:20 25.03.2020
5918 Clouds 30 1013 70 10000 3.6 60 14:55 25.03.2020
5919 Clouds 30 1013 70 10000 3.6 60 14:37 25.03.2020
5920 Clouds 30 1013 70 10000 3.6 60 14:18 25.03.2020
5921 Rain 28 1013 78 10000 3.6 60 13:42 25.03.2020
5922 Rain 28 1013 78 10000 3.6 60 13:22 25.03.2020
5923 Clouds 26 1012 83 10000 3.1 50 12:38 25.03.2020
5924 Clouds 26 1012 83 10000 3.1 50 12:19 25.03.2020
5925 Clouds 26 1012 83 10000 3.1 50 11:56 25.03.2020
5926 Rain 25 1011 88 10000 2.6 80 11:37 25.03.2020
5927 Clouds 25 1011 88 10000 2.6 80 11:19 25.03.2020
5928 Clouds 25 1011 88 10000 1 40 10:56 25.03.2020
5929 Clouds 25 1011 88 10000 1 40 10:38 25.03.2020
5930 Clouds 25 1011 88 10000 1 40 10:18 25.03.2020
5931 Clouds 26 1010 88 10000 1.5 90 09:43 25.03.2020
5932 Clouds 26 1010 88 10000 1.5 90 09:24 25.03.2020
5933 Clouds 26 1010 83 10000 1 120 08:56 25.03.2020
5934 Clouds 26 1010 83 10000 1 120 08:38 25.03.2020
5935 Clouds 26 1010 83 10000 1 120 08:19 25.03.2020
5936 Clouds 26 1011 83 10000 1 50 07:41 25.03.2020
5937 Clouds 26 1011 83 10000 1 50 07:22 25.03.2020
5938 Clouds 26 1011 83 10000 1 50 06:48 25.03.2020
5939 Clouds 26 1011 74 10000 1.5 80 06:28 25.03.2020
5940 Clouds 26 1011 74 10000 1.5 80 05:56 25.03.2020
5941 Clouds 26 1012 74 10000 1.5 30 05:30 25.03.2020
5942 Clouds 26 1012 65 10000 1.5 70 04:39 25.03.2020
5943 Clouds 27 1012 74 10000 1.5 60 03:36 25.03.2020
5944 Clouds 27 1010 69 10000 1.5 80 02:31 25.03.2020
5945 Clouds 27 1010 74 10000 1 90 01:21 25.03.2020
5946 Clouds 28 1009 78 10000 1 160 00:48 25.03.2020
5947 Clouds 28 1009 78 10000 1 160 00:23 25.03.2020
5948 Clouds 30 1009 79 10000 1 90 23:45 24.03.2020
5949 Clouds 30 1009 79 10000 1 90 23:26 24.03.2020
5950 Clouds 32 1009 62 10000 1 140 22:56 24.03.2020
5951 Clouds 32 1009 62 10000 1 140 22:37 24.03.2020
5952 Clouds 32 1009 62 10000 1 140 22:19 24.03.2020
5953 Clouds 32 1009 62 10000 1 140 22:19 24.03.2020
5954 Clouds 32 1009 52 10000 2.1 190 21:56 24.03.2020
5955 Clouds 32 1009 52 10000 2.1 190 21:37 24.03.2020
5956 Clouds 32 1009 52 10000 2.1 190 21:18 24.03.2020
5957 Clouds 32 1010 49 10000 1.5 160 20:43 24.03.2020
5958 Clouds 32 1010 49 10000 1.5 160 20:24 24.03.2020
5959 Clouds 31 1012 66 10000 2.1 70 19:59 24.03.2020
5960 Clouds 31 1012 66 10000 2.1 70 19:41 24.03.2020
5961 Clouds 31 1012 66 10000 2.1 70 19:19 24.03.2020
5962 Clouds 31 1012 66 10000 2.1 70 18:55 24.03.2020
5963 Clouds 31 1014 70 10000 1.5 170 18:37 24.03.2020
5964 Clouds 31 1014 70 10000 1.5 170 18:18 24.03.2020
5965 Clouds 30 1014 74 10000 1 90 17:42 24.03.2020
5966 Clouds 30 1014 74 10000 1 90 17:23 24.03.2020
5967 Clouds 30 1015 79 10000 1 70 16:58 24.03.2020
5968 Clouds 30 1015 79 10000 1 70 16:40 24.03.2020
5969 Clouds 30 1015 79 10000 1 70 16:22 24.03.2020
5970 Clouds 29 1015 78 10000 1.5 110 15:58 24.03.2020
5971 Clouds 29 1015 78 10000 1.5 110 15:37 24.03.2020
5972 Clouds 29 1015 78 10000 1.5 110 15:19 24.03.2020
5973 Clouds 28 1014 74 10000 1.5 50 14:43 24.03.2020
5974 Clouds 28 1014 74 10000 1.5 50 14:19 24.03.2020
5975 Clouds 25 1014 88 10000 2.6 50 13:44 24.03.2020
5976 Clouds 25 1014 88 10000 2.6 50 13:24 24.03.2020
5977 Clouds 25 1014 88 10000 2.6 50 12:57 24.03.2020
5978 Clouds 23 1014 100 10000 1.5 40 12:37 24.03.2020
5979 Mist 23 1014 100 2000 1.5 20 12:19 24.03.2020
5980 Clouds 23 1013 100 10000 2.1 20 11:39 24.03.2020
5981 Clouds 23 1013 100 10000 2.1 20 11:20 24.03.2020
5982 Clouds 23 1013 100 10000 2.1 10 10:43 24.03.2020
5983 Clouds 23 1013 100 10000 2.1 10 10:20 24.03.2020
5984 Clouds 23 1013 100 10000 2.1 10 09:59 24.03.2020
5985 Clouds 23 1013 100 10000 2.1 10 09:40 24.03.2020
5986 Clouds 23 1013 100 10000 2.1 10 09:22 24.03.2020
5987 Clouds 23 1012 100 10000 1.5 10 08:39 24.03.2020
5988 Clouds 23 1012 100 10000 1.5 10 08:20 24.03.2020
5989 Clouds 23 1012 100 10000 1 30 07:48 24.03.2020
5990 Clouds 23 1012 100 10000 1 30 07:24 24.03.2020
5991 Clouds 22 1012 100 10000 0.65 158 06:53 24.03.2020
5992 Clouds 23 1013 100 10000 1 40 06:31 24.03.2020
5993 Clouds 23 1013 100 10000 1 60 05:22 24.03.2020
5994 Clouds 23 1013 100 10000 1 80 04:27 24.03.2020
5995 Clouds 24 1013 94 10000 1 80 03:18 24.03.2020
5996 Clouds 24 1012 94 10000 1 30 01:47 24.03.2020
5997 Clouds 25 1012 88 10000 1.5 20 00:48 24.03.2020
5998 Clouds 25 1012 88 10000 1.5 20 00:25 24.03.2020
5999 Clouds 25 1011 88 10000 1 360 23:45 23.03.2020
6000 Clouds 25 1011 88 10000 1 360 23:26 23.03.2020
6001 Clouds 25 1011 88 10000 2.1 20 22:56 23.03.2020
6002 Clouds 25 1011 88 10000 2.1 20 22:37 23.03.2020
6003 Clouds 25 1011 88 10000 2.1 20 22:19 23.03.2020
6004 Clouds 25 1011 88 10000 2.1 20 21:44 23.03.2020
6005 Clouds 25 1012 88 10000 1.5 60 21:20 23.03.2020
6006 Clouds 25 1012 94 10000 2.6 80 20:58 23.03.2020
6007 Clouds 25 1012 94 10000 2.6 80 20:39 23.03.2020
6008 Clouds 25 1012 94 10000 2.6 80 20:21 23.03.2020
6009 Clouds 24 1012 100 10000 2.6 80 19:45 23.03.2020
6010 Clouds 24 1012 100 10000 2.6 80 19:45 23.03.2020
6011 Clouds 25 1013 88 10000 1.5 170 19:27 23.03.2020
6012 Clouds 25 1013 88 10000 1.5 170 18:59 23.03.2020
6013 Rain 24 1016 88 10000 1.5 260 18:40 23.03.2020
6014 Rain 24 1016 88 10000 1.5 260 18:21 23.03.2020
6015 Rain 23 1017 100 10000 4.1 280 17:43 23.03.2020
6016 Rain 23 1017 94 10000 4.1 260 17:21 23.03.2020
6017 Rain 23 1017 94 10000 4.1 260 16:59 23.03.2020
6018 Rain 23 1018 100 8000 4.6 270 16:39 23.03.2020
6019 Rain 23 1018 100 8000 4.6 270 16:20 23.03.2020
6020 Rain 22 1018 100 4000 4.1 250 15:42 23.03.2020
6021 Rain 22 1018 100 4000 4.1 250 15:42 23.03.2020
6022 Rain 23 1019 100 2000 2.6 320 15:20 23.03.2020
6023 Rain 23 1018 100 3000 2.6 340 14:55 23.03.2020
6024 Rain 23 1018 100 3000 2.6 340 14:36 23.03.2020
6025 Rain 23 1018 100 3000 2.6 340 14:36 23.03.2020
6026 Rain 23 1018 100 3000 2.6 340 14:18 23.03.2020
6027 Thunderstorm 22 1017 100 3000 2.6 270 13:40 23.03.2020
6028 Thunderstorm 22 1017 100 3000 2.6 270 13:21 23.03.2020
6029 Thunderstorm 23 1015 100 1000 2.1 310 12:45 23.03.2020
6030 Thunderstorm 23 1015 100 1000 2.1 310 12:45 23.03.2020
6031 Thunderstorm 23 1015 100 1000 2.1 310 12:26 23.03.2020
6032 Thunderstorm 23 1015 100 1000 2.1 310 11:59 23.03.2020
6033 Thunderstorm 23 1015 100 1000 2.1 310 11:59 23.03.2020
6034 Thunderstorm 23 1014 100 2000 2.6 170 11:40 23.03.2020
6035 Thunderstorm 23 1014 100 2000 2.6 170 11:20 23.03.2020
6036 Thunderstorm 23 1014 100 2000 2.6 170 11:20 23.03.2020
6037 Thunderstorm 24 1012 100 5000 3.1 180 10:58 23.03.2020
6038 Thunderstorm 24 1012 100 5000 3.1 180 10:38 23.03.2020
6039 Thunderstorm 24 1012 100 5000 3.1 180 10:38 23.03.2020
6040 Thunderstorm 24 1012 100 5000 3.1 180 10:20 23.03.2020
6041 Thunderstorm 25 1012 94 800 4.6 150 09:44 23.03.2020
6042 Rain 25 1010 94 10000 1 80 09:21 23.03.2020
6043 Rain 27 1011 94 10000 1 100 08:57 23.03.2020
6044 Rain 27 1011 94 10000 1 100 08:36 23.03.2020
6045 Clouds 27 1011 94 10000 1 100 08:18 23.03.2020
6046 Rain 28 1011 94 10000 1.5 110 07:45 23.03.2020
6047 Rain 28 1011 94 10000 1.5 110 07:27 23.03.2020
6048 Rain 28 1012 83 10000 2.6 80 06:52 23.03.2020
6049 Rain 28 1013 100 10000 1 30 05:54 23.03.2020
6050 Rain 28 1013 100 10000 1 30 05:29 23.03.2020
6051 Rain 29 1012 79 10000 2.1 80 03:29 23.03.2020
6052 Rain 29 1012 79 10000 1.5 80 01:51 23.03.2020
6053 Rain 29 1010 79 10000 1 80 01:33 23.03.2020
6054 Rain 30 1010 74 10000 2.1 80 00:39 23.03.2020
6055 Clouds 30 1009 74 10000 3.1 70 23:48 22.03.2020
6056 Clouds 32 1009 70 10000 2.1 80 23:26 22.03.2020
6057 Clouds 32 1009 62 10000 3.1 70 22:45 22.03.2020
6058 Clouds 33 1008 66 10000 2.6 80 22:26 22.03.2020
6059 Clouds 34 1008 63 10000 2.1 70 21:56 22.03.2020
6060 Clouds 34 1008 63 10000 2.1 70 21:37 22.03.2020
6061 Clouds 34 1008 63 10000 2.1 70 21:19 22.03.2020
6062 Clouds 33 1009 66 10000 2.6 80 20:46 22.03.2020
6063 Clouds 33 1009 66 10000 2.6 80 20:26 22.03.2020
6064 Clouds 33 1010 63 10000 2.1 70 19:59 22.03.2020
6065 Clouds 33 1010 63 10000 2.1 70 19:40 22.03.2020
6066 Clouds 33 1010 63 10000 2.1 70 19:21 22.03.2020
6067 Clouds 33 1011 66 10000 2.6 80 18:59 22.03.2020
6068 Clouds 33 1011 66 10000 2.6 80 18:41 22.03.2020
6069 Clouds 33 1011 66 10000 2.6 80 18:22 22.03.2020
6070 Clouds 32 1011 66 10000 2.6 80 17:59 22.03.2020
6071 Clouds 32 1012 62 10000 3.6 70 17:39 22.03.2020
6072 Clouds 32 1012 62 10000 3.6 70 17:39 22.03.2020
6073 Clouds 32 1012 62 10000 3.6 70 17:21 22.03.2020
6074 Clouds 31 1013 70 10000 3.6 70 16:58 22.03.2020
6075 Clouds 31 1013 70 10000 3.6 70 16:40 22.03.2020
6076 Clouds 31 1013 70 10000 3.6 70 16:21 22.03.2020
6077 Clouds 30 1013 74 10000 4.1 60 15:57 22.03.2020
6078 Clouds 30 1013 74 10000 4.1 60 15:39 22.03.2020
6079 Clouds 30 1013 79 10000 4.1 70 14:47 22.03.2020
6080 Clouds 30 1013 79 10000 4.1 70 14:19 22.03.2020
6081 Clouds 28 1013 88 10000 3.6 70 13:56 22.03.2020
6082 Clouds 28 1013 88 10000 3.6 70 13:37 22.03.2020
6083 Clouds 28 1013 88 10000 3.6 70 13:19 22.03.2020
6084 Clear 27 1012 94 10000 2.6 70 12:43 22.03.2020
6085 Clear 27 1012 94 10000 2.6 70 12:20 22.03.2020
6086 Clear 27 1012 94 10000 2.6 70 11:56 22.03.2020
6087 Clear 27 1012 94 10000 2.6 70 11:37 22.03.2020
6088 Clouds 27 1012 94 10000 2.6 70 11:19 22.03.2020
6089 Clouds 26 1011 94 10000 2.6 70 10:43 22.03.2020
6090 Clouds 26 1011 94 10000 2.6 70 10:23 22.03.2020
6091 Clouds 26 1011 94 10000 2.6 70 10:23 22.03.2020
6092 Clouds 27 1011 100 10000 1.5 80 09:47 22.03.2020
6093 Clouds 27 1011 100 10000 1.5 80 09:28 22.03.2020
6094 Clouds 27 1011 88 10000 2.1 70 08:53 22.03.2020
6095 Clouds 27 1011 88 10000 2.1 70 08:53 22.03.2020
6096 Clear 27 1011 88 10000 2.1 70 08:33 22.03.2020
6097 Rain 27 1011 94 10000 2.6 70 07:59 22.03.2020
6098 Rain 27 1011 94 10000 2.6 70 07:41 22.03.2020
6099 Rain 27 1011 94 10000 2.6 70 07:18 22.03.2020
6100 Rain 26 1011 100 10000 1.5 80 05:54 22.03.2020
6101 Rain 27 1012 83 10000 2.1 80 04:39 22.03.2020
6102 Rain 28 1011 74 10000 2.6 70 02:34 22.03.2020
6103 Rain 29 1010 79 10000 1.5 90 01:19 22.03.2020
6104 Clouds 29 1009 74 10000 1.5 80 00:34 22.03.2020
6105 Clouds 29 1009 74 10000 1.5 80 23:47 21.03.2020
6106 Clouds 30 1009 70 10000 2.1 90 23:24 21.03.2020
6107 Clouds 32 1008 62 10000 2.1 80 22:59 21.03.2020
6108 Clouds 32 1008 62 10000 2.1 80 22:38 21.03.2020
6109 Clouds 32 1008 62 10000 2.1 80 22:20 21.03.2020
6110 Clouds 32 1009 66 10000 2.1 80 21:59 21.03.2020
6111 Clouds 32 1009 66 10000 2.1 80 21:39 21.03.2020
6112 Clouds 32 1009 66 10000 2.1 80 21:20 21.03.2020
6113 Clouds 32 1009 66 10000 2.1 80 21:20 21.03.2020
6114 Clouds 32 1009 62 10000 1.5 310 20:44 21.03.2020
6115 Clouds 32 1009 62 10000 1.5 310 20:22 21.03.2020
6116 Clouds 32 1010 66 10000 2.1 80 19:57 21.03.2020
6117 Clouds 32 1010 66 10000 2.1 80 19:38 21.03.2020
6118 Clouds 32 1010 66 10000 2.1 80 19:19 21.03.2020
6119 Clouds 31 1010 66 10000 2.1 80 18:54 21.03.2020
6120 Clouds 32 1011 66 10000 2.6 70 18:36 21.03.2020
6121 Clouds 32 1011 66 10000 2.6 70 18:18 21.03.2020
6122 Clouds 32 1012 74 10000 2.6 80 17:42 21.03.2020
6123 Clouds 32 1012 74 10000 2.6 80 17:23 21.03.2020
6124 Clouds 31 1013 70 10000 1.5 90 16:43 21.03.2020
6125 Clouds 31 1013 70 10000 1.5 90 16:24 21.03.2020
6126 Clouds 31 1013 70 10000 1.5 90 16:24 21.03.2020
6127 Clouds 30 1013 74 10000 2.6 70 15:59 21.03.2020
6128 Clouds 30 1013 74 10000 2.6 70 15:41 21.03.2020
6129 Clouds 30 1013 74 10000 2.6 70 15:23 21.03.2020
6130 Clouds 28 1014 83 10000 3.6 70 14:57 21.03.2020
6131 Clouds 28 1014 83 10000 3.6 70 14:39 21.03.2020
6132 Clouds 28 1014 83 10000 3.6 70 14:20 21.03.2020
6133 Clouds 27 1013 94 10000 3.1 60 13:58 21.03.2020
6134 Clouds 27 1013 94 10000 3.1 60 13:58 21.03.2020
6135 Clouds 27 1013 94 10000 3.1 60 13:39 21.03.2020
6136 Clouds 27 1013 94 10000 3.1 60 13:21 21.03.2020
6137 Clouds 26 1012 94 10000 1.5 60 12:57 21.03.2020
6138 Clouds 26 1012 94 10000 1.5 60 12:37 21.03.2020
6139 Clouds 26 1012 94 10000 1.5 60 12:19 21.03.2020
6140 Clouds 26 1012 94 10000 1.5 60 11:55 21.03.2020
6141 Clouds 24 1011 100 10000 1.5 50 11:37 21.03.2020
6142 Clouds 24 1011 100 10000 1.5 50 11:18 21.03.2020
6143 Clouds 24 1011 100 10000 1.57 28 10:56 21.03.2020
6144 Clouds 24 1011 100 10000 1.57 28 10:38 21.03.2020
6145 Clouds 24 1011 100 10000 1.57 28 10:19 21.03.2020
6146 Clouds 24 1010 100 10000 1.57 28 09:41 21.03.2020
6147 Clouds 24 1010 100 10000 1.57 28 09:23 21.03.2020
6148 Clouds 25 1010 100 10000 1.5 80 08:59 21.03.2020
6149 Clouds 25 1010 100 10000 1.5 80 08:41 21.03.2020
6150 Clouds 25 1010 100 10000 1.5 80 08:22 21.03.2020
6151 Clouds 25 1010 94 10000 1.5 70 07:42 21.03.2020
6152 Clouds 25 1010 94 10000 1.5 70 07:23 21.03.2020
6153 Clouds 25 1010 94 10000 1.5 70 06:45 21.03.2020
6154 Clouds 25 1011 83 10000 1.5 70 06:26 21.03.2020
6155 Clouds 25 1012 94 10000 2.1 40 05:41 21.03.2020
6156 Clouds 25 1012 83 10000 2.1 40 04:37 21.03.2020
6157 Clouds 25 1011 83 10000 1.5 70 02:39 21.03.2020
6158 Clouds 26 1010 78 10000 1.5 60 01:57 21.03.2020
6159 Clouds 26 1010 78 10000 1.5 60 01:29 21.03.2020
6160 Clouds 26 1010 88 10000 4.1 30 00:47 21.03.2020
6161 Clouds 26 1010 88 10000 4.1 30 00:24 21.03.2020
6162 Clouds 26 1010 88 10000 4.1 30 23:46 20.03.2020
6163 Thunderstorm 26 1010 94 10000 1 210 23:24 20.03.2020
6164 Thunderstorm 25 1010 94 3000 2.6 320 22:55 20.03.2020
6165 Rain 26 1009 88 10000 2.1 100 22:36 20.03.2020
6166 Rain 26 1009 88 10000 2.1 100 22:18 20.03.2020
6167 Rain 30 1010 70 10000 3.1 70 21:54 20.03.2020
6168 Rain 30 1010 70 10000 3.1 70 21:36 20.03.2020
6169 Rain 30 1010 70 10000 3.1 70 21:18 20.03.2020
6170 Clouds 31 1010 66 10000 2.6 80 20:41 20.03.2020
6171 Clouds 31 1010 66 10000 2.6 80 20:41 20.03.2020
6172 Clouds 31 1010 66 10000 2.6 80 20:21 20.03.2020
6173 Clouds 30 1011 70 10000 1.5 70 19:58 20.03.2020
6174 Clouds 30 1011 70 10000 1.5 70 19:40 20.03.2020
6175 Clouds 30 1011 70 10000 1.5 70 19:18 20.03.2020
6176 Clouds 30 1012 70 10000 2.6 80 18:39 20.03.2020
6177 Clouds 30 1012 70 10000 2.6 80 18:20 20.03.2020
6178 Clouds 30 1012 70 10000 2.6 80 17:57 20.03.2020
6179 Clouds 30 1013 74 10000 1 100 17:39 20.03.2020
6180 Clouds 29 1014 78 10000 2.6 50 17:20 20.03.2020
6181 Clouds 29 1014 78 10000 2.6 50 16:43 20.03.2020
6182 Clouds 29 1014 78 10000 2.6 50 16:22 20.03.2020
6183 Clouds 27 1014 78 10000 2.6 50 15:59 20.03.2020
6184 Clouds 27 1014 78 10000 2.6 50 15:41 20.03.2020
6185 Clouds 27 1014 78 10000 2.6 50 15:20 20.03.2020
6186 Clouds 26 1015 83 10000 2.1 70 14:42 20.03.2020
6187 Clouds 26 1015 83 10000 2.1 70 14:21 20.03.2020
6188 Clouds 24 1014 94 10000 2.1 70 13:55 20.03.2020
6189 Clouds 24 1014 94 10000 2.1 70 13:36 20.03.2020
6190 Clouds 24 1014 94 10000 2.1 70 13:18 20.03.2020
6191 Clouds 23 1013 100 10000 1 10 12:39 20.03.2020
6192 Clouds 23 1013 100 10000 1 10 12:20 20.03.2020
6193 Clouds 22 1013 100 10000 2.1 30 11:42 20.03.2020
6194 Clouds 22 1013 100 10000 2.1 30 11:22 20.03.2020
6195 Clouds 23 1013 94 10000 1.5 70 10:59 20.03.2020
6196 Clouds 23 1013 94 10000 1.5 70 10:41 20.03.2020
6197 Clouds 23 1013 94 10000 1.5 70 10:20 20.03.2020
6198 Clouds 23 1013 100 10000 2.1 20 09:47 20.03.2020
6199 Clouds 23 1013 100 10000 2.1 20 09:22 20.03.2020
6200 Clouds 22 1012 100 10000 1.5 40 08:59 20.03.2020
6201 Clouds 22 1012 100 10000 1.5 40 08:40 20.03.2020
6202 Clouds 23 1012 100 10000 2.6 350 08:20 20.03.2020
6203 Clouds 23 1012 100 10000 1 120 07:46 20.03.2020
6204 Clouds 23 1012 100 10000 1 120 07:26 20.03.2020
6205 Clouds 23 1012 100 10000 1 120 06:49 20.03.2020
6206 Clouds 23 1012 100 10000 1.5 80 06:31 20.03.2020
6207 Clouds 23 1012 100 10000 2.6 50 04:49 20.03.2020
6208 Clouds 23 1013 100 10000 1 270 03:19 20.03.2020
6209 Clouds 23 1012 100 10000 4.1 360 01:51 20.03.2020
6210 Clouds 23 1012 100 10000 2.1 340 00:46 20.03.2020
6211 Clouds 23 1012 100 10000 2.1 340 00:25 20.03.2020
6212 Clouds 23 1012 94 10000 2.6 340 23:44 19.03.2020
6213 Clouds 23 1012 94 10000 2.6 340 23:25 19.03.2020
6214 Clouds 23 1011 94 10000 4.1 30 22:56 19.03.2020
6215 Clouds 23 1011 94 10000 4.1 30 22:37 19.03.2020
6216 Clouds 23 1011 94 10000 4.1 30 22:18 19.03.2020
6217 Clouds 23 1012 100 10000 4.6 40 21:41 19.03.2020
6218 Clouds 23 1012 100 10000 4.6 40 21:20 19.03.2020
6219 Rain 23 1012 100 8000 5.1 50 20:56 19.03.2020
6220 Rain 23 1013 100 3000 5.1 40 20:38 19.03.2020
6221 Rain 23 1013 100 3000 5.1 40 20:19 19.03.2020
6222 Rain 23 1013 100 4000 3.6 40 19:55 19.03.2020
6223 Rain 23 1013 100 4000 3.6 40 19:36 19.03.2020
6224 Rain 23 1013 100 4000 3.6 40 19:18 19.03.2020
6225 Rain 23 1014 100 4000 2.6 330 18:42 19.03.2020
6226 Rain 23 1014 100 4000 2.6 330 18:22 19.03.2020
6227 Rain 23 1014 100 4000 2.6 330 17:56 19.03.2020
6228 Rain 23 1015 100 4000 2.6 310 17:38 19.03.2020
6229 Rain 23 1015 100 4000 2.6 310 17:18 19.03.2020
6230 Rain 23 1016 100 1500 2.1 290 16:43 19.03.2020
6231 Rain 23 1016 100 1500 2.1 290 16:22 19.03.2020
6232 Rain 23 1016 94 7000 4.1 270 15:44 19.03.2020
6233 Rain 23 1016 94 7000 4.1 270 15:25 19.03.2020
6234 Rain 24 1015 100 7000 5.1 310 14:55 19.03.2020
6235 Rain 24 1015 100 7000 5.1 310 14:37 19.03.2020
6236 Rain 24 1015 100 7000 5.1 310 14:18 19.03.2020
6237 Rain 24 1015 94 1500 5.1 270 13:39 19.03.2020
6238 Rain 24 1015 94 1500 5.1 270 13:18 19.03.2020
6239 Clouds 25 1013 100 10000 3.1 220 12:42 19.03.2020
6240 Clouds 25 1013 100 10000 3.1 220 12:24 19.03.2020
6241 Clouds 25 1013 100 10000 3.1 220 11:59 19.03.2020
6242 Clouds 25 1012 100 10000 2.6 210 11:41 19.03.2020
6243 Clouds 25 1012 100 10000 2.6 210 11:22 19.03.2020
6244 Clouds 25 1011 94 10000 1.5 60 10:44 19.03.2020
6245 Clouds 25 1011 94 10000 1.5 60 10:22 19.03.2020
6246 Clouds 25 1011 94 10000 1 80 09:58 19.03.2020
6247 Clouds 25 1011 94 10000 1 80 09:40 19.03.2020
6248 Clouds 25 1011 94 10000 1 80 09:20 19.03.2020
6249 Clouds 26 1012 100 10000 1.5 60 08:46 19.03.2020
6250 Clouds 26 1012 100 10000 1.5 60 08:22 19.03.2020
6251 Clouds 26 1012 94 10000 0.5 40 07:48 19.03.2020
6252 Clouds 26 1012 94 10000 0.5 40 07:30 19.03.2020
6253 Clouds 26 1012 94 10000 0.5 40 06:51 19.03.2020
6254 Clouds 26 1012 100 10000 1 40 05:53 19.03.2020
6255 Clouds 26 1013 100 10000 1.5 90 05:22 19.03.2020
6256 Clouds 26 1013 100 10000 0.5 90 04:41 19.03.2020
6257 Clouds 26 1013 100 10000 0.5 80 03:36 19.03.2020
6258 Clouds 27 1010 100 10000 1.5 160 01:27 19.03.2020
6259 Clouds 27 1010 100 10000 1 60 00:37 19.03.2020
6260 Clouds 27 1010 100 10000 1 60 23:58 18.03.2020
6261 Clouds 27 1010 88 10000 1.5 70 23:36 18.03.2020
6262 Clouds 27 1010 88 10000 1.5 70 23:18 18.03.2020
6263 Rain 28 1009 88 10000 1.5 80 22:42 18.03.2020
6264 Rain 28 1009 88 10000 1.5 80 22:22 18.03.2020
6265 Rain 29 1008 83 10000 1.5 60 21:54 18.03.2020
6266 Rain 29 1008 83 10000 1.5 60 21:36 18.03.2020
6267 Rain 29 1008 83 10000 1.5 60 21:18 18.03.2020
6268 Rain 30 1009 79 10000 1.5 100 20:41 18.03.2020
6269 Rain 30 1009 79 10000 1.5 100 20:21 18.03.2020
6270 Clouds 31 1010 74 10000 3.1 70 19:58 18.03.2020
6271 Clouds 31 1010 74 10000 3.1 70 19:40 18.03.2020
6272 Clouds 31 1010 74 10000 3.1 70 19:21 18.03.2020
6273 Clouds 31 1011 79 10000 1.5 100 18:42 18.03.2020
6274 Clouds 31 1011 79 10000 1.5 100 18:21 18.03.2020
6275 Clouds 31 1011 79 10000 1.5 100 17:59 18.03.2020
6276 Clouds 31 1011 79 10000 1.5 100 17:59 18.03.2020
6277 Clouds 30 1013 83 10000 1 100 17:41 18.03.2020
6278 Clouds 30 1013 70 10000 3.6 70 17:22 18.03.2020
6279 Clouds 30 1014 83 10000 2.1 180 16:58 18.03.2020
6280 Clouds 30 1014 83 10000 2.1 180 16:40 18.03.2020
6281 Clouds 30 1014 83 10000 2.1 180 16:20 18.03.2020
6282 Clouds 30 1014 83 10000 1.5 100 15:45 18.03.2020
6283 Clouds 30 1014 83 10000 1.5 100 15:23 18.03.2020
6284 Clouds 29 1014 83 10000 1 160 14:57 18.03.2020
6285 Clouds 29 1014 83 10000 1 160 14:39 18.03.2020
6286 Clouds 28 1014 94 10000 1.5 150 14:20 18.03.2020
6287 Clouds 28 1014 94 10000 1.5 150 14:20 18.03.2020
6288 Clouds 27 1013 100 10000 1.5 170 13:39 18.03.2020
6289 Clouds 27 1013 100 10000 1.5 170 13:19 18.03.2020
6290 Clouds 27 1013 100 10000 1.5 170 13:19 18.03.2020
6291 Clouds 26 1012 100 10000 1.5 190 12:42 18.03.2020
6292 Clouds 26 1012 100 10000 1.5 190 12:20 18.03.2020
6293 Clouds 26 1011 100 10000 0.5 160 11:41 18.03.2020
6294 Clouds 26 1011 100 10000 0.5 160 11:22 18.03.2020
6295 Rain 27 1011 88 10000 1 110 10:59 18.03.2020
6296 Rain 27 1011 88 10000 1 110 10:59 18.03.2020
6297 Rain 27 1011 88 10000 1 110 10:39 18.03.2020
6298 Rain 27 1011 88 10000 1 110 10:21 18.03.2020
6299 Rain 26 1010 100 10000 0.5 90 09:59 18.03.2020
6300 Rain 26 1010 100 10000 0.5 90 09:39 18.03.2020
6301 Rain 26 1010 100 10000 0.5 90 09:21 18.03.2020
6302 Rain 26 1011 100 10000 0.32 312 08:40 18.03.2020
6303 Clear 26 1011 100 10000 0.53 244 08:21 18.03.2020
6304 Clouds 26 1011 100 10000 1.12 224 07:49 18.03.2020
6305 Clouds 26 1011 100 10000 0.5 120 07:31 18.03.2020
6306 Clouds 25 1011 100 10000 0.5 120 06:54 18.03.2020
6307 Clouds 26 1012 94 10000 1.5 90 06:35 18.03.2020
6308 Clouds 27 1012 100 10000 1.12 224 05:37 18.03.2020
6309 Rain 27 1012 94 10000 2.1 220 04:29 18.03.2020
6310 Rain 27 1012 83 10000 1 10 03:21 18.03.2020
6311 Rain 27 1011 88 10000 1 70 02:32 18.03.2020
6312 Rain 28 1009 83 10000 1.5 70 01:31 18.03.2020
6313 Clouds 28 1009 74 10000 2.1 30 00:42 18.03.2020
6314 Clouds 28 1009 74 10000 2.1 30 00:21 18.03.2020
6315 Clouds 29 1009 74 10000 2.1 30 23:40 17.03.2020
6316 Clouds 29 1009 74 10000 2.1 30 23:19 17.03.2020
6317 Clouds 30 1008 70 10000 3.1 40 22:42 17.03.2020
6318 Clouds 30 1008 70 10000 3.1 40 22:24 17.03.2020
6319 Clouds 30 1008 70 10000 3.6 20 21:42 17.03.2020
6320 Clouds 30 1008 70 10000 3.6 20 21:22 17.03.2020
6321 Clouds 30 1008 74 10000 3.6 30 20:56 17.03.2020
6322 Clouds 30 1008 74 10000 3.6 30 20:37 17.03.2020
6323 Clouds 30 1008 74 10000 3.6 30 20:19 17.03.2020
6324 Clouds 30 1009 79 10000 3.1 70 19:41 17.03.2020
6325 Clouds 30 1009 70 10000 4.1 10 19:18 17.03.2020
6326 Clouds 30 1009 70 10000 4.1 10 18:56 17.03.2020
6327 Clouds 30 1010 79 10000 2.6 70 18:38 17.03.2020
6328 Clouds 30 1010 79 10000 2.6 70 18:20 17.03.2020
6329 Clouds 30 1012 83 10000 2.1 80 17:41 17.03.2020
6330 Clouds 30 1012 83 10000 2.1 80 17:23 17.03.2020
6331 Clouds 29 1013 83 10000 2.1 80 16:57 17.03.2020
6332 Clouds 29 1013 83 10000 2.1 80 16:39 17.03.2020
6333 Clouds 29 1013 83 10000 2.1 80 16:18 17.03.2020
6334 Clouds 28 1013 83 10000 2.6 70 15:44 17.03.2020
6335 Clouds 28 1013 83 10000 2.6 70 15:21 17.03.2020
6336 Clouds 29 1013 83 10000 2.6 70 14:44 17.03.2020
6337 Clouds 29 1013 83 10000 2.6 70 14:23 17.03.2020
6338 Clouds 27 1012 88 10000 2.1 60 13:46 17.03.2020
6339 Clouds 27 1012 88 10000 2.1 60 13:28 17.03.2020
6340 Clouds 27 1012 88 10000 2.1 60 12:59 17.03.2020
6341 Clouds 26 1011 100 10000 1 130 12:40 17.03.2020
6342 Clouds 26 1011 100 10000 1 130 12:22 17.03.2020
6343 Clouds 26 1011 100 10000 1 130 11:47 17.03.2020
6344 Clouds 26 1011 100 10000 1 150 11:29 17.03.2020
6345 Clouds 26 1012 88 10000 2.1 350 10:58 17.03.2020
6346 Clouds 26 1012 88 10000 2.1 350 10:38 17.03.2020
6347 Clouds 26 1012 88 10000 2.1 350 10:20 17.03.2020
6348 Clouds 26 1012 88 10000 1.5 300 09:59 17.03.2020
6349 Clouds 26 1012 88 10000 1.5 300 09:39 17.03.2020
6350 Clouds 26 1012 88 10000 1.5 300 09:19 17.03.2020
6351 Clouds 26 1012 83 10000 2.1 330 08:47 17.03.2020
6352 Clouds 26 1012 83 10000 2.1 330 08:22 17.03.2020
6353 Rain 26 1013 83 10000 2.1 10 07:50 17.03.2020
6354 Rain 26 1013 83 10000 2.1 10 07:26 17.03.2020
6355 Rain 26 1013 83 10000 2.1 10 06:58 17.03.2020
6356 Rain 26 1013 88 10000 2.1 300 06:33 17.03.2020
6357 Rain 26 1013 88 10000 2.1 300 05:49 17.03.2020
6358 Clouds 28 1012 74 10000 2.1 340 03:40 17.03.2020
6359 Clouds 28 1011 74 10000 1.5 340 02:45 17.03.2020
6360 Clouds 27 1010 83 10000 1.5 250 01:43 17.03.2020
6361 Clouds 27 1010 83 10000 1.5 250 01:24 17.03.2020
6362 Clouds 28 1009 79 10000 1.5 50 00:31 17.03.2020
6363 Rain 28 1009 79 10000 1.5 80 23:45 16.03.2020
6364 Rain 28 1009 79 10000 1.5 80 23:25 16.03.2020
6365 Rain 29 1008 70 10000 3.1 70 22:40 16.03.2020
6366 Rain 29 1008 70 10000 3.1 70 22:22 16.03.2020
6367 Thunderstorm 30 1008 70 10000 3.1 70 21:57 16.03.2020
6368 Thunderstorm 30 1008 70 10000 3.1 70 21:57 16.03.2020
6369 Thunderstorm 30 1008 70 10000 3.1 70 21:38 16.03.2020
6370 Rain 32 1008 70 10000 3.1 70 21:20 16.03.2020
6371 Rain 33 1008 66 10000 1.5 90 20:55 16.03.2020
6372 Rain 33 1008 66 10000 1.5 90 20:37 16.03.2020
6373 Rain 33 1008 66 10000 1.5 90 20:18 16.03.2020
6374 Rain 33 1008 66 10000 1.5 90 20:18 16.03.2020
6375 Clouds 32 1009 66 10000 2.1 100 19:40 16.03.2020
6376 Clouds 32 1009 66 10000 2.1 100 19:20 16.03.2020
6377 Clouds 32 1010 74 10000 1.5 80 18:41 16.03.2020
6378 Clouds 32 1010 74 10000 1.5 80 18:20 16.03.2020
6379 Clouds 32 1010 74 10000 1.5 80 17:47 16.03.2020
6380 Clouds 31 1012 70 10000 2.6 60 17:26 16.03.2020
6381 Clouds 31 1013 74 10000 3.1 50 16:59 16.03.2020
6382 Clouds 31 1013 74 10000 3.1 50 16:41 16.03.2020
6383 Clouds 31 1013 74 10000 3.1 50 16:22 16.03.2020
6384 Clouds 30 1013 79 10000 3.6 70 15:44 16.03.2020
6385 Clouds 30 1013 79 10000 3.6 70 15:25 16.03.2020
6386 Clouds 29 1013 88 10000 4.1 70 14:48 16.03.2020
6387 Clouds 29 1013 88 10000 4.1 70 14:25 16.03.2020
6388 Clouds 27 1012 94 10000 2.6 80 13:53 16.03.2020
6389 Clouds 27 1012 94 10000 2.6 80 13:30 16.03.2020
6390 Clouds 26 1011 100 10000 1 40 12:58 16.03.2020
6391 Clouds 26 1011 100 10000 1 40 12:40 16.03.2020
6392 Clouds 26 1011 100 10000 1 40 12:20 16.03.2020
6393 Clouds 25 1010 100 10000 1 70 11:45 16.03.2020
6394 Clouds 25 1010 100 10000 1 70 11:26 16.03.2020
6395 Clouds 25 1010 100 10000 1 80 10:47 16.03.2020
6396 Clouds 25 1010 100 10000 1 80 10:25 16.03.2020
6397 Clouds 26 1010 100 10000 1.5 70 09:59 16.03.2020
6398 Clouds 26 1010 100 10000 1.5 70 09:40 16.03.2020
6399 Clouds 26 1010 100 10000 1.5 70 09:20 16.03.2020
6400 Clouds 25 1010 100 10000 0.5 70 08:43 16.03.2020
6401 Clouds 25 1010 100 10000 0.5 70 08:23 16.03.2020
6402 Clouds 25 1010 100 10000 1 80 07:44 16.03.2020
6403 Clouds 25 1010 100 10000 1 80 07:21 16.03.2020
6404 Clouds 25 1010 100 10000 1 80 07:21 16.03.2020
6405 Clouds 25 1010 100 10000 1 80 06:46 16.03.2020
6406 Clouds 26 1011 94 10000 2.1 70 06:22 16.03.2020
6407 Clouds 27 1012 88 10000 2.6 80 04:26 16.03.2020
6408 Rain 28 1010 83 10000 2.1 50 01:47 16.03.2020
6409 Clouds 28 1009 83 10000 2.6 70 00:46 16.03.2020
6410 Clouds 28 1009 83 10000 2.6 70 00:27 16.03.2020
6411 Clouds 30 1009 74 10000 1.5 80 23:40 15.03.2020
6412 Clouds 30 1009 74 10000 1.5 80 23:19 15.03.2020
6413 Clouds 31 1008 74 10000 1 150 22:42 15.03.2020
6414 Clouds 31 1008 74 10000 1 150 22:21 15.03.2020
6415 Clouds 31 1009 70 10000 1 110 21:39 15.03.2020
6416 Clouds 31 1009 70 10000 1 110 21:21 15.03.2020
6417 Clouds 30 1010 74 10000 1 110 20:58 15.03.2020
6418 Clouds 30 1010 74 10000 1 110 20:40 15.03.2020
6419 Clouds 30 1010 74 10000 1 110 20:19 15.03.2020
6420 Clouds 30 1011 79 10000 1 120 19:55 15.03.2020
6421 Clouds 30 1011 79 10000 1 120 19:37 15.03.2020
6422 Clouds 30 1011 79 10000 1 120 19:18 15.03.2020
6423 Clouds 29 1011 74 10000 1.5 260 18:42 15.03.2020
6424 Clouds 29 1013 78 10000 1.5 150 18:24 15.03.2020
6425 Clouds 28 1013 78 10000 1.5 150 17:59 15.03.2020
6426 Clouds 29 1014 83 10000 2.1 80 17:39 15.03.2020
6427 Clouds 29 1014 83 10000 2.1 80 17:20 15.03.2020
6428 Clouds 28 1015 83 10000 1.5 90 16:55 15.03.2020
6429 Clouds 28 1015 83 10000 1.5 90 16:36 15.03.2020
6430 Clouds 28 1015 83 10000 1.5 90 16:18 15.03.2020
6431 Clouds 28 1015 83 10000 1.5 140 15:41 15.03.2020
6432 Clouds 28 1015 83 10000 1.5 140 15:20 15.03.2020
6433 Clouds 26 1015 94 10000 1 90 14:47 15.03.2020
6434 Clouds 26 1015 94 10000 1 90 14:26 15.03.2020
6435 Drizzle 24 1014 100 10000 0.5 170 13:59 15.03.2020
6436 Drizzle 24 1014 100 10000 0.5 170 13:39 15.03.2020
6437 Drizzle 24 1014 100 10000 0.5 170 13:21 15.03.2020
6438 Clouds 24 1013 100 10000 1.5 160 12:44 15.03.2020
6439 Clouds 24 1013 100 10000 1.5 160 12:26 15.03.2020
6440 Clouds 24 1013 100 10000 1.5 160 11:59 15.03.2020
6441 Clouds 24 1012 100 10000 1.5 160 11:40 15.03.2020
6442 Clouds 24 1012 100 10000 1.5 160 11:22 15.03.2020
6443 Clouds 24 1010 100 10000 2.6 70 10:56 15.03.2020
6444 Clouds 24 1010 100 10000 2.6 70 10:36 15.03.2020
6445 Clouds 24 1010 100 10000 2.6 70 10:18 15.03.2020
6446 Clouds 23 1010 100 10000 1.5 70 09:40 15.03.2020
6447 Clouds 23 1010 100 10000 1.5 70 09:21 15.03.2020
6448 Clouds 23 1011 100 10000 1.5 80 08:42 15.03.2020
6449 Clouds 23 1011 100 10000 1.5 80 08:21 15.03.2020
6450 Clouds 23 1011 100 10000 2.6 70 07:51 15.03.2020
6451 Clouds 23 1011 100 10000 2.6 70 07:31 15.03.2020
6452 Clouds 23 1011 100 10000 1.5 70 06:52 15.03.2020
6453 Clouds 23 1011 100 10000 1.5 70 05:50 15.03.2020
6454 Clouds 24 1012 100 10000 1.5 90 05:18 15.03.2020
6455 Clouds 24 1012 100 10000 1 80 04:43 15.03.2020
6456 Clouds 24 1012 100 10000 1 80 04:24 15.03.2020
6457 Clouds 24 1011 100 10000 1.5 80 03:38 15.03.2020
6458 Clouds 24 1011 100 10000 1 60 02:37 15.03.2020
6459 Clouds 24 1011 100 10000 1.5 160 01:34 15.03.2020
6460 Rain 24 1012 100 10000 1.5 190 00:45 15.03.2020
6461 Rain 24 1012 100 10000 1.5 190 00:22 15.03.2020
6462 Rain 24 1012 100 10000 1.5 190 23:42 14.03.2020
6463 Rain 24 1013 100 10000 1 180 23:22 14.03.2020
6464 Rain 24 1012 100 10000 2.1 190 22:58 14.03.2020
6465 Rain 24 1012 100 10000 2.1 190 22:40 14.03.2020
6466 Rain 24 1012 100 10000 2.1 190 22:22 14.03.2020
6467 Rain 24 1012 100 10000 4.1 250 21:56 14.03.2020
6468 Rain 24 1012 100 10000 4.1 250 21:36 14.03.2020
6469 Rain 24 1012 100 10000 4.1 250 21:18 14.03.2020
6470 Rain 25 1012 100 4000 4.1 250 20:58 14.03.2020
6471 Rain 25 1012 100 4000 4.1 250 20:39 14.03.2020
6472 Rain 25 1012 100 4000 4.1 250 20:19 14.03.2020
6473 Rain 25 1012 94 10000 2.1 300 19:42 14.03.2020
6474 Rain 25 1012 94 10000 2.1 300 19:42 14.03.2020
6475 Rain 25 1012 94 10000 2.1 300 19:24 14.03.2020
6476 Rain 24 1013 100 8000 3.6 300 18:41 14.03.2020
6477 Rain 24 1013 100 8000 3.6 300 18:22 14.03.2020
6478 Rain 24 1013 100 8000 3.6 300 17:56 14.03.2020
6479 Rain 24 1014 100 4000 5.1 310 17:37 14.03.2020
6480 Rain 24 1013 100 8000 3.6 280 17:19 14.03.2020
6481 Rain 25 1014 100 3000 2.6 320 16:40 14.03.2020
6482 Rain 25 1014 100 3000 2.6 320 16:22 14.03.2020
6483 Rain 24 1014 100 6000 3.6 280 15:54 14.03.2020
6484 Rain 24 1014 100 4000 1.5 30 15:26 14.03.2020
6485 Rain 24 1014 94 5000 2.1 230 14:47 14.03.2020
6486 Thunderstorm 24 1014 100 3000 1.5 360 14:24 14.03.2020
6487 Thunderstorm 24 1013 100 800 3.1 10 13:58 14.03.2020
6488 Thunderstorm 25 1013 100 700 5.1 30 13:39 14.03.2020
6489 Thunderstorm 25 1013 100 700 5.1 30 13:21 14.03.2020
6490 Clouds 27 1010 94 10000 2.1 200 12:46 14.03.2020
6491 Clouds 27 1010 94 10000 2.1 200 12:27 14.03.2020
6492 Clouds 27 1010 94 10000 2.1 200 11:56 14.03.2020
6493 Clouds 26 1009 94 10000 3.1 170 11:38 14.03.2020
6494 Clouds 27 1009 88 10000 2.6 140 11:19 14.03.2020
6495 Clouds 26 1010 83 10000 1.5 50 10:42 14.03.2020
6496 Clouds 26 1010 83 10000 1.5 50 10:42 14.03.2020
6497 Clouds 26 1010 83 10000 1.5 50 10:23 14.03.2020
6498 Clouds 26 1009 88 10000 0.5 80 09:47 14.03.2020
6499 Clouds 26 1009 88 10000 0.5 80 09:24 14.03.2020
6500 Clouds 26 1009 83 10000 1.5 60 08:54 14.03.2020
6501 Clouds 26 1009 83 10000 1.5 60 08:35 14.03.2020
6502 Rain 26 1010 88 10000 1 90 07:56 14.03.2020
6503 Rain 26 1010 88 10000 1 90 07:38 14.03.2020
6504 Rain 26 1010 88 10000 1 90 07:19 14.03.2020
6505 Rain 27 1010 83 10000 1.36 77 06:40 14.03.2020
6506 Rain 27 1010 83 10000 1 70 05:43 14.03.2020
6507 Rain 27 1011 83 10000 1 80 04:42 14.03.2020
6508 Rain 28 1011 78 10000 2.1 40 03:24 14.03.2020
6509 Thunderstorm 27 1010 78 10000 2.1 60 02:23 14.03.2020
6510 Clouds 29 1007 70 10000 2.6 30 00:57 14.03.2020
6511 Clouds 29 1007 70 10000 2.6 30 23:51 13.03.2020
6512 Clouds 29 1006 70 10000 3.1 50 23:30 13.03.2020
6513 Clouds 30 1006 74 10000 4.6 20 22:52 13.03.2020
6514 Clouds 30 1006 74 10000 4.6 20 22:26 13.03.2020
6515 Clouds 31 1006 66 10000 4.6 20 21:44 13.03.2020
6516 Clouds 31 1006 66 10000 4.6 20 21:22 13.03.2020
6517 Rain 31 1007 66 10000 2.6 70 20:59 13.03.2020
6518 Rain 31 1007 66 10000 2.6 70 20:41 13.03.2020
6519 Rain 31 1007 66 10000 2.6 70 20:21 13.03.2020
6520 Rain 33 1008 63 10000 2.1 90 19:48 13.03.2020
6521 Rain 33 1008 63 10000 2.1 90 19:30 13.03.2020
6522 Clouds 33 1010 67 10000 2.1 90 18:49 13.03.2020
6523 Clouds 33 1010 67 10000 2.1 90 18:31 13.03.2020
6524 Clouds 33 1010 67 10000 2.1 90 17:57 13.03.2020
6525 Clouds 33 1011 70 10000 2.1 100 17:39 13.03.2020
6526 Clouds 33 1011 70 10000 2.1 100 17:20 13.03.2020
6527 Clouds 33 1012 66 10000 3.6 70 16:42 13.03.2020
6528 Clouds 33 1012 66 10000 3.6 70 16:24 13.03.2020
6529 Clouds 32 1012 74 10000 4.1 60 15:58 13.03.2020
6530 Clouds 32 1012 74 10000 4.1 60 15:38 13.03.2020
6531 Clouds 32 1012 74 10000 4.1 60 15:20 13.03.2020
6532 Clouds 30 1012 83 10000 3.6 80 14:41 13.03.2020
6533 Clouds 30 1012 83 10000 3.6 80 14:22 13.03.2020
6534 Clouds 29 1011 83 10000 2.6 60 13:57 13.03.2020
6535 Clouds 29 1011 83 10000 2.6 60 13:39 13.03.2020
6536 Clouds 29 1011 83 10000 2.6 60 13:19 13.03.2020
6537 Clouds 27 1010 100 10000 1.5 80 12:54 13.03.2020
6538 Clouds 27 1010 100 10000 1.5 80 12:36 13.03.2020
6539 Clouds 27 1010 100 10000 1.5 80 12:18 13.03.2020
6540 Clouds 27 1010 100 10000 1.5 130 11:42 13.03.2020
6541 Clouds 27 1010 100 10000 1.5 130 11:24 13.03.2020
6542 Clouds 27 1009 100 10000 2.1 80 10:48 13.03.2020
6543 Clouds 27 1009 100 10000 2.1 80 10:28 13.03.2020
6544 Clouds 27 1008 94 10000 2.1 90 09:59 13.03.2020
6545 Clouds 27 1008 94 10000 2.1 90 09:41 13.03.2020
6546 Clouds 27 1008 94 10000 2.1 90 09:22 13.03.2020
6547 Clouds 27 1008 88 10000 1.5 70 08:45 13.03.2020
6548 Clouds 27 1008 88 10000 1.5 70 08:23 13.03.2020
6549 Clouds 28 1009 83 10000 2.1 120 07:50 13.03.2020
6550 Clouds 28 1009 83 10000 2.1 120 07:28 13.03.2020
6551 Clouds 28 1009 83 10000 2.1 120 06:53 13.03.2020
6552 Clouds 28 1009 88 10000 1.5 90 06:32 13.03.2020
6553 Clouds 28 1009 88 10000 1.5 90 05:54 13.03.2020
6554 Clouds 28 1009 83 10000 2.1 60 05:22 13.03.2020
6555 Clouds 29 1010 83 10000 2.1 80 04:38 13.03.2020
6556 Clouds 30 1010 83 10000 2.1 80 03:42 13.03.2020
6557 Clouds 30 1008 74 10000 2.6 80 01:47 13.03.2020
6558 Clouds 30 1007 83 10000 1 80 01:19 13.03.2020
6559 Clouds 30 1007 83 10000 0.5 60 00:53 13.03.2020
6560 Clouds 30 1007 83 10000 0.5 60 00:24 13.03.2020
6561 Clouds 32 1006 70 10000 1.5 70 23:50 12.03.2020
6562 Clouds 32 1006 70 10000 1.5 70 23:27 12.03.2020
6563 Clouds 33 1006 59 10000 2.6 80 22:56 12.03.2020
6564 Clouds 33 1006 59 10000 2.6 80 22:38 12.03.2020
6565 Clouds 33 1006 59 10000 2.6 80 22:20 12.03.2020
6566 Clouds 34 1006 59 10000 3.1 80 21:43 12.03.2020
6567 Clouds 34 1006 59 10000 3.1 80 21:25 12.03.2020
6568 Clouds 32 1007 63 10000 2.1 70 20:57 12.03.2020
6569 Clouds 32 1007 63 10000 2.1 70 20:37 12.03.2020
6570 Clouds 32 1007 63 10000 2.1 70 20:37 12.03.2020
6571 Clouds 32 1007 63 10000 2.1 70 20:18 12.03.2020
6572 Rain 33 1008 63 10000 2.1 90 19:39 12.03.2020
6573 Rain 33 1008 63 10000 2.1 90 19:20 12.03.2020
6574 Clouds 34 1010 59 10000 3.6 70 18:43 12.03.2020
6575 Clouds 34 1010 59 10000 3.6 70 18:24 12.03.2020
6576 Clouds 33 1009 56 10000 2.1 350 17:57 12.03.2020
6577 Clouds 32 1010 66 10000 4.6 70 17:38 12.03.2020
6578 Clouds 32 1010 66 10000 4.6 70 17:19 12.03.2020
6579 Clouds 32 1010 66 10000 4.6 70 16:54 12.03.2020
6580 Clouds 32 1011 66 10000 3.6 70 16:36 12.03.2020
6581 Clouds 32 1011 66 10000 3.6 70 16:18 12.03.2020
6582 Clouds 31 1011 74 10000 4.1 80 15:43 12.03.2020
6583 Clouds 31 1011 74 10000 4.1 80 15:24 12.03.2020
6584 Clouds 30 1011 79 10000 2.6 80 14:39 12.03.2020
6585 Clouds 30 1011 79 10000 2.6 80 14:19 12.03.2020
6586 Clouds 29 1010 94 10000 1.5 70 13:41 12.03.2020
6587 Clouds 29 1010 94 10000 1.5 70 13:22 12.03.2020
6588 Clouds 27 1010 100 10000 1 50 12:56 12.03.2020
6589 Clouds 27 1010 100 10000 1 50 12:38 12.03.2020
6590 Clouds 27 1010 100 10000 1 50 12:19 12.03.2020
6591 Clouds 26 1010 100 10000 1 50 11:56 12.03.2020
6592 Clouds 26 1009 100 10000 1 290 11:37 12.03.2020
6593 Clouds 26 1009 100 10000 1 290 11:19 12.03.2020
6594 Clouds 26 1009 100 10000 1 290 11:19 12.03.2020
6595 Clouds 27 1010 83 10000 1 250 10:57 12.03.2020
6596 Clouds 27 1010 83 10000 1 250 10:57 12.03.2020
6597 Clouds 27 1010 83 10000 1 250 10:39 12.03.2020
6598 Clouds 27 1010 83 10000 1 250 10:21 12.03.2020
6599 Clouds 26 1009 88 10000 1.5 210 09:43 12.03.2020
6600 Clouds 26 1009 88 10000 1.5 210 09:43 12.03.2020
6601 Clouds 26 1009 88 10000 1.5 210 09:25 12.03.2020
6602 Clouds 27 1009 88 10000 1.5 70 08:41 12.03.2020
6603 Clouds 27 1009 88 10000 1.5 70 08:20 12.03.2020
6604 Clouds 27 1009 94 10000 1 90 07:53 12.03.2020
6605 Clouds 28 1010 88 10000 1.5 250 07:23 12.03.2020
6606 Clouds 28 1010 88 10000 1.5 250 06:52 12.03.2020
6607 Clouds 28 1010 88 10000 1 80 05:41 12.03.2020
6608 Rain 28 1010 88 10000 1 40 04:29 12.03.2020
6609 Rain 30 1009 79 10000 1.5 80 02:36 12.03.2020
6610 Clouds 31 1008 70 10000 2.1 80 01:30 12.03.2020
6611 Clouds 31 1007 74 10000 1 70 00:43 12.03.2020
6612 Clouds 31 1007 74 10000 1 70 00:24 12.03.2020
6613 Clouds 31 1007 70 10000 1 80 23:42 11.03.2020
6614 Clouds 31 1007 70 10000 1 80 23:23 11.03.2020
6615 Clouds 32 1006 70 10000 1.5 80 22:45 11.03.2020
6616 Clouds 32 1006 70 10000 1.5 80 22:27 11.03.2020
6617 Clouds 33 1006 62 10000 2.6 80 21:59 11.03.2020
6618 Clouds 33 1006 62 10000 2.6 80 21:41 11.03.2020
6619 Clouds 33 1006 62 10000 2.6 80 21:41 11.03.2020
6620 Clouds 33 1006 62 10000 2.6 80 21:22 11.03.2020
6621 Clouds 34 1007 59 10000 2.1 70 20:58 11.03.2020
6622 Clouds 34 1007 59 10000 2.1 70 20:39 11.03.2020
6623 Clouds 34 1007 59 10000 2.1 70 20:19 11.03.2020
6624 Clouds 33 1008 59 10000 2.6 70 19:43 11.03.2020
6625 Clouds 33 1008 59 10000 2.6 70 19:25 11.03.2020
6626 Clouds 33 1008 52 10000 1.5 270 18:58 11.03.2020
6627 Clouds 33 1010 62 10000 2.6 90 18:38 11.03.2020
6628 Clouds 33 1010 62 10000 2.6 90 18:20 11.03.2020
6629 Clouds 33 1010 62 10000 2.6 90 17:56 11.03.2020
6630 Clouds 32 1011 70 10000 3.1 80 17:37 11.03.2020
6631 Clouds 32 1011 70 10000 3.1 80 17:19 11.03.2020
6632 Clouds 31 1012 74 10000 2.6 70 16:45 11.03.2020
6633 Clouds 31 1012 74 10000 2.6 70 16:20 11.03.2020
6634 Clouds 31 1012 70 10000 3.1 50 15:44 11.03.2020
6635 Clouds 31 1012 70 10000 3.1 50 15:23 11.03.2020
6636 Clouds 29 1012 83 10000 1.5 70 14:56 11.03.2020
6637 Clouds 29 1012 83 10000 1.5 70 14:38 11.03.2020
6638 Clouds 29 1012 83 10000 1.5 70 14:19 11.03.2020
6639 Clouds 28 1012 88 10000 1 90 13:44 11.03.2020
6640 Clouds 28 1012 88 10000 1 90 13:25 11.03.2020
6641 Clouds 26 1011 100 10000 1 80 12:57 11.03.2020
6642 Clouds 26 1011 100 10000 1 80 12:39 11.03.2020
6643 Clouds 26 1011 100 10000 1 80 12:19 11.03.2020
6644 Clouds 26 1010 100 10000 1.16 126 11:41 11.03.2020
6645 Clouds 26 1010 100 10000 1.16 126 11:22 11.03.2020
6646 Clouds 26 1010 100 10000 0.5 100 10:49 11.03.2020
6647 Clouds 26 1010 100 10000 0.5 100 10:21 11.03.2020
6648 Clouds 26 1010 100 10000 6.7 160 10:00 11.03.2020
6649 Clouds 26 1010 100 10000 6.7 160 09:41 11.03.2020
6650 Clouds 26 1010 100 10000 6.7 160 09:22 11.03.2020
6651 Clouds 26 1010 100 10000 6.7 160 09:22 11.03.2020
6652 Clouds 26 1010 100 10000 1 180 08:44 11.03.2020
6653 Clouds 26 1010 100 10000 1 180 08:26 11.03.2020
6654 Clouds 27 1010 94 10000 1 190 07:48 11.03.2020
6655 Clouds 27 1010 94 10000 1 190 07:22 11.03.2020
6656 Clouds 26 1011 100 10000 1.1 129 06:53 11.03.2020
6657 Clouds 26 1011 100 10000 1.1 129 06:33 11.03.2020
6658 Clouds 26 1012 100 10000 1 70 05:33 11.03.2020
6659 Clouds 28 1012 94 10000 1.5 80 03:26 11.03.2020
6660 Clouds 28 1010 83 10000 3.6 80 01:54 11.03.2020
6661 Clouds 28 1010 83 10000 3.6 80 01:24 11.03.2020
6662 Clouds 29 1010 79 10000 2.6 70 00:40 11.03.2020
6663 Clouds 29 1010 79 10000 2.6 70 23:50 10.03.2020
6664 Clouds 30 1009 74 10000 2.1 80 23:28 10.03.2020
6665 Clouds 30 1009 74 10000 2.6 80 22:58 10.03.2020
6666 Clouds 30 1009 74 10000 2.6 80 22:37 10.03.2020
6667 Clouds 30 1009 74 10000 2.6 80 22:19 10.03.2020
6668 Clouds 32 1009 62 10000 2.6 60 21:56 10.03.2020
6669 Clouds 32 1009 62 10000 2.6 60 21:38 10.03.2020
6670 Clouds 32 1009 62 10000 2.6 60 21:19 10.03.2020
6671 Clouds 33 1010 59 10000 3.6 40 20:43 10.03.2020
6672 Clouds 33 1010 59 10000 3.6 40 20:21 10.03.2020
6673 Clouds 32 1011 70 10000 2.6 60 19:59 10.03.2020
6674 Clouds 32 1011 70 10000 2.6 60 19:41 10.03.2020
6675 Clouds 32 1011 70 10000 2.6 60 19:23 10.03.2020
6676 Clouds 31 1012 66 10000 3.1 30 18:58 10.03.2020
6677 Clouds 31 1012 66 10000 3.1 30 18:40 10.03.2020
6678 Clouds 31 1012 66 10000 3.1 30 18:21 10.03.2020
6679 Clouds 31<